<?xml version="1.0" encoding="UTF-8" standalone="no" ?>
<gpx xmlns="http://www.topografix.com/GPX/1/1" xmlns:xsi="http://www.w3.org/2001/XMLSchema-instance" xsi:schemaLocation="http://www.topografix.com/GPX/1/1 http://www.topografix.com/GPX/1/1/gpx.xsd" version="1.1" creator="VisuGPX - https://www.visugpx.com">
  <metadata>
    <name>Thezillieu journée,2</name>
    <desc><![CDATA[Au départ du gîte de Genevray.
Sans difficulté]]></desc>
  </metadata>
  <trk>
    <name><![CDATA[SityTrail - vs Thezillieu 2]]></name>
    <trkseg>
      <trkpt lat="45.88707" lon="5.58807">
        <ele>831</ele>
        <time>2021-09-05T08:51:43.679Z</time>
      </trkpt>
      <trkpt lat="45.88707" lon="5.58804">
        <ele>831</ele>
        <time>2021-09-05T08:51:48.810Z</time>
      </trkpt>
      <trkpt lat="45.88707" lon="5.58803">
        <ele>831</ele>
        <time>2021-09-05T08:51:52.833Z</time>
      </trkpt>
      <trkpt lat="45.88706" lon="5.58803">
        <ele>831</ele>
        <time>2021-09-05T08:51:57.816Z</time>
      </trkpt>
      <trkpt lat="45.88704" lon="5.58802">
        <ele>831</ele>
        <time>2021-09-05T08:52:01.872Z</time>
      </trkpt>
      <trkpt lat="45.88699" lon="5.58801">
        <ele>831</ele>
        <time>2021-09-05T08:52:06.818Z</time>
      </trkpt>
      <trkpt lat="45.88703" lon="5.58805">
        <ele>831</ele>
        <time>2021-09-05T08:52:16.802Z</time>
      </trkpt>
      <trkpt lat="45.88703" lon="5.58805">
        <ele>831</ele>
        <time>2021-09-05T08:52:20.841Z</time>
      </trkpt>
      <trkpt lat="45.88704" lon="5.58807">
        <ele>831</ele>
        <time>2021-09-05T08:52:25.849Z</time>
      </trkpt>
      <trkpt lat="45.88708" lon="5.5881">
        <ele>831</ele>
        <time>2021-09-05T08:52:30.837Z</time>
      </trkpt>
      <trkpt lat="45.88712" lon="5.58808">
        <ele>831</ele>
        <time>2021-09-05T08:52:34.840Z</time>
      </trkpt>
      <trkpt lat="45.88711" lon="5.58802">
        <ele>831</ele>
        <time>2021-09-05T09:02:57.844Z</time>
      </trkpt>
      <trkpt lat="45.88712" lon="5.58806">
        <ele>831</ele>
        <time>2021-09-05T09:03:02.841Z</time>
      </trkpt>
      <trkpt lat="45.88712" lon="5.58811">
        <ele>831</ele>
        <time>2021-09-05T09:03:06.845Z</time>
      </trkpt>
      <trkpt lat="45.88715" lon="5.58817">
        <ele>831</ele>
        <time>2021-09-05T09:03:10.883Z</time>
      </trkpt>
      <trkpt lat="45.88718" lon="5.58823">
        <ele>832</ele>
        <time>2021-09-05T09:03:15.905Z</time>
      </trkpt>
      <trkpt lat="45.88718" lon="5.58821">
        <ele>832</ele>
        <time>2021-09-05T09:03:20.842Z</time>
      </trkpt>
      <trkpt lat="45.88719" lon="5.58825">
        <ele>832</ele>
        <time>2021-09-05T09:03:24.896Z</time>
      </trkpt>
      <trkpt lat="45.88721" lon="5.58834">
        <ele>832</ele>
        <time>2021-09-05T09:03:29.818Z</time>
      </trkpt>
      <trkpt lat="45.88723" lon="5.58841">
        <ele>832</ele>
        <time>2021-09-05T09:03:34.853Z</time>
      </trkpt>
      <trkpt lat="45.88726" lon="5.58848">
        <ele>833</ele>
        <time>2021-09-05T09:03:39.812Z</time>
      </trkpt>
      <trkpt lat="45.88727" lon="5.58854">
        <ele>833</ele>
        <time>2021-09-05T09:03:43.839Z</time>
      </trkpt>
      <trkpt lat="45.88728" lon="5.5886">
        <ele>833</ele>
        <time>2021-09-05T09:03:47.865Z</time>
      </trkpt>
      <trkpt lat="45.88731" lon="5.58867">
        <ele>833</ele>
        <time>2021-09-05T09:03:52.843Z</time>
      </trkpt>
      <trkpt lat="45.88732" lon="5.58873">
        <ele>833</ele>
        <time>2021-09-05T09:03:56.845Z</time>
      </trkpt>
      <trkpt lat="45.88734" lon="5.58881">
        <ele>833</ele>
        <time>2021-09-05T09:04:01.839Z</time>
      </trkpt>
      <trkpt lat="45.88737" lon="5.58889">
        <ele>836</ele>
        <time>2021-09-05T09:04:06.842Z</time>
      </trkpt>
      <trkpt lat="45.88741" lon="5.58896">
        <ele>836</ele>
        <time>2021-09-05T09:04:11.846Z</time>
      </trkpt>
      <trkpt lat="45.88745" lon="5.58902">
        <ele>836</ele>
        <time>2021-09-05T09:04:16.846Z</time>
      </trkpt>
      <trkpt lat="45.8875" lon="5.58907">
        <ele>834</ele>
        <time>2021-09-05T09:04:21.834Z</time>
      </trkpt>
      <trkpt lat="45.88754" lon="5.58909">
        <ele>834</ele>
        <time>2021-09-05T09:04:25.868Z</time>
      </trkpt>
      <trkpt lat="45.8876" lon="5.5891">
        <ele>834</ele>
        <time>2021-09-05T09:04:30.833Z</time>
      </trkpt>
      <trkpt lat="45.88764" lon="5.58912">
        <ele>835</ele>
        <time>2021-09-05T09:04:34.841Z</time>
      </trkpt>
      <trkpt lat="45.88769" lon="5.58912">
        <ele>835</ele>
        <time>2021-09-05T09:04:38.866Z</time>
      </trkpt>
      <trkpt lat="45.88775" lon="5.58913">
        <ele>835</ele>
        <time>2021-09-05T09:04:43.835Z</time>
      </trkpt>
      <trkpt lat="45.8878" lon="5.58913">
        <ele>835</ele>
        <time>2021-09-05T09:04:47.839Z</time>
      </trkpt>
      <trkpt lat="45.88785" lon="5.58913">
        <ele>835</ele>
        <time>2021-09-05T09:04:51.838Z</time>
      </trkpt>
      <trkpt lat="45.88791" lon="5.58912">
        <ele>835</ele>
        <time>2021-09-05T09:04:56.826Z</time>
      </trkpt>
      <trkpt lat="45.88796" lon="5.58912">
        <ele>834</ele>
        <time>2021-09-05T09:05:00.845Z</time>
      </trkpt>
      <trkpt lat="45.88802" lon="5.58912">
        <ele>834</ele>
        <time>2021-09-05T09:05:05.841Z</time>
      </trkpt>
      <trkpt lat="45.88809" lon="5.5891">
        <ele>834</ele>
        <time>2021-09-05T09:05:10.887Z</time>
      </trkpt>
      <trkpt lat="45.88815" lon="5.5891">
        <ele>834</ele>
        <time>2021-09-05T09:05:15.846Z</time>
      </trkpt>
      <trkpt lat="45.88822" lon="5.58908">
        <ele>835</ele>
        <time>2021-09-05T09:05:20.831Z</time>
      </trkpt>
      <trkpt lat="45.88829" lon="5.58908">
        <ele>835</ele>
        <time>2021-09-05T09:05:25.830Z</time>
      </trkpt>
      <trkpt lat="45.88835" lon="5.58908">
        <ele>835</ele>
        <time>2021-09-05T09:05:30.814Z</time>
      </trkpt>
      <trkpt lat="45.8884" lon="5.58908">
        <ele>835</ele>
        <time>2021-09-05T09:05:34.841Z</time>
      </trkpt>
      <trkpt lat="45.88846" lon="5.5891">
        <ele>835</ele>
        <time>2021-09-05T09:05:39.811Z</time>
      </trkpt>
      <trkpt lat="45.88851" lon="5.58911">
        <ele>836</ele>
        <time>2021-09-05T09:05:43.843Z</time>
      </trkpt>
      <trkpt lat="45.88856" lon="5.58914">
        <ele>836</ele>
        <time>2021-09-05T09:05:47.877Z</time>
      </trkpt>
      <trkpt lat="45.88862" lon="5.58916">
        <ele>836</ele>
        <time>2021-09-05T09:05:52.864Z</time>
      </trkpt>
      <trkpt lat="45.88867" lon="5.58919">
        <ele>836</ele>
        <time>2021-09-05T09:05:57.866Z</time>
      </trkpt>
      <trkpt lat="45.88873" lon="5.58922">
        <ele>836</ele>
        <time>2021-09-05T09:06:02.847Z</time>
      </trkpt>
      <trkpt lat="45.88878" lon="5.58925">
        <ele>838</ele>
        <time>2021-09-05T09:06:07.841Z</time>
      </trkpt>
      <trkpt lat="45.88884" lon="5.58927">
        <ele>838</ele>
        <time>2021-09-05T09:06:12.881Z</time>
      </trkpt>
      <trkpt lat="45.8889" lon="5.58931">
        <ele>838</ele>
        <time>2021-09-05T09:06:17.886Z</time>
      </trkpt>
      <trkpt lat="45.88896" lon="5.58933">
        <ele>839</ele>
        <time>2021-09-05T09:06:22.878Z</time>
      </trkpt>
      <trkpt lat="45.88902" lon="5.58936">
        <ele>839</ele>
        <time>2021-09-05T09:06:27.848Z</time>
      </trkpt>
      <trkpt lat="45.88908" lon="5.58937">
        <ele>840</ele>
        <time>2021-09-05T09:06:32.867Z</time>
      </trkpt>
      <trkpt lat="45.88914" lon="5.58938">
        <ele>840</ele>
        <time>2021-09-05T09:06:37.849Z</time>
      </trkpt>
      <trkpt lat="45.8892" lon="5.58938">
        <ele>840</ele>
        <time>2021-09-05T09:06:42.842Z</time>
      </trkpt>
      <trkpt lat="45.88925" lon="5.58938">
        <ele>840</ele>
        <time>2021-09-05T09:06:46.847Z</time>
      </trkpt>
      <trkpt lat="45.8893" lon="5.58938">
        <ele>840</ele>
        <time>2021-09-05T09:06:51.872Z</time>
      </trkpt>
      <trkpt lat="45.88936" lon="5.58938">
        <ele>841</ele>
        <time>2021-09-05T09:06:56.837Z</time>
      </trkpt>
      <trkpt lat="45.88942" lon="5.58938">
        <ele>841</ele>
        <time>2021-09-05T09:07:01.837Z</time>
      </trkpt>
      <trkpt lat="45.88947" lon="5.58937">
        <ele>841</ele>
        <time>2021-09-05T09:07:05.840Z</time>
      </trkpt>
      <trkpt lat="45.88951" lon="5.58933">
        <ele>841</ele>
        <time>2021-09-05T09:07:09.865Z</time>
      </trkpt>
      <trkpt lat="45.88955" lon="5.58927">
        <ele>842</ele>
        <time>2021-09-05T09:07:14.837Z</time>
      </trkpt>
      <trkpt lat="45.88959" lon="5.58922">
        <ele>843</ele>
        <time>2021-09-05T09:07:18.863Z</time>
      </trkpt>
      <trkpt lat="45.88964" lon="5.58917">
        <ele>843</ele>
        <time>2021-09-05T09:07:23.839Z</time>
      </trkpt>
      <trkpt lat="45.88967" lon="5.58911">
        <ele>843</ele>
        <time>2021-09-05T09:07:27.870Z</time>
      </trkpt>
      <trkpt lat="45.8897" lon="5.58904">
        <ele>843</ele>
        <time>2021-09-05T09:07:32.865Z</time>
      </trkpt>
      <trkpt lat="45.88972" lon="5.58896">
        <ele>844</ele>
        <time>2021-09-05T09:07:37.835Z</time>
      </trkpt>
      <trkpt lat="45.88976" lon="5.5889">
        <ele>844</ele>
        <time>2021-09-05T09:07:42.843Z</time>
      </trkpt>
      <trkpt lat="45.88976" lon="5.58883">
        <ele>844</ele>
        <time>2021-09-05T09:07:46.868Z</time>
      </trkpt>
      <trkpt lat="45.88975" lon="5.58877">
        <ele>844</ele>
        <time>2021-09-05T09:07:50.876Z</time>
      </trkpt>
      <trkpt lat="45.88972" lon="5.58869">
        <ele>845</ele>
        <time>2021-09-05T09:07:55.843Z</time>
      </trkpt>
      <trkpt lat="45.88971" lon="5.58868">
        <ele>845</ele>
        <time>2021-09-05T09:10:20.867Z</time>
      </trkpt>
      <trkpt lat="45.88971" lon="5.58868">
        <ele>845</ele>
        <time>2021-09-05T09:10:25.836Z</time>
      </trkpt>
      <trkpt lat="45.88972" lon="5.58871">
        <ele>845</ele>
        <time>2021-09-05T09:10:29.866Z</time>
      </trkpt>
      <trkpt lat="45.88974" lon="5.58875">
        <ele>845</ele>
        <time>2021-09-05T09:10:33.919Z</time>
      </trkpt>
      <trkpt lat="45.88976" lon="5.58881">
        <ele>844</ele>
        <time>2021-09-05T09:10:38.844Z</time>
      </trkpt>
      <trkpt lat="45.88977" lon="5.58886">
        <ele>844</ele>
        <time>2021-09-05T09:10:42.847Z</time>
      </trkpt>
      <trkpt lat="45.88975" lon="5.58893">
        <ele>844</ele>
        <time>2021-09-05T09:10:47.845Z</time>
      </trkpt>
      <trkpt lat="45.88973" lon="5.589">
        <ele>844</ele>
        <time>2021-09-05T09:10:52.882Z</time>
      </trkpt>
      <trkpt lat="45.8897" lon="5.58907">
        <ele>843</ele>
        <time>2021-09-05T09:10:57.868Z</time>
      </trkpt>
      <trkpt lat="45.88967" lon="5.58912">
        <ele>843</ele>
        <time>2021-09-05T09:11:01.876Z</time>
      </trkpt>
      <trkpt lat="45.88962" lon="5.58918">
        <ele>843</ele>
        <time>2021-09-05T09:11:06.845Z</time>
      </trkpt>
      <trkpt lat="45.88958" lon="5.58922">
        <ele>842</ele>
        <time>2021-09-05T09:11:10.877Z</time>
      </trkpt>
      <trkpt lat="45.88954" lon="5.58926">
        <ele>842</ele>
        <time>2021-09-05T09:11:14.888Z</time>
      </trkpt>
      <trkpt lat="45.88949" lon="5.58931">
        <ele>841</ele>
        <time>2021-09-05T09:11:19.871Z</time>
      </trkpt>
      <trkpt lat="45.88945" lon="5.58936">
        <ele>841</ele>
        <time>2021-09-05T09:11:24.865Z</time>
      </trkpt>
      <trkpt lat="45.88943" lon="5.58942">
        <ele>841</ele>
        <time>2021-09-05T09:11:28.867Z</time>
      </trkpt>
      <trkpt lat="45.8894" lon="5.5895">
        <ele>841</ele>
        <time>2021-09-05T09:11:33.849Z</time>
      </trkpt>
      <trkpt lat="45.88938" lon="5.58958">
        <ele>841</ele>
        <time>2021-09-05T09:11:38.837Z</time>
      </trkpt>
      <trkpt lat="45.88937" lon="5.58966">
        <ele>840</ele>
        <time>2021-09-05T09:11:43.839Z</time>
      </trkpt>
      <trkpt lat="45.88935" lon="5.58976">
        <ele>840</ele>
        <time>2021-09-05T09:11:48.885Z</time>
      </trkpt>
      <trkpt lat="45.88933" lon="5.58984">
        <ele>840</ele>
        <time>2021-09-05T09:11:53.871Z</time>
      </trkpt>
      <trkpt lat="45.88931" lon="5.58991">
        <ele>840</ele>
        <time>2021-09-05T09:11:57.886Z</time>
      </trkpt>
      <trkpt lat="45.88929" lon="5.59">
        <ele>839</ele>
        <time>2021-09-05T09:12:02.865Z</time>
      </trkpt>
      <trkpt lat="45.88926" lon="5.59008">
        <ele>839</ele>
        <time>2021-09-05T09:12:07.853Z</time>
      </trkpt>
      <trkpt lat="45.88925" lon="5.59017">
        <ele>839</ele>
        <time>2021-09-05T09:12:12.840Z</time>
      </trkpt>
      <trkpt lat="45.88923" lon="5.59026">
        <ele>839</ele>
        <time>2021-09-05T09:12:17.878Z</time>
      </trkpt>
      <trkpt lat="45.88919" lon="5.59031">
        <ele>839</ele>
        <time>2021-09-05T09:12:21.873Z</time>
      </trkpt>
      <trkpt lat="45.88913" lon="5.59036">
        <ele>839</ele>
        <time>2021-09-05T09:12:26.837Z</time>
      </trkpt>
      <trkpt lat="45.88911" lon="5.59042">
        <ele>840</ele>
        <time>2021-09-05T09:12:30.828Z</time>
      </trkpt>
      <trkpt lat="45.88908" lon="5.59051">
        <ele>840</ele>
        <time>2021-09-05T09:12:35.843Z</time>
      </trkpt>
      <trkpt lat="45.88907" lon="5.5906">
        <ele>840</ele>
        <time>2021-09-05T09:12:40.845Z</time>
      </trkpt>
      <trkpt lat="45.88904" lon="5.59069">
        <ele>840</ele>
        <time>2021-09-05T09:12:45.840Z</time>
      </trkpt>
      <trkpt lat="45.88901" lon="5.59076">
        <ele>839</ele>
        <time>2021-09-05T09:12:49.867Z</time>
      </trkpt>
      <trkpt lat="45.88898" lon="5.59085">
        <ele>839</ele>
        <time>2021-09-05T09:12:54.865Z</time>
      </trkpt>
      <trkpt lat="45.88894" lon="5.59095">
        <ele>839</ele>
        <time>2021-09-05T09:12:59.834Z</time>
      </trkpt>
      <trkpt lat="45.88892" lon="5.59102">
        <ele>840</ele>
        <time>2021-09-05T09:13:03.839Z</time>
      </trkpt>
      <trkpt lat="45.88889" lon="5.59109">
        <ele>840</ele>
        <time>2021-09-05T09:13:07.847Z</time>
      </trkpt>
      <trkpt lat="45.88886" lon="5.59117">
        <ele>840</ele>
        <time>2021-09-05T09:13:12.883Z</time>
      </trkpt>
      <trkpt lat="45.88883" lon="5.59126">
        <ele>840</ele>
        <time>2021-09-05T09:13:17.843Z</time>
      </trkpt>
      <trkpt lat="45.88879" lon="5.59133">
        <ele>840</ele>
        <time>2021-09-05T09:13:22.835Z</time>
      </trkpt>
      <trkpt lat="45.88877" lon="5.59138">
        <ele>840</ele>
        <time>2021-09-05T09:13:26.842Z</time>
      </trkpt>
      <trkpt lat="45.88874" lon="5.59144">
        <ele>841</ele>
        <time>2021-09-05T09:13:30.870Z</time>
      </trkpt>
      <trkpt lat="45.8887" lon="5.59151">
        <ele>841</ele>
        <time>2021-09-05T09:13:35.875Z</time>
      </trkpt>
      <trkpt lat="45.88865" lon="5.59156">
        <ele>842</ele>
        <time>2021-09-05T09:13:40.808Z</time>
      </trkpt>
      <trkpt lat="45.88861" lon="5.59161">
        <ele>842</ele>
        <time>2021-09-05T09:13:44.843Z</time>
      </trkpt>
      <trkpt lat="45.88855" lon="5.59167">
        <ele>842</ele>
        <time>2021-09-05T09:13:49.846Z</time>
      </trkpt>
      <trkpt lat="45.88851" lon="5.59171">
        <ele>842</ele>
        <time>2021-09-05T09:13:53.862Z</time>
      </trkpt>
      <trkpt lat="45.88847" lon="5.59174">
        <ele>841</ele>
        <time>2021-09-05T09:13:57.883Z</time>
      </trkpt>
      <trkpt lat="45.88843" lon="5.5918">
        <ele>841</ele>
        <time>2021-09-05T09:14:02.832Z</time>
      </trkpt>
      <trkpt lat="45.8884" lon="5.59186">
        <ele>842</ele>
        <time>2021-09-05T09:14:06.886Z</time>
      </trkpt>
      <trkpt lat="45.88837" lon="5.59193">
        <ele>842</ele>
        <time>2021-09-05T09:14:11.848Z</time>
      </trkpt>
      <trkpt lat="45.88834" lon="5.592">
        <ele>842</ele>
        <time>2021-09-05T09:14:16.826Z</time>
      </trkpt>
      <trkpt lat="45.8883" lon="5.59206">
        <ele>842</ele>
        <time>2021-09-05T09:14:20.870Z</time>
      </trkpt>
      <trkpt lat="45.88825" lon="5.59211">
        <ele>842</ele>
        <time>2021-09-05T09:14:25.846Z</time>
      </trkpt>
      <trkpt lat="45.88822" lon="5.59219">
        <ele>842</ele>
        <time>2021-09-05T09:14:30.841Z</time>
      </trkpt>
      <trkpt lat="45.88818" lon="5.59228">
        <ele>842</ele>
        <time>2021-09-05T09:14:35.831Z</time>
      </trkpt>
      <trkpt lat="45.88815" lon="5.59234">
        <ele>842</ele>
        <time>2021-09-05T09:14:39.870Z</time>
      </trkpt>
      <trkpt lat="45.88811" lon="5.59242">
        <ele>841</ele>
        <time>2021-09-05T09:14:44.860Z</time>
      </trkpt>
      <trkpt lat="45.88808" lon="5.5925">
        <ele>841</ele>
        <time>2021-09-05T09:14:49.839Z</time>
      </trkpt>
      <trkpt lat="45.88805" lon="5.59256">
        <ele>841</ele>
        <time>2021-09-05T09:14:53.846Z</time>
      </trkpt>
      <trkpt lat="45.88802" lon="5.59262">
        <ele>841</ele>
        <time>2021-09-05T09:14:57.871Z</time>
      </trkpt>
      <trkpt lat="45.88798" lon="5.59269">
        <ele>840</ele>
        <time>2021-09-05T09:15:02.845Z</time>
      </trkpt>
      <trkpt lat="45.88795" lon="5.59275">
        <ele>840</ele>
        <time>2021-09-05T09:15:06.871Z</time>
      </trkpt>
      <trkpt lat="45.88791" lon="5.59283">
        <ele>839</ele>
        <time>2021-09-05T09:15:11.867Z</time>
      </trkpt>
      <trkpt lat="45.88788" lon="5.59291">
        <ele>839</ele>
        <time>2021-09-05T09:15:16.874Z</time>
      </trkpt>
      <trkpt lat="45.88785" lon="5.59295">
        <ele>840</ele>
        <time>2021-09-05T09:15:20.875Z</time>
      </trkpt>
      <trkpt lat="45.8878" lon="5.59301">
        <ele>840</ele>
        <time>2021-09-05T09:15:25.833Z</time>
      </trkpt>
      <trkpt lat="45.88776" lon="5.59307">
        <ele>840</ele>
        <time>2021-09-05T09:15:30.839Z</time>
      </trkpt>
      <trkpt lat="45.8877" lon="5.59314">
        <ele>840</ele>
        <time>2021-09-05T09:15:35.875Z</time>
      </trkpt>
      <trkpt lat="45.88766" lon="5.59321">
        <ele>840</ele>
        <time>2021-09-05T09:15:40.803Z</time>
      </trkpt>
      <trkpt lat="45.88762" lon="5.59327">
        <ele>841</ele>
        <time>2021-09-05T09:15:44.844Z</time>
      </trkpt>
      <trkpt lat="45.88757" lon="5.59333">
        <ele>841</ele>
        <time>2021-09-05T09:15:49.833Z</time>
      </trkpt>
      <trkpt lat="45.88755" lon="5.59339">
        <ele>841</ele>
        <time>2021-09-05T09:15:53.846Z</time>
      </trkpt>
      <trkpt lat="45.88753" lon="5.59345">
        <ele>841</ele>
        <time>2021-09-05T09:15:57.847Z</time>
      </trkpt>
      <trkpt lat="45.88751" lon="5.59351">
        <ele>841</ele>
        <time>2021-09-05T09:16:02.838Z</time>
      </trkpt>
      <trkpt lat="45.88746" lon="5.59358">
        <ele>841</ele>
        <time>2021-09-05T09:16:07.844Z</time>
      </trkpt>
      <trkpt lat="45.88741" lon="5.59362">
        <ele>841</ele>
        <time>2021-09-05T09:16:11.856Z</time>
      </trkpt>
      <trkpt lat="45.88736" lon="5.59369">
        <ele>841</ele>
        <time>2021-09-05T09:16:16.798Z</time>
      </trkpt>
      <trkpt lat="45.88733" lon="5.59375">
        <ele>841</ele>
        <time>2021-09-05T09:16:20.846Z</time>
      </trkpt>
      <trkpt lat="45.8873" lon="5.59382">
        <ele>842</ele>
        <time>2021-09-05T09:16:25.843Z</time>
      </trkpt>
      <trkpt lat="45.88727" lon="5.5939">
        <ele>842</ele>
        <time>2021-09-05T09:16:30.846Z</time>
      </trkpt>
      <trkpt lat="45.88724" lon="5.59397">
        <ele>842</ele>
        <time>2021-09-05T09:16:34.852Z</time>
      </trkpt>
      <trkpt lat="45.88722" lon="5.59404">
        <ele>842</ele>
        <time>2021-09-05T09:16:39.835Z</time>
      </trkpt>
      <trkpt lat="45.88719" lon="5.59411">
        <ele>842</ele>
        <time>2021-09-05T09:16:43.856Z</time>
      </trkpt>
      <trkpt lat="45.88716" lon="5.59419">
        <ele>842</ele>
        <time>2021-09-05T09:16:48.842Z</time>
      </trkpt>
      <trkpt lat="45.88713" lon="5.59426">
        <ele>842</ele>
        <time>2021-09-05T09:16:52.870Z</time>
      </trkpt>
      <trkpt lat="45.88709" lon="5.59435">
        <ele>840</ele>
        <time>2021-09-05T09:16:57.844Z</time>
      </trkpt>
      <trkpt lat="45.88705" lon="5.59443">
        <ele>838</ele>
        <time>2021-09-05T09:17:02.844Z</time>
      </trkpt>
      <trkpt lat="45.88701" lon="5.59452">
        <ele>838</ele>
        <time>2021-09-05T09:17:07.817Z</time>
      </trkpt>
      <trkpt lat="45.88697" lon="5.59459">
        <ele>837</ele>
        <time>2021-09-05T09:17:12.829Z</time>
      </trkpt>
      <trkpt lat="45.88695" lon="5.59466">
        <ele>837</ele>
        <time>2021-09-05T09:17:16.844Z</time>
      </trkpt>
      <trkpt lat="45.88691" lon="5.59475">
        <ele>837</ele>
        <time>2021-09-05T09:17:21.866Z</time>
      </trkpt>
      <trkpt lat="45.88687" lon="5.59483">
        <ele>837</ele>
        <time>2021-09-05T09:17:26.837Z</time>
      </trkpt>
      <trkpt lat="45.88685" lon="5.59489">
        <ele>837</ele>
        <time>2021-09-05T09:17:30.837Z</time>
      </trkpt>
      <trkpt lat="45.88681" lon="5.59498">
        <ele>837</ele>
        <time>2021-09-05T09:17:35.863Z</time>
      </trkpt>
      <trkpt lat="45.88678" lon="5.59506">
        <ele>837</ele>
        <time>2021-09-05T09:17:40.816Z</time>
      </trkpt>
      <trkpt lat="45.88675" lon="5.59512">
        <ele>837</ele>
        <time>2021-09-05T09:17:44.871Z</time>
      </trkpt>
      <trkpt lat="45.88672" lon="5.5952">
        <ele>838</ele>
        <time>2021-09-05T09:17:49.837Z</time>
      </trkpt>
      <trkpt lat="45.8867" lon="5.59529">
        <ele>838</ele>
        <time>2021-09-05T09:17:54.871Z</time>
      </trkpt>
      <trkpt lat="45.88668" lon="5.59538">
        <ele>838</ele>
        <time>2021-09-05T09:17:59.842Z</time>
      </trkpt>
      <trkpt lat="45.88664" lon="5.59545">
        <ele>840</ele>
        <time>2021-09-05T09:18:04.841Z</time>
      </trkpt>
      <trkpt lat="45.88659" lon="5.59552">
        <ele>840</ele>
        <time>2021-09-05T09:18:09.835Z</time>
      </trkpt>
      <trkpt lat="45.88656" lon="5.59557">
        <ele>840</ele>
        <time>2021-09-05T09:18:13.842Z</time>
      </trkpt>
      <trkpt lat="45.88651" lon="5.59563">
        <ele>839</ele>
        <time>2021-09-05T09:18:18.836Z</time>
      </trkpt>
      <trkpt lat="45.88646" lon="5.59569">
        <ele>839</ele>
        <time>2021-09-05T09:18:23.834Z</time>
      </trkpt>
      <trkpt lat="45.88641" lon="5.59577">
        <ele>840</ele>
        <time>2021-09-05T09:18:28.835Z</time>
      </trkpt>
      <trkpt lat="45.88638" lon="5.59582">
        <ele>840</ele>
        <time>2021-09-05T09:18:32.850Z</time>
      </trkpt>
      <trkpt lat="45.88632" lon="5.59589">
        <ele>840</ele>
        <time>2021-09-05T09:18:37.826Z</time>
      </trkpt>
      <trkpt lat="45.88629" lon="5.59595">
        <ele>840</ele>
        <time>2021-09-05T09:18:41.844Z</time>
      </trkpt>
      <trkpt lat="45.88626" lon="5.59601">
        <ele>841</ele>
        <time>2021-09-05T09:18:45.846Z</time>
      </trkpt>
      <trkpt lat="45.88622" lon="5.59607">
        <ele>842</ele>
        <time>2021-09-05T09:18:49.877Z</time>
      </trkpt>
      <trkpt lat="45.88619" lon="5.59614">
        <ele>842</ele>
        <time>2021-09-05T09:18:54.835Z</time>
      </trkpt>
      <trkpt lat="45.88615" lon="5.59619">
        <ele>842</ele>
        <time>2021-09-05T09:18:58.849Z</time>
      </trkpt>
      <trkpt lat="45.88611" lon="5.59626">
        <ele>843</ele>
        <time>2021-09-05T09:19:02.866Z</time>
      </trkpt>
      <trkpt lat="45.88608" lon="5.59632">
        <ele>843</ele>
        <time>2021-09-05T09:19:06.877Z</time>
      </trkpt>
      <trkpt lat="45.88604" lon="5.59638">
        <ele>843</ele>
        <time>2021-09-05T09:19:11.871Z</time>
      </trkpt>
      <trkpt lat="45.88601" lon="5.59644">
        <ele>843</ele>
        <time>2021-09-05T09:19:15.885Z</time>
      </trkpt>
      <trkpt lat="45.88596" lon="5.59651">
        <ele>842</ele>
        <time>2021-09-05T09:19:20.876Z</time>
      </trkpt>
      <trkpt lat="45.8859" lon="5.59661">
        <ele>842</ele>
        <time>2021-09-05T09:19:25.862Z</time>
      </trkpt>
      <trkpt lat="45.88586" lon="5.59668">
        <ele>842</ele>
        <time>2021-09-05T09:19:30.833Z</time>
      </trkpt>
      <trkpt lat="45.88582" lon="5.59674">
        <ele>842</ele>
        <time>2021-09-05T09:19:35.838Z</time>
      </trkpt>
      <trkpt lat="45.88578" lon="5.59678">
        <ele>842</ele>
        <time>2021-09-05T09:19:39.843Z</time>
      </trkpt>
      <trkpt lat="45.88574" lon="5.59684">
        <ele>841</ele>
        <time>2021-09-05T09:19:44.814Z</time>
      </trkpt>
      <trkpt lat="45.88571" lon="5.59689">
        <ele>841</ele>
        <time>2021-09-05T09:19:48.848Z</time>
      </trkpt>
      <trkpt lat="45.88566" lon="5.59694">
        <ele>837</ele>
        <time>2021-09-05T09:19:53.864Z</time>
      </trkpt>
      <trkpt lat="45.88561" lon="5.597">
        <ele>837</ele>
        <time>2021-09-05T09:19:58.818Z</time>
      </trkpt>
      <trkpt lat="45.88556" lon="5.59704">
        <ele>837</ele>
        <time>2021-09-05T09:20:02.850Z</time>
      </trkpt>
      <trkpt lat="45.88551" lon="5.59709">
        <ele>839</ele>
        <time>2021-09-05T09:20:07.825Z</time>
      </trkpt>
      <trkpt lat="45.88546" lon="5.59713">
        <ele>839</ele>
        <time>2021-09-05T09:20:11.843Z</time>
      </trkpt>
      <trkpt lat="45.88542" lon="5.59716">
        <ele>839</ele>
        <time>2021-09-05T09:20:15.874Z</time>
      </trkpt>
      <trkpt lat="45.88537" lon="5.59721">
        <ele>837</ele>
        <time>2021-09-05T09:20:20.834Z</time>
      </trkpt>
      <trkpt lat="45.88532" lon="5.59724">
        <ele>837</ele>
        <time>2021-09-05T09:20:24.843Z</time>
      </trkpt>
      <trkpt lat="45.88527" lon="5.59729">
        <ele>837</ele>
        <time>2021-09-05T09:20:29.835Z</time>
      </trkpt>
      <trkpt lat="45.88523" lon="5.59733">
        <ele>837</ele>
        <time>2021-09-05T09:20:33.848Z</time>
      </trkpt>
      <trkpt lat="45.88519" lon="5.59737">
        <ele>839</ele>
        <time>2021-09-05T09:20:37.877Z</time>
      </trkpt>
      <trkpt lat="45.88514" lon="5.59743">
        <ele>839</ele>
        <time>2021-09-05T09:20:42.842Z</time>
      </trkpt>
      <trkpt lat="45.88511" lon="5.59748">
        <ele>837</ele>
        <time>2021-09-05T09:20:46.852Z</time>
      </trkpt>
      <trkpt lat="45.88506" lon="5.59754">
        <ele>837</ele>
        <time>2021-09-05T09:20:51.833Z</time>
      </trkpt>
      <trkpt lat="45.88502" lon="5.59758">
        <ele>837</ele>
        <time>2021-09-05T09:20:56.844Z</time>
      </trkpt>
      <trkpt lat="45.88498" lon="5.59762">
        <ele>837</ele>
        <time>2021-09-05T09:21:00.899Z</time>
      </trkpt>
      <trkpt lat="45.88494" lon="5.59768">
        <ele>839</ele>
        <time>2021-09-05T09:21:05.832Z</time>
      </trkpt>
      <trkpt lat="45.88489" lon="5.59774">
        <ele>839</ele>
        <time>2021-09-05T09:21:10.879Z</time>
      </trkpt>
      <trkpt lat="45.88484" lon="5.59779">
        <ele>837</ele>
        <time>2021-09-05T09:21:15.829Z</time>
      </trkpt>
      <trkpt lat="45.8848" lon="5.59783">
        <ele>837</ele>
        <time>2021-09-05T09:21:19.840Z</time>
      </trkpt>
      <trkpt lat="45.88474" lon="5.59789">
        <ele>837</ele>
        <time>2021-09-05T09:21:24.844Z</time>
      </trkpt>
      <trkpt lat="45.88469" lon="5.59796">
        <ele>839</ele>
        <time>2021-09-05T09:21:29.841Z</time>
      </trkpt>
      <trkpt lat="45.88464" lon="5.59802">
        <ele>839</ele>
        <time>2021-09-05T09:21:34.840Z</time>
      </trkpt>
      <trkpt lat="45.8846" lon="5.59808">
        <ele>839</ele>
        <time>2021-09-05T09:21:38.860Z</time>
      </trkpt>
      <trkpt lat="45.88456" lon="5.59815">
        <ele>836</ele>
        <time>2021-09-05T09:21:43.809Z</time>
      </trkpt>
      <trkpt lat="45.88454" lon="5.59822">
        <ele>838</ele>
        <time>2021-09-05T09:21:47.846Z</time>
      </trkpt>
      <trkpt lat="45.88454" lon="5.5983">
        <ele>838</ele>
        <time>2021-09-05T09:21:51.861Z</time>
      </trkpt>
      <trkpt lat="45.88455" lon="5.59839">
        <ele>838</ele>
        <time>2021-09-05T09:21:56.837Z</time>
      </trkpt>
      <trkpt lat="45.88458" lon="5.59845">
        <ele>838</ele>
        <time>2021-09-05T09:22:00.845Z</time>
      </trkpt>
      <trkpt lat="45.88462" lon="5.59854">
        <ele>840</ele>
        <time>2021-09-05T09:22:05.832Z</time>
      </trkpt>
      <trkpt lat="45.88465" lon="5.59859">
        <ele>840</ele>
        <time>2021-09-05T09:22:09.847Z</time>
      </trkpt>
      <trkpt lat="45.88469" lon="5.59864">
        <ele>840</ele>
        <time>2021-09-05T09:22:13.870Z</time>
      </trkpt>
      <trkpt lat="45.88471" lon="5.5987">
        <ele>840</ele>
        <time>2021-09-05T09:22:17.878Z</time>
      </trkpt>
      <trkpt lat="45.88473" lon="5.59877">
        <ele>841</ele>
        <time>2021-09-05T09:22:21.865Z</time>
      </trkpt>
      <trkpt lat="45.88475" lon="5.59886">
        <ele>841</ele>
        <time>2021-09-05T09:22:26.849Z</time>
      </trkpt>
      <trkpt lat="45.88476" lon="5.59895">
        <ele>841</ele>
        <time>2021-09-05T09:22:31.836Z</time>
      </trkpt>
      <trkpt lat="45.88477" lon="5.59902">
        <ele>841</ele>
        <time>2021-09-05T09:22:35.839Z</time>
      </trkpt>
      <trkpt lat="45.88478" lon="5.59912">
        <ele>842</ele>
        <time>2021-09-05T09:22:40.836Z</time>
      </trkpt>
      <trkpt lat="45.88479" lon="5.59919">
        <ele>842</ele>
        <time>2021-09-05T09:22:44.887Z</time>
      </trkpt>
      <trkpt lat="45.8848" lon="5.59929">
        <ele>842</ele>
        <time>2021-09-05T09:22:49.840Z</time>
      </trkpt>
      <trkpt lat="45.88481" lon="5.59936">
        <ele>844</ele>
        <time>2021-09-05T09:22:53.883Z</time>
      </trkpt>
      <trkpt lat="45.88482" lon="5.59946">
        <ele>844</ele>
        <time>2021-09-05T09:22:58.831Z</time>
      </trkpt>
      <trkpt lat="45.88483" lon="5.59954">
        <ele>844</ele>
        <time>2021-09-05T09:23:02.841Z</time>
      </trkpt>
      <trkpt lat="45.88483" lon="5.59964">
        <ele>846</ele>
        <time>2021-09-05T09:23:07.833Z</time>
      </trkpt>
      <trkpt lat="45.88484" lon="5.59971">
        <ele>846</ele>
        <time>2021-09-05T09:23:11.864Z</time>
      </trkpt>
      <trkpt lat="45.88485" lon="5.59978">
        <ele>846</ele>
        <time>2021-09-05T09:23:15.872Z</time>
      </trkpt>
      <trkpt lat="45.88485" lon="5.59988">
        <ele>846</ele>
        <time>2021-09-05T09:23:20.828Z</time>
      </trkpt>
      <trkpt lat="45.88485" lon="5.59996">
        <ele>846</ele>
        <time>2021-09-05T09:23:24.841Z</time>
      </trkpt>
      <trkpt lat="45.88484" lon="5.60005">
        <ele>846</ele>
        <time>2021-09-05T09:23:29.829Z</time>
      </trkpt>
      <trkpt lat="45.88482" lon="5.60012">
        <ele>846</ele>
        <time>2021-09-05T09:23:33.863Z</time>
      </trkpt>
      <trkpt lat="45.8848" lon="5.60018">
        <ele>846</ele>
        <time>2021-09-05T09:23:37.864Z</time>
      </trkpt>
      <trkpt lat="45.88476" lon="5.60025">
        <ele>846</ele>
        <time>2021-09-05T09:23:42.812Z</time>
      </trkpt>
      <trkpt lat="45.88475" lon="5.60032">
        <ele>846</ele>
        <time>2021-09-05T09:23:46.832Z</time>
      </trkpt>
      <trkpt lat="45.88472" lon="5.60038">
        <ele>846</ele>
        <time>2021-09-05T09:23:50.839Z</time>
      </trkpt>
      <trkpt lat="45.8847" lon="5.60046">
        <ele>846</ele>
        <time>2021-09-05T09:23:55.846Z</time>
      </trkpt>
      <trkpt lat="45.88467" lon="5.60054">
        <ele>846</ele>
        <time>2021-09-05T09:24:00.873Z</time>
      </trkpt>
      <trkpt lat="45.88464" lon="5.60062">
        <ele>846</ele>
        <time>2021-09-05T09:24:05.841Z</time>
      </trkpt>
      <trkpt lat="45.88463" lon="5.6007">
        <ele>849</ele>
        <time>2021-09-05T09:24:10.814Z</time>
      </trkpt>
      <trkpt lat="45.88461" lon="5.60077">
        <ele>849</ele>
        <time>2021-09-05T09:24:14.838Z</time>
      </trkpt>
      <trkpt lat="45.88458" lon="5.60084">
        <ele>845</ele>
        <time>2021-09-05T09:24:18.886Z</time>
      </trkpt>
      <trkpt lat="45.88455" lon="5.60093">
        <ele>845</ele>
        <time>2021-09-05T09:24:23.845Z</time>
      </trkpt>
      <trkpt lat="45.88452" lon="5.60101">
        <ele>848</ele>
        <time>2021-09-05T09:24:28.835Z</time>
      </trkpt>
      <trkpt lat="45.88449" lon="5.60107">
        <ele>848</ele>
        <time>2021-09-05T09:24:32.863Z</time>
      </trkpt>
      <trkpt lat="45.88447" lon="5.60113">
        <ele>848</ele>
        <time>2021-09-05T09:24:36.878Z</time>
      </trkpt>
      <trkpt lat="45.88444" lon="5.60122">
        <ele>848</ele>
        <time>2021-09-05T09:24:41.846Z</time>
      </trkpt>
      <trkpt lat="45.88442" lon="5.60128">
        <ele>851</ele>
        <time>2021-09-05T09:24:45.864Z</time>
      </trkpt>
      <trkpt lat="45.88438" lon="5.60135">
        <ele>851</ele>
        <time>2021-09-05T09:24:50.840Z</time>
      </trkpt>
      <trkpt lat="45.88434" lon="5.60142">
        <ele>851</ele>
        <time>2021-09-05T09:24:55.857Z</time>
      </trkpt>
      <trkpt lat="45.88429" lon="5.60149">
        <ele>849</ele>
        <time>2021-09-05T09:25:00.836Z</time>
      </trkpt>
      <trkpt lat="45.88424" lon="5.60154">
        <ele>851</ele>
        <time>2021-09-05T09:25:05.838Z</time>
      </trkpt>
      <trkpt lat="45.88418" lon="5.60161">
        <ele>851</ele>
        <time>2021-09-05T09:25:10.857Z</time>
      </trkpt>
      <trkpt lat="45.88414" lon="5.60167">
        <ele>851</ele>
        <time>2021-09-05T09:25:15.835Z</time>
      </trkpt>
      <trkpt lat="45.8841" lon="5.60173">
        <ele>851</ele>
        <time>2021-09-05T09:25:19.841Z</time>
      </trkpt>
      <trkpt lat="45.88407" lon="5.6018">
        <ele>851</ele>
        <time>2021-09-05T09:25:24.836Z</time>
      </trkpt>
      <trkpt lat="45.88403" lon="5.60187">
        <ele>853</ele>
        <time>2021-09-05T09:25:29.837Z</time>
      </trkpt>
      <trkpt lat="45.88401" lon="5.60195">
        <ele>851</ele>
        <time>2021-09-05T09:25:34.827Z</time>
      </trkpt>
      <trkpt lat="45.88397" lon="5.60201">
        <ele>851</ele>
        <time>2021-09-05T09:25:38.839Z</time>
      </trkpt>
      <trkpt lat="45.88393" lon="5.60208">
        <ele>851</ele>
        <time>2021-09-05T09:25:43.822Z</time>
      </trkpt>
      <trkpt lat="45.8839" lon="5.60214">
        <ele>852</ele>
        <time>2021-09-05T09:25:47.837Z</time>
      </trkpt>
      <trkpt lat="45.88387" lon="5.60219">
        <ele>852</ele>
        <time>2021-09-05T09:25:51.846Z</time>
      </trkpt>
      <trkpt lat="45.88383" lon="5.60227">
        <ele>852</ele>
        <time>2021-09-05T09:25:56.838Z</time>
      </trkpt>
      <trkpt lat="45.88381" lon="5.60233">
        <ele>852</ele>
        <time>2021-09-05T09:26:00.844Z</time>
      </trkpt>
      <trkpt lat="45.88377" lon="5.6024">
        <ele>855</ele>
        <time>2021-09-05T09:26:05.838Z</time>
      </trkpt>
      <trkpt lat="45.88375" lon="5.60246">
        <ele>850</ele>
        <time>2021-09-05T09:26:09.865Z</time>
      </trkpt>
      <trkpt lat="45.88372" lon="5.60253">
        <ele>850</ele>
        <time>2021-09-05T09:26:14.833Z</time>
      </trkpt>
      <trkpt lat="45.88368" lon="5.60261">
        <ele>850</ele>
        <time>2021-09-05T09:26:19.839Z</time>
      </trkpt>
      <trkpt lat="45.88364" lon="5.60268">
        <ele>853</ele>
        <time>2021-09-05T09:26:24.838Z</time>
      </trkpt>
      <trkpt lat="45.88359" lon="5.60276">
        <ele>853</ele>
        <time>2021-09-05T09:26:29.881Z</time>
      </trkpt>
      <trkpt lat="45.88355" lon="5.60283">
        <ele>853</ele>
        <time>2021-09-05T09:26:34.844Z</time>
      </trkpt>
      <trkpt lat="45.88351" lon="5.6029">
        <ele>853</ele>
        <time>2021-09-05T09:26:39.841Z</time>
      </trkpt>
      <trkpt lat="45.88347" lon="5.60298">
        <ele>853</ele>
        <time>2021-09-05T09:26:44.874Z</time>
      </trkpt>
      <trkpt lat="45.88344" lon="5.60307">
        <ele>853</ele>
        <time>2021-09-05T09:26:49.841Z</time>
      </trkpt>
      <trkpt lat="45.88341" lon="5.60315">
        <ele>853</ele>
        <time>2021-09-05T09:26:54.847Z</time>
      </trkpt>
      <trkpt lat="45.88339" lon="5.60323">
        <ele>855</ele>
        <time>2021-09-05T09:26:59.830Z</time>
      </trkpt>
      <trkpt lat="45.88337" lon="5.6033">
        <ele>855</ele>
        <time>2021-09-05T09:27:03.852Z</time>
      </trkpt>
      <trkpt lat="45.88335" lon="5.60338">
        <ele>855</ele>
        <time>2021-09-05T09:27:07.869Z</time>
      </trkpt>
      <trkpt lat="45.88333" lon="5.60344">
        <ele>855</ele>
        <time>2021-09-05T09:27:11.872Z</time>
      </trkpt>
      <trkpt lat="45.8833" lon="5.60353">
        <ele>856</ele>
        <time>2021-09-05T09:27:16.846Z</time>
      </trkpt>
      <trkpt lat="45.88329" lon="5.60359">
        <ele>856</ele>
        <time>2021-09-05T09:27:20.867Z</time>
      </trkpt>
      <trkpt lat="45.88325" lon="5.60366">
        <ele>856</ele>
        <time>2021-09-05T09:27:25.843Z</time>
      </trkpt>
      <trkpt lat="45.88322" lon="5.60374">
        <ele>856</ele>
        <time>2021-09-05T09:27:30.866Z</time>
      </trkpt>
      <trkpt lat="45.88318" lon="5.60381">
        <ele>857</ele>
        <time>2021-09-05T09:27:35.846Z</time>
      </trkpt>
      <trkpt lat="45.88314" lon="5.60386">
        <ele>857</ele>
        <time>2021-09-05T09:27:39.873Z</time>
      </trkpt>
      <trkpt lat="45.8831" lon="5.60393">
        <ele>857</ele>
        <time>2021-09-05T09:27:44.813Z</time>
      </trkpt>
      <trkpt lat="45.88307" lon="5.60397">
        <ele>857</ele>
        <time>2021-09-05T09:27:48.869Z</time>
      </trkpt>
      <trkpt lat="45.88302" lon="5.60402">
        <ele>857</ele>
        <time>2021-09-05T09:27:53.864Z</time>
      </trkpt>
      <trkpt lat="45.88298" lon="5.60408">
        <ele>860</ele>
        <time>2021-09-05T09:27:58.839Z</time>
      </trkpt>
      <trkpt lat="45.88295" lon="5.60416">
        <ele>860</ele>
        <time>2021-09-05T09:28:03.834Z</time>
      </trkpt>
      <trkpt lat="45.88291" lon="5.60423">
        <ele>856</ele>
        <time>2021-09-05T09:28:08.861Z</time>
      </trkpt>
      <trkpt lat="45.88288" lon="5.60431">
        <ele>859</ele>
        <time>2021-09-05T09:28:13.835Z</time>
      </trkpt>
      <trkpt lat="45.88286" lon="5.60438">
        <ele>859</ele>
        <time>2021-09-05T09:28:17.819Z</time>
      </trkpt>
      <trkpt lat="45.88281" lon="5.60445">
        <ele>859</ele>
        <time>2021-09-05T09:28:22.837Z</time>
      </trkpt>
      <trkpt lat="45.88278" lon="5.60451">
        <ele>859</ele>
        <time>2021-09-05T09:28:26.866Z</time>
      </trkpt>
      <trkpt lat="45.88273" lon="5.60458">
        <ele>859</ele>
        <time>2021-09-05T09:28:31.839Z</time>
      </trkpt>
      <trkpt lat="45.88268" lon="5.60464">
        <ele>862</ele>
        <time>2021-09-05T09:28:36.838Z</time>
      </trkpt>
      <trkpt lat="45.88265" lon="5.60469">
        <ele>862</ele>
        <time>2021-09-05T09:28:40.842Z</time>
      </trkpt>
      <trkpt lat="45.8826" lon="5.60473">
        <ele>858</ele>
        <time>2021-09-05T09:28:45.830Z</time>
      </trkpt>
      <trkpt lat="45.88256" lon="5.6048">
        <ele>858</ele>
        <time>2021-09-05T09:28:50.862Z</time>
      </trkpt>
      <trkpt lat="45.88251" lon="5.60485">
        <ele>858</ele>
        <time>2021-09-05T09:28:55.832Z</time>
      </trkpt>
      <trkpt lat="45.88247" lon="5.6049">
        <ele>862</ele>
        <time>2021-09-05T09:28:59.837Z</time>
      </trkpt>
      <trkpt lat="45.88244" lon="5.60495">
        <ele>862</ele>
        <time>2021-09-05T09:29:03.843Z</time>
      </trkpt>
      <trkpt lat="45.8824" lon="5.605">
        <ele>862</ele>
        <time>2021-09-05T09:29:07.850Z</time>
      </trkpt>
      <trkpt lat="45.88236" lon="5.60504">
        <ele>862</ele>
        <time>2021-09-05T09:29:11.867Z</time>
      </trkpt>
      <trkpt lat="45.88232" lon="5.6051">
        <ele>860</ele>
        <time>2021-09-05T09:29:15.874Z</time>
      </trkpt>
      <trkpt lat="45.88227" lon="5.60517">
        <ele>862</ele>
        <time>2021-09-05T09:29:20.866Z</time>
      </trkpt>
      <trkpt lat="45.88223" lon="5.60524">
        <ele>862</ele>
        <time>2021-09-05T09:29:25.837Z</time>
      </trkpt>
      <trkpt lat="45.88219" lon="5.6053">
        <ele>862</ele>
        <time>2021-09-05T09:29:29.869Z</time>
      </trkpt>
      <trkpt lat="45.88215" lon="5.60537">
        <ele>862</ele>
        <time>2021-09-05T09:29:34.837Z</time>
      </trkpt>
      <trkpt lat="45.88211" lon="5.60543">
        <ele>864</ele>
        <time>2021-09-05T09:29:38.861Z</time>
      </trkpt>
      <trkpt lat="45.88208" lon="5.60549">
        <ele>863</ele>
        <time>2021-09-05T09:29:42.871Z</time>
      </trkpt>
      <trkpt lat="45.88203" lon="5.60554">
        <ele>863</ele>
        <time>2021-09-05T09:29:47.871Z</time>
      </trkpt>
      <trkpt lat="45.88199" lon="5.60559">
        <ele>863</ele>
        <time>2021-09-05T09:29:51.881Z</time>
      </trkpt>
      <trkpt lat="45.88194" lon="5.60567">
        <ele>863</ele>
        <time>2021-09-05T09:29:56.830Z</time>
      </trkpt>
      <trkpt lat="45.88192" lon="5.6057">
        <ele>866</ele>
        <time>2021-09-05T09:30:00.837Z</time>
      </trkpt>
      <trkpt lat="45.88189" lon="5.60575">
        <ele>866</ele>
        <time>2021-09-05T09:30:04.849Z</time>
      </trkpt>
      <trkpt lat="45.88185" lon="5.60584">
        <ele>866</ele>
        <time>2021-09-05T09:30:09.835Z</time>
      </trkpt>
      <trkpt lat="45.88181" lon="5.6059">
        <ele>866</ele>
        <time>2021-09-05T09:30:14.870Z</time>
      </trkpt>
      <trkpt lat="45.88177" lon="5.60595">
        <ele>865</ele>
        <time>2021-09-05T09:30:19.842Z</time>
      </trkpt>
      <trkpt lat="45.88173" lon="5.60602">
        <ele>866</ele>
        <time>2021-09-05T09:30:24.843Z</time>
      </trkpt>
      <trkpt lat="45.8817" lon="5.60609">
        <ele>866</ele>
        <time>2021-09-05T09:30:28.861Z</time>
      </trkpt>
      <trkpt lat="45.88167" lon="5.60615">
        <ele>866</ele>
        <time>2021-09-05T09:30:32.866Z</time>
      </trkpt>
      <trkpt lat="45.88164" lon="5.60623">
        <ele>866</ele>
        <time>2021-09-05T09:30:37.841Z</time>
      </trkpt>
      <trkpt lat="45.88161" lon="5.6063">
        <ele>867</ele>
        <time>2021-09-05T09:30:42.839Z</time>
      </trkpt>
      <trkpt lat="45.8816" lon="5.60635">
        <ele>867</ele>
        <time>2021-09-05T09:30:47.840Z</time>
      </trkpt>
      <trkpt lat="45.88156" lon="5.60643">
        <ele>867</ele>
        <time>2021-09-05T09:30:52.835Z</time>
      </trkpt>
      <trkpt lat="45.88153" lon="5.60653">
        <ele>865</ele>
        <time>2021-09-05T09:30:57.837Z</time>
      </trkpt>
      <trkpt lat="45.8815" lon="5.6066">
        <ele>865</ele>
        <time>2021-09-05T09:31:02.834Z</time>
      </trkpt>
      <trkpt lat="45.88148" lon="5.60667">
        <ele>865</ele>
        <time>2021-09-05T09:31:07.836Z</time>
      </trkpt>
      <trkpt lat="45.88145" lon="5.60675">
        <ele>865</ele>
        <time>2021-09-05T09:31:12.904Z</time>
      </trkpt>
      <trkpt lat="45.88142" lon="5.60682">
        <ele>867</ele>
        <time>2021-09-05T09:31:17.853Z</time>
      </trkpt>
      <trkpt lat="45.88139" lon="5.6069">
        <ele>867</ele>
        <time>2021-09-05T09:31:22.848Z</time>
      </trkpt>
      <trkpt lat="45.88135" lon="5.60697">
        <ele>867</ele>
        <time>2021-09-05T09:31:27.862Z</time>
      </trkpt>
      <trkpt lat="45.8813" lon="5.60703">
        <ele>867</ele>
        <time>2021-09-05T09:31:32.878Z</time>
      </trkpt>
      <trkpt lat="45.88125" lon="5.60709">
        <ele>870</ele>
        <time>2021-09-05T09:31:37.833Z</time>
      </trkpt>
      <trkpt lat="45.88121" lon="5.60714">
        <ele>868</ele>
        <time>2021-09-05T09:31:41.863Z</time>
      </trkpt>
      <trkpt lat="45.88118" lon="5.60719">
        <ele>868</ele>
        <time>2021-09-05T09:31:46.812Z</time>
      </trkpt>
      <trkpt lat="45.88114" lon="5.60723">
        <ele>868</ele>
        <time>2021-09-05T09:31:50.829Z</time>
      </trkpt>
      <trkpt lat="45.88111" lon="5.60727">
        <ele>868</ele>
        <time>2021-09-05T09:31:54.836Z</time>
      </trkpt>
      <trkpt lat="45.88107" lon="5.60734">
        <ele>868</ele>
        <time>2021-09-05T09:31:59.834Z</time>
      </trkpt>
      <trkpt lat="45.88104" lon="5.60742">
        <ele>871</ele>
        <time>2021-09-05T09:32:04.832Z</time>
      </trkpt>
      <trkpt lat="45.88101" lon="5.60749">
        <ele>871</ele>
        <time>2021-09-05T09:32:08.836Z</time>
      </trkpt>
      <trkpt lat="45.88099" lon="5.60757">
        <ele>871</ele>
        <time>2021-09-05T09:32:13.832Z</time>
      </trkpt>
      <trkpt lat="45.88095" lon="5.60764">
        <ele>872</ele>
        <time>2021-09-05T09:32:18.850Z</time>
      </trkpt>
      <trkpt lat="45.88091" lon="5.60771">
        <ele>872</ele>
        <time>2021-09-05T09:32:23.821Z</time>
      </trkpt>
      <trkpt lat="45.88086" lon="5.60777">
        <ele>872</ele>
        <time>2021-09-05T09:32:28.834Z</time>
      </trkpt>
      <trkpt lat="45.88081" lon="5.60784">
        <ele>872</ele>
        <time>2021-09-05T09:32:33.875Z</time>
      </trkpt>
      <trkpt lat="45.88078" lon="5.6079">
        <ele>872</ele>
        <time>2021-09-05T09:32:37.882Z</time>
      </trkpt>
      <trkpt lat="45.88073" lon="5.60796">
        <ele>876</ele>
        <time>2021-09-05T09:32:42.837Z</time>
      </trkpt>
      <trkpt lat="45.88069" lon="5.608">
        <ele>871</ele>
        <time>2021-09-05T09:32:46.842Z</time>
      </trkpt>
      <trkpt lat="45.88063" lon="5.60805">
        <ele>871</ele>
        <time>2021-09-05T09:32:51.871Z</time>
      </trkpt>
      <trkpt lat="45.88058" lon="5.60808">
        <ele>871</ele>
        <time>2021-09-05T09:32:56.864Z</time>
      </trkpt>
      <trkpt lat="45.88053" lon="5.60812">
        <ele>871</ele>
        <time>2021-09-05T09:33:00.874Z</time>
      </trkpt>
      <trkpt lat="45.88048" lon="5.60814">
        <ele>871</ele>
        <time>2021-09-05T09:33:05.822Z</time>
      </trkpt>
      <trkpt lat="45.88043" lon="5.60818">
        <ele>871</ele>
        <time>2021-09-05T09:33:09.843Z</time>
      </trkpt>
      <trkpt lat="45.88037" lon="5.60824">
        <ele>872</ele>
        <time>2021-09-05T09:33:14.843Z</time>
      </trkpt>
      <trkpt lat="45.88033" lon="5.60828">
        <ele>872</ele>
        <time>2021-09-05T09:33:18.863Z</time>
      </trkpt>
      <trkpt lat="45.88027" lon="5.60834">
        <ele>872</ele>
        <time>2021-09-05T09:33:23.836Z</time>
      </trkpt>
      <trkpt lat="45.88022" lon="5.60837">
        <ele>872</ele>
        <time>2021-09-05T09:33:27.838Z</time>
      </trkpt>
      <trkpt lat="45.88018" lon="5.60842">
        <ele>872</ele>
        <time>2021-09-05T09:33:31.865Z</time>
      </trkpt>
      <trkpt lat="45.88013" lon="5.60848">
        <ele>872</ele>
        <time>2021-09-05T09:33:36.841Z</time>
      </trkpt>
      <trkpt lat="45.88007" lon="5.60854">
        <ele>872</ele>
        <time>2021-09-05T09:33:41.832Z</time>
      </trkpt>
      <trkpt lat="45.88001" lon="5.60859">
        <ele>872</ele>
        <time>2021-09-05T09:33:46.807Z</time>
      </trkpt>
      <trkpt lat="45.87995" lon="5.60865">
        <ele>872</ele>
        <time>2021-09-05T09:33:51.842Z</time>
      </trkpt>
      <trkpt lat="45.8799" lon="5.6087">
        <ele>872</ele>
        <time>2021-09-05T09:33:56.839Z</time>
      </trkpt>
      <trkpt lat="45.87986" lon="5.60876">
        <ele>874</ele>
        <time>2021-09-05T09:34:00.865Z</time>
      </trkpt>
      <trkpt lat="45.87982" lon="5.6088">
        <ele>872</ele>
        <time>2021-09-05T09:34:04.890Z</time>
      </trkpt>
      <trkpt lat="45.87976" lon="5.60885">
        <ele>872</ele>
        <time>2021-09-05T09:34:09.862Z</time>
      </trkpt>
      <trkpt lat="45.87971" lon="5.60891">
        <ele>872</ele>
        <time>2021-09-05T09:34:14.843Z</time>
      </trkpt>
      <trkpt lat="45.87966" lon="5.60897">
        <ele>872</ele>
        <time>2021-09-05T09:34:19.824Z</time>
      </trkpt>
      <trkpt lat="45.87961" lon="5.60901">
        <ele>872</ele>
        <time>2021-09-05T09:34:23.844Z</time>
      </trkpt>
      <trkpt lat="45.87955" lon="5.60906">
        <ele>874</ele>
        <time>2021-09-05T09:34:28.803Z</time>
      </trkpt>
      <trkpt lat="45.87951" lon="5.6091">
        <ele>874</ele>
        <time>2021-09-05T09:34:32.828Z</time>
      </trkpt>
      <trkpt lat="45.87947" lon="5.60913">
        <ele>874</ele>
        <time>2021-09-05T09:34:36.837Z</time>
      </trkpt>
      <trkpt lat="45.87941" lon="5.60916">
        <ele>874</ele>
        <time>2021-09-05T09:34:41.840Z</time>
      </trkpt>
      <trkpt lat="45.87935" lon="5.60921">
        <ele>874</ele>
        <time>2021-09-05T09:34:46.833Z</time>
      </trkpt>
      <trkpt lat="45.87931" lon="5.60924">
        <ele>874</ele>
        <time>2021-09-05T09:34:50.836Z</time>
      </trkpt>
      <trkpt lat="45.87926" lon="5.60929">
        <ele>869</ele>
        <time>2021-09-05T09:34:55.832Z</time>
      </trkpt>
      <trkpt lat="45.87921" lon="5.60933">
        <ele>873</ele>
        <time>2021-09-05T09:34:59.840Z</time>
      </trkpt>
      <trkpt lat="45.87917" lon="5.60938">
        <ele>873</ele>
        <time>2021-09-05T09:35:03.871Z</time>
      </trkpt>
      <trkpt lat="45.87912" lon="5.60943">
        <ele>873</ele>
        <time>2021-09-05T09:35:08.844Z</time>
      </trkpt>
      <trkpt lat="45.87908" lon="5.60948">
        <ele>873</ele>
        <time>2021-09-05T09:35:12.871Z</time>
      </trkpt>
      <trkpt lat="45.87903" lon="5.60952">
        <ele>870</ele>
        <time>2021-09-05T09:35:17.842Z</time>
      </trkpt>
      <trkpt lat="45.87898" lon="5.60958">
        <ele>870</ele>
        <time>2021-09-05T09:35:22.833Z</time>
      </trkpt>
      <trkpt lat="45.87893" lon="5.60964">
        <ele>873</ele>
        <time>2021-09-05T09:35:27.841Z</time>
      </trkpt>
      <trkpt lat="45.87888" lon="5.60968">
        <ele>873</ele>
        <time>2021-09-05T09:35:32.870Z</time>
      </trkpt>
      <trkpt lat="45.87882" lon="5.6097">
        <ele>873</ele>
        <time>2021-09-05T09:35:37.872Z</time>
      </trkpt>
      <trkpt lat="45.87878" lon="5.60974">
        <ele>873</ele>
        <time>2021-09-05T09:35:42.841Z</time>
      </trkpt>
      <trkpt lat="45.87873" lon="5.60975">
        <ele>871</ele>
        <time>2021-09-05T09:35:47.807Z</time>
      </trkpt>
      <trkpt lat="45.87868" lon="5.60975">
        <ele>871</ele>
        <time>2021-09-05T09:35:51.837Z</time>
      </trkpt>
      <trkpt lat="45.87864" lon="5.60974">
        <ele>871</ele>
        <time>2021-09-05T09:35:55.845Z</time>
      </trkpt>
      <trkpt lat="45.87859" lon="5.60972">
        <ele>871</ele>
        <time>2021-09-05T09:35:59.862Z</time>
      </trkpt>
      <trkpt lat="45.87854" lon="5.60972">
        <ele>871</ele>
        <time>2021-09-05T09:36:04.844Z</time>
      </trkpt>
      <trkpt lat="45.87849" lon="5.60971">
        <ele>871</ele>
        <time>2021-09-05T09:36:08.905Z</time>
      </trkpt>
      <trkpt lat="45.87844" lon="5.60968">
        <ele>869</ele>
        <time>2021-09-05T09:36:13.836Z</time>
      </trkpt>
      <trkpt lat="45.8784" lon="5.60965">
        <ele>869</ele>
        <time>2021-09-05T09:36:18.856Z</time>
      </trkpt>
      <trkpt lat="45.87836" lon="5.60959">
        <ele>869</ele>
        <time>2021-09-05T09:36:23.867Z</time>
      </trkpt>
      <trkpt lat="45.87831" lon="5.60954">
        <ele>866</ele>
        <time>2021-09-05T09:36:28.838Z</time>
      </trkpt>
      <trkpt lat="45.87827" lon="5.60952">
        <ele>866</ele>
        <time>2021-09-05T09:36:32.869Z</time>
      </trkpt>
      <trkpt lat="45.87822" lon="5.60951">
        <ele>866</ele>
        <time>2021-09-05T09:36:36.876Z</time>
      </trkpt>
      <trkpt lat="45.87817" lon="5.6095">
        <ele>867</ele>
        <time>2021-09-05T09:36:41.808Z</time>
      </trkpt>
      <trkpt lat="45.87812" lon="5.60949">
        <ele>867</ele>
        <time>2021-09-05T09:36:45.841Z</time>
      </trkpt>
      <trkpt lat="45.87805" lon="5.60949">
        <ele>867</ele>
        <time>2021-09-05T09:36:50.834Z</time>
      </trkpt>
      <trkpt lat="45.878" lon="5.60949">
        <ele>867</ele>
        <time>2021-09-05T09:36:54.836Z</time>
      </trkpt>
      <trkpt lat="45.87794" lon="5.6095">
        <ele>867</ele>
        <time>2021-09-05T09:36:59.841Z</time>
      </trkpt>
      <trkpt lat="45.87789" lon="5.60952">
        <ele>867</ele>
        <time>2021-09-05T09:37:03.848Z</time>
      </trkpt>
      <trkpt lat="45.87782" lon="5.60956">
        <ele>867</ele>
        <time>2021-09-05T09:37:08.838Z</time>
      </trkpt>
      <trkpt lat="45.87775" lon="5.60959">
        <ele>869</ele>
        <time>2021-09-05T09:37:13.834Z</time>
      </trkpt>
      <trkpt lat="45.87769" lon="5.60962">
        <ele>869</ele>
        <time>2021-09-05T09:37:17.842Z</time>
      </trkpt>
      <trkpt lat="45.87762" lon="5.60964">
        <ele>868</ele>
        <time>2021-09-05T09:37:22.828Z</time>
      </trkpt>
      <trkpt lat="45.87756" lon="5.60966">
        <ele>868</ele>
        <time>2021-09-05T09:37:26.841Z</time>
      </trkpt>
      <trkpt lat="45.87749" lon="5.60969">
        <ele>868</ele>
        <time>2021-09-05T09:37:31.866Z</time>
      </trkpt>
      <trkpt lat="45.87743" lon="5.60974">
        <ele>868</ele>
        <time>2021-09-05T09:37:36.835Z</time>
      </trkpt>
      <trkpt lat="45.87736" lon="5.60977">
        <ele>868</ele>
        <time>2021-09-05T09:37:41.840Z</time>
      </trkpt>
      <trkpt lat="45.8773" lon="5.60981">
        <ele>865</ele>
        <time>2021-09-05T09:37:46.811Z</time>
      </trkpt>
      <trkpt lat="45.87726" lon="5.60985">
        <ele>865</ele>
        <time>2021-09-05T09:37:50.831Z</time>
      </trkpt>
      <trkpt lat="45.87721" lon="5.60989">
        <ele>866</ele>
        <time>2021-09-05T09:37:54.832Z</time>
      </trkpt>
      <trkpt lat="45.87716" lon="5.60998">
        <ele>866</ele>
        <time>2021-09-05T09:37:59.807Z</time>
      </trkpt>
      <trkpt lat="45.87712" lon="5.61003">
        <ele>866</ele>
        <time>2021-09-05T09:38:03.844Z</time>
      </trkpt>
      <trkpt lat="45.87708" lon="5.61008">
        <ele>863</ele>
        <time>2021-09-05T09:38:07.872Z</time>
      </trkpt>
      <trkpt lat="45.87702" lon="5.61013">
        <ele>863</ele>
        <time>2021-09-05T09:38:12.827Z</time>
      </trkpt>
      <trkpt lat="45.87699" lon="5.61018">
        <ele>866</ele>
        <time>2021-09-05T09:38:16.846Z</time>
      </trkpt>
      <trkpt lat="45.87693" lon="5.61021">
        <ele>866</ele>
        <time>2021-09-05T09:38:21.828Z</time>
      </trkpt>
      <trkpt lat="45.87687" lon="5.61026">
        <ele>866</ele>
        <time>2021-09-05T09:38:26.861Z</time>
      </trkpt>
      <trkpt lat="45.87681" lon="5.61031">
        <ele>866</ele>
        <time>2021-09-05T09:38:31.827Z</time>
      </trkpt>
      <trkpt lat="45.87677" lon="5.61035">
        <ele>868</ele>
        <time>2021-09-05T09:38:35.838Z</time>
      </trkpt>
      <trkpt lat="45.87672" lon="5.6104">
        <ele>868</ele>
        <time>2021-09-05T09:38:40.838Z</time>
      </trkpt>
      <trkpt lat="45.87667" lon="5.61043">
        <ele>870</ele>
        <time>2021-09-05T09:38:44.870Z</time>
      </trkpt>
      <trkpt lat="45.87662" lon="5.61047">
        <ele>870</ele>
        <time>2021-09-05T09:38:49.857Z</time>
      </trkpt>
      <trkpt lat="45.87656" lon="5.6105">
        <ele>870</ele>
        <time>2021-09-05T09:38:54.836Z</time>
      </trkpt>
      <trkpt lat="45.87651" lon="5.61054">
        <ele>871</ele>
        <time>2021-09-05T09:38:58.847Z</time>
      </trkpt>
      <trkpt lat="45.87646" lon="5.61057">
        <ele>871</ele>
        <time>2021-09-05T09:39:03.831Z</time>
      </trkpt>
      <trkpt lat="45.87641" lon="5.61061">
        <ele>871</ele>
        <time>2021-09-05T09:39:07.869Z</time>
      </trkpt>
      <trkpt lat="45.87635" lon="5.61065">
        <ele>871</ele>
        <time>2021-09-05T09:39:12.866Z</time>
      </trkpt>
      <trkpt lat="45.87631" lon="5.61069">
        <ele>871</ele>
        <time>2021-09-05T09:39:16.870Z</time>
      </trkpt>
      <trkpt lat="45.87626" lon="5.61073">
        <ele>874</ele>
        <time>2021-09-05T09:39:21.849Z</time>
      </trkpt>
      <trkpt lat="45.87623" lon="5.61078">
        <ele>873</ele>
        <time>2021-09-05T09:39:25.864Z</time>
      </trkpt>
      <trkpt lat="45.87617" lon="5.61084">
        <ele>873</ele>
        <time>2021-09-05T09:39:30.863Z</time>
      </trkpt>
      <trkpt lat="45.87613" lon="5.61091">
        <ele>873</ele>
        <time>2021-09-05T09:39:35.840Z</time>
      </trkpt>
      <trkpt lat="45.87609" lon="5.61095">
        <ele>873</ele>
        <time>2021-09-05T09:39:39.861Z</time>
      </trkpt>
      <trkpt lat="45.87604" lon="5.61103">
        <ele>874</ele>
        <time>2021-09-05T09:39:44.832Z</time>
      </trkpt>
      <trkpt lat="45.876" lon="5.6111">
        <ele>874</ele>
        <time>2021-09-05T09:39:49.814Z</time>
      </trkpt>
      <trkpt lat="45.87597" lon="5.61116">
        <ele>870</ele>
        <time>2021-09-05T09:39:53.840Z</time>
      </trkpt>
      <trkpt lat="45.87594" lon="5.61124">
        <ele>870</ele>
        <time>2021-09-05T09:39:58.816Z</time>
      </trkpt>
      <trkpt lat="45.8759" lon="5.61129">
        <ele>870</ele>
        <time>2021-09-05T09:40:02.872Z</time>
      </trkpt>
      <trkpt lat="45.87585" lon="5.61136">
        <ele>870</ele>
        <time>2021-09-05T09:40:07.832Z</time>
      </trkpt>
      <trkpt lat="45.87579" lon="5.61141">
        <ele>870</ele>
        <time>2021-09-05T09:40:12.841Z</time>
      </trkpt>
      <trkpt lat="45.87572" lon="5.61147">
        <ele>870</ele>
        <time>2021-09-05T09:40:17.832Z</time>
      </trkpt>
      <trkpt lat="45.87565" lon="5.61145">
        <ele>869</ele>
        <time>2021-09-05T09:40:21.891Z</time>
      </trkpt>
      <trkpt lat="45.87558" lon="5.61144">
        <ele>869</ele>
        <time>2021-09-05T09:40:26.833Z</time>
      </trkpt>
      <trkpt lat="45.87553" lon="5.61142">
        <ele>869</ele>
        <time>2021-09-05T09:40:30.876Z</time>
      </trkpt>
      <trkpt lat="45.87547" lon="5.61142">
        <ele>869</ele>
        <time>2021-09-05T09:40:35.831Z</time>
      </trkpt>
      <trkpt lat="45.87541" lon="5.61143">
        <ele>870</ele>
        <time>2021-09-05T09:40:40.839Z</time>
      </trkpt>
      <trkpt lat="45.87537" lon="5.61144">
        <ele>870</ele>
        <time>2021-09-05T09:40:44.872Z</time>
      </trkpt>
      <trkpt lat="45.87533" lon="5.61151">
        <ele>870</ele>
        <time>2021-09-05T09:40:49.842Z</time>
      </trkpt>
      <trkpt lat="45.87535" lon="5.61159">
        <ele>874</ele>
        <time>2021-09-05T09:40:53.872Z</time>
      </trkpt>
      <trkpt lat="45.87541" lon="5.61166">
        <ele>874</ele>
        <time>2021-09-05T09:40:58.832Z</time>
      </trkpt>
      <trkpt lat="45.87546" lon="5.61174">
        <ele>872</ele>
        <time>2021-09-05T09:41:03.868Z</time>
      </trkpt>
      <trkpt lat="45.8755" lon="5.61182">
        <ele>875</ele>
        <time>2021-09-05T09:41:08.839Z</time>
      </trkpt>
      <trkpt lat="45.87553" lon="5.61198">
        <ele>875</ele>
        <time>2021-09-05T09:41:13.844Z</time>
      </trkpt>
      <trkpt lat="45.87558" lon="5.61207">
        <ele>875</ele>
        <time>2021-09-05T09:41:18.837Z</time>
      </trkpt>
      <trkpt lat="45.8757" lon="5.61208">
        <ele>874</ele>
        <time>2021-09-05T09:41:23.843Z</time>
      </trkpt>
      <trkpt lat="45.87579" lon="5.61214">
        <ele>877</ele>
        <time>2021-09-05T09:41:28.826Z</time>
      </trkpt>
      <trkpt lat="45.87582" lon="5.61222">
        <ele>877</ele>
        <time>2021-09-05T09:41:33.862Z</time>
      </trkpt>
      <trkpt lat="45.87586" lon="5.61234">
        <ele>877</ele>
        <time>2021-09-05T09:41:38.896Z</time>
      </trkpt>
      <trkpt lat="45.87588" lon="5.61243">
        <ele>880</ele>
        <time>2021-09-05T09:41:43.879Z</time>
      </trkpt>
      <trkpt lat="45.87588" lon="5.61251">
        <ele>880</ele>
        <time>2021-09-05T09:41:48.805Z</time>
      </trkpt>
      <trkpt lat="45.87588" lon="5.61257">
        <ele>880</ele>
        <time>2021-09-05T09:41:52.841Z</time>
      </trkpt>
      <trkpt lat="45.87587" lon="5.61267">
        <ele>885</ele>
        <time>2021-09-05T09:41:57.864Z</time>
      </trkpt>
      <trkpt lat="45.87585" lon="5.61277">
        <ele>885</ele>
        <time>2021-09-05T09:42:02.839Z</time>
      </trkpt>
      <trkpt lat="45.87584" lon="5.61284">
        <ele>885</ele>
        <time>2021-09-05T09:42:06.842Z</time>
      </trkpt>
      <trkpt lat="45.87584" lon="5.61294">
        <ele>889</ele>
        <time>2021-09-05T09:42:11.844Z</time>
      </trkpt>
      <trkpt lat="45.87584" lon="5.61302">
        <ele>889</ele>
        <time>2021-09-05T09:42:16.882Z</time>
      </trkpt>
      <trkpt lat="45.87582" lon="5.61312">
        <ele>889</ele>
        <time>2021-09-05T09:42:21.833Z</time>
      </trkpt>
      <trkpt lat="45.87582" lon="5.6132">
        <ele>890</ele>
        <time>2021-09-05T09:42:26.840Z</time>
      </trkpt>
      <trkpt lat="45.87581" lon="5.61329">
        <ele>890</ele>
        <time>2021-09-05T09:42:31.836Z</time>
      </trkpt>
      <trkpt lat="45.8758" lon="5.61334">
        <ele>890</ele>
        <time>2021-09-05T09:42:35.857Z</time>
      </trkpt>
      <trkpt lat="45.8758" lon="5.61342">
        <ele>890</ele>
        <time>2021-09-05T09:42:39.871Z</time>
      </trkpt>
      <trkpt lat="45.87581" lon="5.61352">
        <ele>892</ele>
        <time>2021-09-05T09:42:44.863Z</time>
      </trkpt>
      <trkpt lat="45.87583" lon="5.6136">
        <ele>892</ele>
        <time>2021-09-05T09:42:48.872Z</time>
      </trkpt>
      <trkpt lat="45.87583" lon="5.61368">
        <ele>892</ele>
        <time>2021-09-05T09:42:52.880Z</time>
      </trkpt>
      <trkpt lat="45.87583" lon="5.61378">
        <ele>893</ele>
        <time>2021-09-05T09:42:57.832Z</time>
      </trkpt>
      <trkpt lat="45.87582" lon="5.61388">
        <ele>893</ele>
        <time>2021-09-05T09:43:02.821Z</time>
      </trkpt>
      <trkpt lat="45.87581" lon="5.61397">
        <ele>893</ele>
        <time>2021-09-05T09:43:06.872Z</time>
      </trkpt>
      <trkpt lat="45.87578" lon="5.61408">
        <ele>896</ele>
        <time>2021-09-05T09:43:11.840Z</time>
      </trkpt>
      <trkpt lat="45.87577" lon="5.61416">
        <ele>896</ele>
        <time>2021-09-05T09:43:15.877Z</time>
      </trkpt>
      <trkpt lat="45.87575" lon="5.61426">
        <ele>896</ele>
        <time>2021-09-05T09:43:20.871Z</time>
      </trkpt>
      <trkpt lat="45.87573" lon="5.61435">
        <ele>901</ele>
        <time>2021-09-05T09:43:25.859Z</time>
      </trkpt>
      <trkpt lat="45.87571" lon="5.61443">
        <ele>901</ele>
        <time>2021-09-05T09:43:30.836Z</time>
      </trkpt>
      <trkpt lat="45.87567" lon="5.61449">
        <ele>906</ele>
        <time>2021-09-05T09:43:35.825Z</time>
      </trkpt>
      <trkpt lat="45.87565" lon="5.61453">
        <ele>906</ele>
        <time>2021-09-05T09:43:39.837Z</time>
      </trkpt>
      <trkpt lat="45.87562" lon="5.61458">
        <ele>906</ele>
        <time>2021-09-05T09:43:44.836Z</time>
      </trkpt>
      <trkpt lat="45.87558" lon="5.61461">
        <ele>909</ele>
        <time>2021-09-05T09:43:49.806Z</time>
      </trkpt>
      <trkpt lat="45.87555" lon="5.61464">
        <ele>909</ele>
        <time>2021-09-05T09:43:53.829Z</time>
      </trkpt>
      <trkpt lat="45.87551" lon="5.61469">
        <ele>909</ele>
        <time>2021-09-05T09:43:57.836Z</time>
      </trkpt>
      <trkpt lat="45.8755" lon="5.61483">
        <ele>909</ele>
        <time>2021-09-05T09:44:02.845Z</time>
      </trkpt>
      <trkpt lat="45.87547" lon="5.61488">
        <ele>910</ele>
        <time>2021-09-05T09:44:07.868Z</time>
      </trkpt>
      <trkpt lat="45.87545" lon="5.61495">
        <ele>910</ele>
        <time>2021-09-05T09:44:12.862Z</time>
      </trkpt>
      <trkpt lat="45.87542" lon="5.61499">
        <ele>910</ele>
        <time>2021-09-05T09:44:16.865Z</time>
      </trkpt>
      <trkpt lat="45.87539" lon="5.61507">
        <ele>915</ele>
        <time>2021-09-05T09:44:21.862Z</time>
      </trkpt>
      <trkpt lat="45.87536" lon="5.61516">
        <ele>919</ele>
        <time>2021-09-05T09:44:26.836Z</time>
      </trkpt>
      <trkpt lat="45.87533" lon="5.61522">
        <ele>919</ele>
        <time>2021-09-05T09:44:30.842Z</time>
      </trkpt>
      <trkpt lat="45.87531" lon="5.61531">
        <ele>919</ele>
        <time>2021-09-05T09:44:35.842Z</time>
      </trkpt>
      <trkpt lat="45.87529" lon="5.61536">
        <ele>919</ele>
        <time>2021-09-05T09:44:39.875Z</time>
      </trkpt>
      <trkpt lat="45.87525" lon="5.61542">
        <ele>923</ele>
        <time>2021-09-05T09:44:44.842Z</time>
      </trkpt>
      <trkpt lat="45.8752" lon="5.61546">
        <ele>923</ele>
        <time>2021-09-05T09:44:48.880Z</time>
      </trkpt>
      <trkpt lat="45.87515" lon="5.61549">
        <ele>923</ele>
        <time>2021-09-05T09:44:53.850Z</time>
      </trkpt>
      <trkpt lat="45.87511" lon="5.61553">
        <ele>926</ele>
        <time>2021-09-05T09:44:57.864Z</time>
      </trkpt>
      <trkpt lat="45.87506" lon="5.61559">
        <ele>926</ele>
        <time>2021-09-05T09:45:02.834Z</time>
      </trkpt>
      <trkpt lat="45.87502" lon="5.6156">
        <ele>926</ele>
        <time>2021-09-05T09:45:06.861Z</time>
      </trkpt>
      <trkpt lat="45.87498" lon="5.61555">
        <ele>926</ele>
        <time>2021-09-05T09:45:11.845Z</time>
      </trkpt>
      <trkpt lat="45.87495" lon="5.61552">
        <ele>926</ele>
        <time>2021-09-05T09:45:16.843Z</time>
      </trkpt>
      <trkpt lat="45.87492" lon="5.61548">
        <ele>926</ele>
        <time>2021-09-05T09:45:20.864Z</time>
      </trkpt>
      <trkpt lat="45.87486" lon="5.61546">
        <ele>926</ele>
        <time>2021-09-05T09:45:25.840Z</time>
      </trkpt>
      <trkpt lat="45.8748" lon="5.61548">
        <ele>926</ele>
        <time>2021-09-05T09:45:30.829Z</time>
      </trkpt>
      <trkpt lat="45.87475" lon="5.61547">
        <ele>926</ele>
        <time>2021-09-05T09:45:35.851Z</time>
      </trkpt>
      <trkpt lat="45.87468" lon="5.61549">
        <ele>926</ele>
        <time>2021-09-05T09:45:40.836Z</time>
      </trkpt>
      <trkpt lat="45.87461" lon="5.61556">
        <ele>926</ele>
        <time>2021-09-05T09:45:45.837Z</time>
      </trkpt>
      <trkpt lat="45.87457" lon="5.61565">
        <ele>926</ele>
        <time>2021-09-05T09:45:50.806Z</time>
      </trkpt>
      <trkpt lat="45.87454" lon="5.61574">
        <ele>926</ele>
        <time>2021-09-05T09:45:54.830Z</time>
      </trkpt>
      <trkpt lat="45.87452" lon="5.61582">
        <ele>926</ele>
        <time>2021-09-05T09:45:58.844Z</time>
      </trkpt>
      <trkpt lat="45.87451" lon="5.6159">
        <ele>926</ele>
        <time>2021-09-05T09:46:03.833Z</time>
      </trkpt>
      <trkpt lat="45.87456" lon="5.61596">
        <ele>926</ele>
        <time>2021-09-05T09:46:08.847Z</time>
      </trkpt>
      <trkpt lat="45.87461" lon="5.61605">
        <ele>930</ele>
        <time>2021-09-05T09:46:13.836Z</time>
      </trkpt>
      <trkpt lat="45.87463" lon="5.61615">
        <ele>930</ele>
        <time>2021-09-05T09:46:18.839Z</time>
      </trkpt>
      <trkpt lat="45.87466" lon="5.61624">
        <ele>930</ele>
        <time>2021-09-05T09:46:23.825Z</time>
      </trkpt>
      <trkpt lat="45.87467" lon="5.61633">
        <ele>932</ele>
        <time>2021-09-05T09:46:27.834Z</time>
      </trkpt>
      <trkpt lat="45.87467" lon="5.61641">
        <ele>932</ele>
        <time>2021-09-05T09:46:31.842Z</time>
      </trkpt>
      <trkpt lat="45.87466" lon="5.61653">
        <ele>932</ele>
        <time>2021-09-05T09:46:36.900Z</time>
      </trkpt>
      <trkpt lat="45.87463" lon="5.61661">
        <ele>935</ele>
        <time>2021-09-05T09:46:41.838Z</time>
      </trkpt>
      <trkpt lat="45.87461" lon="5.61668">
        <ele>935</ele>
        <time>2021-09-05T09:46:46.876Z</time>
      </trkpt>
      <trkpt lat="45.87457" lon="5.61676">
        <ele>933</ele>
        <time>2021-09-05T09:46:51.830Z</time>
      </trkpt>
      <trkpt lat="45.87456" lon="5.61683">
        <ele>934</ele>
        <time>2021-09-05T09:46:55.842Z</time>
      </trkpt>
      <trkpt lat="45.87452" lon="5.61689">
        <ele>934</ele>
        <time>2021-09-05T09:47:00.839Z</time>
      </trkpt>
      <trkpt lat="45.87449" lon="5.61694">
        <ele>934</ele>
        <time>2021-09-05T09:47:04.841Z</time>
      </trkpt>
      <trkpt lat="45.87444" lon="5.61699">
        <ele>934</ele>
        <time>2021-09-05T09:47:09.842Z</time>
      </trkpt>
      <trkpt lat="45.8744" lon="5.61707">
        <ele>934</ele>
        <time>2021-09-05T09:47:14.831Z</time>
      </trkpt>
      <trkpt lat="45.87436" lon="5.61712">
        <ele>936</ele>
        <time>2021-09-05T09:47:18.864Z</time>
      </trkpt>
      <trkpt lat="45.87431" lon="5.61718">
        <ele>936</ele>
        <time>2021-09-05T09:47:23.826Z</time>
      </trkpt>
      <trkpt lat="45.87426" lon="5.6172">
        <ele>936</ele>
        <time>2021-09-05T09:47:27.834Z</time>
      </trkpt>
      <trkpt lat="45.8742" lon="5.61723">
        <ele>936</ele>
        <time>2021-09-05T09:47:32.831Z</time>
      </trkpt>
      <trkpt lat="45.87413" lon="5.61725">
        <ele>936</ele>
        <time>2021-09-05T09:47:37.838Z</time>
      </trkpt>
      <trkpt lat="45.87406" lon="5.61727">
        <ele>936</ele>
        <time>2021-09-05T09:47:42.835Z</time>
      </trkpt>
      <trkpt lat="45.874" lon="5.61727">
        <ele>938</ele>
        <time>2021-09-05T09:47:47.861Z</time>
      </trkpt>
      <trkpt lat="45.87394" lon="5.61728">
        <ele>938</ele>
        <time>2021-09-05T09:47:52.800Z</time>
      </trkpt>
      <trkpt lat="45.87388" lon="5.61727">
        <ele>938</ele>
        <time>2021-09-05T09:47:57.805Z</time>
      </trkpt>
      <trkpt lat="45.87383" lon="5.61726">
        <ele>938</ele>
        <time>2021-09-05T09:48:01.813Z</time>
      </trkpt>
      <trkpt lat="45.87377" lon="5.61727">
        <ele>938</ele>
        <time>2021-09-05T09:48:05.808Z</time>
      </trkpt>
      <trkpt lat="45.87371" lon="5.61726">
        <ele>937</ele>
        <time>2021-09-05T09:48:10.822Z</time>
      </trkpt>
      <trkpt lat="45.87363" lon="5.61723">
        <ele>937</ele>
        <time>2021-09-05T09:48:15.817Z</time>
      </trkpt>
      <trkpt lat="45.87355" lon="5.61719">
        <ele>937</ele>
        <time>2021-09-05T09:48:20.815Z</time>
      </trkpt>
      <trkpt lat="45.87353" lon="5.6172">
        <ele>937</ele>
        <time>2021-09-05T09:48:25.821Z</time>
      </trkpt>
      <trkpt lat="45.87347" lon="5.61724">
        <ele>937</ele>
        <time>2021-09-05T09:48:29.830Z</time>
      </trkpt>
      <trkpt lat="45.87343" lon="5.61728">
        <ele>936</ele>
        <time>2021-09-05T09:48:34.821Z</time>
      </trkpt>
      <trkpt lat="45.87338" lon="5.61731">
        <ele>936</ele>
        <time>2021-09-05T09:48:39.821Z</time>
      </trkpt>
      <trkpt lat="45.87334" lon="5.61734">
        <ele>936</ele>
        <time>2021-09-05T09:48:44.819Z</time>
      </trkpt>
      <trkpt lat="45.87329" lon="5.61735">
        <ele>936</ele>
        <time>2021-09-05T09:48:49.811Z</time>
      </trkpt>
      <trkpt lat="45.87325" lon="5.61737">
        <ele>940</ele>
        <time>2021-09-05T09:48:53.840Z</time>
      </trkpt>
      <trkpt lat="45.87319" lon="5.6174">
        <ele>941</ele>
        <time>2021-09-05T09:48:58.817Z</time>
      </trkpt>
      <trkpt lat="45.87313" lon="5.61743">
        <ele>941</ele>
        <time>2021-09-05T09:49:03.810Z</time>
      </trkpt>
      <trkpt lat="45.87307" lon="5.61746">
        <ele>941</ele>
        <time>2021-09-05T09:49:08.819Z</time>
      </trkpt>
      <trkpt lat="45.87302" lon="5.6175">
        <ele>941</ele>
        <time>2021-09-05T09:49:13.817Z</time>
      </trkpt>
      <trkpt lat="45.87297" lon="5.61754">
        <ele>941</ele>
        <time>2021-09-05T09:49:18.807Z</time>
      </trkpt>
      <trkpt lat="45.87292" lon="5.61758">
        <ele>941</ele>
        <time>2021-09-05T09:49:22.843Z</time>
      </trkpt>
      <trkpt lat="45.87285" lon="5.61761">
        <ele>944</ele>
        <time>2021-09-05T09:49:27.804Z</time>
      </trkpt>
      <trkpt lat="45.8728" lon="5.61763">
        <ele>944</ele>
        <time>2021-09-05T09:49:31.810Z</time>
      </trkpt>
      <trkpt lat="45.87274" lon="5.61768">
        <ele>948</ele>
        <time>2021-09-05T09:49:36.810Z</time>
      </trkpt>
      <trkpt lat="45.87268" lon="5.6177">
        <ele>948</ele>
        <time>2021-09-05T09:49:40.816Z</time>
      </trkpt>
      <trkpt lat="45.87261" lon="5.61773">
        <ele>947</ele>
        <time>2021-09-05T09:49:45.816Z</time>
      </trkpt>
      <trkpt lat="45.87255" lon="5.61778">
        <ele>947</ele>
        <time>2021-09-05T09:49:50.813Z</time>
      </trkpt>
      <trkpt lat="45.8725" lon="5.6178">
        <ele>947</ele>
        <time>2021-09-05T09:49:54.822Z</time>
      </trkpt>
      <trkpt lat="45.87245" lon="5.61784">
        <ele>947</ele>
        <time>2021-09-05T09:49:58.840Z</time>
      </trkpt>
      <trkpt lat="45.87239" lon="5.61789">
        <ele>947</ele>
        <time>2021-09-05T09:50:03.805Z</time>
      </trkpt>
      <trkpt lat="45.87234" lon="5.61793">
        <ele>949</ele>
        <time>2021-09-05T09:50:07.810Z</time>
      </trkpt>
      <trkpt lat="45.87228" lon="5.61799">
        <ele>949</ele>
        <time>2021-09-05T09:50:12.819Z</time>
      </trkpt>
      <trkpt lat="45.87224" lon="5.61806">
        <ele>949</ele>
        <time>2021-09-05T09:50:17.806Z</time>
      </trkpt>
      <trkpt lat="45.87219" lon="5.61811">
        <ele>949</ele>
        <time>2021-09-05T09:50:21.818Z</time>
      </trkpt>
      <trkpt lat="45.87215" lon="5.61817">
        <ele>949</ele>
        <time>2021-09-05T09:50:26.820Z</time>
      </trkpt>
      <trkpt lat="45.87208" lon="5.61818">
        <ele>950</ele>
        <time>2021-09-05T09:50:31.813Z</time>
      </trkpt>
      <trkpt lat="45.87201" lon="5.61818">
        <ele>950</ele>
        <time>2021-09-05T09:50:36.815Z</time>
      </trkpt>
      <trkpt lat="45.87195" lon="5.61817">
        <ele>950</ele>
        <time>2021-09-05T09:50:41.814Z</time>
      </trkpt>
      <trkpt lat="45.8719" lon="5.61815">
        <ele>950</ele>
        <time>2021-09-05T09:50:45.817Z</time>
      </trkpt>
      <trkpt lat="45.87184" lon="5.61814">
        <ele>950</ele>
        <time>2021-09-05T09:50:50.817Z</time>
      </trkpt>
      <trkpt lat="45.87178" lon="5.61814">
        <ele>949</ele>
        <time>2021-09-05T09:50:55.816Z</time>
      </trkpt>
      <trkpt lat="45.87171" lon="5.61814">
        <ele>949</ele>
        <time>2021-09-05T09:51:00.817Z</time>
      </trkpt>
      <trkpt lat="45.87164" lon="5.61815">
        <ele>949</ele>
        <time>2021-09-05T09:51:05.812Z</time>
      </trkpt>
      <trkpt lat="45.8716" lon="5.61816">
        <ele>949</ele>
        <time>2021-09-05T09:51:09.811Z</time>
      </trkpt>
      <trkpt lat="45.87154" lon="5.6182">
        <ele>955</ele>
        <time>2021-09-05T09:51:14.796Z</time>
      </trkpt>
      <trkpt lat="45.87148" lon="5.61822">
        <ele>953</ele>
        <time>2021-09-05T09:51:18.811Z</time>
      </trkpt>
      <trkpt lat="45.87142" lon="5.61825">
        <ele>953</ele>
        <time>2021-09-05T09:51:23.814Z</time>
      </trkpt>
      <trkpt lat="45.87136" lon="5.61829">
        <ele>953</ele>
        <time>2021-09-05T09:51:28.817Z</time>
      </trkpt>
      <trkpt lat="45.87131" lon="5.61831">
        <ele>953</ele>
        <time>2021-09-05T09:51:32.818Z</time>
      </trkpt>
      <trkpt lat="45.87125" lon="5.61833">
        <ele>951</ele>
        <time>2021-09-05T09:51:37.801Z</time>
      </trkpt>
      <trkpt lat="45.8712" lon="5.61835">
        <ele>951</ele>
        <time>2021-09-05T09:51:41.814Z</time>
      </trkpt>
      <trkpt lat="45.87114" lon="5.61836">
        <ele>951</ele>
        <time>2021-09-05T09:51:46.817Z</time>
      </trkpt>
      <trkpt lat="45.87107" lon="5.61835">
        <ele>951</ele>
        <time>2021-09-05T09:51:51.811Z</time>
      </trkpt>
      <trkpt lat="45.87102" lon="5.61835">
        <ele>951</ele>
        <time>2021-09-05T09:51:55.817Z</time>
      </trkpt>
      <trkpt lat="45.87096" lon="5.61836">
        <ele>949</ele>
        <time>2021-09-05T09:52:00.817Z</time>
      </trkpt>
      <trkpt lat="45.8709" lon="5.61835">
        <ele>949</ele>
        <time>2021-09-05T09:52:05.813Z</time>
      </trkpt>
      <trkpt lat="45.87085" lon="5.61836">
        <ele>949</ele>
        <time>2021-09-05T09:52:09.820Z</time>
      </trkpt>
      <trkpt lat="45.87079" lon="5.61838">
        <ele>949</ele>
        <time>2021-09-05T09:52:14.814Z</time>
      </trkpt>
      <trkpt lat="45.87074" lon="5.61838">
        <ele>949</ele>
        <time>2021-09-05T09:52:18.842Z</time>
      </trkpt>
      <trkpt lat="45.87067" lon="5.61841">
        <ele>947</ele>
        <time>2021-09-05T09:52:23.809Z</time>
      </trkpt>
      <trkpt lat="45.87061" lon="5.61843">
        <ele>947</ele>
        <time>2021-09-05T09:52:28.807Z</time>
      </trkpt>
      <trkpt lat="45.87056" lon="5.61846">
        <ele>947</ele>
        <time>2021-09-05T09:52:32.820Z</time>
      </trkpt>
      <trkpt lat="45.8705" lon="5.61849">
        <ele>951</ele>
        <time>2021-09-05T09:52:37.803Z</time>
      </trkpt>
      <trkpt lat="45.87045" lon="5.61851">
        <ele>951</ele>
        <time>2021-09-05T09:52:41.814Z</time>
      </trkpt>
      <trkpt lat="45.87039" lon="5.61853">
        <ele>948</ele>
        <time>2021-09-05T09:52:46.814Z</time>
      </trkpt>
      <trkpt lat="45.87033" lon="5.61857">
        <ele>948</ele>
        <time>2021-09-05T09:52:51.838Z</time>
      </trkpt>
      <trkpt lat="45.87026" lon="5.61859">
        <ele>948</ele>
        <time>2021-09-05T09:52:56.844Z</time>
      </trkpt>
      <trkpt lat="45.87019" lon="5.61862">
        <ele>948</ele>
        <time>2021-09-05T09:53:01.832Z</time>
      </trkpt>
      <trkpt lat="45.87013" lon="5.61863">
        <ele>945</ele>
        <time>2021-09-05T09:53:06.835Z</time>
      </trkpt>
      <trkpt lat="45.87008" lon="5.61865">
        <ele>945</ele>
        <time>2021-09-05T09:53:10.863Z</time>
      </trkpt>
      <trkpt lat="45.87001" lon="5.61868">
        <ele>945</ele>
        <time>2021-09-05T09:53:15.825Z</time>
      </trkpt>
      <trkpt lat="45.86996" lon="5.61869">
        <ele>945</ele>
        <time>2021-09-05T09:53:19.839Z</time>
      </trkpt>
      <trkpt lat="45.8699" lon="5.6187">
        <ele>945</ele>
        <time>2021-09-05T09:53:23.862Z</time>
      </trkpt>
      <trkpt lat="45.86983" lon="5.61871">
        <ele>944</ele>
        <time>2021-09-05T09:53:28.840Z</time>
      </trkpt>
      <trkpt lat="45.86977" lon="5.61874">
        <ele>944</ele>
        <time>2021-09-05T09:53:33.829Z</time>
      </trkpt>
      <trkpt lat="45.86971" lon="5.61878">
        <ele>948</ele>
        <time>2021-09-05T09:53:38.827Z</time>
      </trkpt>
      <trkpt lat="45.86964" lon="5.61882">
        <ele>948</ele>
        <time>2021-09-05T09:53:43.829Z</time>
      </trkpt>
      <trkpt lat="45.86958" lon="5.61887">
        <ele>948</ele>
        <time>2021-09-05T09:53:48.837Z</time>
      </trkpt>
      <trkpt lat="45.86953" lon="5.61891">
        <ele>947</ele>
        <time>2021-09-05T09:53:53.832Z</time>
      </trkpt>
      <trkpt lat="45.86948" lon="5.61896">
        <ele>947</ele>
        <time>2021-09-05T09:53:58.842Z</time>
      </trkpt>
      <trkpt lat="45.86943" lon="5.61901">
        <ele>947</ele>
        <time>2021-09-05T09:54:03.841Z</time>
      </trkpt>
      <trkpt lat="45.86937" lon="5.61905">
        <ele>950</ele>
        <time>2021-09-05T09:54:08.862Z</time>
      </trkpt>
      <trkpt lat="45.86931" lon="5.6191">
        <ele>950</ele>
        <time>2021-09-05T09:54:13.833Z</time>
      </trkpt>
      <trkpt lat="45.86926" lon="5.61915">
        <ele>947</ele>
        <time>2021-09-05T09:54:17.846Z</time>
      </trkpt>
      <trkpt lat="45.86921" lon="5.6192">
        <ele>947</ele>
        <time>2021-09-05T09:54:21.845Z</time>
      </trkpt>
      <trkpt lat="45.86916" lon="5.61923">
        <ele>947</ele>
        <time>2021-09-05T09:54:25.853Z</time>
      </trkpt>
      <trkpt lat="45.86912" lon="5.61926">
        <ele>947</ele>
        <time>2021-09-05T09:54:29.883Z</time>
      </trkpt>
      <trkpt lat="45.86905" lon="5.61929">
        <ele>947</ele>
        <time>2021-09-05T09:54:34.831Z</time>
      </trkpt>
      <trkpt lat="45.869" lon="5.61931">
        <ele>952</ele>
        <time>2021-09-05T09:54:38.839Z</time>
      </trkpt>
      <trkpt lat="45.86893" lon="5.61934">
        <ele>952</ele>
        <time>2021-09-05T09:54:43.838Z</time>
      </trkpt>
      <trkpt lat="45.86887" lon="5.61936">
        <ele>952</ele>
        <time>2021-09-05T09:54:48.835Z</time>
      </trkpt>
      <trkpt lat="45.86882" lon="5.61938">
        <ele>952</ele>
        <time>2021-09-05T09:54:52.837Z</time>
      </trkpt>
      <trkpt lat="45.86877" lon="5.61939">
        <ele>952</ele>
        <time>2021-09-05T09:54:56.838Z</time>
      </trkpt>
      <trkpt lat="45.86871" lon="5.61941">
        <ele>951</ele>
        <time>2021-09-05T09:55:01.845Z</time>
      </trkpt>
      <trkpt lat="45.86864" lon="5.61944">
        <ele>951</ele>
        <time>2021-09-05T09:55:06.842Z</time>
      </trkpt>
      <trkpt lat="45.86858" lon="5.61946">
        <ele>951</ele>
        <time>2021-09-05T09:55:11.834Z</time>
      </trkpt>
      <trkpt lat="45.86853" lon="5.61949">
        <ele>951</ele>
        <time>2021-09-05T09:55:15.879Z</time>
      </trkpt>
      <trkpt lat="45.86847" lon="5.61953">
        <ele>948</ele>
        <time>2021-09-05T09:55:20.846Z</time>
      </trkpt>
      <trkpt lat="45.86841" lon="5.61957">
        <ele>948</ele>
        <time>2021-09-05T09:55:25.833Z</time>
      </trkpt>
      <trkpt lat="45.86834" lon="5.61961">
        <ele>956</ele>
        <time>2021-09-05T09:55:30.844Z</time>
      </trkpt>
      <trkpt lat="45.86828" lon="5.61964">
        <ele>956</ele>
        <time>2021-09-05T09:55:35.840Z</time>
      </trkpt>
      <trkpt lat="45.86822" lon="5.61969">
        <ele>956</ele>
        <time>2021-09-05T09:55:40.841Z</time>
      </trkpt>
      <trkpt lat="45.86816" lon="5.61973">
        <ele>951</ele>
        <time>2021-09-05T09:55:45.803Z</time>
      </trkpt>
      <trkpt lat="45.86812" lon="5.61976">
        <ele>951</ele>
        <time>2021-09-05T09:55:49.871Z</time>
      </trkpt>
      <trkpt lat="45.86806" lon="5.6198">
        <ele>951</ele>
        <time>2021-09-05T09:55:54.862Z</time>
      </trkpt>
      <trkpt lat="45.868" lon="5.61985">
        <ele>951</ele>
        <time>2021-09-05T09:55:59.833Z</time>
      </trkpt>
      <trkpt lat="45.86795" lon="5.61991">
        <ele>961</ele>
        <time>2021-09-05T09:56:04.830Z</time>
      </trkpt>
      <trkpt lat="45.86792" lon="5.61995">
        <ele>956</ele>
        <time>2021-09-05T09:56:08.845Z</time>
      </trkpt>
      <trkpt lat="45.86788" lon="5.62001">
        <ele>956</ele>
        <time>2021-09-05T09:56:12.873Z</time>
      </trkpt>
      <trkpt lat="45.86784" lon="5.62008">
        <ele>956</ele>
        <time>2021-09-05T09:56:17.870Z</time>
      </trkpt>
      <trkpt lat="45.8678" lon="5.62013">
        <ele>956</ele>
        <time>2021-09-05T09:56:22.840Z</time>
      </trkpt>
      <trkpt lat="45.86774" lon="5.62022">
        <ele>966</ele>
        <time>2021-09-05T09:56:27.840Z</time>
      </trkpt>
      <trkpt lat="45.8677" lon="5.62028">
        <ele>966</ele>
        <time>2021-09-05T09:56:32.824Z</time>
      </trkpt>
      <trkpt lat="45.86766" lon="5.62032">
        <ele>966</ele>
        <time>2021-09-05T09:56:36.839Z</time>
      </trkpt>
      <trkpt lat="45.86761" lon="5.62035">
        <ele>958</ele>
        <time>2021-09-05T09:56:41.830Z</time>
      </trkpt>
      <trkpt lat="45.86755" lon="5.62036">
        <ele>958</ele>
        <time>2021-09-05T09:56:46.847Z</time>
      </trkpt>
      <trkpt lat="45.8675" lon="5.62037">
        <ele>958</ele>
        <time>2021-09-05T09:56:51.833Z</time>
      </trkpt>
      <trkpt lat="45.86743" lon="5.62039">
        <ele>958</ele>
        <time>2021-09-05T09:56:56.843Z</time>
      </trkpt>
      <trkpt lat="45.86739" lon="5.62043">
        <ele>967</ele>
        <time>2021-09-05T09:57:00.870Z</time>
      </trkpt>
      <trkpt lat="45.86733" lon="5.62048">
        <ele>961</ele>
        <time>2021-09-05T09:57:05.833Z</time>
      </trkpt>
      <trkpt lat="45.86728" lon="5.62053">
        <ele>961</ele>
        <time>2021-09-05T09:57:10.832Z</time>
      </trkpt>
      <trkpt lat="45.86724" lon="5.62058">
        <ele>961</ele>
        <time>2021-09-05T09:57:14.837Z</time>
      </trkpt>
      <trkpt lat="45.86719" lon="5.62063">
        <ele>961</ele>
        <time>2021-09-05T09:57:19.827Z</time>
      </trkpt>
      <trkpt lat="45.86715" lon="5.62067">
        <ele>961</ele>
        <time>2021-09-05T09:57:23.840Z</time>
      </trkpt>
      <trkpt lat="45.8671" lon="5.62073">
        <ele>969</ele>
        <time>2021-09-05T09:57:28.840Z</time>
      </trkpt>
      <trkpt lat="45.86706" lon="5.62079">
        <ele>962</ele>
        <time>2021-09-05T09:57:32.859Z</time>
      </trkpt>
      <trkpt lat="45.867" lon="5.62085">
        <ele>962</ele>
        <time>2021-09-05T09:57:37.835Z</time>
      </trkpt>
      <trkpt lat="45.86693" lon="5.62088">
        <ele>962</ele>
        <time>2021-09-05T09:57:42.842Z</time>
      </trkpt>
      <trkpt lat="45.86687" lon="5.62095">
        <ele>962</ele>
        <time>2021-09-05T09:57:47.838Z</time>
      </trkpt>
      <trkpt lat="45.86681" lon="5.621">
        <ele>971</ele>
        <time>2021-09-05T09:57:52.801Z</time>
      </trkpt>
      <trkpt lat="45.86676" lon="5.62104">
        <ele>968</ele>
        <time>2021-09-05T09:57:56.828Z</time>
      </trkpt>
      <trkpt lat="45.86671" lon="5.6211">
        <ele>968</ele>
        <time>2021-09-05T09:58:01.836Z</time>
      </trkpt>
      <trkpt lat="45.86665" lon="5.62115">
        <ele>968</ele>
        <time>2021-09-05T09:58:06.837Z</time>
      </trkpt>
      <trkpt lat="45.8666" lon="5.62117">
        <ele>968</ele>
        <time>2021-09-05T09:58:10.839Z</time>
      </trkpt>
      <trkpt lat="45.86655" lon="5.62121">
        <ele>968</ele>
        <time>2021-09-05T09:58:14.860Z</time>
      </trkpt>
      <trkpt lat="45.8665" lon="5.62127">
        <ele>968</ele>
        <time>2021-09-05T09:58:19.860Z</time>
      </trkpt>
      <trkpt lat="45.86644" lon="5.62131">
        <ele>968</ele>
        <time>2021-09-05T09:58:24.830Z</time>
      </trkpt>
      <trkpt lat="45.8664" lon="5.62135">
        <ele>968</ele>
        <time>2021-09-05T09:58:28.838Z</time>
      </trkpt>
      <trkpt lat="45.86635" lon="5.6214">
        <ele>968</ele>
        <time>2021-09-05T09:58:32.842Z</time>
      </trkpt>
      <trkpt lat="45.8663" lon="5.62144">
        <ele>968</ele>
        <time>2021-09-05T09:58:36.856Z</time>
      </trkpt>
      <trkpt lat="45.86624" lon="5.62149">
        <ele>962</ele>
        <time>2021-09-05T09:58:41.839Z</time>
      </trkpt>
      <trkpt lat="45.86619" lon="5.62154">
        <ele>971</ele>
        <time>2021-09-05T09:58:46.826Z</time>
      </trkpt>
      <trkpt lat="45.86614" lon="5.62157">
        <ele>971</ele>
        <time>2021-09-05T09:58:50.848Z</time>
      </trkpt>
      <trkpt lat="45.86608" lon="5.62161">
        <ele>971</ele>
        <time>2021-09-05T09:58:55.835Z</time>
      </trkpt>
      <trkpt lat="45.86603" lon="5.62164">
        <ele>971</ele>
        <time>2021-09-05T09:58:59.837Z</time>
      </trkpt>
      <trkpt lat="45.86596" lon="5.62169">
        <ele>963</ele>
        <time>2021-09-05T09:59:04.847Z</time>
      </trkpt>
      <trkpt lat="45.86591" lon="5.62173">
        <ele>963</ele>
        <time>2021-09-05T09:59:08.861Z</time>
      </trkpt>
      <trkpt lat="45.86585" lon="5.62178">
        <ele>963</ele>
        <time>2021-09-05T09:59:13.832Z</time>
      </trkpt>
      <trkpt lat="45.86581" lon="5.6218">
        <ele>963</ele>
        <time>2021-09-05T09:59:17.836Z</time>
      </trkpt>
      <trkpt lat="45.86574" lon="5.62186">
        <ele>973</ele>
        <time>2021-09-05T09:59:22.824Z</time>
      </trkpt>
      <trkpt lat="45.86569" lon="5.62189">
        <ele>967</ele>
        <time>2021-09-05T09:59:26.842Z</time>
      </trkpt>
      <trkpt lat="45.86563" lon="5.62194">
        <ele>967</ele>
        <time>2021-09-05T09:59:31.868Z</time>
      </trkpt>
      <trkpt lat="45.86558" lon="5.62198">
        <ele>967</ele>
        <time>2021-09-05T09:59:35.858Z</time>
      </trkpt>
      <trkpt lat="45.86553" lon="5.62202">
        <ele>967</ele>
        <time>2021-09-05T09:59:40.831Z</time>
      </trkpt>
      <trkpt lat="45.86549" lon="5.62205">
        <ele>967</ele>
        <time>2021-09-05T09:59:44.837Z</time>
      </trkpt>
      <trkpt lat="45.86544" lon="5.62209">
        <ele>979</ele>
        <time>2021-09-05T09:59:48.861Z</time>
      </trkpt>
      <trkpt lat="45.86538" lon="5.62212">
        <ele>973</ele>
        <time>2021-09-05T09:59:53.797Z</time>
      </trkpt>
      <trkpt lat="45.86534" lon="5.62218">
        <ele>973</ele>
        <time>2021-09-05T09:59:57.809Z</time>
      </trkpt>
      <trkpt lat="45.86529" lon="5.62221">
        <ele>973</ele>
        <time>2021-09-05T10:00:01.870Z</time>
      </trkpt>
      <trkpt lat="45.86523" lon="5.62226">
        <ele>973</ele>
        <time>2021-09-05T10:00:06.803Z</time>
      </trkpt>
      <trkpt lat="45.86519" lon="5.62229">
        <ele>973</ele>
        <time>2021-09-05T10:00:10.866Z</time>
      </trkpt>
      <trkpt lat="45.86513" lon="5.62232">
        <ele>967</ele>
        <time>2021-09-05T10:00:15.812Z</time>
      </trkpt>
      <trkpt lat="45.86508" lon="5.62234">
        <ele>967</ele>
        <time>2021-09-05T10:00:19.828Z</time>
      </trkpt>
      <trkpt lat="45.86502" lon="5.62237">
        <ele>972</ele>
        <time>2021-09-05T10:00:23.836Z</time>
      </trkpt>
      <trkpt lat="45.86496" lon="5.62241">
        <ele>972</ele>
        <time>2021-09-05T10:00:28.843Z</time>
      </trkpt>
      <trkpt lat="45.8649" lon="5.62245">
        <ele>972</ele>
        <time>2021-09-05T10:00:33.835Z</time>
      </trkpt>
      <trkpt lat="45.86484" lon="5.6225">
        <ele>963</ele>
        <time>2021-09-05T10:00:38.879Z</time>
      </trkpt>
      <trkpt lat="45.86478" lon="5.62254">
        <ele>963</ele>
        <time>2021-09-05T10:00:43.838Z</time>
      </trkpt>
      <trkpt lat="45.86473" lon="5.62258">
        <ele>963</ele>
        <time>2021-09-05T10:00:47.869Z</time>
      </trkpt>
      <trkpt lat="45.86468" lon="5.62264">
        <ele>963</ele>
        <time>2021-09-05T10:00:52.860Z</time>
      </trkpt>
      <trkpt lat="45.86462" lon="5.62269">
        <ele>971</ele>
        <time>2021-09-05T10:00:57.835Z</time>
      </trkpt>
      <trkpt lat="45.86456" lon="5.62274">
        <ele>970</ele>
        <time>2021-09-05T10:01:02.839Z</time>
      </trkpt>
      <trkpt lat="45.86449" lon="5.6228">
        <ele>970</ele>
        <time>2021-09-05T10:01:07.829Z</time>
      </trkpt>
      <trkpt lat="45.86441" lon="5.62282">
        <ele>970</ele>
        <time>2021-09-05T10:01:11.861Z</time>
      </trkpt>
      <trkpt lat="45.86435" lon="5.62285">
        <ele>970</ele>
        <time>2021-09-05T10:01:16.870Z</time>
      </trkpt>
      <trkpt lat="45.86429" lon="5.62289">
        <ele>967</ele>
        <time>2021-09-05T10:01:21.824Z</time>
      </trkpt>
      <trkpt lat="45.86423" lon="5.62291">
        <ele>967</ele>
        <time>2021-09-05T10:01:26.826Z</time>
      </trkpt>
      <trkpt lat="45.86418" lon="5.62293">
        <ele>979</ele>
        <time>2021-09-05T10:01:30.836Z</time>
      </trkpt>
      <trkpt lat="45.86411" lon="5.62295">
        <ele>979</ele>
        <time>2021-09-05T10:01:35.848Z</time>
      </trkpt>
      <trkpt lat="45.86406" lon="5.62298">
        <ele>979</ele>
        <time>2021-09-05T10:01:40.826Z</time>
      </trkpt>
      <trkpt lat="45.86401" lon="5.623">
        <ele>973</ele>
        <time>2021-09-05T10:01:44.842Z</time>
      </trkpt>
      <trkpt lat="45.86396" lon="5.62302">
        <ele>973</ele>
        <time>2021-09-05T10:01:48.852Z</time>
      </trkpt>
      <trkpt lat="45.86391" lon="5.62305">
        <ele>973</ele>
        <time>2021-09-05T10:01:53.794Z</time>
      </trkpt>
      <trkpt lat="45.86387" lon="5.62308">
        <ele>973</ele>
        <time>2021-09-05T10:01:57.838Z</time>
      </trkpt>
      <trkpt lat="45.86383" lon="5.6231">
        <ele>973</ele>
        <time>2021-09-05T10:02:02.830Z</time>
      </trkpt>
      <trkpt lat="45.86378" lon="5.62312">
        <ele>973</ele>
        <time>2021-09-05T10:02:06.865Z</time>
      </trkpt>
      <trkpt lat="45.86372" lon="5.62314">
        <ele>964</ele>
        <time>2021-09-05T10:02:11.832Z</time>
      </trkpt>
      <trkpt lat="45.86365" lon="5.62318">
        <ele>964</ele>
        <time>2021-09-05T10:02:16.829Z</time>
      </trkpt>
      <trkpt lat="45.86358" lon="5.6232">
        <ele>977</ele>
        <time>2021-09-05T10:02:21.836Z</time>
      </trkpt>
      <trkpt lat="45.86353" lon="5.62324">
        <ele>977</ele>
        <time>2021-09-05T10:02:25.838Z</time>
      </trkpt>
      <trkpt lat="45.86347" lon="5.62327">
        <ele>976</ele>
        <time>2021-09-05T10:02:30.837Z</time>
      </trkpt>
      <trkpt lat="45.86338" lon="5.62329">
        <ele>976</ele>
        <time>2021-09-05T10:02:34.867Z</time>
      </trkpt>
      <trkpt lat="45.86326" lon="5.6233">
        <ele>976</ele>
        <time>2021-09-05T10:02:39.837Z</time>
      </trkpt>
      <trkpt lat="45.86319" lon="5.6233">
        <ele>973</ele>
        <time>2021-09-05T10:02:44.833Z</time>
      </trkpt>
      <trkpt lat="45.86312" lon="5.62331">
        <ele>973</ele>
        <time>2021-09-05T10:02:49.896Z</time>
      </trkpt>
      <trkpt lat="45.86306" lon="5.62331">
        <ele>973</ele>
        <time>2021-09-05T10:02:54.820Z</time>
      </trkpt>
      <trkpt lat="45.86299" lon="5.62332">
        <ele>973</ele>
        <time>2021-09-05T10:02:59.837Z</time>
      </trkpt>
      <trkpt lat="45.86293" lon="5.62333">
        <ele>973</ele>
        <time>2021-09-05T10:03:04.831Z</time>
      </trkpt>
      <trkpt lat="45.86287" lon="5.62335">
        <ele>966</ele>
        <time>2021-09-05T10:03:09.839Z</time>
      </trkpt>
      <trkpt lat="45.86282" lon="5.62335">
        <ele>966</ele>
        <time>2021-09-05T10:03:13.888Z</time>
      </trkpt>
      <trkpt lat="45.86275" lon="5.62337">
        <ele>966</ele>
        <time>2021-09-05T10:03:18.818Z</time>
      </trkpt>
      <trkpt lat="45.8627" lon="5.62339">
        <ele>966</ele>
        <time>2021-09-05T10:03:22.834Z</time>
      </trkpt>
      <trkpt lat="45.86264" lon="5.62342">
        <ele>966</ele>
        <time>2021-09-05T10:03:27.887Z</time>
      </trkpt>
      <trkpt lat="45.86258" lon="5.62347">
        <ele>962</ele>
        <time>2021-09-05T10:03:32.831Z</time>
      </trkpt>
      <trkpt lat="45.86253" lon="5.6235">
        <ele>972</ele>
        <time>2021-09-05T10:03:36.840Z</time>
      </trkpt>
      <trkpt lat="45.86247" lon="5.62352">
        <ele>972</ele>
        <time>2021-09-05T10:03:40.887Z</time>
      </trkpt>
      <trkpt lat="45.86241" lon="5.62355">
        <ele>972</ele>
        <time>2021-09-05T10:03:45.888Z</time>
      </trkpt>
      <trkpt lat="45.86236" lon="5.62361">
        <ele>964</ele>
        <time>2021-09-05T10:03:50.833Z</time>
      </trkpt>
      <trkpt lat="45.8623" lon="5.62366">
        <ele>964</ele>
        <time>2021-09-05T10:03:55.802Z</time>
      </trkpt>
      <trkpt lat="45.86226" lon="5.6237">
        <ele>964</ele>
        <time>2021-09-05T10:03:59.830Z</time>
      </trkpt>
      <trkpt lat="45.8622" lon="5.62376">
        <ele>974</ele>
        <time>2021-09-05T10:04:04.839Z</time>
      </trkpt>
      <trkpt lat="45.86215" lon="5.6238">
        <ele>974</ele>
        <time>2021-09-05T10:04:08.884Z</time>
      </trkpt>
      <trkpt lat="45.86209" lon="5.62384">
        <ele>974</ele>
        <time>2021-09-05T10:04:13.827Z</time>
      </trkpt>
      <trkpt lat="45.86203" lon="5.62388">
        <ele>963</ele>
        <time>2021-09-05T10:04:18.861Z</time>
      </trkpt>
      <trkpt lat="45.86199" lon="5.62391">
        <ele>963</ele>
        <time>2021-09-05T10:04:22.871Z</time>
      </trkpt>
      <trkpt lat="45.86193" lon="5.62396">
        <ele>963</ele>
        <time>2021-09-05T10:04:27.863Z</time>
      </trkpt>
      <trkpt lat="45.86188" lon="5.624">
        <ele>963</ele>
        <time>2021-09-05T10:04:32.837Z</time>
      </trkpt>
      <trkpt lat="45.86183" lon="5.62405">
        <ele>974</ele>
        <time>2021-09-05T10:04:36.864Z</time>
      </trkpt>
      <trkpt lat="45.8618" lon="5.6241">
        <ele>957</ele>
        <time>2021-09-05T10:04:40.887Z</time>
      </trkpt>
      <trkpt lat="45.86175" lon="5.62417">
        <ele>957</ele>
        <time>2021-09-05T10:04:45.854Z</time>
      </trkpt>
      <trkpt lat="45.86172" lon="5.62424">
        <ele>957</ele>
        <time>2021-09-05T10:04:49.898Z</time>
      </trkpt>
      <trkpt lat="45.86167" lon="5.62431">
        <ele>965</ele>
        <time>2021-09-05T10:04:54.841Z</time>
      </trkpt>
      <trkpt lat="45.86164" lon="5.62439">
        <ele>965</ele>
        <time>2021-09-05T10:04:59.814Z</time>
      </trkpt>
      <trkpt lat="45.86161" lon="5.62447">
        <ele>965</ele>
        <time>2021-09-05T10:05:04.868Z</time>
      </trkpt>
      <trkpt lat="45.86159" lon="5.62459">
        <ele>971</ele>
        <time>2021-09-05T10:05:09.855Z</time>
      </trkpt>
      <trkpt lat="45.86156" lon="5.62467">
        <ele>971</ele>
        <time>2021-09-05T10:05:13.843Z</time>
      </trkpt>
      <trkpt lat="45.86153" lon="5.62474">
        <ele>971</ele>
        <time>2021-09-05T10:05:17.870Z</time>
      </trkpt>
      <trkpt lat="45.86153" lon="5.62483">
        <ele>955</ele>
        <time>2021-09-05T10:05:22.846Z</time>
      </trkpt>
      <trkpt lat="45.86152" lon="5.6249">
        <ele>962</ele>
        <time>2021-09-05T10:05:26.868Z</time>
      </trkpt>
      <trkpt lat="45.8615" lon="5.62499">
        <ele>962</ele>
        <time>2021-09-05T10:05:31.838Z</time>
      </trkpt>
      <trkpt lat="45.86148" lon="5.62508">
        <ele>962</ele>
        <time>2021-09-05T10:05:36.827Z</time>
      </trkpt>
      <trkpt lat="45.86146" lon="5.62515">
        <ele>966</ele>
        <time>2021-09-05T10:05:40.843Z</time>
      </trkpt>
      <trkpt lat="45.86144" lon="5.62524">
        <ele>966</ele>
        <time>2021-09-05T10:05:45.838Z</time>
      </trkpt>
      <trkpt lat="45.86142" lon="5.62534">
        <ele>966</ele>
        <time>2021-09-05T10:05:50.865Z</time>
      </trkpt>
      <trkpt lat="45.86141" lon="5.62544">
        <ele>970</ele>
        <time>2021-09-05T10:05:55.804Z</time>
      </trkpt>
      <trkpt lat="45.86139" lon="5.62551">
        <ele>970</ele>
        <time>2021-09-05T10:05:59.828Z</time>
      </trkpt>
      <trkpt lat="45.86136" lon="5.62561">
        <ele>970</ele>
        <time>2021-09-05T10:06:04.839Z</time>
      </trkpt>
      <trkpt lat="45.86134" lon="5.62567">
        <ele>970</ele>
        <time>2021-09-05T10:06:08.846Z</time>
      </trkpt>
      <trkpt lat="45.8613" lon="5.62574">
        <ele>972</ele>
        <time>2021-09-05T10:06:12.870Z</time>
      </trkpt>
      <trkpt lat="45.86127" lon="5.62583">
        <ele>972</ele>
        <time>2021-09-05T10:06:17.864Z</time>
      </trkpt>
      <trkpt lat="45.86123" lon="5.62591">
        <ele>963</ele>
        <time>2021-09-05T10:06:22.835Z</time>
      </trkpt>
      <trkpt lat="45.8612" lon="5.626">
        <ele>965</ele>
        <time>2021-09-05T10:06:27.833Z</time>
      </trkpt>
      <trkpt lat="45.86117" lon="5.62609">
        <ele>965</ele>
        <time>2021-09-05T10:06:32.886Z</time>
      </trkpt>
      <trkpt lat="45.86114" lon="5.62619">
        <ele>965</ele>
        <time>2021-09-05T10:06:37.833Z</time>
      </trkpt>
      <trkpt lat="45.86112" lon="5.62629">
        <ele>968</ele>
        <time>2021-09-05T10:06:42.863Z</time>
      </trkpt>
      <trkpt lat="45.86111" lon="5.62641">
        <ele>968</ele>
        <time>2021-09-05T10:06:47.827Z</time>
      </trkpt>
      <trkpt lat="45.8611" lon="5.62648">
        <ele>968</ele>
        <time>2021-09-05T10:06:51.866Z</time>
      </trkpt>
      <trkpt lat="45.86111" lon="5.62658">
        <ele>972</ele>
        <time>2021-09-05T10:06:56.830Z</time>
      </trkpt>
      <trkpt lat="45.86112" lon="5.62666">
        <ele>972</ele>
        <time>2021-09-05T10:07:00.837Z</time>
      </trkpt>
      <trkpt lat="45.86111" lon="5.62674">
        <ele>972</ele>
        <time>2021-09-05T10:07:04.866Z</time>
      </trkpt>
      <trkpt lat="45.86109" lon="5.62683">
        <ele>975</ele>
        <time>2021-09-05T10:07:09.840Z</time>
      </trkpt>
      <trkpt lat="45.86108" lon="5.6269">
        <ele>975</ele>
        <time>2021-09-05T10:07:13.865Z</time>
      </trkpt>
      <trkpt lat="45.86107" lon="5.627">
        <ele>975</ele>
        <time>2021-09-05T10:07:18.863Z</time>
      </trkpt>
      <trkpt lat="45.86107" lon="5.62708">
        <ele>975</ele>
        <time>2021-09-05T10:07:23.830Z</time>
      </trkpt>
      <trkpt lat="45.86105" lon="5.62714">
        <ele>977</ele>
        <time>2021-09-05T10:07:27.841Z</time>
      </trkpt>
      <trkpt lat="45.86104" lon="5.62721">
        <ele>977</ele>
        <time>2021-09-05T10:07:31.864Z</time>
      </trkpt>
      <trkpt lat="45.86101" lon="5.62728">
        <ele>977</ele>
        <time>2021-09-05T10:07:36.862Z</time>
      </trkpt>
      <trkpt lat="45.86099" lon="5.62734">
        <ele>977</ele>
        <time>2021-09-05T10:07:41.842Z</time>
      </trkpt>
      <trkpt lat="45.86095" lon="5.6274">
        <ele>973</ele>
        <time>2021-09-05T10:07:46.832Z</time>
      </trkpt>
      <trkpt lat="45.86091" lon="5.62744">
        <ele>973</ele>
        <time>2021-09-05T10:07:50.837Z</time>
      </trkpt>
      <trkpt lat="45.86084" lon="5.6275">
        <ele>973</ele>
        <time>2021-09-05T10:07:55.795Z</time>
      </trkpt>
      <trkpt lat="45.8608" lon="5.62752">
        <ele>973</ele>
        <time>2021-09-05T10:07:59.841Z</time>
      </trkpt>
      <trkpt lat="45.86074" lon="5.62754">
        <ele>973</ele>
        <time>2021-09-05T10:08:04.829Z</time>
      </trkpt>
      <trkpt lat="45.86069" lon="5.62755">
        <ele>963</ele>
        <time>2021-09-05T10:08:08.859Z</time>
      </trkpt>
      <trkpt lat="45.86063" lon="5.62758">
        <ele>963</ele>
        <time>2021-09-05T10:08:13.830Z</time>
      </trkpt>
      <trkpt lat="45.86059" lon="5.62762">
        <ele>963</ele>
        <time>2021-09-05T10:08:17.838Z</time>
      </trkpt>
      <trkpt lat="45.86055" lon="5.62766">
        <ele>958</ele>
        <time>2021-09-05T10:08:21.860Z</time>
      </trkpt>
      <trkpt lat="45.86051" lon="5.62772">
        <ele>958</ele>
        <time>2021-09-05T10:08:26.860Z</time>
      </trkpt>
      <trkpt lat="45.86047" lon="5.62783">
        <ele>958</ele>
        <time>2021-09-05T10:08:31.828Z</time>
      </trkpt>
      <trkpt lat="45.86047" lon="5.62786">
        <ele>958</ele>
        <time>2021-09-05T10:08:36.827Z</time>
      </trkpt>
      <trkpt lat="45.86047" lon="5.62786">
        <ele>958</ele>
        <time>2021-09-05T10:08:40.835Z</time>
      </trkpt>
      <trkpt lat="45.86048" lon="5.62782">
        <ele>958</ele>
        <time>2021-09-05T10:11:57.804Z</time>
      </trkpt>
      <trkpt lat="45.86045" lon="5.62782">
        <ele>958</ele>
        <time>2021-09-05T10:12:01.857Z</time>
      </trkpt>
      <trkpt lat="45.86042" lon="5.62785">
        <ele>958</ele>
        <time>2021-09-05T10:12:06.887Z</time>
      </trkpt>
      <trkpt lat="45.86038" lon="5.62786">
        <ele>948</ele>
        <time>2021-09-05T10:12:11.845Z</time>
      </trkpt>
      <trkpt lat="45.86034" lon="5.62784">
        <ele>948</ele>
        <time>2021-09-05T10:12:16.859Z</time>
      </trkpt>
      <trkpt lat="45.86034" lon="5.62788">
        <ele>948</ele>
        <time>2021-09-05T10:28:10.795Z</time>
      </trkpt>
      <trkpt lat="45.86031" lon="5.62787">
        <ele>948</ele>
        <time>2021-09-05T10:28:14.806Z</time>
      </trkpt>
      <trkpt lat="45.86028" lon="5.62786">
        <ele>948</ele>
        <time>2021-09-05T10:28:19.798Z</time>
      </trkpt>
      <trkpt lat="45.86025" lon="5.62784">
        <ele>948</ele>
        <time>2021-09-05T10:28:23.804Z</time>
      </trkpt>
      <trkpt lat="45.86024" lon="5.62782">
        <ele>948</ele>
        <time>2021-09-05T10:28:28.799Z</time>
      </trkpt>
      <trkpt lat="45.86028" lon="5.62785">
        <ele>948</ele>
        <time>2021-09-05T10:29:26.791Z</time>
      </trkpt>
      <trkpt lat="45.86029" lon="5.62786">
        <ele>948</ele>
        <time>2021-09-05T10:29:30.794Z</time>
      </trkpt>
      <trkpt lat="45.86032" lon="5.62786">
        <ele>948</ele>
        <time>2021-09-05T10:29:35.804Z</time>
      </trkpt>
      <trkpt lat="45.86032" lon="5.62787">
        <ele>948</ele>
        <time>2021-09-05T10:29:40.795Z</time>
      </trkpt>
      <trkpt lat="45.86035" lon="5.6279">
        <ele>948</ele>
        <time>2021-09-05T10:29:45.800Z</time>
      </trkpt>
      <trkpt lat="45.86037" lon="5.62787">
        <ele>948</ele>
        <time>2021-09-05T10:38:35.800Z</time>
      </trkpt>
      <trkpt lat="45.86039" lon="5.62789">
        <ele>948</ele>
        <time>2021-09-05T10:38:39.799Z</time>
      </trkpt>
      <trkpt lat="45.86041" lon="5.62788">
        <ele>948</ele>
        <time>2021-09-05T10:38:43.805Z</time>
      </trkpt>
      <trkpt lat="45.86043" lon="5.62787">
        <ele>958</ele>
        <time>2021-09-05T10:38:48.803Z</time>
      </trkpt>
      <trkpt lat="45.86045" lon="5.62785">
        <ele>958</ele>
        <time>2021-09-05T10:38:52.799Z</time>
      </trkpt>
      <trkpt lat="45.86054" lon="5.62788">
        <ele>958</ele>
        <time>2021-09-05T10:44:55.821Z</time>
      </trkpt>
      <trkpt lat="45.86055" lon="5.6279">
        <ele>958</ele>
        <time>2021-09-05T10:44:59.827Z</time>
      </trkpt>
      <trkpt lat="45.86057" lon="5.62795">
        <ele>954</ele>
        <time>2021-09-05T10:45:03.855Z</time>
      </trkpt>
      <trkpt lat="45.86059" lon="5.628">
        <ele>954</ele>
        <time>2021-09-05T10:45:07.860Z</time>
      </trkpt>
      <trkpt lat="45.8606" lon="5.62806">
        <ele>954</ele>
        <time>2021-09-05T10:45:12.856Z</time>
      </trkpt>
      <trkpt lat="45.86061" lon="5.6281">
        <ele>954</ele>
        <time>2021-09-05T10:45:16.860Z</time>
      </trkpt>
      <trkpt lat="45.86062" lon="5.62818">
        <ele>954</ele>
        <time>2021-09-05T10:45:21.821Z</time>
      </trkpt>
      <trkpt lat="45.86064" lon="5.62822">
        <ele>950</ele>
        <time>2021-09-05T10:45:25.853Z</time>
      </trkpt>
      <trkpt lat="45.86066" lon="5.6283">
        <ele>950</ele>
        <time>2021-09-05T10:45:30.830Z</time>
      </trkpt>
      <trkpt lat="45.86068" lon="5.62835">
        <ele>950</ele>
        <time>2021-09-05T10:45:34.818Z</time>
      </trkpt>
      <trkpt lat="45.8607" lon="5.62841">
        <ele>967</ele>
        <time>2021-09-05T10:45:39.831Z</time>
      </trkpt>
      <trkpt lat="45.86071" lon="5.62847">
        <ele>967</ele>
        <time>2021-09-05T10:45:44.833Z</time>
      </trkpt>
      <trkpt lat="45.86074" lon="5.62852">
        <ele>968</ele>
        <time>2021-09-05T10:45:49.841Z</time>
      </trkpt>
      <trkpt lat="45.86076" lon="5.6286">
        <ele>968</ele>
        <time>2021-09-05T10:45:54.854Z</time>
      </trkpt>
      <trkpt lat="45.86078" lon="5.62866">
        <ele>968</ele>
        <time>2021-09-05T10:45:58.864Z</time>
      </trkpt>
      <trkpt lat="45.8608" lon="5.62872">
        <ele>968</ele>
        <time>2021-09-05T10:46:02.873Z</time>
      </trkpt>
      <trkpt lat="45.86081" lon="5.62879">
        <ele>967</ele>
        <time>2021-09-05T10:46:07.886Z</time>
      </trkpt>
      <trkpt lat="45.86083" lon="5.62887">
        <ele>967</ele>
        <time>2021-09-05T10:46:12.829Z</time>
      </trkpt>
      <trkpt lat="45.86085" lon="5.62895">
        <ele>967</ele>
        <time>2021-09-05T10:46:17.866Z</time>
      </trkpt>
      <trkpt lat="45.86088" lon="5.62903">
        <ele>967</ele>
        <time>2021-09-05T10:46:22.855Z</time>
      </trkpt>
      <trkpt lat="45.86091" lon="5.62911">
        <ele>967</ele>
        <time>2021-09-05T10:46:27.827Z</time>
      </trkpt>
      <trkpt lat="45.86094" lon="5.62918">
        <ele>967</ele>
        <time>2021-09-05T10:46:31.862Z</time>
      </trkpt>
      <trkpt lat="45.86097" lon="5.62925">
        <ele>972</ele>
        <time>2021-09-05T10:46:36.827Z</time>
      </trkpt>
      <trkpt lat="45.86099" lon="5.62931">
        <ele>972</ele>
        <time>2021-09-05T10:46:40.833Z</time>
      </trkpt>
      <trkpt lat="45.86101" lon="5.62937">
        <ele>972</ele>
        <time>2021-09-05T10:46:44.863Z</time>
      </trkpt>
      <trkpt lat="45.86105" lon="5.62944">
        <ele>972</ele>
        <time>2021-09-05T10:46:49.833Z</time>
      </trkpt>
      <trkpt lat="45.86107" lon="5.6295">
        <ele>972</ele>
        <time>2021-09-05T10:46:53.856Z</time>
      </trkpt>
      <trkpt lat="45.8611" lon="5.62959">
        <ele>972</ele>
        <time>2021-09-05T10:46:58.876Z</time>
      </trkpt>
      <trkpt lat="45.86111" lon="5.62966">
        <ele>972</ele>
        <time>2021-09-05T10:47:03.857Z</time>
      </trkpt>
      <trkpt lat="45.86113" lon="5.62972">
        <ele>972</ele>
        <time>2021-09-05T10:47:07.867Z</time>
      </trkpt>
      <trkpt lat="45.86115" lon="5.6298">
        <ele>972</ele>
        <time>2021-09-05T10:47:12.853Z</time>
      </trkpt>
      <trkpt lat="45.86116" lon="5.62987">
        <ele>974</ele>
        <time>2021-09-05T10:47:17.858Z</time>
      </trkpt>
      <trkpt lat="45.86116" lon="5.62994">
        <ele>974</ele>
        <time>2021-09-05T10:47:22.826Z</time>
      </trkpt>
      <trkpt lat="45.86115" lon="5.63">
        <ele>974</ele>
        <time>2021-09-05T10:47:26.857Z</time>
      </trkpt>
      <trkpt lat="45.86115" lon="5.63007">
        <ele>974</ele>
        <time>2021-09-05T10:47:30.862Z</time>
      </trkpt>
      <trkpt lat="45.86114" lon="5.63015">
        <ele>975</ele>
        <time>2021-09-05T10:47:35.824Z</time>
      </trkpt>
      <trkpt lat="45.86114" lon="5.63022">
        <ele>975</ele>
        <time>2021-09-05T10:47:39.860Z</time>
      </trkpt>
      <trkpt lat="45.86112" lon="5.6303">
        <ele>975</ele>
        <time>2021-09-05T10:47:44.856Z</time>
      </trkpt>
      <trkpt lat="45.86112" lon="5.63038">
        <ele>975</ele>
        <time>2021-09-05T10:47:49.828Z</time>
      </trkpt>
      <trkpt lat="45.86111" lon="5.63044">
        <ele>970</ele>
        <time>2021-09-05T10:47:54.835Z</time>
      </trkpt>
      <trkpt lat="45.86112" lon="5.63053">
        <ele>970</ele>
        <time>2021-09-05T10:47:59.862Z</time>
      </trkpt>
      <trkpt lat="45.86112" lon="5.63059">
        <ele>970</ele>
        <time>2021-09-05T10:48:04.830Z</time>
      </trkpt>
      <trkpt lat="45.86112" lon="5.63066">
        <ele>970</ele>
        <time>2021-09-05T10:48:09.824Z</time>
      </trkpt>
      <trkpt lat="45.86112" lon="5.63073">
        <ele>965</ele>
        <time>2021-09-05T10:48:14.820Z</time>
      </trkpt>
      <trkpt lat="45.86112" lon="5.63079">
        <ele>965</ele>
        <time>2021-09-05T10:48:19.829Z</time>
      </trkpt>
      <trkpt lat="45.86113" lon="5.63084">
        <ele>965</ele>
        <time>2021-09-05T10:48:24.823Z</time>
      </trkpt>
      <trkpt lat="45.86114" lon="5.63089">
        <ele>965</ele>
        <time>2021-09-05T10:48:28.852Z</time>
      </trkpt>
      <trkpt lat="45.86116" lon="5.63096">
        <ele>965</ele>
        <time>2021-09-05T10:48:33.823Z</time>
      </trkpt>
      <trkpt lat="45.86117" lon="5.63104">
        <ele>965</ele>
        <time>2021-09-05T10:48:38.858Z</time>
      </trkpt>
      <trkpt lat="45.86119" lon="5.63111">
        <ele>965</ele>
        <time>2021-09-05T10:48:43.824Z</time>
      </trkpt>
      <trkpt lat="45.86121" lon="5.63116">
        <ele>965</ele>
        <time>2021-09-05T10:48:47.832Z</time>
      </trkpt>
      <trkpt lat="45.86123" lon="5.63121">
        <ele>965</ele>
        <time>2021-09-05T10:48:51.855Z</time>
      </trkpt>
      <trkpt lat="45.86125" lon="5.63129">
        <ele>977</ele>
        <time>2021-09-05T10:48:56.852Z</time>
      </trkpt>
      <trkpt lat="45.86127" lon="5.63136">
        <ele>977</ele>
        <time>2021-09-05T10:49:00.851Z</time>
      </trkpt>
      <trkpt lat="45.86129" lon="5.63144">
        <ele>977</ele>
        <time>2021-09-05T10:49:05.824Z</time>
      </trkpt>
      <trkpt lat="45.86131" lon="5.63151">
        <ele>977</ele>
        <time>2021-09-05T10:49:10.835Z</time>
      </trkpt>
      <trkpt lat="45.86132" lon="5.63156">
        <ele>976</ele>
        <time>2021-09-05T10:49:14.869Z</time>
      </trkpt>
      <trkpt lat="45.86132" lon="5.63163">
        <ele>976</ele>
        <time>2021-09-05T10:49:18.857Z</time>
      </trkpt>
      <trkpt lat="45.86132" lon="5.63172">
        <ele>976</ele>
        <time>2021-09-05T10:49:23.821Z</time>
      </trkpt>
      <trkpt lat="45.86131" lon="5.63179">
        <ele>976</ele>
        <time>2021-09-05T10:49:27.829Z</time>
      </trkpt>
      <trkpt lat="45.8613" lon="5.63187">
        <ele>976</ele>
        <time>2021-09-05T10:49:32.829Z</time>
      </trkpt>
      <trkpt lat="45.86129" lon="5.63196">
        <ele>976</ele>
        <time>2021-09-05T10:49:37.821Z</time>
      </trkpt>
      <trkpt lat="45.8613" lon="5.63202">
        <ele>976</ele>
        <time>2021-09-05T10:49:41.855Z</time>
      </trkpt>
      <trkpt lat="45.8613" lon="5.63209">
        <ele>974</ele>
        <time>2021-09-05T10:49:45.862Z</time>
      </trkpt>
      <trkpt lat="45.86129" lon="5.63215">
        <ele>974</ele>
        <time>2021-09-05T10:49:49.864Z</time>
      </trkpt>
      <trkpt lat="45.86128" lon="5.63223">
        <ele>974</ele>
        <time>2021-09-05T10:49:54.852Z</time>
      </trkpt>
      <trkpt lat="45.86128" lon="5.63232">
        <ele>974</ele>
        <time>2021-09-05T10:49:59.855Z</time>
      </trkpt>
      <trkpt lat="45.86129" lon="5.63241">
        <ele>977</ele>
        <time>2021-09-05T10:50:04.861Z</time>
      </trkpt>
      <trkpt lat="45.86129" lon="5.63248">
        <ele>977</ele>
        <time>2021-09-05T10:50:09.825Z</time>
      </trkpt>
      <trkpt lat="45.86131" lon="5.63256">
        <ele>977</ele>
        <time>2021-09-05T10:50:14.829Z</time>
      </trkpt>
      <trkpt lat="45.86132" lon="5.63264">
        <ele>977</ele>
        <time>2021-09-05T10:50:19.813Z</time>
      </trkpt>
      <trkpt lat="45.86133" lon="5.63269">
        <ele>978</ele>
        <time>2021-09-05T10:50:23.818Z</time>
      </trkpt>
      <trkpt lat="45.86132" lon="5.63276">
        <ele>978</ele>
        <time>2021-09-05T10:50:28.842Z</time>
      </trkpt>
      <trkpt lat="45.86131" lon="5.63283">
        <ele>978</ele>
        <time>2021-09-05T10:50:33.822Z</time>
      </trkpt>
      <trkpt lat="45.8613" lon="5.6329">
        <ele>978</ele>
        <time>2021-09-05T10:50:37.833Z</time>
      </trkpt>
      <trkpt lat="45.86127" lon="5.63295">
        <ele>977</ele>
        <time>2021-09-05T10:50:42.798Z</time>
      </trkpt>
      <trkpt lat="45.86123" lon="5.63299">
        <ele>967</ele>
        <time>2021-09-05T10:50:47.829Z</time>
      </trkpt>
      <trkpt lat="45.8612" lon="5.63303">
        <ele>967</ele>
        <time>2021-09-05T10:50:52.827Z</time>
      </trkpt>
      <trkpt lat="45.86117" lon="5.63307">
        <ele>967</ele>
        <time>2021-09-05T10:50:57.819Z</time>
      </trkpt>
      <trkpt lat="45.86115" lon="5.63309">
        <ele>967</ele>
        <time>2021-09-05T10:51:01.834Z</time>
      </trkpt>
      <trkpt lat="45.86112" lon="5.63312">
        <ele>967</ele>
        <time>2021-09-05T10:51:06.823Z</time>
      </trkpt>
      <trkpt lat="45.8611" lon="5.63315">
        <ele>967</ele>
        <time>2021-09-05T10:51:10.830Z</time>
      </trkpt>
      <trkpt lat="45.86107" lon="5.6332">
        <ele>965</ele>
        <time>2021-09-05T10:51:14.872Z</time>
      </trkpt>
      <trkpt lat="45.86104" lon="5.63325">
        <ele>965</ele>
        <time>2021-09-05T10:51:19.812Z</time>
      </trkpt>
      <trkpt lat="45.86102" lon="5.63329">
        <ele>965</ele>
        <time>2021-09-05T10:51:24.843Z</time>
      </trkpt>
      <trkpt lat="45.86099" lon="5.63334">
        <ele>965</ele>
        <time>2021-09-05T10:51:29.836Z</time>
      </trkpt>
      <trkpt lat="45.86096" lon="5.6334">
        <ele>952</ele>
        <time>2021-09-05T10:51:34.838Z</time>
      </trkpt>
      <trkpt lat="45.86093" lon="5.63345">
        <ele>952</ele>
        <time>2021-09-05T10:51:39.825Z</time>
      </trkpt>
      <trkpt lat="45.86091" lon="5.6335">
        <ele>954</ele>
        <time>2021-09-05T10:51:43.828Z</time>
      </trkpt>
      <trkpt lat="45.86088" lon="5.63356">
        <ele>954</ele>
        <time>2021-09-05T10:51:48.828Z</time>
      </trkpt>
      <trkpt lat="45.86084" lon="5.63362">
        <ele>954</ele>
        <time>2021-09-05T10:51:53.831Z</time>
      </trkpt>
      <trkpt lat="45.8608" lon="5.63368">
        <ele>954</ele>
        <time>2021-09-05T10:51:58.817Z</time>
      </trkpt>
      <trkpt lat="45.86076" lon="5.63375">
        <ele>954</ele>
        <time>2021-09-05T10:52:03.829Z</time>
      </trkpt>
      <trkpt lat="45.86072" lon="5.6338">
        <ele>959</ele>
        <time>2021-09-05T10:52:07.858Z</time>
      </trkpt>
      <trkpt lat="45.86068" lon="5.63387">
        <ele>939</ele>
        <time>2021-09-05T10:52:12.854Z</time>
      </trkpt>
      <trkpt lat="45.86064" lon="5.63395">
        <ele>939</ele>
        <time>2021-09-05T10:52:17.854Z</time>
      </trkpt>
      <trkpt lat="45.8606" lon="5.63403">
        <ele>942</ele>
        <time>2021-09-05T10:52:22.855Z</time>
      </trkpt>
      <trkpt lat="45.86057" lon="5.6341">
        <ele>942</ele>
        <time>2021-09-05T10:52:27.821Z</time>
      </trkpt>
      <trkpt lat="45.86053" lon="5.63415">
        <ele>942</ele>
        <time>2021-09-05T10:52:31.829Z</time>
      </trkpt>
      <trkpt lat="45.8605" lon="5.63423">
        <ele>942</ele>
        <time>2021-09-05T10:52:36.840Z</time>
      </trkpt>
      <trkpt lat="45.86046" lon="5.6343">
        <ele>942</ele>
        <time>2021-09-05T10:52:41.794Z</time>
      </trkpt>
      <trkpt lat="45.86043" lon="5.63437">
        <ele>946</ele>
        <time>2021-09-05T10:52:45.826Z</time>
      </trkpt>
      <trkpt lat="45.86039" lon="5.63446">
        <ele>926</ele>
        <time>2021-09-05T10:52:50.827Z</time>
      </trkpt>
      <trkpt lat="45.86037" lon="5.63456">
        <ele>926</ele>
        <time>2021-09-05T10:52:55.820Z</time>
      </trkpt>
      <trkpt lat="45.86036" lon="5.63472">
        <ele>932</ele>
        <time>2021-09-05T10:53:00.841Z</time>
      </trkpt>
      <trkpt lat="45.86035" lon="5.63483">
        <ele>932</ele>
        <time>2021-09-05T10:53:04.848Z</time>
      </trkpt>
      <trkpt lat="45.86035" lon="5.63492">
        <ele>938</ele>
        <time>2021-09-05T10:53:09.831Z</time>
      </trkpt>
      <trkpt lat="45.86036" lon="5.63501">
        <ele>938</ele>
        <time>2021-09-05T10:53:14.826Z</time>
      </trkpt>
      <trkpt lat="45.86037" lon="5.63508">
        <ele>938</ele>
        <time>2021-09-05T10:53:18.864Z</time>
      </trkpt>
      <trkpt lat="45.86038" lon="5.63516">
        <ele>937</ele>
        <time>2021-09-05T10:53:23.828Z</time>
      </trkpt>
      <trkpt lat="45.8604" lon="5.63524">
        <ele>937</ele>
        <time>2021-09-05T10:53:28.819Z</time>
      </trkpt>
      <trkpt lat="45.86042" lon="5.63531">
        <ele>949</ele>
        <time>2021-09-05T10:53:32.823Z</time>
      </trkpt>
      <trkpt lat="45.86044" lon="5.63538">
        <ele>949</ele>
        <time>2021-09-05T10:53:36.839Z</time>
      </trkpt>
      <trkpt lat="45.86046" lon="5.63546">
        <ele>948</ele>
        <time>2021-09-05T10:53:41.880Z</time>
      </trkpt>
      <trkpt lat="45.86049" lon="5.63553">
        <ele>948</ele>
        <time>2021-09-05T10:53:46.832Z</time>
      </trkpt>
      <trkpt lat="45.8605" lon="5.6356">
        <ele>948</ele>
        <time>2021-09-05T10:53:50.861Z</time>
      </trkpt>
      <trkpt lat="45.8605" lon="5.63567">
        <ele>948</ele>
        <time>2021-09-05T10:53:55.854Z</time>
      </trkpt>
      <trkpt lat="45.86051" lon="5.63574">
        <ele>947</ele>
        <time>2021-09-05T10:53:59.868Z</time>
      </trkpt>
      <trkpt lat="45.86051" lon="5.63582">
        <ele>947</ele>
        <time>2021-09-05T10:54:04.835Z</time>
      </trkpt>
      <trkpt lat="45.86052" lon="5.6359">
        <ele>947</ele>
        <time>2021-09-05T10:54:09.804Z</time>
      </trkpt>
      <trkpt lat="45.86052" lon="5.63596">
        <ele>947</ele>
        <time>2021-09-05T10:54:13.830Z</time>
      </trkpt>
      <trkpt lat="45.86052" lon="5.63603">
        <ele>945</ele>
        <time>2021-09-05T10:54:17.864Z</time>
      </trkpt>
      <trkpt lat="45.86053" lon="5.63612">
        <ele>945</ele>
        <time>2021-09-05T10:54:22.833Z</time>
      </trkpt>
      <trkpt lat="45.86053" lon="5.63622">
        <ele>945</ele>
        <time>2021-09-05T10:54:27.824Z</time>
      </trkpt>
      <trkpt lat="45.86053" lon="5.63631">
        <ele>943</ele>
        <time>2021-09-05T10:54:31.841Z</time>
      </trkpt>
      <trkpt lat="45.86053" lon="5.63642">
        <ele>943</ele>
        <time>2021-09-05T10:54:36.852Z</time>
      </trkpt>
      <trkpt lat="45.86054" lon="5.63653">
        <ele>942</ele>
        <time>2021-09-05T10:54:41.790Z</time>
      </trkpt>
      <trkpt lat="45.86054" lon="5.63661">
        <ele>942</ele>
        <time>2021-09-05T10:54:45.863Z</time>
      </trkpt>
      <trkpt lat="45.86055" lon="5.63671">
        <ele>942</ele>
        <time>2021-09-05T10:54:50.825Z</time>
      </trkpt>
      <trkpt lat="45.86057" lon="5.63678">
        <ele>942</ele>
        <time>2021-09-05T10:54:54.854Z</time>
      </trkpt>
      <trkpt lat="45.86057" lon="5.63684">
        <ele>943</ele>
        <time>2021-09-05T10:54:58.862Z</time>
      </trkpt>
      <trkpt lat="45.86058" lon="5.63692">
        <ele>943</ele>
        <time>2021-09-05T10:55:03.829Z</time>
      </trkpt>
      <trkpt lat="45.86059" lon="5.63698">
        <ele>943</ele>
        <time>2021-09-05T10:55:07.854Z</time>
      </trkpt>
      <trkpt lat="45.86059" lon="5.63704">
        <ele>943</ele>
        <time>2021-09-05T10:55:12.832Z</time>
      </trkpt>
      <trkpt lat="45.86059" lon="5.63707">
        <ele>943</ele>
        <time>2021-09-05T10:55:16.855Z</time>
      </trkpt>
      <trkpt lat="45.8606" lon="5.63712">
        <ele>944</ele>
        <time>2021-09-05T10:55:21.861Z</time>
      </trkpt>
      <trkpt lat="45.86062" lon="5.63718">
        <ele>944</ele>
        <time>2021-09-05T10:55:26.816Z</time>
      </trkpt>
      <trkpt lat="45.86063" lon="5.63724">
        <ele>944</ele>
        <time>2021-09-05T10:55:31.867Z</time>
      </trkpt>
      <trkpt lat="45.86064" lon="5.63734">
        <ele>944</ele>
        <time>2021-09-05T10:55:36.829Z</time>
      </trkpt>
      <trkpt lat="45.86064" lon="5.63742">
        <ele>942</ele>
        <time>2021-09-05T10:55:41.795Z</time>
      </trkpt>
      <trkpt lat="45.86066" lon="5.63748">
        <ele>942</ele>
        <time>2021-09-05T10:55:45.803Z</time>
      </trkpt>
      <trkpt lat="45.86067" lon="5.63753">
        <ele>942</ele>
        <time>2021-09-05T10:55:49.836Z</time>
      </trkpt>
      <trkpt lat="45.86071" lon="5.63763">
        <ele>947</ele>
        <time>2021-09-05T10:55:54.859Z</time>
      </trkpt>
      <trkpt lat="45.86074" lon="5.6377">
        <ele>944</ele>
        <time>2021-09-05T10:55:59.833Z</time>
      </trkpt>
      <trkpt lat="45.86076" lon="5.63777">
        <ele>944</ele>
        <time>2021-09-05T10:56:03.855Z</time>
      </trkpt>
      <trkpt lat="45.86077" lon="5.63785">
        <ele>944</ele>
        <time>2021-09-05T10:56:08.827Z</time>
      </trkpt>
      <trkpt lat="45.86079" lon="5.63789">
        <ele>944</ele>
        <time>2021-09-05T10:56:12.832Z</time>
      </trkpt>
      <trkpt lat="45.86083" lon="5.63799">
        <ele>940</ele>
        <time>2021-09-05T10:56:17.828Z</time>
      </trkpt>
      <trkpt lat="45.86087" lon="5.63807">
        <ele>940</ele>
        <time>2021-09-05T10:56:22.825Z</time>
      </trkpt>
      <trkpt lat="45.86089" lon="5.63813">
        <ele>940</ele>
        <time>2021-09-05T10:56:26.872Z</time>
      </trkpt>
      <trkpt lat="45.86093" lon="5.6382">
        <ele>939</ele>
        <time>2021-09-05T10:56:31.826Z</time>
      </trkpt>
      <trkpt lat="45.861" lon="5.63825">
        <ele>944</ele>
        <time>2021-09-05T10:56:36.818Z</time>
      </trkpt>
      <trkpt lat="45.86105" lon="5.63829">
        <ele>944</ele>
        <time>2021-09-05T10:56:40.832Z</time>
      </trkpt>
      <trkpt lat="45.8611" lon="5.63835">
        <ele>944</ele>
        <time>2021-09-05T10:56:45.871Z</time>
      </trkpt>
      <trkpt lat="45.86116" lon="5.63842">
        <ele>944</ele>
        <time>2021-09-05T10:56:50.858Z</time>
      </trkpt>
      <trkpt lat="45.86122" lon="5.63848">
        <ele>941</ele>
        <time>2021-09-05T10:56:55.854Z</time>
      </trkpt>
      <trkpt lat="45.86125" lon="5.63851">
        <ele>942</ele>
        <time>2021-09-05T10:56:59.851Z</time>
      </trkpt>
      <trkpt lat="45.8613" lon="5.63854">
        <ele>942</ele>
        <time>2021-09-05T10:57:03.863Z</time>
      </trkpt>
      <trkpt lat="45.86135" lon="5.63858">
        <ele>942</ele>
        <time>2021-09-05T10:57:08.830Z</time>
      </trkpt>
      <trkpt lat="45.86139" lon="5.6386">
        <ele>942</ele>
        <time>2021-09-05T10:57:12.856Z</time>
      </trkpt>
      <trkpt lat="45.86147" lon="5.63862">
        <ele>942</ele>
        <time>2021-09-05T10:57:17.827Z</time>
      </trkpt>
      <trkpt lat="45.86152" lon="5.63864">
        <ele>942</ele>
        <time>2021-09-05T10:57:21.869Z</time>
      </trkpt>
      <trkpt lat="45.86158" lon="5.63866">
        <ele>941</ele>
        <time>2021-09-05T10:57:26.853Z</time>
      </trkpt>
      <trkpt lat="45.86164" lon="5.63866">
        <ele>941</ele>
        <time>2021-09-05T10:57:30.880Z</time>
      </trkpt>
      <trkpt lat="45.86171" lon="5.63869">
        <ele>941</ele>
        <time>2021-09-05T10:57:35.829Z</time>
      </trkpt>
      <trkpt lat="45.86177" lon="5.63873">
        <ele>941</ele>
        <time>2021-09-05T10:57:40.855Z</time>
      </trkpt>
      <trkpt lat="45.86184" lon="5.63875">
        <ele>938</ele>
        <time>2021-09-05T10:57:45.821Z</time>
      </trkpt>
      <trkpt lat="45.8619" lon="5.63877">
        <ele>938</ele>
        <time>2021-09-05T10:57:50.823Z</time>
      </trkpt>
      <trkpt lat="45.86195" lon="5.63878">
        <ele>938</ele>
        <time>2021-09-05T10:57:54.823Z</time>
      </trkpt>
      <trkpt lat="45.86201" lon="5.63882">
        <ele>938</ele>
        <time>2021-09-05T10:57:59.792Z</time>
      </trkpt>
      <trkpt lat="45.86206" lon="5.63884">
        <ele>938</ele>
        <time>2021-09-05T10:58:03.828Z</time>
      </trkpt>
      <trkpt lat="45.8621" lon="5.63887">
        <ele>936</ele>
        <time>2021-09-05T10:58:07.881Z</time>
      </trkpt>
      <trkpt lat="45.86216" lon="5.63889">
        <ele>936</ele>
        <time>2021-09-05T10:58:12.841Z</time>
      </trkpt>
      <trkpt lat="45.86222" lon="5.6389">
        <ele>936</ele>
        <time>2021-09-05T10:58:17.853Z</time>
      </trkpt>
      <trkpt lat="45.86229" lon="5.63891">
        <ele>936</ele>
        <time>2021-09-05T10:58:22.829Z</time>
      </trkpt>
      <trkpt lat="45.86234" lon="5.63893">
        <ele>936</ele>
        <time>2021-09-05T10:58:26.864Z</time>
      </trkpt>
      <trkpt lat="45.8624" lon="5.63896">
        <ele>938</ele>
        <time>2021-09-05T10:58:31.828Z</time>
      </trkpt>
      <trkpt lat="45.8625" lon="5.63898">
        <ele>938</ele>
        <time>2021-09-05T10:58:35.851Z</time>
      </trkpt>
      <trkpt lat="45.86258" lon="5.63898">
        <ele>938</ele>
        <time>2021-09-05T10:58:39.868Z</time>
      </trkpt>
      <trkpt lat="45.86266" lon="5.63898">
        <ele>943</ele>
        <time>2021-09-05T10:58:44.794Z</time>
      </trkpt>
      <trkpt lat="45.86272" lon="5.63899">
        <ele>943</ele>
        <time>2021-09-05T10:58:48.846Z</time>
      </trkpt>
      <trkpt lat="45.86278" lon="5.63901">
        <ele>943</ele>
        <time>2021-09-05T10:58:53.815Z</time>
      </trkpt>
      <trkpt lat="45.86283" lon="5.63903">
        <ele>938</ele>
        <time>2021-09-05T10:58:57.851Z</time>
      </trkpt>
      <trkpt lat="45.86289" lon="5.63905">
        <ele>938</ele>
        <time>2021-09-05T10:59:02.829Z</time>
      </trkpt>
      <trkpt lat="45.86294" lon="5.63906">
        <ele>942</ele>
        <time>2021-09-05T10:59:07.830Z</time>
      </trkpt>
      <trkpt lat="45.86301" lon="5.63906">
        <ele>942</ele>
        <time>2021-09-05T10:59:12.858Z</time>
      </trkpt>
      <trkpt lat="45.86307" lon="5.63908">
        <ele>942</ele>
        <time>2021-09-05T10:59:17.829Z</time>
      </trkpt>
      <trkpt lat="45.86314" lon="5.63911">
        <ele>942</ele>
        <time>2021-09-05T10:59:22.833Z</time>
      </trkpt>
      <trkpt lat="45.86323" lon="5.63915">
        <ele>943</ele>
        <time>2021-09-05T10:59:26.857Z</time>
      </trkpt>
      <trkpt lat="45.8633" lon="5.63923">
        <ele>943</ele>
        <time>2021-09-05T10:59:31.825Z</time>
      </trkpt>
      <trkpt lat="45.86336" lon="5.63927">
        <ele>943</ele>
        <time>2021-09-05T10:59:36.851Z</time>
      </trkpt>
      <trkpt lat="45.86341" lon="5.63931">
        <ele>938</ele>
        <time>2021-09-05T10:59:41.817Z</time>
      </trkpt>
      <trkpt lat="45.86346" lon="5.63933">
        <ele>938</ele>
        <time>2021-09-05T10:59:46.822Z</time>
      </trkpt>
      <trkpt lat="45.86352" lon="5.63934">
        <ele>939</ele>
        <time>2021-09-05T10:59:51.828Z</time>
      </trkpt>
      <trkpt lat="45.86358" lon="5.63935">
        <ele>939</ele>
        <time>2021-09-05T10:59:56.826Z</time>
      </trkpt>
      <trkpt lat="45.86364" lon="5.63936">
        <ele>939</ele>
        <time>2021-09-05T11:00:01.820Z</time>
      </trkpt>
      <trkpt lat="45.86371" lon="5.63937">
        <ele>939</ele>
        <time>2021-09-05T11:00:06.871Z</time>
      </trkpt>
      <trkpt lat="45.8638" lon="5.63937">
        <ele>940</ele>
        <time>2021-09-05T11:00:11.819Z</time>
      </trkpt>
      <trkpt lat="45.86387" lon="5.63936">
        <ele>940</ele>
        <time>2021-09-05T11:00:16.797Z</time>
      </trkpt>
      <trkpt lat="45.86391" lon="5.63937">
        <ele>940</ele>
        <time>2021-09-05T11:00:20.857Z</time>
      </trkpt>
      <trkpt lat="45.86403" lon="5.63943">
        <ele>940</ele>
        <time>2021-09-05T11:00:25.826Z</time>
      </trkpt>
      <trkpt lat="45.86412" lon="5.63949">
        <ele>938</ele>
        <time>2021-09-05T11:00:30.820Z</time>
      </trkpt>
      <trkpt lat="45.8642" lon="5.63951">
        <ele>938</ele>
        <time>2021-09-05T11:00:35.837Z</time>
      </trkpt>
      <trkpt lat="45.86426" lon="5.63954">
        <ele>938</ele>
        <time>2021-09-05T11:00:40.862Z</time>
      </trkpt>
      <trkpt lat="45.86434" lon="5.63952">
        <ele>938</ele>
        <time>2021-09-05T11:00:45.793Z</time>
      </trkpt>
      <trkpt lat="45.86439" lon="5.63952">
        <ele>938</ele>
        <time>2021-09-05T11:00:49.832Z</time>
      </trkpt>
      <trkpt lat="45.86445" lon="5.63953">
        <ele>938</ele>
        <time>2021-09-05T11:00:54.844Z</time>
      </trkpt>
      <trkpt lat="45.86451" lon="5.63952">
        <ele>938</ele>
        <time>2021-09-05T11:00:59.791Z</time>
      </trkpt>
      <trkpt lat="45.86455" lon="5.63952">
        <ele>938</ele>
        <time>2021-09-05T11:01:03.810Z</time>
      </trkpt>
      <trkpt lat="45.86463" lon="5.63951">
        <ele>939</ele>
        <time>2021-09-05T11:01:08.816Z</time>
      </trkpt>
      <trkpt lat="45.86469" lon="5.63952">
        <ele>939</ele>
        <time>2021-09-05T11:01:13.856Z</time>
      </trkpt>
      <trkpt lat="45.86477" lon="5.63954">
        <ele>939</ele>
        <time>2021-09-05T11:01:18.823Z</time>
      </trkpt>
      <trkpt lat="45.86484" lon="5.63956">
        <ele>939</ele>
        <time>2021-09-05T11:01:23.860Z</time>
      </trkpt>
      <trkpt lat="45.86489" lon="5.63956">
        <ele>940</ele>
        <time>2021-09-05T11:01:27.881Z</time>
      </trkpt>
      <trkpt lat="45.86496" lon="5.63958">
        <ele>940</ele>
        <time>2021-09-05T11:01:32.813Z</time>
      </trkpt>
      <trkpt lat="45.86501" lon="5.63957">
        <ele>940</ele>
        <time>2021-09-05T11:01:37.859Z</time>
      </trkpt>
      <trkpt lat="45.86504" lon="5.63957">
        <ele>940</ele>
        <time>2021-09-05T11:01:41.865Z</time>
      </trkpt>
      <trkpt lat="45.86508" lon="5.63957">
        <ele>940</ele>
        <time>2021-09-05T11:01:46.832Z</time>
      </trkpt>
      <trkpt lat="45.86515" lon="5.63956">
        <ele>940</ele>
        <time>2021-09-05T11:01:51.853Z</time>
      </trkpt>
      <trkpt lat="45.86522" lon="5.63955">
        <ele>940</ele>
        <time>2021-09-05T11:01:56.830Z</time>
      </trkpt>
      <trkpt lat="45.86527" lon="5.63955">
        <ele>940</ele>
        <time>2021-09-05T11:02:01.822Z</time>
      </trkpt>
      <trkpt lat="45.86534" lon="5.63957">
        <ele>940</ele>
        <time>2021-09-05T11:02:06.822Z</time>
      </trkpt>
      <trkpt lat="45.86541" lon="5.63958">
        <ele>935</ele>
        <time>2021-09-05T11:02:11.817Z</time>
      </trkpt>
      <trkpt lat="45.86545" lon="5.6396">
        <ele>933</ele>
        <time>2021-09-05T11:02:15.831Z</time>
      </trkpt>
      <trkpt lat="45.86552" lon="5.63961">
        <ele>933</ele>
        <time>2021-09-05T11:02:20.815Z</time>
      </trkpt>
      <trkpt lat="45.86559" lon="5.63961">
        <ele>933</ele>
        <time>2021-09-05T11:02:25.823Z</time>
      </trkpt>
      <trkpt lat="45.86565" lon="5.63964">
        <ele>933</ele>
        <time>2021-09-05T11:02:29.847Z</time>
      </trkpt>
      <trkpt lat="45.86571" lon="5.63966">
        <ele>932</ele>
        <time>2021-09-05T11:02:34.825Z</time>
      </trkpt>
      <trkpt lat="45.86578" lon="5.63971">
        <ele>932</ele>
        <time>2021-09-05T11:02:39.867Z</time>
      </trkpt>
      <trkpt lat="45.86585" lon="5.63973">
        <ele>932</ele>
        <time>2021-09-05T11:02:44.805Z</time>
      </trkpt>
      <trkpt lat="45.86592" lon="5.63973">
        <ele>932</ele>
        <time>2021-09-05T11:02:48.828Z</time>
      </trkpt>
      <trkpt lat="45.86599" lon="5.63974">
        <ele>933</ele>
        <time>2021-09-05T11:02:53.854Z</time>
      </trkpt>
      <trkpt lat="45.86605" lon="5.63972">
        <ele>933</ele>
        <time>2021-09-05T11:02:58.852Z</time>
      </trkpt>
      <trkpt lat="45.86609" lon="5.63969">
        <ele>933</ele>
        <time>2021-09-05T11:03:02.856Z</time>
      </trkpt>
      <trkpt lat="45.86614" lon="5.63967">
        <ele>933</ele>
        <time>2021-09-05T11:03:06.871Z</time>
      </trkpt>
      <trkpt lat="45.8662" lon="5.63964">
        <ele>933</ele>
        <time>2021-09-05T11:03:11.863Z</time>
      </trkpt>
      <trkpt lat="45.86626" lon="5.63962">
        <ele>932</ele>
        <time>2021-09-05T11:03:16.827Z</time>
      </trkpt>
      <trkpt lat="45.8664" lon="5.6396">
        <ele>932</ele>
        <time>2021-09-05T11:03:21.830Z</time>
      </trkpt>
      <trkpt lat="45.8665" lon="5.63958">
        <ele>941</ele>
        <time>2021-09-05T11:03:26.822Z</time>
      </trkpt>
      <trkpt lat="45.86655" lon="5.63955">
        <ele>941</ele>
        <time>2021-09-05T11:03:30.834Z</time>
      </trkpt>
      <trkpt lat="45.8666" lon="5.63953">
        <ele>941</ele>
        <time>2021-09-05T11:03:35.838Z</time>
      </trkpt>
      <trkpt lat="45.86666" lon="5.63951">
        <ele>941</ele>
        <time>2021-09-05T11:03:40.820Z</time>
      </trkpt>
      <trkpt lat="45.86673" lon="5.63949">
        <ele>941</ele>
        <time>2021-09-05T11:03:45.800Z</time>
      </trkpt>
      <trkpt lat="45.86677" lon="5.63951">
        <ele>941</ele>
        <time>2021-09-05T11:03:49.858Z</time>
      </trkpt>
      <trkpt lat="45.86682" lon="5.63952">
        <ele>941</ele>
        <time>2021-09-05T11:03:53.861Z</time>
      </trkpt>
      <trkpt lat="45.86688" lon="5.63952">
        <ele>941</ele>
        <time>2021-09-05T11:03:57.861Z</time>
      </trkpt>
      <trkpt lat="45.86695" lon="5.63951">
        <ele>941</ele>
        <time>2021-09-05T11:04:02.858Z</time>
      </trkpt>
      <trkpt lat="45.86702" lon="5.63951">
        <ele>941</ele>
        <time>2021-09-05T11:04:07.832Z</time>
      </trkpt>
      <trkpt lat="45.86711" lon="5.6395">
        <ele>940</ele>
        <time>2021-09-05T11:04:11.862Z</time>
      </trkpt>
      <trkpt lat="45.86718" lon="5.63952">
        <ele>940</ele>
        <time>2021-09-05T11:04:16.829Z</time>
      </trkpt>
      <trkpt lat="45.86724" lon="5.63951">
        <ele>940</ele>
        <time>2021-09-05T11:04:20.859Z</time>
      </trkpt>
      <trkpt lat="45.86731" lon="5.63951">
        <ele>940</ele>
        <time>2021-09-05T11:04:25.830Z</time>
      </trkpt>
      <trkpt lat="45.86736" lon="5.6395">
        <ele>940</ele>
        <time>2021-09-05T11:04:29.856Z</time>
      </trkpt>
      <trkpt lat="45.8674" lon="5.6395">
        <ele>938</ele>
        <time>2021-09-05T11:04:33.872Z</time>
      </trkpt>
      <trkpt lat="45.86746" lon="5.63948">
        <ele>938</ele>
        <time>2021-09-05T11:04:38.855Z</time>
      </trkpt>
      <trkpt lat="45.86752" lon="5.63946">
        <ele>938</ele>
        <time>2021-09-05T11:04:42.856Z</time>
      </trkpt>
      <trkpt lat="45.8676" lon="5.63943">
        <ele>938</ele>
        <time>2021-09-05T11:04:47.796Z</time>
      </trkpt>
      <trkpt lat="45.86766" lon="5.63942">
        <ele>935</ele>
        <time>2021-09-05T11:04:51.852Z</time>
      </trkpt>
      <trkpt lat="45.86772" lon="5.63939">
        <ele>935</ele>
        <time>2021-09-05T11:04:56.833Z</time>
      </trkpt>
      <trkpt lat="45.86778" lon="5.63938">
        <ele>935</ele>
        <time>2021-09-05T11:05:01.824Z</time>
      </trkpt>
      <trkpt lat="45.86784" lon="5.63935">
        <ele>935</ele>
        <time>2021-09-05T11:05:06.829Z</time>
      </trkpt>
      <trkpt lat="45.86789" lon="5.63933">
        <ele>935</ele>
        <time>2021-09-05T11:05:10.843Z</time>
      </trkpt>
      <trkpt lat="45.86794" lon="5.63929">
        <ele>934</ele>
        <time>2021-09-05T11:05:15.820Z</time>
      </trkpt>
      <trkpt lat="45.86801" lon="5.63924">
        <ele>934</ele>
        <time>2021-09-05T11:05:20.830Z</time>
      </trkpt>
      <trkpt lat="45.86809" lon="5.63917">
        <ele>934</ele>
        <time>2021-09-05T11:05:25.843Z</time>
      </trkpt>
      <trkpt lat="45.86814" lon="5.63914">
        <ele>934</ele>
        <time>2021-09-05T11:05:30.818Z</time>
      </trkpt>
      <trkpt lat="45.86819" lon="5.63912">
        <ele>934</ele>
        <time>2021-09-05T11:05:34.845Z</time>
      </trkpt>
      <trkpt lat="45.86825" lon="5.63909">
        <ele>925</ele>
        <time>2021-09-05T11:05:39.835Z</time>
      </trkpt>
      <trkpt lat="45.86831" lon="5.639">
        <ele>934</ele>
        <time>2021-09-05T11:05:44.834Z</time>
      </trkpt>
      <trkpt lat="45.86837" lon="5.63894">
        <ele>934</ele>
        <time>2021-09-05T11:05:49.851Z</time>
      </trkpt>
      <trkpt lat="45.86843" lon="5.63888">
        <ele>934</ele>
        <time>2021-09-05T11:05:54.821Z</time>
      </trkpt>
      <trkpt lat="45.86851" lon="5.63882">
        <ele>928</ele>
        <time>2021-09-05T11:05:58.822Z</time>
      </trkpt>
      <trkpt lat="45.86858" lon="5.63875">
        <ele>934</ele>
        <time>2021-09-05T11:06:03.827Z</time>
      </trkpt>
      <trkpt lat="45.86863" lon="5.6387">
        <ele>934</ele>
        <time>2021-09-05T11:06:08.824Z</time>
      </trkpt>
      <trkpt lat="45.86867" lon="5.63866">
        <ele>934</ele>
        <time>2021-09-05T11:06:12.848Z</time>
      </trkpt>
      <trkpt lat="45.86872" lon="5.63861">
        <ele>934</ele>
        <time>2021-09-05T11:06:16.853Z</time>
      </trkpt>
      <trkpt lat="45.86877" lon="5.63856">
        <ele>929</ele>
        <time>2021-09-05T11:06:21.857Z</time>
      </trkpt>
      <trkpt lat="45.86882" lon="5.63854">
        <ele>929</ele>
        <time>2021-09-05T11:06:26.836Z</time>
      </trkpt>
      <trkpt lat="45.86887" lon="5.63851">
        <ele>929</ele>
        <time>2021-09-05T11:06:31.821Z</time>
      </trkpt>
      <trkpt lat="45.86894" lon="5.63848">
        <ele>929</ele>
        <time>2021-09-05T11:06:36.827Z</time>
      </trkpt>
      <trkpt lat="45.86901" lon="5.63847">
        <ele>940</ele>
        <time>2021-09-05T11:06:41.844Z</time>
      </trkpt>
      <trkpt lat="45.86907" lon="5.63843">
        <ele>937</ele>
        <time>2021-09-05T11:06:45.855Z</time>
      </trkpt>
      <trkpt lat="45.86911" lon="5.63841">
        <ele>937</ele>
        <time>2021-09-05T11:06:50.827Z</time>
      </trkpt>
      <trkpt lat="45.86921" lon="5.63838">
        <ele>937</ele>
        <time>2021-09-05T11:06:55.824Z</time>
      </trkpt>
      <trkpt lat="45.86928" lon="5.63836">
        <ele>937</ele>
        <time>2021-09-05T11:07:00.825Z</time>
      </trkpt>
      <trkpt lat="45.86935" lon="5.63834">
        <ele>936</ele>
        <time>2021-09-05T11:07:05.817Z</time>
      </trkpt>
      <trkpt lat="45.8694" lon="5.63832">
        <ele>936</ele>
        <time>2021-09-05T11:07:09.822Z</time>
      </trkpt>
      <trkpt lat="45.86947" lon="5.6383">
        <ele>936</ele>
        <time>2021-09-05T11:07:14.823Z</time>
      </trkpt>
      <trkpt lat="45.86953" lon="5.63828">
        <ele>936</ele>
        <time>2021-09-05T11:07:19.824Z</time>
      </trkpt>
      <trkpt lat="45.86958" lon="5.63827">
        <ele>936</ele>
        <time>2021-09-05T11:07:23.851Z</time>
      </trkpt>
      <trkpt lat="45.86965" lon="5.63826">
        <ele>935</ele>
        <time>2021-09-05T11:07:28.821Z</time>
      </trkpt>
      <trkpt lat="45.86972" lon="5.63824">
        <ele>935</ele>
        <time>2021-09-05T11:07:33.827Z</time>
      </trkpt>
      <trkpt lat="45.86978" lon="5.63823">
        <ele>935</ele>
        <time>2021-09-05T11:07:38.830Z</time>
      </trkpt>
      <trkpt lat="45.86985" lon="5.63823">
        <ele>935</ele>
        <time>2021-09-05T11:07:43.831Z</time>
      </trkpt>
      <trkpt lat="45.86992" lon="5.63821">
        <ele>937</ele>
        <time>2021-09-05T11:07:48.863Z</time>
      </trkpt>
      <trkpt lat="45.87" lon="5.63821">
        <ele>937</ele>
        <time>2021-09-05T11:07:53.859Z</time>
      </trkpt>
      <trkpt lat="45.87007" lon="5.6382">
        <ele>937</ele>
        <time>2021-09-05T11:07:58.824Z</time>
      </trkpt>
      <trkpt lat="45.87013" lon="5.63818">
        <ele>942</ele>
        <time>2021-09-05T11:08:02.861Z</time>
      </trkpt>
      <trkpt lat="45.8702" lon="5.63815">
        <ele>946</ele>
        <time>2021-09-05T11:08:07.832Z</time>
      </trkpt>
      <trkpt lat="45.87025" lon="5.63814">
        <ele>946</ele>
        <time>2021-09-05T11:08:11.831Z</time>
      </trkpt>
      <trkpt lat="45.87031" lon="5.63812">
        <ele>946</ele>
        <time>2021-09-05T11:08:16.828Z</time>
      </trkpt>
      <trkpt lat="45.87037" lon="5.6381">
        <ele>946</ele>
        <time>2021-09-05T11:08:21.812Z</time>
      </trkpt>
      <trkpt lat="45.87044" lon="5.63809">
        <ele>948</ele>
        <time>2021-09-05T11:08:26.849Z</time>
      </trkpt>
      <trkpt lat="45.8705" lon="5.63808">
        <ele>948</ele>
        <time>2021-09-05T11:08:30.850Z</time>
      </trkpt>
      <trkpt lat="45.87056" lon="5.63806">
        <ele>948</ele>
        <time>2021-09-05T11:08:35.822Z</time>
      </trkpt>
      <trkpt lat="45.87064" lon="5.63803">
        <ele>948</ele>
        <time>2021-09-05T11:08:40.817Z</time>
      </trkpt>
      <trkpt lat="45.87069" lon="5.63801">
        <ele>948</ele>
        <time>2021-09-05T11:08:44.827Z</time>
      </trkpt>
      <trkpt lat="45.87076" lon="5.638">
        <ele>949</ele>
        <time>2021-09-05T11:08:49.799Z</time>
      </trkpt>
      <trkpt lat="45.87082" lon="5.63799">
        <ele>949</ele>
        <time>2021-09-05T11:08:53.849Z</time>
      </trkpt>
      <trkpt lat="45.87089" lon="5.63798">
        <ele>949</ele>
        <time>2021-09-05T11:08:58.822Z</time>
      </trkpt>
      <trkpt lat="45.87095" lon="5.63798">
        <ele>949</ele>
        <time>2021-09-05T11:09:02.826Z</time>
      </trkpt>
      <trkpt lat="45.87102" lon="5.63799">
        <ele>950</ele>
        <time>2021-09-05T11:09:07.820Z</time>
      </trkpt>
      <trkpt lat="45.87107" lon="5.63799">
        <ele>950</ele>
        <time>2021-09-05T11:09:11.820Z</time>
      </trkpt>
      <trkpt lat="45.87114" lon="5.63798">
        <ele>950</ele>
        <time>2021-09-05T11:09:16.837Z</time>
      </trkpt>
      <trkpt lat="45.87119" lon="5.63797">
        <ele>950</ele>
        <time>2021-09-05T11:09:20.849Z</time>
      </trkpt>
      <trkpt lat="45.87125" lon="5.63796">
        <ele>950</ele>
        <time>2021-09-05T11:09:25.856Z</time>
      </trkpt>
      <trkpt lat="45.87131" lon="5.63794">
        <ele>950</ele>
        <time>2021-09-05T11:09:30.819Z</time>
      </trkpt>
      <trkpt lat="45.87138" lon="5.6379">
        <ele>954</ele>
        <time>2021-09-05T11:09:35.826Z</time>
      </trkpt>
      <trkpt lat="45.87144" lon="5.63788">
        <ele>954</ele>
        <time>2021-09-05T11:09:39.851Z</time>
      </trkpt>
      <trkpt lat="45.87148" lon="5.63785">
        <ele>954</ele>
        <time>2021-09-05T11:09:43.902Z</time>
      </trkpt>
      <trkpt lat="45.87155" lon="5.63782">
        <ele>952</ele>
        <time>2021-09-05T11:09:48.802Z</time>
      </trkpt>
      <trkpt lat="45.87161" lon="5.63781">
        <ele>952</ele>
        <time>2021-09-05T11:09:52.824Z</time>
      </trkpt>
      <trkpt lat="45.87167" lon="5.63781">
        <ele>952</ele>
        <time>2021-09-05T11:09:57.800Z</time>
      </trkpt>
      <trkpt lat="45.87172" lon="5.63781">
        <ele>952</ele>
        <time>2021-09-05T11:10:01.821Z</time>
      </trkpt>
      <trkpt lat="45.87179" lon="5.63779">
        <ele>952</ele>
        <time>2021-09-05T11:10:06.817Z</time>
      </trkpt>
      <trkpt lat="45.87185" lon="5.6378">
        <ele>951</ele>
        <time>2021-09-05T11:10:10.881Z</time>
      </trkpt>
      <trkpt lat="45.87192" lon="5.63782">
        <ele>951</ele>
        <time>2021-09-05T11:10:15.823Z</time>
      </trkpt>
      <trkpt lat="45.87198" lon="5.63784">
        <ele>951</ele>
        <time>2021-09-05T11:10:20.854Z</time>
      </trkpt>
      <trkpt lat="45.87205" lon="5.63786">
        <ele>951</ele>
        <time>2021-09-05T11:10:25.829Z</time>
      </trkpt>
      <trkpt lat="45.87211" lon="5.63787">
        <ele>953</ele>
        <time>2021-09-05T11:10:30.832Z</time>
      </trkpt>
      <trkpt lat="45.87217" lon="5.63788">
        <ele>953</ele>
        <time>2021-09-05T11:10:34.855Z</time>
      </trkpt>
      <trkpt lat="45.87223" lon="5.6379">
        <ele>953</ele>
        <time>2021-09-05T11:10:39.822Z</time>
      </trkpt>
      <trkpt lat="45.87228" lon="5.63792">
        <ele>952</ele>
        <time>2021-09-05T11:10:44.814Z</time>
      </trkpt>
      <trkpt lat="45.87236" lon="5.63792">
        <ele>952</ele>
        <time>2021-09-05T11:10:49.801Z</time>
      </trkpt>
      <trkpt lat="45.87242" lon="5.63793">
        <ele>956</ele>
        <time>2021-09-05T11:10:54.819Z</time>
      </trkpt>
      <trkpt lat="45.87249" lon="5.63792">
        <ele>956</ele>
        <time>2021-09-05T11:10:59.818Z</time>
      </trkpt>
      <trkpt lat="45.87255" lon="5.63792">
        <ele>956</ele>
        <time>2021-09-05T11:11:03.870Z</time>
      </trkpt>
      <trkpt lat="45.87261" lon="5.63791">
        <ele>957</ele>
        <time>2021-09-05T11:11:08.824Z</time>
      </trkpt>
      <trkpt lat="45.87268" lon="5.6379">
        <ele>958</ele>
        <time>2021-09-05T11:11:13.816Z</time>
      </trkpt>
      <trkpt lat="45.87273" lon="5.63791">
        <ele>958</ele>
        <time>2021-09-05T11:11:17.825Z</time>
      </trkpt>
      <trkpt lat="45.87277" lon="5.63789">
        <ele>958</ele>
        <time>2021-09-05T11:11:21.835Z</time>
      </trkpt>
      <trkpt lat="45.87285" lon="5.63789">
        <ele>958</ele>
        <time>2021-09-05T11:11:26.821Z</time>
      </trkpt>
      <trkpt lat="45.87291" lon="5.6379">
        <ele>958</ele>
        <time>2021-09-05T11:11:30.828Z</time>
      </trkpt>
      <trkpt lat="45.87296" lon="5.63791">
        <ele>958</ele>
        <time>2021-09-05T11:11:34.854Z</time>
      </trkpt>
      <trkpt lat="45.87302" lon="5.63792">
        <ele>958</ele>
        <time>2021-09-05T11:11:38.864Z</time>
      </trkpt>
      <trkpt lat="45.87309" lon="5.63791">
        <ele>958</ele>
        <time>2021-09-05T11:11:43.853Z</time>
      </trkpt>
      <trkpt lat="45.87314" lon="5.63792">
        <ele>958</ele>
        <time>2021-09-05T11:11:48.817Z</time>
      </trkpt>
      <trkpt lat="45.87319" lon="5.6379">
        <ele>958</ele>
        <time>2021-09-05T11:11:52.831Z</time>
      </trkpt>
      <trkpt lat="45.87325" lon="5.63792">
        <ele>957</ele>
        <time>2021-09-05T11:11:57.822Z</time>
      </trkpt>
      <trkpt lat="45.8733" lon="5.63792">
        <ele>957</ele>
        <time>2021-09-05T11:12:01.852Z</time>
      </trkpt>
      <trkpt lat="45.87335" lon="5.63792">
        <ele>957</ele>
        <time>2021-09-05T11:12:05.854Z</time>
      </trkpt>
      <trkpt lat="45.87342" lon="5.63794">
        <ele>957</ele>
        <time>2021-09-05T11:12:10.806Z</time>
      </trkpt>
      <trkpt lat="45.87347" lon="5.63796">
        <ele>957</ele>
        <time>2021-09-05T11:12:14.865Z</time>
      </trkpt>
      <trkpt lat="45.87354" lon="5.63796">
        <ele>958</ele>
        <time>2021-09-05T11:12:19.821Z</time>
      </trkpt>
      <trkpt lat="45.87359" lon="5.63795">
        <ele>958</ele>
        <time>2021-09-05T11:12:24.797Z</time>
      </trkpt>
      <trkpt lat="45.87367" lon="5.63789">
        <ele>963</ele>
        <time>2021-09-05T11:12:29.785Z</time>
      </trkpt>
      <trkpt lat="45.87374" lon="5.63784">
        <ele>963</ele>
        <time>2021-09-05T11:12:34.793Z</time>
      </trkpt>
      <trkpt lat="45.87381" lon="5.63782">
        <ele>963</ele>
        <time>2021-09-05T11:12:39.791Z</time>
      </trkpt>
      <trkpt lat="45.87387" lon="5.6378">
        <ele>963</ele>
        <time>2021-09-05T11:12:44.785Z</time>
      </trkpt>
      <trkpt lat="45.87393" lon="5.63776">
        <ele>963</ele>
        <time>2021-09-05T11:12:49.789Z</time>
      </trkpt>
      <trkpt lat="45.87398" lon="5.63769">
        <ele>963</ele>
        <time>2021-09-05T11:12:54.787Z</time>
      </trkpt>
      <trkpt lat="45.87403" lon="5.63767">
        <ele>961</ele>
        <time>2021-09-05T11:12:59.796Z</time>
      </trkpt>
      <trkpt lat="45.87413" lon="5.63769">
        <ele>961</ele>
        <time>2021-09-05T11:13:04.795Z</time>
      </trkpt>
      <trkpt lat="45.87417" lon="5.63766">
        <ele>961</ele>
        <time>2021-09-05T11:13:09.813Z</time>
      </trkpt>
      <trkpt lat="45.87421" lon="5.63765">
        <ele>961</ele>
        <time>2021-09-05T11:13:13.797Z</time>
      </trkpt>
      <trkpt lat="45.87425" lon="5.63764">
        <ele>961</ele>
        <time>2021-09-05T11:13:18.797Z</time>
      </trkpt>
      <trkpt lat="45.87429" lon="5.63763">
        <ele>965</ele>
        <time>2021-09-05T11:13:22.860Z</time>
      </trkpt>
      <trkpt lat="45.87434" lon="5.63762">
        <ele>963</ele>
        <time>2021-09-05T11:13:27.856Z</time>
      </trkpt>
      <trkpt lat="45.8744" lon="5.63764">
        <ele>963</ele>
        <time>2021-09-05T11:13:32.832Z</time>
      </trkpt>
      <trkpt lat="45.87446" lon="5.63763">
        <ele>963</ele>
        <time>2021-09-05T11:13:37.816Z</time>
      </trkpt>
      <trkpt lat="45.87451" lon="5.63763">
        <ele>963</ele>
        <time>2021-09-05T11:13:41.862Z</time>
      </trkpt>
      <trkpt lat="45.87457" lon="5.63764">
        <ele>963</ele>
        <time>2021-09-05T11:13:46.818Z</time>
      </trkpt>
      <trkpt lat="45.87462" lon="5.63763">
        <ele>962</ele>
        <time>2021-09-05T11:13:50.826Z</time>
      </trkpt>
      <trkpt lat="45.87467" lon="5.63763">
        <ele>962</ele>
        <time>2021-09-05T11:13:54.830Z</time>
      </trkpt>
      <trkpt lat="45.87472" lon="5.63762">
        <ele>962</ele>
        <time>2021-09-05T11:13:59.825Z</time>
      </trkpt>
      <trkpt lat="45.87477" lon="5.63761">
        <ele>962</ele>
        <time>2021-09-05T11:14:03.838Z</time>
      </trkpt>
      <trkpt lat="45.87483" lon="5.63761">
        <ele>962</ele>
        <time>2021-09-05T11:14:08.866Z</time>
      </trkpt>
      <trkpt lat="45.8749" lon="5.63761">
        <ele>960</ele>
        <time>2021-09-05T11:14:13.834Z</time>
      </trkpt>
      <trkpt lat="45.87496" lon="5.63761">
        <ele>960</ele>
        <time>2021-09-05T11:14:17.872Z</time>
      </trkpt>
      <trkpt lat="45.87502" lon="5.6376">
        <ele>960</ele>
        <time>2021-09-05T11:14:22.836Z</time>
      </trkpt>
      <trkpt lat="45.87507" lon="5.6376">
        <ele>960</ele>
        <time>2021-09-05T11:14:26.861Z</time>
      </trkpt>
      <trkpt lat="45.87514" lon="5.63759">
        <ele>957</ele>
        <time>2021-09-05T11:14:31.824Z</time>
      </trkpt>
      <trkpt lat="45.8752" lon="5.63759">
        <ele>957</ele>
        <time>2021-09-05T11:14:36.814Z</time>
      </trkpt>
      <trkpt lat="45.87525" lon="5.63759">
        <ele>957</ele>
        <time>2021-09-05T11:14:40.831Z</time>
      </trkpt>
      <trkpt lat="45.87529" lon="5.63761">
        <ele>957</ele>
        <time>2021-09-05T11:14:44.841Z</time>
      </trkpt>
      <trkpt lat="45.87536" lon="5.63762">
        <ele>957</ele>
        <time>2021-09-05T11:14:49.830Z</time>
      </trkpt>
      <trkpt lat="45.87542" lon="5.63762">
        <ele>955</ele>
        <time>2021-09-05T11:14:54.823Z</time>
      </trkpt>
      <trkpt lat="45.87549" lon="5.63763">
        <ele>955</ele>
        <time>2021-09-05T11:14:59.797Z</time>
      </trkpt>
      <trkpt lat="45.87554" lon="5.63763">
        <ele>955</ele>
        <time>2021-09-05T11:15:03.820Z</time>
      </trkpt>
      <trkpt lat="45.87562" lon="5.63761">
        <ele>955</ele>
        <time>2021-09-05T11:15:07.825Z</time>
      </trkpt>
      <trkpt lat="45.87567" lon="5.63758">
        <ele>955</ele>
        <time>2021-09-05T11:15:11.851Z</time>
      </trkpt>
      <trkpt lat="45.87574" lon="5.63756">
        <ele>955</ele>
        <time>2021-09-05T11:15:16.827Z</time>
      </trkpt>
      <trkpt lat="45.8758" lon="5.63754">
        <ele>955</ele>
        <time>2021-09-05T11:15:21.793Z</time>
      </trkpt>
      <trkpt lat="45.87585" lon="5.63751">
        <ele>955</ele>
        <time>2021-09-05T11:15:25.809Z</time>
      </trkpt>
      <trkpt lat="45.87589" lon="5.63747">
        <ele>955</ele>
        <time>2021-09-05T11:15:29.853Z</time>
      </trkpt>
      <trkpt lat="45.87595" lon="5.63743">
        <ele>955</ele>
        <time>2021-09-05T11:15:34.824Z</time>
      </trkpt>
      <trkpt lat="45.876" lon="5.63738">
        <ele>955</ele>
        <time>2021-09-05T11:15:39.817Z</time>
      </trkpt>
      <trkpt lat="45.87607" lon="5.63734">
        <ele>959</ele>
        <time>2021-09-05T11:15:44.863Z</time>
      </trkpt>
      <trkpt lat="45.87613" lon="5.63731">
        <ele>959</ele>
        <time>2021-09-05T11:15:49.826Z</time>
      </trkpt>
      <trkpt lat="45.87618" lon="5.63729">
        <ele>959</ele>
        <time>2021-09-05T11:15:53.830Z</time>
      </trkpt>
      <trkpt lat="45.87625" lon="5.63727">
        <ele>959</ele>
        <time>2021-09-05T11:15:58.788Z</time>
      </trkpt>
      <trkpt lat="45.8763" lon="5.63727">
        <ele>958</ele>
        <time>2021-09-05T11:16:02.820Z</time>
      </trkpt>
      <trkpt lat="45.87637" lon="5.63728">
        <ele>958</ele>
        <time>2021-09-05T11:16:07.824Z</time>
      </trkpt>
      <trkpt lat="45.87643" lon="5.63727">
        <ele>958</ele>
        <time>2021-09-05T11:16:12.814Z</time>
      </trkpt>
      <trkpt lat="45.87649" lon="5.63724">
        <ele>958</ele>
        <time>2021-09-05T11:16:17.828Z</time>
      </trkpt>
      <trkpt lat="45.87655" lon="5.63722">
        <ele>955</ele>
        <time>2021-09-05T11:16:22.828Z</time>
      </trkpt>
      <trkpt lat="45.8766" lon="5.63719">
        <ele>955</ele>
        <time>2021-09-05T11:16:27.812Z</time>
      </trkpt>
      <trkpt lat="45.87664" lon="5.63714">
        <ele>955</ele>
        <time>2021-09-05T11:16:31.824Z</time>
      </trkpt>
      <trkpt lat="45.87668" lon="5.63709">
        <ele>955</ele>
        <time>2021-09-05T11:16:35.834Z</time>
      </trkpt>
      <trkpt lat="45.87673" lon="5.63702">
        <ele>958</ele>
        <time>2021-09-05T11:16:40.821Z</time>
      </trkpt>
      <trkpt lat="45.87676" lon="5.63691">
        <ele>958</ele>
        <time>2021-09-05T11:16:45.865Z</time>
      </trkpt>
      <trkpt lat="45.87676" lon="5.6368">
        <ele>962</ele>
        <time>2021-09-05T11:16:50.837Z</time>
      </trkpt>
      <trkpt lat="45.87678" lon="5.63672">
        <ele>962</ele>
        <time>2021-09-05T11:16:54.847Z</time>
      </trkpt>
      <trkpt lat="45.87684" lon="5.63665">
        <ele>954</ele>
        <time>2021-09-05T11:16:59.788Z</time>
      </trkpt>
      <trkpt lat="45.8769" lon="5.63662">
        <ele>954</ele>
        <time>2021-09-05T11:17:03.859Z</time>
      </trkpt>
      <trkpt lat="45.87697" lon="5.63663">
        <ele>954</ele>
        <time>2021-09-05T11:17:08.817Z</time>
      </trkpt>
      <trkpt lat="45.87702" lon="5.63665">
        <ele>954</ele>
        <time>2021-09-05T11:17:12.847Z</time>
      </trkpt>
      <trkpt lat="45.87708" lon="5.63666">
        <ele>947</ele>
        <time>2021-09-05T11:17:17.821Z</time>
      </trkpt>
      <trkpt lat="45.87715" lon="5.63665">
        <ele>947</ele>
        <time>2021-09-05T11:17:22.851Z</time>
      </trkpt>
      <trkpt lat="45.87722" lon="5.63665">
        <ele>947</ele>
        <time>2021-09-05T11:17:27.820Z</time>
      </trkpt>
      <trkpt lat="45.87727" lon="5.63662">
        <ele>947</ele>
        <time>2021-09-05T11:17:31.827Z</time>
      </trkpt>
      <trkpt lat="45.87733" lon="5.63656">
        <ele>947</ele>
        <time>2021-09-05T11:17:36.852Z</time>
      </trkpt>
      <trkpt lat="45.8774" lon="5.63649">
        <ele>943</ele>
        <time>2021-09-05T11:17:41.825Z</time>
      </trkpt>
      <trkpt lat="45.87745" lon="5.63646">
        <ele>943</ele>
        <time>2021-09-05T11:17:45.846Z</time>
      </trkpt>
      <trkpt lat="45.8775" lon="5.63641">
        <ele>943</ele>
        <time>2021-09-05T11:17:50.823Z</time>
      </trkpt>
      <trkpt lat="45.87756" lon="5.63635">
        <ele>943</ele>
        <time>2021-09-05T11:17:55.819Z</time>
      </trkpt>
      <trkpt lat="45.87759" lon="5.63627">
        <ele>943</ele>
        <time>2021-09-05T11:18:00.848Z</time>
      </trkpt>
      <trkpt lat="45.87764" lon="5.6362">
        <ele>942</ele>
        <time>2021-09-05T11:18:05.814Z</time>
      </trkpt>
      <trkpt lat="45.87768" lon="5.63611">
        <ele>942</ele>
        <time>2021-09-05T11:18:10.826Z</time>
      </trkpt>
      <trkpt lat="45.87772" lon="5.63603">
        <ele>942</ele>
        <time>2021-09-05T11:18:15.801Z</time>
      </trkpt>
      <trkpt lat="45.87775" lon="5.63597">
        <ele>946</ele>
        <time>2021-09-05T11:18:19.819Z</time>
      </trkpt>
      <trkpt lat="45.87778" lon="5.63589">
        <ele>946</ele>
        <time>2021-09-05T11:18:24.824Z</time>
      </trkpt>
      <trkpt lat="45.87782" lon="5.63582">
        <ele>946</ele>
        <time>2021-09-05T11:18:29.821Z</time>
      </trkpt>
      <trkpt lat="45.87786" lon="5.63574">
        <ele>946</ele>
        <time>2021-09-05T11:18:34.821Z</time>
      </trkpt>
      <trkpt lat="45.8779" lon="5.63567">
        <ele>952</ele>
        <time>2021-09-05T11:18:39.812Z</time>
      </trkpt>
      <trkpt lat="45.87793" lon="5.6356">
        <ele>948</ele>
        <time>2021-09-05T11:18:43.824Z</time>
      </trkpt>
      <trkpt lat="45.87797" lon="5.63554">
        <ele>948</ele>
        <time>2021-09-05T11:18:48.821Z</time>
      </trkpt>
      <trkpt lat="45.87801" lon="5.63548">
        <ele>948</ele>
        <time>2021-09-05T11:18:52.872Z</time>
      </trkpt>
      <trkpt lat="45.87805" lon="5.63542">
        <ele>948</ele>
        <time>2021-09-05T11:18:57.815Z</time>
      </trkpt>
      <trkpt lat="45.87811" lon="5.63539">
        <ele>954</ele>
        <time>2021-09-05T11:19:02.792Z</time>
      </trkpt>
      <trkpt lat="45.87814" lon="5.63533">
        <ele>954</ele>
        <time>2021-09-05T11:19:06.813Z</time>
      </trkpt>
      <trkpt lat="45.87819" lon="5.63526">
        <ele>954</ele>
        <time>2021-09-05T11:19:11.855Z</time>
      </trkpt>
      <trkpt lat="45.87823" lon="5.63519">
        <ele>950</ele>
        <time>2021-09-05T11:19:16.822Z</time>
      </trkpt>
      <trkpt lat="45.87827" lon="5.6351">
        <ele>954</ele>
        <time>2021-09-05T11:19:21.830Z</time>
      </trkpt>
      <trkpt lat="45.8783" lon="5.63502">
        <ele>954</ele>
        <time>2021-09-05T11:19:26.829Z</time>
      </trkpt>
      <trkpt lat="45.87834" lon="5.63496">
        <ele>954</ele>
        <time>2021-09-05T11:19:30.848Z</time>
      </trkpt>
      <trkpt lat="45.87838" lon="5.63491">
        <ele>954</ele>
        <time>2021-09-05T11:19:34.878Z</time>
      </trkpt>
      <trkpt lat="45.87845" lon="5.63486">
        <ele>954</ele>
        <time>2021-09-05T11:19:39.851Z</time>
      </trkpt>
      <trkpt lat="45.87849" lon="5.63479">
        <ele>959</ele>
        <time>2021-09-05T11:19:44.826Z</time>
      </trkpt>
      <trkpt lat="45.87853" lon="5.63473">
        <ele>959</ele>
        <time>2021-09-05T11:19:48.834Z</time>
      </trkpt>
      <trkpt lat="45.87857" lon="5.63467">
        <ele>959</ele>
        <time>2021-09-05T11:19:52.862Z</time>
      </trkpt>
      <trkpt lat="45.87861" lon="5.63462">
        <ele>959</ele>
        <time>2021-09-05T11:19:56.866Z</time>
      </trkpt>
      <trkpt lat="45.87865" lon="5.63455">
        <ele>966</ele>
        <time>2021-09-05T11:20:01.871Z</time>
      </trkpt>
      <trkpt lat="45.87869" lon="5.63447">
        <ele>966</ele>
        <time>2021-09-05T11:20:06.813Z</time>
      </trkpt>
      <trkpt lat="45.87872" lon="5.63442">
        <ele>966</ele>
        <time>2021-09-05T11:20:10.817Z</time>
      </trkpt>
      <trkpt lat="45.87877" lon="5.63436">
        <ele>963</ele>
        <time>2021-09-05T11:20:15.817Z</time>
      </trkpt>
      <trkpt lat="45.87882" lon="5.63433">
        <ele>963</ele>
        <time>2021-09-05T11:20:19.829Z</time>
      </trkpt>
      <trkpt lat="45.87886" lon="5.63431">
        <ele>967</ele>
        <time>2021-09-05T11:20:23.849Z</time>
      </trkpt>
      <trkpt lat="45.87889" lon="5.63429">
        <ele>967</ele>
        <time>2021-09-05T11:20:27.856Z</time>
      </trkpt>
      <trkpt lat="45.87895" lon="5.63425">
        <ele>967</ele>
        <time>2021-09-05T11:20:32.817Z</time>
      </trkpt>
      <trkpt lat="45.879" lon="5.63421">
        <ele>967</ele>
        <time>2021-09-05T11:20:36.834Z</time>
      </trkpt>
      <trkpt lat="45.87906" lon="5.63418">
        <ele>968</ele>
        <time>2021-09-05T11:20:41.821Z</time>
      </trkpt>
      <trkpt lat="45.87911" lon="5.63415">
        <ele>968</ele>
        <time>2021-09-05T11:20:45.825Z</time>
      </trkpt>
      <trkpt lat="45.87915" lon="5.63409">
        <ele>968</ele>
        <time>2021-09-05T11:20:50.828Z</time>
      </trkpt>
      <trkpt lat="45.87918" lon="5.63403">
        <ele>968</ele>
        <time>2021-09-05T11:20:54.857Z</time>
      </trkpt>
      <trkpt lat="45.87921" lon="5.63394">
        <ele>974</ele>
        <time>2021-09-05T11:20:59.816Z</time>
      </trkpt>
      <trkpt lat="45.87922" lon="5.63385">
        <ele>974</ele>
        <time>2021-09-05T11:21:04.850Z</time>
      </trkpt>
      <trkpt lat="45.87923" lon="5.63377">
        <ele>974</ele>
        <time>2021-09-05T11:21:09.820Z</time>
      </trkpt>
      <trkpt lat="45.87926" lon="5.63371">
        <ele>981</ele>
        <time>2021-09-05T11:21:13.821Z</time>
      </trkpt>
      <trkpt lat="45.8793" lon="5.63364">
        <ele>981</ele>
        <time>2021-09-05T11:21:18.821Z</time>
      </trkpt>
      <trkpt lat="45.87933" lon="5.63358">
        <ele>982</ele>
        <time>2021-09-05T11:21:23.826Z</time>
      </trkpt>
      <trkpt lat="45.87939" lon="5.63353">
        <ele>982</ele>
        <time>2021-09-05T11:21:28.815Z</time>
      </trkpt>
      <trkpt lat="45.87943" lon="5.6335">
        <ele>982</ele>
        <time>2021-09-05T11:21:32.823Z</time>
      </trkpt>
      <trkpt lat="45.87948" lon="5.63347">
        <ele>988</ele>
        <time>2021-09-05T11:21:37.836Z</time>
      </trkpt>
      <trkpt lat="45.87953" lon="5.63342">
        <ele>988</ele>
        <time>2021-09-05T11:21:42.847Z</time>
      </trkpt>
      <trkpt lat="45.87959" lon="5.63341">
        <ele>990</ele>
        <time>2021-09-05T11:21:47.811Z</time>
      </trkpt>
      <trkpt lat="45.87963" lon="5.63336">
        <ele>990</ele>
        <time>2021-09-05T11:21:51.820Z</time>
      </trkpt>
      <trkpt lat="45.87967" lon="5.63331">
        <ele>990</ele>
        <time>2021-09-05T11:21:55.854Z</time>
      </trkpt>
      <trkpt lat="45.87974" lon="5.63325">
        <ele>990</ele>
        <time>2021-09-05T11:22:00.792Z</time>
      </trkpt>
      <trkpt lat="45.87976" lon="5.63317">
        <ele>995</ele>
        <time>2021-09-05T11:22:04.810Z</time>
      </trkpt>
      <trkpt lat="45.87974" lon="5.6331">
        <ele>995</ele>
        <time>2021-09-05T11:22:08.824Z</time>
      </trkpt>
      <trkpt lat="45.87972" lon="5.63301">
        <ele>995</ele>
        <time>2021-09-05T11:22:13.809Z</time>
      </trkpt>
      <trkpt lat="45.8797" lon="5.63295">
        <ele>995</ele>
        <time>2021-09-05T11:22:17.825Z</time>
      </trkpt>
      <trkpt lat="45.8797" lon="5.63287">
        <ele>1000</ele>
        <time>2021-09-05T11:22:22.815Z</time>
      </trkpt>
      <trkpt lat="45.87969" lon="5.63281">
        <ele>1000</ele>
        <time>2021-09-05T11:22:26.848Z</time>
      </trkpt>
      <trkpt lat="45.87965" lon="5.63274">
        <ele>1000</ele>
        <time>2021-09-05T11:22:31.849Z</time>
      </trkpt>
      <trkpt lat="45.87965" lon="5.63265">
        <ele>1000</ele>
        <time>2021-09-05T11:22:36.813Z</time>
      </trkpt>
      <trkpt lat="45.87968" lon="5.63261">
        <ele>1003</ele>
        <time>2021-09-05T11:22:40.823Z</time>
      </trkpt>
      <trkpt lat="45.87971" lon="5.63256">
        <ele>1003</ele>
        <time>2021-09-05T11:22:44.850Z</time>
      </trkpt>
      <trkpt lat="45.87976" lon="5.63252">
        <ele>1003</ele>
        <time>2021-09-05T11:22:49.824Z</time>
      </trkpt>
      <trkpt lat="45.8798" lon="5.63247">
        <ele>1003</ele>
        <time>2021-09-05T11:22:54.822Z</time>
      </trkpt>
      <trkpt lat="45.87984" lon="5.63246">
        <ele>1003</ele>
        <time>2021-09-05T11:22:58.831Z</time>
      </trkpt>
      <trkpt lat="45.8799" lon="5.63246">
        <ele>1001</ele>
        <time>2021-09-05T11:23:03.786Z</time>
      </trkpt>
      <trkpt lat="45.87994" lon="5.63245">
        <ele>1001</ele>
        <time>2021-09-05T11:23:07.817Z</time>
      </trkpt>
      <trkpt lat="45.87998" lon="5.63244">
        <ele>1001</ele>
        <time>2021-09-05T11:23:11.820Z</time>
      </trkpt>
      <trkpt lat="45.88002" lon="5.63242">
        <ele>1001</ele>
        <time>2021-09-05T11:23:15.828Z</time>
      </trkpt>
      <trkpt lat="45.88005" lon="5.63236">
        <ele>1001</ele>
        <time>2021-09-05T11:23:19.852Z</time>
      </trkpt>
      <trkpt lat="45.88008" lon="5.6323">
        <ele>1004</ele>
        <time>2021-09-05T11:23:24.792Z</time>
      </trkpt>
      <trkpt lat="45.88013" lon="5.6323">
        <ele>1004</ele>
        <time>2021-09-05T11:23:28.825Z</time>
      </trkpt>
      <trkpt lat="45.88018" lon="5.63227">
        <ele>1004</ele>
        <time>2021-09-05T11:23:33.823Z</time>
      </trkpt>
      <trkpt lat="45.88023" lon="5.63223">
        <ele>1004</ele>
        <time>2021-09-05T11:23:37.818Z</time>
      </trkpt>
      <trkpt lat="45.88024" lon="5.63214">
        <ele>1004</ele>
        <time>2021-09-05T11:23:42.816Z</time>
      </trkpt>
      <trkpt lat="45.88022" lon="5.63205">
        <ele>1007</ele>
        <time>2021-09-05T11:23:47.815Z</time>
      </trkpt>
      <trkpt lat="45.88021" lon="5.63197">
        <ele>1007</ele>
        <time>2021-09-05T11:23:52.820Z</time>
      </trkpt>
      <trkpt lat="45.88019" lon="5.63186">
        <ele>1007</ele>
        <time>2021-09-05T11:23:57.824Z</time>
      </trkpt>
      <trkpt lat="45.88016" lon="5.63178">
        <ele>1009</ele>
        <time>2021-09-05T11:24:02.796Z</time>
      </trkpt>
      <trkpt lat="45.88014" lon="5.6317">
        <ele>1009</ele>
        <time>2021-09-05T11:24:06.834Z</time>
      </trkpt>
      <trkpt lat="45.88011" lon="5.63161">
        <ele>1009</ele>
        <time>2021-09-05T11:24:11.868Z</time>
      </trkpt>
      <trkpt lat="45.88009" lon="5.63152">
        <ele>1010</ele>
        <time>2021-09-05T11:24:16.905Z</time>
      </trkpt>
      <trkpt lat="45.88008" lon="5.63144">
        <ele>1010</ele>
        <time>2021-09-05T11:24:21.812Z</time>
      </trkpt>
      <trkpt lat="45.88006" lon="5.63136">
        <ele>1010</ele>
        <time>2021-09-05T11:24:26.856Z</time>
      </trkpt>
      <trkpt lat="45.88006" lon="5.63129">
        <ele>1010</ele>
        <time>2021-09-05T11:24:31.843Z</time>
      </trkpt>
      <trkpt lat="45.88007" lon="5.63121">
        <ele>1012</ele>
        <time>2021-09-05T11:24:35.851Z</time>
      </trkpt>
      <trkpt lat="45.88007" lon="5.63113">
        <ele>1012</ele>
        <time>2021-09-05T11:24:40.824Z</time>
      </trkpt>
      <trkpt lat="45.88008" lon="5.63106">
        <ele>1012</ele>
        <time>2021-09-05T11:24:44.869Z</time>
      </trkpt>
      <trkpt lat="45.88008" lon="5.63096">
        <ele>1014</ele>
        <time>2021-09-05T11:24:49.857Z</time>
      </trkpt>
      <trkpt lat="45.88008" lon="5.63086">
        <ele>1014</ele>
        <time>2021-09-05T11:24:54.821Z</time>
      </trkpt>
      <trkpt lat="45.8801" lon="5.63077">
        <ele>1014</ele>
        <time>2021-09-05T11:24:59.826Z</time>
      </trkpt>
      <trkpt lat="45.88014" lon="5.6307">
        <ele>1015</ele>
        <time>2021-09-05T11:25:04.790Z</time>
      </trkpt>
      <trkpt lat="45.88018" lon="5.63065">
        <ele>1016</ele>
        <time>2021-09-05T11:25:08.827Z</time>
      </trkpt>
      <trkpt lat="45.88022" lon="5.6306">
        <ele>1016</ele>
        <time>2021-09-05T11:25:13.830Z</time>
      </trkpt>
      <trkpt lat="45.88026" lon="5.63052">
        <ele>1016</ele>
        <time>2021-09-05T11:25:18.816Z</time>
      </trkpt>
      <trkpt lat="45.88028" lon="5.63045">
        <ele>1016</ele>
        <time>2021-09-05T11:25:22.824Z</time>
      </trkpt>
      <trkpt lat="45.8803" lon="5.63036">
        <ele>1016</ele>
        <time>2021-09-05T11:25:27.826Z</time>
      </trkpt>
      <trkpt lat="45.88031" lon="5.63025">
        <ele>1016</ele>
        <time>2021-09-05T11:25:32.872Z</time>
      </trkpt>
      <trkpt lat="45.88031" lon="5.63016">
        <ele>1016</ele>
        <time>2021-09-05T11:25:37.792Z</time>
      </trkpt>
      <trkpt lat="45.88031" lon="5.63009">
        <ele>1015</ele>
        <time>2021-09-05T11:25:41.818Z</time>
      </trkpt>
      <trkpt lat="45.8803" lon="5.63002">
        <ele>1015</ele>
        <time>2021-09-05T11:25:45.871Z</time>
      </trkpt>
      <trkpt lat="45.8803" lon="5.62994">
        <ele>1015</ele>
        <time>2021-09-05T11:25:50.823Z</time>
      </trkpt>
      <trkpt lat="45.88031" lon="5.62985">
        <ele>1014</ele>
        <time>2021-09-05T11:25:55.819Z</time>
      </trkpt>
      <trkpt lat="45.88031" lon="5.62978">
        <ele>1014</ele>
        <time>2021-09-05T11:25:59.832Z</time>
      </trkpt>
      <trkpt lat="45.88033" lon="5.62969">
        <ele>1014</ele>
        <time>2021-09-05T11:26:04.823Z</time>
      </trkpt>
      <trkpt lat="45.88037" lon="5.6296">
        <ele>1014</ele>
        <time>2021-09-05T11:26:09.824Z</time>
      </trkpt>
      <trkpt lat="45.88039" lon="5.6295">
        <ele>1013</ele>
        <time>2021-09-05T11:26:14.816Z</time>
      </trkpt>
      <trkpt lat="45.88039" lon="5.62939">
        <ele>1013</ele>
        <time>2021-09-05T11:26:19.814Z</time>
      </trkpt>
      <trkpt lat="45.88041" lon="5.6293">
        <ele>1014</ele>
        <time>2021-09-05T11:26:24.804Z</time>
      </trkpt>
      <trkpt lat="45.88041" lon="5.62922">
        <ele>1014</ele>
        <time>2021-09-05T11:26:28.845Z</time>
      </trkpt>
      <trkpt lat="45.8804" lon="5.62915">
        <ele>1014</ele>
        <time>2021-09-05T11:26:32.851Z</time>
      </trkpt>
      <trkpt lat="45.88037" lon="5.62907">
        <ele>1014</ele>
        <time>2021-09-05T11:26:36.857Z</time>
      </trkpt>
      <trkpt lat="45.88032" lon="5.62899">
        <ele>1016</ele>
        <time>2021-09-05T11:26:41.818Z</time>
      </trkpt>
      <trkpt lat="45.88028" lon="5.62891">
        <ele>1016</ele>
        <time>2021-09-05T11:26:46.833Z</time>
      </trkpt>
      <trkpt lat="45.88024" lon="5.62883">
        <ele>1016</ele>
        <time>2021-09-05T11:26:51.822Z</time>
      </trkpt>
      <trkpt lat="45.88021" lon="5.62877">
        <ele>1016</ele>
        <time>2021-09-05T11:26:55.829Z</time>
      </trkpt>
      <trkpt lat="45.88018" lon="5.62869">
        <ele>1019</ele>
        <time>2021-09-05T11:27:00.824Z</time>
      </trkpt>
      <trkpt lat="45.88014" lon="5.62862">
        <ele>1019</ele>
        <time>2021-09-05T11:27:05.785Z</time>
      </trkpt>
      <trkpt lat="45.88011" lon="5.62857">
        <ele>1018</ele>
        <time>2021-09-05T11:27:09.812Z</time>
      </trkpt>
      <trkpt lat="45.88008" lon="5.62848">
        <ele>1018</ele>
        <time>2021-09-05T11:27:14.814Z</time>
      </trkpt>
      <trkpt lat="45.87998" lon="5.62835">
        <ele>1021</ele>
        <time>2021-09-05T11:27:19.793Z</time>
      </trkpt>
      <trkpt lat="45.87993" lon="5.62827">
        <ele>1021</ele>
        <time>2021-09-05T11:27:23.827Z</time>
      </trkpt>
      <trkpt lat="45.87988" lon="5.62818">
        <ele>1024</ele>
        <time>2021-09-05T11:27:28.851Z</time>
      </trkpt>
      <trkpt lat="45.87983" lon="5.6281">
        <ele>1026</ele>
        <time>2021-09-05T11:27:33.832Z</time>
      </trkpt>
      <trkpt lat="45.87978" lon="5.62803">
        <ele>1026</ele>
        <time>2021-09-05T11:27:38.854Z</time>
      </trkpt>
      <trkpt lat="45.87973" lon="5.62797">
        <ele>1026</ele>
        <time>2021-09-05T11:27:43.810Z</time>
      </trkpt>
      <trkpt lat="45.87971" lon="5.62791">
        <ele>1027</ele>
        <time>2021-09-05T11:27:47.816Z</time>
      </trkpt>
      <trkpt lat="45.87968" lon="5.62786">
        <ele>1027</ele>
        <time>2021-09-05T11:27:51.856Z</time>
      </trkpt>
      <trkpt lat="45.87965" lon="5.62778">
        <ele>1027</ele>
        <time>2021-09-05T11:27:56.818Z</time>
      </trkpt>
      <trkpt lat="45.87963" lon="5.62769">
        <ele>1027</ele>
        <time>2021-09-05T11:28:01.807Z</time>
      </trkpt>
      <trkpt lat="45.87961" lon="5.62761">
        <ele>1026</ele>
        <time>2021-09-05T11:28:06.795Z</time>
      </trkpt>
      <trkpt lat="45.87957" lon="5.62752">
        <ele>1027</ele>
        <time>2021-09-05T11:28:11.792Z</time>
      </trkpt>
      <trkpt lat="45.87951" lon="5.62746">
        <ele>1027</ele>
        <time>2021-09-05T11:28:15.809Z</time>
      </trkpt>
      <trkpt lat="45.87946" lon="5.62737">
        <ele>1027</ele>
        <time>2021-09-05T11:28:20.856Z</time>
      </trkpt>
      <trkpt lat="45.87942" lon="5.62728">
        <ele>1025</ele>
        <time>2021-09-05T11:28:25.826Z</time>
      </trkpt>
      <trkpt lat="45.87936" lon="5.62721">
        <ele>1025</ele>
        <time>2021-09-05T11:28:30.844Z</time>
      </trkpt>
      <trkpt lat="45.8793" lon="5.62713">
        <ele>1025</ele>
        <time>2021-09-05T11:28:35.824Z</time>
      </trkpt>
      <trkpt lat="45.87922" lon="5.62705">
        <ele>1023</ele>
        <time>2021-09-05T11:28:40.835Z</time>
      </trkpt>
      <trkpt lat="45.87915" lon="5.62698">
        <ele>1023</ele>
        <time>2021-09-05T11:28:45.833Z</time>
      </trkpt>
      <trkpt lat="45.87911" lon="5.62693">
        <ele>1023</ele>
        <time>2021-09-05T11:28:50.812Z</time>
      </trkpt>
      <trkpt lat="45.87907" lon="5.62689">
        <ele>1023</ele>
        <time>2021-09-05T11:28:54.877Z</time>
      </trkpt>
      <trkpt lat="45.87902" lon="5.62684">
        <ele>1024</ele>
        <time>2021-09-05T11:28:59.832Z</time>
      </trkpt>
      <trkpt lat="45.87897" lon="5.6268">
        <ele>1024</ele>
        <time>2021-09-05T11:29:04.820Z</time>
      </trkpt>
      <trkpt lat="45.87894" lon="5.62672">
        <ele>1024</ele>
        <time>2021-09-05T11:29:09.794Z</time>
      </trkpt>
      <trkpt lat="45.87891" lon="5.62668">
        <ele>1024</ele>
        <time>2021-09-05T11:29:13.828Z</time>
      </trkpt>
      <trkpt lat="45.87887" lon="5.62662">
        <ele>1024</ele>
        <time>2021-09-05T11:29:18.828Z</time>
      </trkpt>
      <trkpt lat="45.87883" lon="5.62653">
        <ele>1024</ele>
        <time>2021-09-05T11:29:23.864Z</time>
      </trkpt>
      <trkpt lat="45.87881" lon="5.62647">
        <ele>1024</ele>
        <time>2021-09-05T11:29:28.827Z</time>
      </trkpt>
      <trkpt lat="45.87879" lon="5.62642">
        <ele>1024</ele>
        <time>2021-09-05T11:29:32.834Z</time>
      </trkpt>
      <trkpt lat="45.87877" lon="5.62636">
        <ele>1024</ele>
        <time>2021-09-05T11:29:37.828Z</time>
      </trkpt>
      <trkpt lat="45.87876" lon="5.62626">
        <ele>1024</ele>
        <time>2021-09-05T11:29:42.815Z</time>
      </trkpt>
      <trkpt lat="45.87871" lon="5.62617">
        <ele>1024</ele>
        <time>2021-09-05T11:29:46.859Z</time>
      </trkpt>
      <trkpt lat="45.87867" lon="5.62608">
        <ele>1024</ele>
        <time>2021-09-05T11:29:51.816Z</time>
      </trkpt>
      <trkpt lat="45.87867" lon="5.626">
        <ele>1024</ele>
        <time>2021-09-05T11:29:55.824Z</time>
      </trkpt>
      <trkpt lat="45.87869" lon="5.62589">
        <ele>1023</ele>
        <time>2021-09-05T11:30:00.814Z</time>
      </trkpt>
      <trkpt lat="45.87868" lon="5.62582">
        <ele>1023</ele>
        <time>2021-09-05T11:30:04.831Z</time>
      </trkpt>
      <trkpt lat="45.87869" lon="5.62573">
        <ele>1023</ele>
        <time>2021-09-05T11:30:09.849Z</time>
      </trkpt>
      <trkpt lat="45.87869" lon="5.62563">
        <ele>1023</ele>
        <time>2021-09-05T11:30:14.822Z</time>
      </trkpt>
      <trkpt lat="45.8787" lon="5.62553">
        <ele>1023</ele>
        <time>2021-09-05T11:30:19.804Z</time>
      </trkpt>
      <trkpt lat="45.8787" lon="5.62546">
        <ele>1023</ele>
        <time>2021-09-05T11:30:23.873Z</time>
      </trkpt>
      <trkpt lat="45.87872" lon="5.62529">
        <ele>1023</ele>
        <time>2021-09-05T11:30:28.851Z</time>
      </trkpt>
      <trkpt lat="45.87876" lon="5.62522">
        <ele>1029</ele>
        <time>2021-09-05T11:30:33.824Z</time>
      </trkpt>
      <trkpt lat="45.87877" lon="5.62513">
        <ele>1029</ele>
        <time>2021-09-05T11:30:37.829Z</time>
      </trkpt>
      <trkpt lat="45.87874" lon="5.62503">
        <ele>1022</ele>
        <time>2021-09-05T11:30:42.829Z</time>
      </trkpt>
      <trkpt lat="45.87869" lon="5.62496">
        <ele>1022</ele>
        <time>2021-09-05T11:30:46.851Z</time>
      </trkpt>
      <trkpt lat="45.87864" lon="5.62488">
        <ele>1022</ele>
        <time>2021-09-05T11:30:51.858Z</time>
      </trkpt>
      <trkpt lat="45.87861" lon="5.6248">
        <ele>1022</ele>
        <time>2021-09-05T11:30:56.819Z</time>
      </trkpt>
      <trkpt lat="45.8786" lon="5.62473">
        <ele>1022</ele>
        <time>2021-09-05T11:31:00.818Z</time>
      </trkpt>
      <trkpt lat="45.87861" lon="5.62466">
        <ele>1022</ele>
        <time>2021-09-05T11:31:04.858Z</time>
      </trkpt>
      <trkpt lat="45.87859" lon="5.62459">
        <ele>1022</ele>
        <time>2021-09-05T11:31:09.794Z</time>
      </trkpt>
      <trkpt lat="45.87858" lon="5.62452">
        <ele>1021</ele>
        <time>2021-09-05T11:31:13.817Z</time>
      </trkpt>
      <trkpt lat="45.87856" lon="5.62441">
        <ele>1021</ele>
        <time>2021-09-05T11:31:18.811Z</time>
      </trkpt>
      <trkpt lat="45.87853" lon="5.62434">
        <ele>1021</ele>
        <time>2021-09-05T11:31:22.847Z</time>
      </trkpt>
      <trkpt lat="45.87852" lon="5.62426">
        <ele>1019</ele>
        <time>2021-09-05T11:31:27.824Z</time>
      </trkpt>
      <trkpt lat="45.87853" lon="5.62417">
        <ele>1019</ele>
        <time>2021-09-05T11:31:32.817Z</time>
      </trkpt>
      <trkpt lat="45.87856" lon="5.62408">
        <ele>1019</ele>
        <time>2021-09-05T11:31:37.816Z</time>
      </trkpt>
      <trkpt lat="45.87857" lon="5.62398">
        <ele>1017</ele>
        <time>2021-09-05T11:31:42.824Z</time>
      </trkpt>
      <trkpt lat="45.87858" lon="5.6239">
        <ele>1017</ele>
        <time>2021-09-05T11:31:46.877Z</time>
      </trkpt>
      <trkpt lat="45.87859" lon="5.6238">
        <ele>1017</ele>
        <time>2021-09-05T11:31:51.823Z</time>
      </trkpt>
      <trkpt lat="45.8786" lon="5.62374">
        <ele>1015</ele>
        <time>2021-09-05T11:31:55.856Z</time>
      </trkpt>
      <trkpt lat="45.87863" lon="5.62363">
        <ele>1015</ele>
        <time>2021-09-05T11:32:00.829Z</time>
      </trkpt>
      <trkpt lat="45.87864" lon="5.62355">
        <ele>1015</ele>
        <time>2021-09-05T11:32:04.859Z</time>
      </trkpt>
      <trkpt lat="45.87865" lon="5.62345">
        <ele>1014</ele>
        <time>2021-09-05T11:32:09.798Z</time>
      </trkpt>
      <trkpt lat="45.87866" lon="5.62338">
        <ele>1014</ele>
        <time>2021-09-05T11:32:13.821Z</time>
      </trkpt>
      <trkpt lat="45.87867" lon="5.62332">
        <ele>1014</ele>
        <time>2021-09-05T11:32:17.856Z</time>
      </trkpt>
      <trkpt lat="45.87868" lon="5.62324">
        <ele>1014</ele>
        <time>2021-09-05T11:32:21.868Z</time>
      </trkpt>
      <trkpt lat="45.8787" lon="5.62314">
        <ele>1013</ele>
        <time>2021-09-05T11:32:26.810Z</time>
      </trkpt>
      <trkpt lat="45.8787" lon="5.62304">
        <ele>1013</ele>
        <time>2021-09-05T11:32:30.824Z</time>
      </trkpt>
      <trkpt lat="45.87871" lon="5.62293">
        <ele>1013</ele>
        <time>2021-09-05T11:32:35.828Z</time>
      </trkpt>
      <trkpt lat="45.87872" lon="5.62284">
        <ele>1012</ele>
        <time>2021-09-05T11:32:39.823Z</time>
      </trkpt>
      <trkpt lat="45.87875" lon="5.62271">
        <ele>1016</ele>
        <time>2021-09-05T11:32:44.849Z</time>
      </trkpt>
      <trkpt lat="45.8788" lon="5.62254">
        <ele>1015</ele>
        <time>2021-09-05T11:32:49.817Z</time>
      </trkpt>
      <trkpt lat="45.87883" lon="5.62247">
        <ele>1015</ele>
        <time>2021-09-05T11:32:54.814Z</time>
      </trkpt>
      <trkpt lat="45.87885" lon="5.6224">
        <ele>1015</ele>
        <time>2021-09-05T11:32:59.818Z</time>
      </trkpt>
      <trkpt lat="45.87885" lon="5.62228">
        <ele>1013</ele>
        <time>2021-09-05T11:33:04.846Z</time>
      </trkpt>
      <trkpt lat="45.87886" lon="5.62219">
        <ele>1013</ele>
        <time>2021-09-05T11:33:08.858Z</time>
      </trkpt>
      <trkpt lat="45.8789" lon="5.62209">
        <ele>1013</ele>
        <time>2021-09-05T11:33:13.808Z</time>
      </trkpt>
      <trkpt lat="45.87891" lon="5.62199">
        <ele>1011</ele>
        <time>2021-09-05T11:33:17.857Z</time>
      </trkpt>
      <trkpt lat="45.87893" lon="5.62187">
        <ele>1011</ele>
        <time>2021-09-05T11:33:22.837Z</time>
      </trkpt>
      <trkpt lat="45.87896" lon="5.62177">
        <ele>1009</ele>
        <time>2021-09-05T11:33:27.818Z</time>
      </trkpt>
      <trkpt lat="45.879" lon="5.6217">
        <ele>1009</ele>
        <time>2021-09-05T11:33:32.818Z</time>
      </trkpt>
      <trkpt lat="45.87903" lon="5.62161">
        <ele>1012</ele>
        <time>2021-09-05T11:33:37.829Z</time>
      </trkpt>
      <trkpt lat="45.87906" lon="5.62152">
        <ele>1010</ele>
        <time>2021-09-05T11:33:42.811Z</time>
      </trkpt>
      <trkpt lat="45.87909" lon="5.62143">
        <ele>1010</ele>
        <time>2021-09-05T11:33:47.818Z</time>
      </trkpt>
      <trkpt lat="45.87911" lon="5.62136">
        <ele>1010</ele>
        <time>2021-09-05T11:33:51.825Z</time>
      </trkpt>
      <trkpt lat="45.87914" lon="5.62128">
        <ele>1010</ele>
        <time>2021-09-05T11:33:56.847Z</time>
      </trkpt>
      <trkpt lat="45.87925" lon="5.62116">
        <ele>1009</ele>
        <time>2021-09-05T11:34:26.829Z</time>
      </trkpt>
      <trkpt lat="45.87928" lon="5.62119">
        <ele>1009</ele>
        <time>2021-09-05T11:34:31.815Z</time>
      </trkpt>
      <trkpt lat="45.87926" lon="5.6213">
        <ele>1010</ele>
        <time>2021-09-05T11:34:36.807Z</time>
      </trkpt>
      <trkpt lat="45.87929" lon="5.62134">
        <ele>1010</ele>
        <time>2021-09-05T11:34:40.821Z</time>
      </trkpt>
      <trkpt lat="45.87934" lon="5.62137">
        <ele>1012</ele>
        <time>2021-09-05T11:34:44.820Z</time>
      </trkpt>
      <trkpt lat="45.87941" lon="5.6214">
        <ele>1012</ele>
        <time>2021-09-05T11:34:49.818Z</time>
      </trkpt>
      <trkpt lat="45.87951" lon="5.62145">
        <ele>1012</ele>
        <time>2021-09-05T11:34:54.856Z</time>
      </trkpt>
      <trkpt lat="45.87959" lon="5.62149">
        <ele>1015</ele>
        <time>2021-09-05T11:34:59.876Z</time>
      </trkpt>
      <trkpt lat="45.87964" lon="5.62154">
        <ele>1017</ele>
        <time>2021-09-05T11:35:04.785Z</time>
      </trkpt>
      <trkpt lat="45.87969" lon="5.62158">
        <ele>1017</ele>
        <time>2021-09-05T11:35:08.818Z</time>
      </trkpt>
      <trkpt lat="45.87975" lon="5.6216">
        <ele>1017</ele>
        <time>2021-09-05T11:35:13.827Z</time>
      </trkpt>
      <trkpt lat="45.87981" lon="5.62162">
        <ele>1017</ele>
        <time>2021-09-05T11:35:18.813Z</time>
      </trkpt>
      <trkpt lat="45.87986" lon="5.62166">
        <ele>1022</ele>
        <time>2021-09-05T11:35:23.799Z</time>
      </trkpt>
      <trkpt lat="45.8799" lon="5.6217">
        <ele>1022</ele>
        <time>2021-09-05T11:35:27.810Z</time>
      </trkpt>
      <trkpt lat="45.87995" lon="5.62177">
        <ele>1022</ele>
        <time>2021-09-05T11:35:32.850Z</time>
      </trkpt>
      <trkpt lat="45.88" lon="5.62183">
        <ele>1025</ele>
        <time>2021-09-05T11:35:37.819Z</time>
      </trkpt>
      <trkpt lat="45.88006" lon="5.62188">
        <ele>1025</ele>
        <time>2021-09-05T11:35:42.831Z</time>
      </trkpt>
      <trkpt lat="45.8801" lon="5.62194">
        <ele>1025</ele>
        <time>2021-09-05T11:35:47.817Z</time>
      </trkpt>
      <trkpt lat="45.88014" lon="5.62198">
        <ele>1025</ele>
        <time>2021-09-05T11:35:51.824Z</time>
      </trkpt>
      <trkpt lat="45.88017" lon="5.62205">
        <ele>1028</ele>
        <time>2021-09-05T11:35:56.826Z</time>
      </trkpt>
      <trkpt lat="45.88021" lon="5.62212">
        <ele>1031</ele>
        <time>2021-09-05T11:36:01.827Z</time>
      </trkpt>
      <trkpt lat="45.88026" lon="5.62217">
        <ele>1031</ele>
        <time>2021-09-05T11:36:06.809Z</time>
      </trkpt>
      <trkpt lat="45.88034" lon="5.62228">
        <ele>1031</ele>
        <time>2021-09-05T11:36:11.823Z</time>
      </trkpt>
      <trkpt lat="45.8804" lon="5.62235">
        <ele>1031</ele>
        <time>2021-09-05T11:36:16.833Z</time>
      </trkpt>
      <trkpt lat="45.88045" lon="5.62239">
        <ele>1032</ele>
        <time>2021-09-05T11:36:21.859Z</time>
      </trkpt>
      <trkpt lat="45.8805" lon="5.6224">
        <ele>1032</ele>
        <time>2021-09-05T11:36:26.833Z</time>
      </trkpt>
      <trkpt lat="45.88058" lon="5.6224">
        <ele>1032</ele>
        <time>2021-09-05T11:36:31.828Z</time>
      </trkpt>
      <trkpt lat="45.88064" lon="5.6224">
        <ele>1032</ele>
        <time>2021-09-05T11:36:36.820Z</time>
      </trkpt>
      <trkpt lat="45.88071" lon="5.62241">
        <ele>1033</ele>
        <time>2021-09-05T11:36:40.852Z</time>
      </trkpt>
      <trkpt lat="45.88077" lon="5.62241">
        <ele>1033</ele>
        <time>2021-09-05T11:36:45.798Z</time>
      </trkpt>
      <trkpt lat="45.88083" lon="5.62242">
        <ele>1033</ele>
        <time>2021-09-05T11:36:49.821Z</time>
      </trkpt>
      <trkpt lat="45.88089" lon="5.62241">
        <ele>1033</ele>
        <time>2021-09-05T11:36:53.848Z</time>
      </trkpt>
      <trkpt lat="45.88095" lon="5.62239">
        <ele>1033</ele>
        <time>2021-09-05T11:36:58.855Z</time>
      </trkpt>
      <trkpt lat="45.88102" lon="5.6224">
        <ele>1037</ele>
        <time>2021-09-05T11:37:03.822Z</time>
      </trkpt>
      <trkpt lat="45.88107" lon="5.62242">
        <ele>1037</ele>
        <time>2021-09-05T11:37:07.850Z</time>
      </trkpt>
      <trkpt lat="45.88114" lon="5.62245">
        <ele>1037</ele>
        <time>2021-09-05T11:37:12.781Z</time>
      </trkpt>
      <trkpt lat="45.88121" lon="5.62249">
        <ele>1037</ele>
        <time>2021-09-05T11:37:17.811Z</time>
      </trkpt>
      <trkpt lat="45.88131" lon="5.62257">
        <ele>1043</ele>
        <time>2021-09-05T11:37:22.810Z</time>
      </trkpt>
      <trkpt lat="45.88139" lon="5.62262">
        <ele>1043</ele>
        <time>2021-09-05T11:37:26.822Z</time>
      </trkpt>
      <trkpt lat="45.88151" lon="5.62263">
        <ele>1043</ele>
        <time>2021-09-05T11:37:31.822Z</time>
      </trkpt>
      <trkpt lat="45.88159" lon="5.62265">
        <ele>1048</ele>
        <time>2021-09-05T11:37:36.812Z</time>
      </trkpt>
      <trkpt lat="45.88172" lon="5.62268">
        <ele>1048</ele>
        <time>2021-09-05T11:37:41.824Z</time>
      </trkpt>
      <trkpt lat="45.88183" lon="5.62267">
        <ele>1049</ele>
        <time>2021-09-05T11:37:45.854Z</time>
      </trkpt>
      <trkpt lat="45.88191" lon="5.62265">
        <ele>1049</ele>
        <time>2021-09-05T11:37:50.812Z</time>
      </trkpt>
      <trkpt lat="45.88198" lon="5.62266">
        <ele>1049</ele>
        <time>2021-09-05T11:37:54.828Z</time>
      </trkpt>
      <trkpt lat="45.88205" lon="5.62265">
        <ele>1049</ele>
        <time>2021-09-05T11:37:58.859Z</time>
      </trkpt>
      <trkpt lat="45.88214" lon="5.62267">
        <ele>1052</ele>
        <time>2021-09-05T11:38:03.837Z</time>
      </trkpt>
      <trkpt lat="45.88221" lon="5.62272">
        <ele>1052</ele>
        <time>2021-09-05T11:38:08.830Z</time>
      </trkpt>
      <trkpt lat="45.8823" lon="5.62278">
        <ele>1052</ele>
        <time>2021-09-05T11:38:13.822Z</time>
      </trkpt>
      <trkpt lat="45.88237" lon="5.62286">
        <ele>1056</ele>
        <time>2021-09-05T11:38:18.827Z</time>
      </trkpt>
      <trkpt lat="45.88244" lon="5.62293">
        <ele>1057</ele>
        <time>2021-09-05T11:38:23.843Z</time>
      </trkpt>
      <trkpt lat="45.88251" lon="5.62299">
        <ele>1057</ele>
        <time>2021-09-05T11:38:28.813Z</time>
      </trkpt>
      <trkpt lat="45.88259" lon="5.62303">
        <ele>1057</ele>
        <time>2021-09-05T11:38:33.815Z</time>
      </trkpt>
      <trkpt lat="45.88263" lon="5.62307">
        <ele>1057</ele>
        <time>2021-09-05T11:38:37.830Z</time>
      </trkpt>
      <trkpt lat="45.88269" lon="5.62308">
        <ele>1060</ele>
        <time>2021-09-05T11:38:42.822Z</time>
      </trkpt>
      <trkpt lat="45.88275" lon="5.62309">
        <ele>1060</ele>
        <time>2021-09-05T11:38:46.850Z</time>
      </trkpt>
      <trkpt lat="45.88281" lon="5.62314">
        <ele>1060</ele>
        <time>2021-09-05T11:38:51.786Z</time>
      </trkpt>
      <trkpt lat="45.88286" lon="5.62317">
        <ele>1060</ele>
        <time>2021-09-05T11:38:55.828Z</time>
      </trkpt>
      <trkpt lat="45.88292" lon="5.62318">
        <ele>1060</ele>
        <time>2021-09-05T11:38:59.838Z</time>
      </trkpt>
      <trkpt lat="45.88297" lon="5.6232">
        <ele>1064</ele>
        <time>2021-09-05T11:39:03.848Z</time>
      </trkpt>
      <trkpt lat="45.88303" lon="5.62321">
        <ele>1064</ele>
        <time>2021-09-05T11:39:08.809Z</time>
      </trkpt>
      <trkpt lat="45.88309" lon="5.62323">
        <ele>1064</ele>
        <time>2021-09-05T11:39:13.793Z</time>
      </trkpt>
      <trkpt lat="45.88313" lon="5.62325">
        <ele>1064</ele>
        <time>2021-09-05T11:39:17.815Z</time>
      </trkpt>
      <trkpt lat="45.88313" lon="5.62325">
        <ele>1064</ele>
        <time>2021-09-05T11:39:22.825Z</time>
      </trkpt>
      <trkpt lat="45.88313" lon="5.62325">
        <ele>1064</ele>
        <time>2021-09-05T11:39:27.837Z</time>
      </trkpt>
      <trkpt lat="45.88318" lon="5.62328">
        <ele>1064</ele>
        <time>2021-09-05T11:39:32.816Z</time>
      </trkpt>
      <trkpt lat="45.88323" lon="5.62331">
        <ele>1066</ele>
        <time>2021-09-05T11:39:36.824Z</time>
      </trkpt>
      <trkpt lat="45.88328" lon="5.62335">
        <ele>1066</ele>
        <time>2021-09-05T11:39:41.815Z</time>
      </trkpt>
      <trkpt lat="45.88333" lon="5.62337">
        <ele>1066</ele>
        <time>2021-09-05T11:39:45.830Z</time>
      </trkpt>
      <trkpt lat="45.88339" lon="5.62338">
        <ele>1066</ele>
        <time>2021-09-05T11:39:50.808Z</time>
      </trkpt>
      <trkpt lat="45.88345" lon="5.6234">
        <ele>1066</ele>
        <time>2021-09-05T11:39:55.818Z</time>
      </trkpt>
      <trkpt lat="45.88352" lon="5.62342">
        <ele>1069</ele>
        <time>2021-09-05T11:40:00.825Z</time>
      </trkpt>
      <trkpt lat="45.88358" lon="5.62342">
        <ele>1069</ele>
        <time>2021-09-05T11:40:05.799Z</time>
      </trkpt>
      <trkpt lat="45.88364" lon="5.6234">
        <ele>1069</ele>
        <time>2021-09-05T11:40:09.822Z</time>
      </trkpt>
      <trkpt lat="45.88373" lon="5.62335">
        <ele>1069</ele>
        <time>2021-09-05T11:40:14.833Z</time>
      </trkpt>
      <trkpt lat="45.88377" lon="5.62333">
        <ele>1071</ele>
        <time>2021-09-05T11:40:18.842Z</time>
      </trkpt>
      <trkpt lat="45.88378" lon="5.62329">
        <ele>1071</ele>
        <time>2021-09-05T11:40:23.828Z</time>
      </trkpt>
      <trkpt lat="45.88376" lon="5.6232">
        <ele>1071</ele>
        <time>2021-09-05T11:40:27.856Z</time>
      </trkpt>
      <trkpt lat="45.88374" lon="5.62312">
        <ele>1068</ele>
        <time>2021-09-05T11:40:32.789Z</time>
      </trkpt>
      <trkpt lat="45.88374" lon="5.62306">
        <ele>1068</ele>
        <time>2021-09-05T11:40:36.842Z</time>
      </trkpt>
      <trkpt lat="45.8838" lon="5.62304">
        <ele>1070</ele>
        <time>2021-09-05T11:40:41.787Z</time>
      </trkpt>
      <trkpt lat="45.88385" lon="5.62307">
        <ele>1070</ele>
        <time>2021-09-05T11:40:45.805Z</time>
      </trkpt>
      <trkpt lat="45.8839" lon="5.62304">
        <ele>1070</ele>
        <time>2021-09-05T11:40:49.816Z</time>
      </trkpt>
      <trkpt lat="45.88395" lon="5.62301">
        <ele>1070</ele>
        <time>2021-09-05T11:40:53.818Z</time>
      </trkpt>
      <trkpt lat="45.884" lon="5.62299">
        <ele>1070</ele>
        <time>2021-09-05T11:40:57.821Z</time>
      </trkpt>
      <trkpt lat="45.88405" lon="5.62294">
        <ele>1071</ele>
        <time>2021-09-05T11:41:02.829Z</time>
      </trkpt>
      <trkpt lat="45.8841" lon="5.62289">
        <ele>1071</ele>
        <time>2021-09-05T11:41:07.828Z</time>
      </trkpt>
      <trkpt lat="45.88415" lon="5.62291">
        <ele>1071</ele>
        <time>2021-09-05T11:41:12.825Z</time>
      </trkpt>
      <trkpt lat="45.88421" lon="5.62294">
        <ele>1071</ele>
        <time>2021-09-05T11:41:17.817Z</time>
      </trkpt>
      <trkpt lat="45.88426" lon="5.62296">
        <ele>1071</ele>
        <time>2021-09-05T11:41:22.850Z</time>
      </trkpt>
      <trkpt lat="45.88433" lon="5.62298">
        <ele>1074</ele>
        <time>2021-09-05T11:41:27.816Z</time>
      </trkpt>
      <trkpt lat="45.88436" lon="5.62297">
        <ele>1074</ele>
        <time>2021-09-05T11:41:31.853Z</time>
      </trkpt>
      <trkpt lat="45.88443" lon="5.62299">
        <ele>1074</ele>
        <time>2021-09-05T11:41:36.817Z</time>
      </trkpt>
      <trkpt lat="45.88449" lon="5.623">
        <ele>1074</ele>
        <time>2021-09-05T11:41:41.823Z</time>
      </trkpt>
      <trkpt lat="45.88467" lon="5.623">
        <ele>1077</ele>
        <time>2021-09-05T11:42:05.851Z</time>
      </trkpt>
      <trkpt lat="45.88467" lon="5.623">
        <ele>1077</ele>
        <time>2021-09-05T11:42:09.854Z</time>
      </trkpt>
      <trkpt lat="45.88469" lon="5.62297">
        <ele>1077</ele>
        <time>2021-09-05T11:42:14.785Z</time>
      </trkpt>
      <trkpt lat="45.88472" lon="5.62296">
        <ele>1077</ele>
        <time>2021-09-05T11:42:18.827Z</time>
      </trkpt>
      <trkpt lat="45.88479" lon="5.62296">
        <ele>1077</ele>
        <time>2021-09-05T11:42:23.815Z</time>
      </trkpt>
      <trkpt lat="45.88483" lon="5.62295">
        <ele>1077</ele>
        <time>2021-09-05T11:42:31.842Z</time>
      </trkpt>
      <trkpt lat="45.88484" lon="5.62294">
        <ele>1077</ele>
        <time>2021-09-05T11:42:35.849Z</time>
      </trkpt>
      <trkpt lat="45.88486" lon="5.62292">
        <ele>1077</ele>
        <time>2021-09-05T11:42:39.856Z</time>
      </trkpt>
      <trkpt lat="45.88488" lon="5.62291">
        <ele>1081</ele>
        <time>2021-09-05T11:42:44.855Z</time>
      </trkpt>
      <trkpt lat="45.8849" lon="5.62292">
        <ele>1081</ele>
        <time>2021-09-05T11:42:49.852Z</time>
      </trkpt>
      <trkpt lat="45.88495" lon="5.62296">
        <ele>1081</ele>
        <time>2021-09-05T11:42:54.809Z</time>
      </trkpt>
      <trkpt lat="45.88496" lon="5.62299">
        <ele>1081</ele>
        <time>2021-09-05T11:42:58.819Z</time>
      </trkpt>
      <trkpt lat="45.88497" lon="5.623">
        <ele>1081</ele>
        <time>2021-09-05T11:43:02.816Z</time>
      </trkpt>
      <trkpt lat="45.88499" lon="5.62305">
        <ele>1081</ele>
        <time>2021-09-05T11:43:07.813Z</time>
      </trkpt>
      <trkpt lat="45.88501" lon="5.62308">
        <ele>1081</ele>
        <time>2021-09-05T11:43:12.813Z</time>
      </trkpt>
      <trkpt lat="45.8851" lon="5.62315">
        <ele>1081</ele>
        <time>2021-09-05T11:45:20.830Z</time>
      </trkpt>
      <trkpt lat="45.8851" lon="5.62318">
        <ele>1081</ele>
        <time>2021-09-05T11:45:25.813Z</time>
      </trkpt>
      <trkpt lat="45.88509" lon="5.62327">
        <ele>1083</ele>
        <time>2021-09-05T11:45:29.847Z</time>
      </trkpt>
      <trkpt lat="45.8851" lon="5.62336">
        <ele>1083</ele>
        <time>2021-09-05T11:45:34.820Z</time>
      </trkpt>
      <trkpt lat="45.8851" lon="5.62345">
        <ele>1083</ele>
        <time>2021-09-05T11:45:39.809Z</time>
      </trkpt>
      <trkpt lat="45.88511" lon="5.62352">
        <ele>1086</ele>
        <time>2021-09-05T11:45:43.844Z</time>
      </trkpt>
      <trkpt lat="45.88511" lon="5.6236">
        <ele>1086</ele>
        <time>2021-09-05T11:45:48.848Z</time>
      </trkpt>
      <trkpt lat="45.88514" lon="5.62367">
        <ele>1093</ele>
        <time>2021-09-05T11:45:53.813Z</time>
      </trkpt>
      <trkpt lat="45.88517" lon="5.62375">
        <ele>1094</ele>
        <time>2021-09-05T11:45:58.792Z</time>
      </trkpt>
      <trkpt lat="45.88518" lon="5.62381">
        <ele>1094</ele>
        <time>2021-09-05T11:46:02.841Z</time>
      </trkpt>
      <trkpt lat="45.88522" lon="5.62389">
        <ele>1094</ele>
        <time>2021-09-05T11:46:07.866Z</time>
      </trkpt>
      <trkpt lat="45.88526" lon="5.62395">
        <ele>1094</ele>
        <time>2021-09-05T11:46:12.825Z</time>
      </trkpt>
      <trkpt lat="45.88532" lon="5.62397">
        <ele>1094</ele>
        <time>2021-09-05T11:46:17.781Z</time>
      </trkpt>
      <trkpt lat="45.88536" lon="5.62394">
        <ele>1094</ele>
        <time>2021-09-05T11:46:21.823Z</time>
      </trkpt>
      <trkpt lat="45.8854" lon="5.6239">
        <ele>1094</ele>
        <time>2021-09-05T11:46:26.813Z</time>
      </trkpt>
      <trkpt lat="45.88547" lon="5.62384">
        <ele>1100</ele>
        <time>2021-09-05T11:46:30.842Z</time>
      </trkpt>
      <trkpt lat="45.8855" lon="5.62376">
        <ele>1100</ele>
        <time>2021-09-05T11:46:35.812Z</time>
      </trkpt>
      <trkpt lat="45.88552" lon="5.6237">
        <ele>1099</ele>
        <time>2021-09-05T11:46:39.820Z</time>
      </trkpt>
      <trkpt lat="45.88553" lon="5.62366">
        <ele>1099</ele>
        <time>2021-09-05T11:46:43.845Z</time>
      </trkpt>
      <trkpt lat="45.88554" lon="5.62365">
        <ele>1099</ele>
        <time>2021-09-05T11:46:48.804Z</time>
      </trkpt>
      <trkpt lat="45.88556" lon="5.6236">
        <ele>1099</ele>
        <time>2021-09-05T11:46:53.823Z</time>
      </trkpt>
      <trkpt lat="45.88556" lon="5.62358">
        <ele>1099</ele>
        <time>2021-09-05T11:46:58.806Z</time>
      </trkpt>
      <trkpt lat="45.88558" lon="5.6236">
        <ele>1099</ele>
        <time>2021-09-05T11:47:02.821Z</time>
      </trkpt>
      <trkpt lat="45.88562" lon="5.62363">
        <ele>1099</ele>
        <time>2021-09-05T11:47:06.820Z</time>
      </trkpt>
      <trkpt lat="45.88567" lon="5.62365">
        <ele>1099</ele>
        <time>2021-09-05T11:47:11.813Z</time>
      </trkpt>
      <trkpt lat="45.88572" lon="5.62367">
        <ele>1104</ele>
        <time>2021-09-05T11:47:16.793Z</time>
      </trkpt>
      <trkpt lat="45.88577" lon="5.62368">
        <ele>1104</ele>
        <time>2021-09-05T11:47:20.808Z</time>
      </trkpt>
      <trkpt lat="45.88581" lon="5.62367">
        <ele>1104</ele>
        <time>2021-09-05T11:47:24.813Z</time>
      </trkpt>
      <trkpt lat="45.88586" lon="5.62368">
        <ele>1104</ele>
        <time>2021-09-05T11:47:28.824Z</time>
      </trkpt>
      <trkpt lat="45.88592" lon="5.62375">
        <ele>1105</ele>
        <time>2021-09-05T11:47:32.854Z</time>
      </trkpt>
      <trkpt lat="45.88595" lon="5.62378">
        <ele>1105</ele>
        <time>2021-09-05T11:47:37.814Z</time>
      </trkpt>
      <trkpt lat="45.88597" lon="5.62384">
        <ele>1107</ele>
        <time>2021-09-05T11:47:41.822Z</time>
      </trkpt>
      <trkpt lat="45.88601" lon="5.62388">
        <ele>1107</ele>
        <time>2021-09-05T11:47:46.823Z</time>
      </trkpt>
      <trkpt lat="45.88605" lon="5.62389">
        <ele>1107</ele>
        <time>2021-09-05T11:47:50.848Z</time>
      </trkpt>
      <trkpt lat="45.8861" lon="5.62389">
        <ele>1107</ele>
        <time>2021-09-05T11:47:55.808Z</time>
      </trkpt>
      <trkpt lat="45.88616" lon="5.62393">
        <ele>1107</ele>
        <time>2021-09-05T11:48:00.812Z</time>
      </trkpt>
      <trkpt lat="45.88618" lon="5.62399">
        <ele>1107</ele>
        <time>2021-09-05T11:48:04.821Z</time>
      </trkpt>
      <trkpt lat="45.88624" lon="5.62403">
        <ele>1106</ele>
        <time>2021-09-05T11:48:09.825Z</time>
      </trkpt>
      <trkpt lat="45.8863" lon="5.62404">
        <ele>1106</ele>
        <time>2021-09-05T11:48:14.814Z</time>
      </trkpt>
      <trkpt lat="45.88635" lon="5.62408">
        <ele>1106</ele>
        <time>2021-09-05T11:48:19.784Z</time>
      </trkpt>
      <trkpt lat="45.88639" lon="5.62412">
        <ele>1106</ele>
        <time>2021-09-05T11:48:23.792Z</time>
      </trkpt>
      <trkpt lat="45.88643" lon="5.62417">
        <ele>1106</ele>
        <time>2021-09-05T11:48:27.817Z</time>
      </trkpt>
      <trkpt lat="45.88649" lon="5.62423">
        <ele>1106</ele>
        <time>2021-09-05T11:48:32.812Z</time>
      </trkpt>
      <trkpt lat="45.88654" lon="5.62425">
        <ele>1107</ele>
        <time>2021-09-05T11:48:37.810Z</time>
      </trkpt>
      <trkpt lat="45.88659" lon="5.62428">
        <ele>1107</ele>
        <time>2021-09-05T11:48:41.821Z</time>
      </trkpt>
      <trkpt lat="45.88664" lon="5.62429">
        <ele>1107</ele>
        <time>2021-09-05T11:48:46.826Z</time>
      </trkpt>
      <trkpt lat="45.8867" lon="5.62423">
        <ele>1107</ele>
        <time>2021-09-05T11:50:34.790Z</time>
      </trkpt>
      <trkpt lat="45.88673" lon="5.62421">
        <ele>1107</ele>
        <time>2021-09-05T11:50:38.796Z</time>
      </trkpt>
      <trkpt lat="45.88677" lon="5.62419">
        <ele>1107</ele>
        <time>2021-09-05T11:50:42.804Z</time>
      </trkpt>
      <trkpt lat="45.88683" lon="5.62419">
        <ele>1109</ele>
        <time>2021-09-05T11:50:47.789Z</time>
      </trkpt>
      <trkpt lat="45.88687" lon="5.62419">
        <ele>1109</ele>
        <time>2021-09-05T11:50:51.803Z</time>
      </trkpt>
      <trkpt lat="45.88693" lon="5.6242">
        <ele>1109</ele>
        <time>2021-09-05T11:50:56.794Z</time>
      </trkpt>
      <trkpt lat="45.887" lon="5.6242">
        <ele>1109</ele>
        <time>2021-09-05T11:51:01.803Z</time>
      </trkpt>
      <trkpt lat="45.88706" lon="5.62422">
        <ele>1109</ele>
        <time>2021-09-05T11:51:06.796Z</time>
      </trkpt>
      <trkpt lat="45.88712" lon="5.62425">
        <ele>1111</ele>
        <time>2021-09-05T11:51:11.792Z</time>
      </trkpt>
      <trkpt lat="45.88718" lon="5.62427">
        <ele>1111</ele>
        <time>2021-09-05T11:51:16.797Z</time>
      </trkpt>
      <trkpt lat="45.88723" lon="5.62426">
        <ele>1111</ele>
        <time>2021-09-05T11:51:21.794Z</time>
      </trkpt>
      <trkpt lat="45.88731" lon="5.62424">
        <ele>1111</ele>
        <time>2021-09-05T11:51:26.794Z</time>
      </trkpt>
      <trkpt lat="45.88736" lon="5.62424">
        <ele>1112</ele>
        <time>2021-09-05T11:51:30.799Z</time>
      </trkpt>
      <trkpt lat="45.88742" lon="5.62425">
        <ele>1112</ele>
        <time>2021-09-05T11:51:35.794Z</time>
      </trkpt>
      <trkpt lat="45.88747" lon="5.6242">
        <ele>1112</ele>
        <time>2021-09-05T11:51:40.792Z</time>
      </trkpt>
      <trkpt lat="45.8875" lon="5.62411">
        <ele>1112</ele>
        <time>2021-09-05T11:51:45.799Z</time>
      </trkpt>
      <trkpt lat="45.88751" lon="5.62403">
        <ele>1110</ele>
        <time>2021-09-05T11:51:50.794Z</time>
      </trkpt>
      <trkpt lat="45.88751" lon="5.62394">
        <ele>1110</ele>
        <time>2021-09-05T11:51:55.793Z</time>
      </trkpt>
      <trkpt lat="45.88753" lon="5.62386">
        <ele>1110</ele>
        <time>2021-09-05T11:52:00.785Z</time>
      </trkpt>
      <trkpt lat="45.88757" lon="5.62381">
        <ele>1110</ele>
        <time>2021-09-05T11:52:04.800Z</time>
      </trkpt>
      <trkpt lat="45.88763" lon="5.62375">
        <ele>1110</ele>
        <time>2021-09-05T11:52:09.794Z</time>
      </trkpt>
      <trkpt lat="45.88767" lon="5.62372">
        <ele>1110</ele>
        <time>2021-09-05T11:52:13.796Z</time>
      </trkpt>
      <trkpt lat="45.88774" lon="5.62367">
        <ele>1110</ele>
        <time>2021-09-05T11:52:18.794Z</time>
      </trkpt>
      <trkpt lat="45.8878" lon="5.62363">
        <ele>1110</ele>
        <time>2021-09-05T11:52:23.793Z</time>
      </trkpt>
      <trkpt lat="45.88786" lon="5.62357">
        <ele>1110</ele>
        <time>2021-09-05T11:52:28.792Z</time>
      </trkpt>
      <trkpt lat="45.88792" lon="5.62353">
        <ele>1110</ele>
        <time>2021-09-05T11:52:33.797Z</time>
      </trkpt>
      <trkpt lat="45.88797" lon="5.62352">
        <ele>1111</ele>
        <time>2021-09-05T11:52:38.792Z</time>
      </trkpt>
      <trkpt lat="45.888" lon="5.62351">
        <ele>1111</ele>
        <time>2021-09-05T11:52:43.792Z</time>
      </trkpt>
      <trkpt lat="45.88806" lon="5.62349">
        <ele>1111</ele>
        <time>2021-09-05T11:52:48.797Z</time>
      </trkpt>
      <trkpt lat="45.88813" lon="5.62347">
        <ele>1110</ele>
        <time>2021-09-05T11:52:53.799Z</time>
      </trkpt>
      <trkpt lat="45.88821" lon="5.62351">
        <ele>1112</ele>
        <time>2021-09-05T11:52:58.793Z</time>
      </trkpt>
      <trkpt lat="45.88833" lon="5.62349">
        <ele>1112</ele>
        <time>2021-09-05T11:53:03.790Z</time>
      </trkpt>
      <trkpt lat="45.88844" lon="5.6234">
        <ele>1112</ele>
        <time>2021-09-05T11:53:08.796Z</time>
      </trkpt>
      <trkpt lat="45.88851" lon="5.62335">
        <ele>1115</ele>
        <time>2021-09-05T11:53:12.795Z</time>
      </trkpt>
      <trkpt lat="45.88856" lon="5.62332">
        <ele>1115</ele>
        <time>2021-09-05T11:53:17.785Z</time>
      </trkpt>
      <trkpt lat="45.88862" lon="5.62332">
        <ele>1115</ele>
        <time>2021-09-05T11:53:21.798Z</time>
      </trkpt>
      <trkpt lat="45.88869" lon="5.62332">
        <ele>1115</ele>
        <time>2021-09-05T11:53:26.796Z</time>
      </trkpt>
      <trkpt lat="45.88875" lon="5.6233">
        <ele>1117</ele>
        <time>2021-09-05T11:53:31.795Z</time>
      </trkpt>
      <trkpt lat="45.88883" lon="5.62329">
        <ele>1117</ele>
        <time>2021-09-05T11:53:36.793Z</time>
      </trkpt>
      <trkpt lat="45.88889" lon="5.62328">
        <ele>1117</ele>
        <time>2021-09-05T11:53:41.801Z</time>
      </trkpt>
      <trkpt lat="45.88892" lon="5.62324">
        <ele>1117</ele>
        <time>2021-09-05T11:53:46.792Z</time>
      </trkpt>
      <trkpt lat="45.88897" lon="5.6232">
        <ele>1117</ele>
        <time>2021-09-05T11:53:50.794Z</time>
      </trkpt>
      <trkpt lat="45.88904" lon="5.62317">
        <ele>1120</ele>
        <time>2021-09-05T11:53:55.801Z</time>
      </trkpt>
      <trkpt lat="45.88912" lon="5.62314">
        <ele>1120</ele>
        <time>2021-09-05T11:54:00.800Z</time>
      </trkpt>
      <trkpt lat="45.88917" lon="5.6231">
        <ele>1120</ele>
        <time>2021-09-05T11:54:05.799Z</time>
      </trkpt>
      <trkpt lat="45.88923" lon="5.62307">
        <ele>1120</ele>
        <time>2021-09-05T11:54:10.801Z</time>
      </trkpt>
      <trkpt lat="45.8893" lon="5.62305">
        <ele>1120</ele>
        <time>2021-09-05T11:54:15.787Z</time>
      </trkpt>
      <trkpt lat="45.88935" lon="5.62305">
        <ele>1120</ele>
        <time>2021-09-05T11:54:19.795Z</time>
      </trkpt>
      <trkpt lat="45.8894" lon="5.62303">
        <ele>1120</ele>
        <time>2021-09-05T11:54:24.793Z</time>
      </trkpt>
      <trkpt lat="45.88946" lon="5.62303">
        <ele>1120</ele>
        <time>2021-09-05T11:54:29.793Z</time>
      </trkpt>
      <trkpt lat="45.88952" lon="5.62304">
        <ele>1120</ele>
        <time>2021-09-05T11:54:34.796Z</time>
      </trkpt>
      <trkpt lat="45.88959" lon="5.62303">
        <ele>1117</ele>
        <time>2021-09-05T11:54:39.852Z</time>
      </trkpt>
      <trkpt lat="45.88964" lon="5.62303">
        <ele>1117</ele>
        <time>2021-09-05T11:54:43.862Z</time>
      </trkpt>
      <trkpt lat="45.8897" lon="5.62302">
        <ele>1117</ele>
        <time>2021-09-05T11:54:48.819Z</time>
      </trkpt>
      <trkpt lat="45.88976" lon="5.623">
        <ele>1117</ele>
        <time>2021-09-05T11:54:53.864Z</time>
      </trkpt>
      <trkpt lat="45.88982" lon="5.62298">
        <ele>1117</ele>
        <time>2021-09-05T11:54:58.846Z</time>
      </trkpt>
      <trkpt lat="45.88987" lon="5.62301">
        <ele>1113</ele>
        <time>2021-09-05T11:55:03.825Z</time>
      </trkpt>
      <trkpt lat="45.88992" lon="5.62305">
        <ele>1113</ele>
        <time>2021-09-05T11:55:08.819Z</time>
      </trkpt>
      <trkpt lat="45.88997" lon="5.6231">
        <ele>1113</ele>
        <time>2021-09-05T11:55:13.812Z</time>
      </trkpt>
      <trkpt lat="45.89001" lon="5.62317">
        <ele>1113</ele>
        <time>2021-09-05T11:55:18.796Z</time>
      </trkpt>
      <trkpt lat="45.89005" lon="5.62322">
        <ele>1114</ele>
        <time>2021-09-05T11:55:22.824Z</time>
      </trkpt>
      <trkpt lat="45.89009" lon="5.62327">
        <ele>1114</ele>
        <time>2021-09-05T11:55:26.842Z</time>
      </trkpt>
      <trkpt lat="45.89014" lon="5.62333">
        <ele>1107</ele>
        <time>2021-09-05T11:55:31.825Z</time>
      </trkpt>
      <trkpt lat="45.89019" lon="5.62338">
        <ele>1107</ele>
        <time>2021-09-05T11:55:36.793Z</time>
      </trkpt>
      <trkpt lat="45.89023" lon="5.62341">
        <ele>1107</ele>
        <time>2021-09-05T11:55:40.817Z</time>
      </trkpt>
      <trkpt lat="45.89029" lon="5.62345">
        <ele>1107</ele>
        <time>2021-09-05T11:55:45.823Z</time>
      </trkpt>
      <trkpt lat="45.89035" lon="5.62349">
        <ele>1108</ele>
        <time>2021-09-05T11:55:50.806Z</time>
      </trkpt>
      <trkpt lat="45.8904" lon="5.62352">
        <ele>1108</ele>
        <time>2021-09-05T11:55:54.840Z</time>
      </trkpt>
      <trkpt lat="45.89044" lon="5.62356">
        <ele>1099</ele>
        <time>2021-09-05T11:55:58.853Z</time>
      </trkpt>
      <trkpt lat="45.8905" lon="5.6236">
        <ele>1099</ele>
        <time>2021-09-05T11:56:03.817Z</time>
      </trkpt>
      <trkpt lat="45.89055" lon="5.62364">
        <ele>1099</ele>
        <time>2021-09-05T11:56:07.818Z</time>
      </trkpt>
      <trkpt lat="45.8906" lon="5.62368">
        <ele>1099</ele>
        <time>2021-09-05T11:56:12.822Z</time>
      </trkpt>
      <trkpt lat="45.89065" lon="5.62375">
        <ele>1099</ele>
        <time>2021-09-05T11:56:17.817Z</time>
      </trkpt>
      <trkpt lat="45.89071" lon="5.62382">
        <ele>1093</ele>
        <time>2021-09-05T11:56:22.825Z</time>
      </trkpt>
      <trkpt lat="45.89076" lon="5.62389">
        <ele>1093</ele>
        <time>2021-09-05T11:56:27.817Z</time>
      </trkpt>
      <trkpt lat="45.89079" lon="5.62396">
        <ele>1093</ele>
        <time>2021-09-05T11:56:32.795Z</time>
      </trkpt>
      <trkpt lat="45.89084" lon="5.62402">
        <ele>1093</ele>
        <time>2021-09-05T11:56:37.861Z</time>
      </trkpt>
      <trkpt lat="45.8909" lon="5.62406">
        <ele>1093</ele>
        <time>2021-09-05T11:56:42.812Z</time>
      </trkpt>
      <trkpt lat="45.89096" lon="5.62409">
        <ele>1093</ele>
        <time>2021-09-05T11:56:47.848Z</time>
      </trkpt>
      <trkpt lat="45.89103" lon="5.62412">
        <ele>1090</ele>
        <time>2021-09-05T11:56:52.853Z</time>
      </trkpt>
      <trkpt lat="45.89111" lon="5.62413">
        <ele>1090</ele>
        <time>2021-09-05T11:56:57.818Z</time>
      </trkpt>
      <trkpt lat="45.89117" lon="5.62416">
        <ele>1090</ele>
        <time>2021-09-05T11:57:02.812Z</time>
      </trkpt>
      <trkpt lat="45.89123" lon="5.6242">
        <ele>1090</ele>
        <time>2021-09-05T11:57:07.854Z</time>
      </trkpt>
      <trkpt lat="45.89129" lon="5.62425">
        <ele>1089</ele>
        <time>2021-09-05T11:57:12.814Z</time>
      </trkpt>
      <trkpt lat="45.89133" lon="5.6243">
        <ele>1089</ele>
        <time>2021-09-05T11:57:16.814Z</time>
      </trkpt>
      <trkpt lat="45.89139" lon="5.62434">
        <ele>1088</ele>
        <time>2021-09-05T11:57:21.815Z</time>
      </trkpt>
      <trkpt lat="45.89144" lon="5.62436">
        <ele>1088</ele>
        <time>2021-09-05T11:57:25.844Z</time>
      </trkpt>
      <trkpt lat="45.89149" lon="5.6244">
        <ele>1088</ele>
        <time>2021-09-05T11:57:30.817Z</time>
      </trkpt>
      <trkpt lat="45.89155" lon="5.62443">
        <ele>1088</ele>
        <time>2021-09-05T11:57:35.819Z</time>
      </trkpt>
      <trkpt lat="45.89161" lon="5.62446">
        <ele>1088</ele>
        <time>2021-09-05T11:57:40.858Z</time>
      </trkpt>
      <trkpt lat="45.89168" lon="5.62448">
        <ele>1088</ele>
        <time>2021-09-05T11:57:45.825Z</time>
      </trkpt>
      <trkpt lat="45.89173" lon="5.62451">
        <ele>1088</ele>
        <time>2021-09-05T11:57:49.852Z</time>
      </trkpt>
      <trkpt lat="45.89179" lon="5.62453">
        <ele>1088</ele>
        <time>2021-09-05T11:57:53.865Z</time>
      </trkpt>
      <trkpt lat="45.89186" lon="5.62455">
        <ele>1089</ele>
        <time>2021-09-05T11:57:58.853Z</time>
      </trkpt>
      <trkpt lat="45.8919" lon="5.62458">
        <ele>1089</ele>
        <time>2021-09-05T11:58:02.860Z</time>
      </trkpt>
      <trkpt lat="45.89195" lon="5.62462">
        <ele>1086</ele>
        <time>2021-09-05T11:58:07.856Z</time>
      </trkpt>
      <trkpt lat="45.89201" lon="5.62465">
        <ele>1086</ele>
        <time>2021-09-05T11:58:12.874Z</time>
      </trkpt>
      <trkpt lat="45.89208" lon="5.62469">
        <ele>1087</ele>
        <time>2021-09-05T11:58:17.821Z</time>
      </trkpt>
      <trkpt lat="45.89214" lon="5.62471">
        <ele>1087</ele>
        <time>2021-09-05T11:58:21.828Z</time>
      </trkpt>
      <trkpt lat="45.89221" lon="5.62475">
        <ele>1087</ele>
        <time>2021-09-05T11:58:26.815Z</time>
      </trkpt>
      <trkpt lat="45.89225" lon="5.62476">
        <ele>1087</ele>
        <time>2021-09-05T11:58:30.825Z</time>
      </trkpt>
      <trkpt lat="45.89229" lon="5.62477">
        <ele>1087</ele>
        <time>2021-09-05T11:58:35.813Z</time>
      </trkpt>
      <trkpt lat="45.89238" lon="5.62479">
        <ele>1089</ele>
        <time>2021-09-05T11:58:40.852Z</time>
      </trkpt>
      <trkpt lat="45.89246" lon="5.6248">
        <ele>1089</ele>
        <time>2021-09-05T11:58:45.823Z</time>
      </trkpt>
      <trkpt lat="45.89252" lon="5.6248">
        <ele>1089</ele>
        <time>2021-09-05T11:58:50.856Z</time>
      </trkpt>
      <trkpt lat="45.8926" lon="5.6248">
        <ele>1089</ele>
        <time>2021-09-05T11:58:55.817Z</time>
      </trkpt>
      <trkpt lat="45.89268" lon="5.62479">
        <ele>1091</ele>
        <time>2021-09-05T11:59:00.871Z</time>
      </trkpt>
      <trkpt lat="45.89274" lon="5.62476">
        <ele>1091</ele>
        <time>2021-09-05T11:59:05.818Z</time>
      </trkpt>
      <trkpt lat="45.89281" lon="5.62472">
        <ele>1091</ele>
        <time>2021-09-05T11:59:10.816Z</time>
      </trkpt>
      <trkpt lat="45.89289" lon="5.6247">
        <ele>1091</ele>
        <time>2021-09-05T11:59:15.829Z</time>
      </trkpt>
      <trkpt lat="45.89295" lon="5.6247">
        <ele>1091</ele>
        <time>2021-09-05T11:59:20.827Z</time>
      </trkpt>
      <trkpt lat="45.89301" lon="5.62471">
        <ele>1091</ele>
        <time>2021-09-05T11:59:24.852Z</time>
      </trkpt>
      <trkpt lat="45.89307" lon="5.62473">
        <ele>1091</ele>
        <time>2021-09-05T11:59:29.816Z</time>
      </trkpt>
      <trkpt lat="45.89312" lon="5.62474">
        <ele>1091</ele>
        <time>2021-09-05T11:59:33.854Z</time>
      </trkpt>
      <trkpt lat="45.89318" lon="5.62476">
        <ele>1091</ele>
        <time>2021-09-05T11:59:38.788Z</time>
      </trkpt>
      <trkpt lat="45.89324" lon="5.62477">
        <ele>1089</ele>
        <time>2021-09-05T11:59:42.848Z</time>
      </trkpt>
      <trkpt lat="45.8933" lon="5.62477">
        <ele>1089</ele>
        <time>2021-09-05T11:59:47.845Z</time>
      </trkpt>
      <trkpt lat="45.89336" lon="5.62476">
        <ele>1089</ele>
        <time>2021-09-05T11:59:52.806Z</time>
      </trkpt>
      <trkpt lat="45.89342" lon="5.62475">
        <ele>1089</ele>
        <time>2021-09-05T11:59:56.815Z</time>
      </trkpt>
      <trkpt lat="45.89348" lon="5.62473">
        <ele>1087</ele>
        <time>2021-09-05T12:00:00.824Z</time>
      </trkpt>
      <trkpt lat="45.89355" lon="5.62471">
        <ele>1087</ele>
        <time>2021-09-05T12:00:05.816Z</time>
      </trkpt>
      <trkpt lat="45.89362" lon="5.62469">
        <ele>1087</ele>
        <time>2021-09-05T12:00:10.819Z</time>
      </trkpt>
      <trkpt lat="45.89369" lon="5.62469">
        <ele>1087</ele>
        <time>2021-09-05T12:00:15.809Z</time>
      </trkpt>
      <trkpt lat="45.89375" lon="5.62469">
        <ele>1087</ele>
        <time>2021-09-05T12:00:19.849Z</time>
      </trkpt>
      <trkpt lat="45.89383" lon="5.6247">
        <ele>1085</ele>
        <time>2021-09-05T12:00:24.855Z</time>
      </trkpt>
      <trkpt lat="45.8939" lon="5.62471">
        <ele>1085</ele>
        <time>2021-09-05T12:00:29.861Z</time>
      </trkpt>
      <trkpt lat="45.89396" lon="5.62472">
        <ele>1085</ele>
        <time>2021-09-05T12:00:34.819Z</time>
      </trkpt>
      <trkpt lat="45.89401" lon="5.62471">
        <ele>1085</ele>
        <time>2021-09-05T12:00:39.865Z</time>
      </trkpt>
      <trkpt lat="45.89402" lon="5.62469">
        <ele>1085</ele>
        <time>2021-09-05T12:00:44.826Z</time>
      </trkpt>
      <trkpt lat="45.89404" lon="5.62461">
        <ele>1084</ele>
        <time>2021-09-05T12:00:49.817Z</time>
      </trkpt>
      <trkpt lat="45.89406" lon="5.62453">
        <ele>1086</ele>
        <time>2021-09-05T12:00:53.877Z</time>
      </trkpt>
      <trkpt lat="45.89409" lon="5.62445">
        <ele>1086</ele>
        <time>2021-09-05T12:00:58.866Z</time>
      </trkpt>
      <trkpt lat="45.89414" lon="5.62438">
        <ele>1086</ele>
        <time>2021-09-05T12:01:03.820Z</time>
      </trkpt>
      <trkpt lat="45.89417" lon="5.62435">
        <ele>1086</ele>
        <time>2021-09-05T12:01:08.821Z</time>
      </trkpt>
      <trkpt lat="45.8942" lon="5.62431">
        <ele>1086</ele>
        <time>2021-09-05T12:01:12.845Z</time>
      </trkpt>
      <trkpt lat="45.89425" lon="5.62425">
        <ele>1090</ele>
        <time>2021-09-05T12:01:17.844Z</time>
      </trkpt>
      <trkpt lat="45.89428" lon="5.6242">
        <ele>1090</ele>
        <time>2021-09-05T12:01:21.848Z</time>
      </trkpt>
      <trkpt lat="45.89433" lon="5.62414">
        <ele>1088</ele>
        <time>2021-09-05T12:01:26.824Z</time>
      </trkpt>
      <trkpt lat="45.89436" lon="5.62411">
        <ele>1088</ele>
        <time>2021-09-05T12:01:30.847Z</time>
      </trkpt>
      <trkpt lat="45.89441" lon="5.62405">
        <ele>1088</ele>
        <time>2021-09-05T12:01:35.818Z</time>
      </trkpt>
      <trkpt lat="45.89444" lon="5.62398">
        <ele>1091</ele>
        <time>2021-09-05T12:01:40.793Z</time>
      </trkpt>
      <trkpt lat="45.89447" lon="5.62391">
        <ele>1091</ele>
        <time>2021-09-05T12:01:45.788Z</time>
      </trkpt>
      <trkpt lat="45.89451" lon="5.62384">
        <ele>1091</ele>
        <time>2021-09-05T12:01:50.826Z</time>
      </trkpt>
      <trkpt lat="45.89454" lon="5.62376">
        <ele>1091</ele>
        <time>2021-09-05T12:01:55.829Z</time>
      </trkpt>
      <trkpt lat="45.89457" lon="5.62368">
        <ele>1093</ele>
        <time>2021-09-05T12:02:00.807Z</time>
      </trkpt>
      <trkpt lat="45.8946" lon="5.62363">
        <ele>1091</ele>
        <time>2021-09-05T12:02:04.820Z</time>
      </trkpt>
      <trkpt lat="45.89462" lon="5.62356">
        <ele>1091</ele>
        <time>2021-09-05T12:02:08.850Z</time>
      </trkpt>
      <trkpt lat="45.89465" lon="5.62349">
        <ele>1091</ele>
        <time>2021-09-05T12:02:13.826Z</time>
      </trkpt>
      <trkpt lat="45.89467" lon="5.62341">
        <ele>1091</ele>
        <time>2021-09-05T12:02:18.827Z</time>
      </trkpt>
      <trkpt lat="45.89469" lon="5.62333">
        <ele>1091</ele>
        <time>2021-09-05T12:02:23.824Z</time>
      </trkpt>
      <trkpt lat="45.89471" lon="5.62327">
        <ele>1091</ele>
        <time>2021-09-05T12:02:28.820Z</time>
      </trkpt>
      <trkpt lat="45.89472" lon="5.62322">
        <ele>1091</ele>
        <time>2021-09-05T12:02:33.792Z</time>
      </trkpt>
      <trkpt lat="45.89473" lon="5.62314">
        <ele>1091</ele>
        <time>2021-09-05T12:02:37.818Z</time>
      </trkpt>
      <trkpt lat="45.89473" lon="5.62306">
        <ele>1091</ele>
        <time>2021-09-05T12:02:41.823Z</time>
      </trkpt>
      <trkpt lat="45.89474" lon="5.62296">
        <ele>1091</ele>
        <time>2021-09-05T12:02:46.820Z</time>
      </trkpt>
      <trkpt lat="45.89474" lon="5.62286">
        <ele>1087</ele>
        <time>2021-09-05T12:02:51.815Z</time>
      </trkpt>
      <trkpt lat="45.89473" lon="5.62277">
        <ele>1087</ele>
        <time>2021-09-05T12:02:56.859Z</time>
      </trkpt>
      <trkpt lat="45.89472" lon="5.62267">
        <ele>1087</ele>
        <time>2021-09-05T12:03:01.849Z</time>
      </trkpt>
      <trkpt lat="45.89471" lon="5.6226">
        <ele>1083</ele>
        <time>2021-09-05T12:03:06.844Z</time>
      </trkpt>
      <trkpt lat="45.8947" lon="5.62254">
        <ele>1083</ele>
        <time>2021-09-05T12:03:10.857Z</time>
      </trkpt>
      <trkpt lat="45.89469" lon="5.62244">
        <ele>1083</ele>
        <time>2021-09-05T12:03:15.809Z</time>
      </trkpt>
      <trkpt lat="45.89469" lon="5.62235">
        <ele>1081</ele>
        <time>2021-09-05T12:03:20.858Z</time>
      </trkpt>
      <trkpt lat="45.89469" lon="5.62225">
        <ele>1081</ele>
        <time>2021-09-05T12:03:25.845Z</time>
      </trkpt>
      <trkpt lat="45.8947" lon="5.62216">
        <ele>1081</ele>
        <time>2021-09-05T12:03:30.848Z</time>
      </trkpt>
      <trkpt lat="45.89469" lon="5.62207">
        <ele>1080</ele>
        <time>2021-09-05T12:03:35.810Z</time>
      </trkpt>
      <trkpt lat="45.89469" lon="5.62199">
        <ele>1080</ele>
        <time>2021-09-05T12:03:40.781Z</time>
      </trkpt>
      <trkpt lat="45.89469" lon="5.62195">
        <ele>1080</ele>
        <time>2021-09-05T12:03:44.815Z</time>
      </trkpt>
      <trkpt lat="45.8947" lon="5.62191">
        <ele>1080</ele>
        <time>2021-09-05T12:03:49.817Z</time>
      </trkpt>
      <trkpt lat="45.89471" lon="5.62182">
        <ele>1080</ele>
        <time>2021-09-05T12:03:54.841Z</time>
      </trkpt>
      <trkpt lat="45.89473" lon="5.62175">
        <ele>1079</ele>
        <time>2021-09-05T12:03:59.821Z</time>
      </trkpt>
      <trkpt lat="45.89477" lon="5.62169">
        <ele>1079</ele>
        <time>2021-09-05T12:04:03.852Z</time>
      </trkpt>
      <trkpt lat="45.89482" lon="5.62162">
        <ele>1079</ele>
        <time>2021-09-05T12:04:08.830Z</time>
      </trkpt>
      <trkpt lat="45.89484" lon="5.62155">
        <ele>1079</ele>
        <time>2021-09-05T12:04:13.818Z</time>
      </trkpt>
      <trkpt lat="45.89486" lon="5.62146">
        <ele>1083</ele>
        <time>2021-09-05T12:04:18.839Z</time>
      </trkpt>
      <trkpt lat="45.89486" lon="5.62138">
        <ele>1083</ele>
        <time>2021-09-05T12:04:23.812Z</time>
      </trkpt>
      <trkpt lat="45.89485" lon="5.62129">
        <ele>1078</ele>
        <time>2021-09-05T12:04:28.813Z</time>
      </trkpt>
      <trkpt lat="45.89488" lon="5.62123">
        <ele>1084</ele>
        <time>2021-09-05T12:04:32.822Z</time>
      </trkpt>
      <trkpt lat="45.89495" lon="5.62122">
        <ele>1084</ele>
        <time>2021-09-05T12:04:37.870Z</time>
      </trkpt>
      <trkpt lat="45.89501" lon="5.62126">
        <ele>1083</ele>
        <time>2021-09-05T12:04:42.820Z</time>
      </trkpt>
      <trkpt lat="45.89507" lon="5.6213">
        <ele>1083</ele>
        <time>2021-09-05T12:04:47.844Z</time>
      </trkpt>
      <trkpt lat="45.89512" lon="5.62129">
        <ele>1083</ele>
        <time>2021-09-05T12:04:52.819Z</time>
      </trkpt>
      <trkpt lat="45.89517" lon="5.62132">
        <ele>1085</ele>
        <time>2021-09-05T12:04:57.828Z</time>
      </trkpt>
      <trkpt lat="45.89524" lon="5.62132">
        <ele>1085</ele>
        <time>2021-09-05T12:05:02.816Z</time>
      </trkpt>
      <trkpt lat="45.89535" lon="5.62134">
        <ele>1085</ele>
        <time>2021-09-05T12:05:07.814Z</time>
      </trkpt>
      <trkpt lat="45.89542" lon="5.62133">
        <ele>1086</ele>
        <time>2021-09-05T12:05:12.805Z</time>
      </trkpt>
      <trkpt lat="45.89547" lon="5.62131">
        <ele>1086</ele>
        <time>2021-09-05T12:05:16.832Z</time>
      </trkpt>
      <trkpt lat="45.89553" lon="5.62127">
        <ele>1086</ele>
        <time>2021-09-05T12:05:21.826Z</time>
      </trkpt>
      <trkpt lat="45.8956" lon="5.62124">
        <ele>1086</ele>
        <time>2021-09-05T12:05:26.819Z</time>
      </trkpt>
      <trkpt lat="45.89565" lon="5.62122">
        <ele>1086</ele>
        <time>2021-09-05T12:05:30.861Z</time>
      </trkpt>
      <trkpt lat="45.8957" lon="5.62118">
        <ele>1085</ele>
        <time>2021-09-05T12:05:35.809Z</time>
      </trkpt>
      <trkpt lat="45.89574" lon="5.62112">
        <ele>1085</ele>
        <time>2021-09-05T12:05:39.813Z</time>
      </trkpt>
      <trkpt lat="45.89581" lon="5.62106">
        <ele>1085</ele>
        <time>2021-09-05T12:05:44.843Z</time>
      </trkpt>
      <trkpt lat="45.89587" lon="5.62101">
        <ele>1085</ele>
        <time>2021-09-05T12:05:49.808Z</time>
      </trkpt>
      <trkpt lat="45.89591" lon="5.62097">
        <ele>1086</ele>
        <time>2021-09-05T12:05:53.817Z</time>
      </trkpt>
      <trkpt lat="45.89595" lon="5.62093">
        <ele>1086</ele>
        <time>2021-09-05T12:05:57.847Z</time>
      </trkpt>
      <trkpt lat="45.89601" lon="5.62086">
        <ele>1084</ele>
        <time>2021-09-05T12:06:02.819Z</time>
      </trkpt>
      <trkpt lat="45.89605" lon="5.62083">
        <ele>1084</ele>
        <time>2021-09-05T12:06:06.820Z</time>
      </trkpt>
      <trkpt lat="45.89609" lon="5.62083">
        <ele>1084</ele>
        <time>2021-09-05T12:06:10.844Z</time>
      </trkpt>
      <trkpt lat="45.89615" lon="5.62081">
        <ele>1084</ele>
        <time>2021-09-05T12:06:15.822Z</time>
      </trkpt>
      <trkpt lat="45.89619" lon="5.62079">
        <ele>1084</ele>
        <time>2021-09-05T12:06:19.843Z</time>
      </trkpt>
      <trkpt lat="45.89627" lon="5.62074">
        <ele>1083</ele>
        <time>2021-09-05T12:06:24.825Z</time>
      </trkpt>
      <trkpt lat="45.89635" lon="5.62069">
        <ele>1083</ele>
        <time>2021-09-05T12:06:28.849Z</time>
      </trkpt>
      <trkpt lat="45.89647" lon="5.62057">
        <ele>1083</ele>
        <time>2021-09-05T12:06:33.819Z</time>
      </trkpt>
      <trkpt lat="45.89654" lon="5.6205">
        <ele>1083</ele>
        <time>2021-09-05T12:06:38.852Z</time>
      </trkpt>
      <trkpt lat="45.8966" lon="5.62047">
        <ele>1083</ele>
        <time>2021-09-05T12:06:42.859Z</time>
      </trkpt>
      <trkpt lat="45.89667" lon="5.62046">
        <ele>1083</ele>
        <time>2021-09-05T12:06:47.813Z</time>
      </trkpt>
      <trkpt lat="45.89672" lon="5.62043">
        <ele>1083</ele>
        <time>2021-09-05T12:06:52.824Z</time>
      </trkpt>
      <trkpt lat="45.89676" lon="5.62041">
        <ele>1085</ele>
        <time>2021-09-05T12:06:56.827Z</time>
      </trkpt>
      <trkpt lat="45.89682" lon="5.62038">
        <ele>1085</ele>
        <time>2021-09-05T12:07:01.834Z</time>
      </trkpt>
      <trkpt lat="45.89684" lon="5.62035">
        <ele>1085</ele>
        <time>2021-09-05T12:07:05.839Z</time>
      </trkpt>
      <trkpt lat="45.89689" lon="5.62032">
        <ele>1085</ele>
        <time>2021-09-05T12:07:10.826Z</time>
      </trkpt>
      <trkpt lat="45.89694" lon="5.62028">
        <ele>1085</ele>
        <time>2021-09-05T12:07:14.857Z</time>
      </trkpt>
      <trkpt lat="45.897" lon="5.62021">
        <ele>1085</ele>
        <time>2021-09-05T12:07:19.840Z</time>
      </trkpt>
      <trkpt lat="45.89705" lon="5.62016">
        <ele>1085</ele>
        <time>2021-09-05T12:07:23.848Z</time>
      </trkpt>
      <trkpt lat="45.89711" lon="5.62011">
        <ele>1086</ele>
        <time>2021-09-05T12:07:28.820Z</time>
      </trkpt>
      <trkpt lat="45.89716" lon="5.62008">
        <ele>1086</ele>
        <time>2021-09-05T12:07:32.826Z</time>
      </trkpt>
      <trkpt lat="45.89722" lon="5.62001">
        <ele>1086</ele>
        <time>2021-09-05T12:07:37.812Z</time>
      </trkpt>
      <trkpt lat="45.89727" lon="5.61995">
        <ele>1086</ele>
        <time>2021-09-05T12:07:42.788Z</time>
      </trkpt>
      <trkpt lat="45.8973" lon="5.61992">
        <ele>1086</ele>
        <time>2021-09-05T12:07:46.842Z</time>
      </trkpt>
      <trkpt lat="45.89734" lon="5.61989">
        <ele>1086</ele>
        <time>2021-09-05T12:07:51.816Z</time>
      </trkpt>
      <trkpt lat="45.89739" lon="5.61985">
        <ele>1084</ele>
        <time>2021-09-05T12:07:55.841Z</time>
      </trkpt>
      <trkpt lat="45.89744" lon="5.61983">
        <ele>1084</ele>
        <time>2021-09-05T12:08:00.816Z</time>
      </trkpt>
      <trkpt lat="45.89747" lon="5.61979">
        <ele>1084</ele>
        <time>2021-09-05T12:08:04.818Z</time>
      </trkpt>
      <trkpt lat="45.89753" lon="5.61978">
        <ele>1084</ele>
        <time>2021-09-05T12:08:08.849Z</time>
      </trkpt>
      <trkpt lat="45.8976" lon="5.61973">
        <ele>1084</ele>
        <time>2021-09-05T12:08:13.811Z</time>
      </trkpt>
      <trkpt lat="45.89765" lon="5.6197">
        <ele>1083</ele>
        <time>2021-09-05T12:08:17.813Z</time>
      </trkpt>
      <trkpt lat="45.89773" lon="5.61967">
        <ele>1083</ele>
        <time>2021-09-05T12:08:22.842Z</time>
      </trkpt>
      <trkpt lat="45.89779" lon="5.61961">
        <ele>1083</ele>
        <time>2021-09-05T12:08:27.823Z</time>
      </trkpt>
      <trkpt lat="45.89784" lon="5.61957">
        <ele>1083</ele>
        <time>2021-09-05T12:08:31.856Z</time>
      </trkpt>
      <trkpt lat="45.89789" lon="5.61952">
        <ele>1083</ele>
        <time>2021-09-05T12:08:36.820Z</time>
      </trkpt>
      <trkpt lat="45.89794" lon="5.61946">
        <ele>1082</ele>
        <time>2021-09-05T12:08:40.856Z</time>
      </trkpt>
      <trkpt lat="45.89797" lon="5.61939">
        <ele>1082</ele>
        <time>2021-09-05T12:08:44.865Z</time>
      </trkpt>
      <trkpt lat="45.89804" lon="5.61935">
        <ele>1082</ele>
        <time>2021-09-05T12:08:49.853Z</time>
      </trkpt>
      <trkpt lat="45.89811" lon="5.61931">
        <ele>1082</ele>
        <time>2021-09-05T12:08:54.838Z</time>
      </trkpt>
      <trkpt lat="45.89815" lon="5.61926">
        <ele>1081</ele>
        <time>2021-09-05T12:08:58.847Z</time>
      </trkpt>
      <trkpt lat="45.8982" lon="5.61922">
        <ele>1080</ele>
        <time>2021-09-05T12:09:03.818Z</time>
      </trkpt>
      <trkpt lat="45.89825" lon="5.6192">
        <ele>1080</ele>
        <time>2021-09-05T12:09:07.848Z</time>
      </trkpt>
      <trkpt lat="45.89831" lon="5.61917">
        <ele>1080</ele>
        <time>2021-09-05T12:09:12.816Z</time>
      </trkpt>
      <trkpt lat="45.89838" lon="5.61914">
        <ele>1080</ele>
        <time>2021-09-05T12:09:17.816Z</time>
      </trkpt>
      <trkpt lat="45.89842" lon="5.61912">
        <ele>1080</ele>
        <time>2021-09-05T12:09:22.802Z</time>
      </trkpt>
      <trkpt lat="45.89847" lon="5.61906">
        <ele>1080</ele>
        <time>2021-09-05T12:09:26.864Z</time>
      </trkpt>
      <trkpt lat="45.89853" lon="5.61901">
        <ele>1077</ele>
        <time>2021-09-05T12:09:31.811Z</time>
      </trkpt>
      <trkpt lat="45.89859" lon="5.61895">
        <ele>1077</ele>
        <time>2021-09-05T12:09:36.846Z</time>
      </trkpt>
      <trkpt lat="45.89864" lon="5.61891">
        <ele>1077</ele>
        <time>2021-09-05T12:09:41.846Z</time>
      </trkpt>
      <trkpt lat="45.89871" lon="5.61885">
        <ele>1077</ele>
        <time>2021-09-05T12:09:46.792Z</time>
      </trkpt>
      <trkpt lat="45.89877" lon="5.6188">
        <ele>1077</ele>
        <time>2021-09-05T12:09:50.816Z</time>
      </trkpt>
      <trkpt lat="45.89878" lon="5.61873">
        <ele>1073</ele>
        <time>2021-09-05T12:09:54.854Z</time>
      </trkpt>
      <trkpt lat="45.89886" lon="5.61863">
        <ele>1073</ele>
        <time>2021-09-05T12:09:59.846Z</time>
      </trkpt>
      <trkpt lat="45.89899" lon="5.61849">
        <ele>1073</ele>
        <time>2021-09-05T12:10:04.805Z</time>
      </trkpt>
      <trkpt lat="45.89904" lon="5.61846">
        <ele>1073</ele>
        <time>2021-09-05T12:10:08.812Z</time>
      </trkpt>
      <trkpt lat="45.89906" lon="5.6184">
        <ele>1073</ele>
        <time>2021-09-05T12:10:12.820Z</time>
      </trkpt>
      <trkpt lat="45.8991" lon="5.61831">
        <ele>1073</ele>
        <time>2021-09-05T12:10:17.821Z</time>
      </trkpt>
      <trkpt lat="45.89913" lon="5.61826">
        <ele>1073</ele>
        <time>2021-09-05T12:10:21.848Z</time>
      </trkpt>
      <trkpt lat="45.89917" lon="5.61822">
        <ele>1073</ele>
        <time>2021-09-05T12:10:25.837Z</time>
      </trkpt>
      <trkpt lat="45.89922" lon="5.61816">
        <ele>1070</ele>
        <time>2021-09-05T12:10:30.820Z</time>
      </trkpt>
      <trkpt lat="45.89928" lon="5.61811">
        <ele>1070</ele>
        <time>2021-09-05T12:10:34.841Z</time>
      </trkpt>
      <trkpt lat="45.89932" lon="5.61806">
        <ele>1073</ele>
        <time>2021-09-05T12:10:39.818Z</time>
      </trkpt>
      <trkpt lat="45.89937" lon="5.61801">
        <ele>1073</ele>
        <time>2021-09-05T12:10:44.819Z</time>
      </trkpt>
      <trkpt lat="45.89941" lon="5.61797">
        <ele>1073</ele>
        <time>2021-09-05T12:10:48.815Z</time>
      </trkpt>
      <trkpt lat="45.89946" lon="5.61793">
        <ele>1073</ele>
        <time>2021-09-05T12:10:53.813Z</time>
      </trkpt>
      <trkpt lat="45.8995" lon="5.61789">
        <ele>1075</ele>
        <time>2021-09-05T12:10:58.835Z</time>
      </trkpt>
      <trkpt lat="45.89955" lon="5.61784">
        <ele>1075</ele>
        <time>2021-09-05T12:11:03.778Z</time>
      </trkpt>
      <trkpt lat="45.89959" lon="5.61779">
        <ele>1075</ele>
        <time>2021-09-05T12:11:07.811Z</time>
      </trkpt>
      <trkpt lat="45.89965" lon="5.61773">
        <ele>1075</ele>
        <time>2021-09-05T12:11:12.843Z</time>
      </trkpt>
      <trkpt lat="45.89971" lon="5.61772">
        <ele>1075</ele>
        <time>2021-09-05T12:11:16.850Z</time>
      </trkpt>
      <trkpt lat="45.89979" lon="5.61768">
        <ele>1075</ele>
        <time>2021-09-05T12:11:21.821Z</time>
      </trkpt>
      <trkpt lat="45.89985" lon="5.61765">
        <ele>1075</ele>
        <time>2021-09-05T12:11:26.809Z</time>
      </trkpt>
      <trkpt lat="45.89991" lon="5.61762">
        <ele>1075</ele>
        <time>2021-09-05T12:11:31.836Z</time>
      </trkpt>
      <trkpt lat="45.89996" lon="5.61757">
        <ele>1075</ele>
        <time>2021-09-05T12:11:36.820Z</time>
      </trkpt>
      <trkpt lat="45.90001" lon="5.61753">
        <ele>1075</ele>
        <time>2021-09-05T12:11:41.836Z</time>
      </trkpt>
      <trkpt lat="45.90007" lon="5.61747">
        <ele>1075</ele>
        <time>2021-09-05T12:11:46.839Z</time>
      </trkpt>
      <trkpt lat="45.90012" lon="5.61743">
        <ele>1075</ele>
        <time>2021-09-05T12:11:51.819Z</time>
      </trkpt>
      <trkpt lat="45.90016" lon="5.61739">
        <ele>1073</ele>
        <time>2021-09-05T12:11:55.831Z</time>
      </trkpt>
      <trkpt lat="45.9002" lon="5.61735">
        <ele>1073</ele>
        <time>2021-09-05T12:12:00.832Z</time>
      </trkpt>
      <trkpt lat="45.90024" lon="5.6173">
        <ele>1073</ele>
        <time>2021-09-05T12:12:05.816Z</time>
      </trkpt>
      <trkpt lat="45.90027" lon="5.61727">
        <ele>1073</ele>
        <time>2021-09-05T12:12:09.819Z</time>
      </trkpt>
      <trkpt lat="45.90031" lon="5.61723">
        <ele>1073</ele>
        <time>2021-09-05T12:12:13.847Z</time>
      </trkpt>
      <trkpt lat="45.90036" lon="5.61719">
        <ele>1073</ele>
        <time>2021-09-05T12:12:18.826Z</time>
      </trkpt>
      <trkpt lat="45.90042" lon="5.61715">
        <ele>1073</ele>
        <time>2021-09-05T12:12:23.813Z</time>
      </trkpt>
      <trkpt lat="45.90045" lon="5.61711">
        <ele>1073</ele>
        <time>2021-09-05T12:12:27.820Z</time>
      </trkpt>
      <trkpt lat="45.90049" lon="5.61706">
        <ele>1073</ele>
        <time>2021-09-05T12:12:31.834Z</time>
      </trkpt>
      <trkpt lat="45.90055" lon="5.61699">
        <ele>1073</ele>
        <time>2021-09-05T12:12:36.816Z</time>
      </trkpt>
      <trkpt lat="45.90059" lon="5.61695">
        <ele>1073</ele>
        <time>2021-09-05T12:12:40.833Z</time>
      </trkpt>
      <trkpt lat="45.90064" lon="5.6169">
        <ele>1073</ele>
        <time>2021-09-05T12:12:45.825Z</time>
      </trkpt>
      <trkpt lat="45.90068" lon="5.61684">
        <ele>1073</ele>
        <time>2021-09-05T12:12:49.829Z</time>
      </trkpt>
      <trkpt lat="45.90073" lon="5.61678">
        <ele>1071</ele>
        <time>2021-09-05T12:12:54.820Z</time>
      </trkpt>
      <trkpt lat="45.90077" lon="5.61671">
        <ele>1071</ele>
        <time>2021-09-05T12:12:58.847Z</time>
      </trkpt>
      <trkpt lat="45.90081" lon="5.61664">
        <ele>1071</ele>
        <time>2021-09-05T12:13:03.823Z</time>
      </trkpt>
      <trkpt lat="45.90085" lon="5.6166">
        <ele>1071</ele>
        <time>2021-09-05T12:13:07.826Z</time>
      </trkpt>
      <trkpt lat="45.90089" lon="5.61656">
        <ele>1071</ele>
        <time>2021-09-05T12:13:12.817Z</time>
      </trkpt>
      <trkpt lat="45.90092" lon="5.61652">
        <ele>1072</ele>
        <time>2021-09-05T12:13:16.836Z</time>
      </trkpt>
      <trkpt lat="45.90095" lon="5.61647">
        <ele>1072</ele>
        <time>2021-09-05T12:13:20.844Z</time>
      </trkpt>
      <trkpt lat="45.901" lon="5.61643">
        <ele>1065</ele>
        <time>2021-09-05T12:13:25.850Z</time>
      </trkpt>
      <trkpt lat="45.90105" lon="5.61639">
        <ele>1065</ele>
        <time>2021-09-05T12:13:30.850Z</time>
      </trkpt>
      <trkpt lat="45.9011" lon="5.61636">
        <ele>1065</ele>
        <time>2021-09-05T12:13:35.779Z</time>
      </trkpt>
      <trkpt lat="45.90115" lon="5.61634">
        <ele>1065</ele>
        <time>2021-09-05T12:13:39.827Z</time>
      </trkpt>
      <trkpt lat="45.9012" lon="5.61632">
        <ele>1065</ele>
        <time>2021-09-05T12:13:44.790Z</time>
      </trkpt>
      <trkpt lat="45.90125" lon="5.61628">
        <ele>1065</ele>
        <time>2021-09-05T12:13:48.828Z</time>
      </trkpt>
      <trkpt lat="45.90129" lon="5.61623">
        <ele>1061</ele>
        <time>2021-09-05T12:13:53.815Z</time>
      </trkpt>
      <trkpt lat="45.90134" lon="5.61616">
        <ele>1061</ele>
        <time>2021-09-05T12:13:58.811Z</time>
      </trkpt>
      <trkpt lat="45.90138" lon="5.61613">
        <ele>1061</ele>
        <time>2021-09-05T12:14:02.818Z</time>
      </trkpt>
      <trkpt lat="45.90141" lon="5.61608">
        <ele>1061</ele>
        <time>2021-09-05T12:14:07.821Z</time>
      </trkpt>
      <trkpt lat="45.90145" lon="5.61602">
        <ele>1061</ele>
        <time>2021-09-05T12:14:12.818Z</time>
      </trkpt>
      <trkpt lat="45.90151" lon="5.61598">
        <ele>1061</ele>
        <time>2021-09-05T12:14:17.828Z</time>
      </trkpt>
      <trkpt lat="45.90158" lon="5.61592">
        <ele>1057</ele>
        <time>2021-09-05T12:14:22.817Z</time>
      </trkpt>
      <trkpt lat="45.90163" lon="5.61588">
        <ele>1057</ele>
        <time>2021-09-05T12:14:26.841Z</time>
      </trkpt>
      <trkpt lat="45.90168" lon="5.61581">
        <ele>1057</ele>
        <time>2021-09-05T12:14:31.850Z</time>
      </trkpt>
      <trkpt lat="45.90174" lon="5.61576">
        <ele>1057</ele>
        <time>2021-09-05T12:14:36.816Z</time>
      </trkpt>
      <trkpt lat="45.90177" lon="5.61571">
        <ele>1057</ele>
        <time>2021-09-05T12:14:40.828Z</time>
      </trkpt>
      <trkpt lat="45.90183" lon="5.61567">
        <ele>1052</ele>
        <time>2021-09-05T12:14:45.782Z</time>
      </trkpt>
      <trkpt lat="45.90188" lon="5.61562">
        <ele>1052</ele>
        <time>2021-09-05T12:14:49.837Z</time>
      </trkpt>
      <trkpt lat="45.90193" lon="5.61557">
        <ele>1052</ele>
        <time>2021-09-05T12:14:54.801Z</time>
      </trkpt>
      <trkpt lat="45.90196" lon="5.61552">
        <ele>1052</ele>
        <time>2021-09-05T12:14:58.823Z</time>
      </trkpt>
      <trkpt lat="45.90199" lon="5.61547">
        <ele>1052</ele>
        <time>2021-09-05T12:15:02.821Z</time>
      </trkpt>
      <trkpt lat="45.90204" lon="5.61541">
        <ele>1053</ele>
        <time>2021-09-05T12:15:07.821Z</time>
      </trkpt>
      <trkpt lat="45.90209" lon="5.61537">
        <ele>1052</ele>
        <time>2021-09-05T12:15:12.842Z</time>
      </trkpt>
      <trkpt lat="45.90213" lon="5.61533">
        <ele>1052</ele>
        <time>2021-09-05T12:15:17.819Z</time>
      </trkpt>
      <trkpt lat="45.90217" lon="5.61528">
        <ele>1052</ele>
        <time>2021-09-05T12:15:58.846Z</time>
      </trkpt>
      <trkpt lat="45.90217" lon="5.61528">
        <ele>1052</ele>
        <time>2021-09-05T12:16:02.848Z</time>
      </trkpt>
      <trkpt lat="45.90218" lon="5.61527">
        <ele>1052</ele>
        <time>2021-09-05T12:16:07.842Z</time>
      </trkpt>
      <trkpt lat="45.9022" lon="5.61523">
        <ele>1052</ele>
        <time>2021-09-05T12:16:11.846Z</time>
      </trkpt>
      <trkpt lat="45.90222" lon="5.61519">
        <ele>1052</ele>
        <time>2021-09-05T12:16:16.821Z</time>
      </trkpt>
      <trkpt lat="45.90224" lon="5.61514">
        <ele>1052</ele>
        <time>2021-09-05T12:16:20.845Z</time>
      </trkpt>
      <trkpt lat="45.90228" lon="5.61511">
        <ele>1051</ele>
        <time>2021-09-05T12:16:25.815Z</time>
      </trkpt>
      <trkpt lat="45.90231" lon="5.61508">
        <ele>1051</ele>
        <time>2021-09-05T12:16:30.839Z</time>
      </trkpt>
      <trkpt lat="45.90235" lon="5.61503">
        <ele>1051</ele>
        <time>2021-09-05T12:16:35.818Z</time>
      </trkpt>
      <trkpt lat="45.90237" lon="5.61498">
        <ele>1046</ele>
        <time>2021-09-05T12:16:39.813Z</time>
      </trkpt>
      <trkpt lat="45.90241" lon="5.61493">
        <ele>1046</ele>
        <time>2021-09-05T12:16:43.856Z</time>
      </trkpt>
      <trkpt lat="45.90246" lon="5.61488">
        <ele>1046</ele>
        <time>2021-09-05T12:16:48.813Z</time>
      </trkpt>
      <trkpt lat="45.90249" lon="5.61483">
        <ele>1044</ele>
        <time>2021-09-05T12:16:53.839Z</time>
      </trkpt>
      <trkpt lat="45.90253" lon="5.61478">
        <ele>1044</ele>
        <time>2021-09-05T12:16:58.788Z</time>
      </trkpt>
      <trkpt lat="45.90256" lon="5.61476">
        <ele>1044</ele>
        <time>2021-09-05T12:17:02.814Z</time>
      </trkpt>
      <trkpt lat="45.9026" lon="5.61474">
        <ele>1044</ele>
        <time>2021-09-05T12:17:06.831Z</time>
      </trkpt>
      <trkpt lat="45.90264" lon="5.61471">
        <ele>1042</ele>
        <time>2021-09-05T12:17:11.815Z</time>
      </trkpt>
      <trkpt lat="45.90267" lon="5.61469">
        <ele>1042</ele>
        <time>2021-09-05T12:17:15.824Z</time>
      </trkpt>
      <trkpt lat="45.90273" lon="5.61465">
        <ele>1042</ele>
        <time>2021-09-05T12:17:20.820Z</time>
      </trkpt>
      <trkpt lat="45.90277" lon="5.61463">
        <ele>1042</ele>
        <time>2021-09-05T12:17:25.811Z</time>
      </trkpt>
      <trkpt lat="45.90281" lon="5.61461">
        <ele>1042</ele>
        <time>2021-09-05T12:17:29.813Z</time>
      </trkpt>
      <trkpt lat="45.90283" lon="5.61458">
        <ele>1040</ele>
        <time>2021-09-05T12:17:33.843Z</time>
      </trkpt>
      <trkpt lat="45.90287" lon="5.61455">
        <ele>1040</ele>
        <time>2021-09-05T12:17:38.806Z</time>
      </trkpt>
      <trkpt lat="45.90293" lon="5.61453">
        <ele>1035</ele>
        <time>2021-09-05T12:17:43.822Z</time>
      </trkpt>
      <trkpt lat="45.90298" lon="5.61447">
        <ele>1035</ele>
        <time>2021-09-05T12:17:48.784Z</time>
      </trkpt>
      <trkpt lat="45.90303" lon="5.61446">
        <ele>1035</ele>
        <time>2021-09-05T12:17:52.790Z</time>
      </trkpt>
      <trkpt lat="45.90305" lon="5.61445">
        <ele>1035</ele>
        <time>2021-09-05T12:17:56.816Z</time>
      </trkpt>
      <trkpt lat="45.90308" lon="5.61442">
        <ele>1035</ele>
        <time>2021-09-05T12:18:00.821Z</time>
      </trkpt>
      <trkpt lat="45.90313" lon="5.6144">
        <ele>1035</ele>
        <time>2021-09-05T12:18:05.804Z</time>
      </trkpt>
      <trkpt lat="45.90317" lon="5.61438">
        <ele>1035</ele>
        <time>2021-09-05T12:18:09.812Z</time>
      </trkpt>
      <trkpt lat="45.90318" lon="5.61437">
        <ele>1035</ele>
        <time>2021-09-05T12:18:13.847Z</time>
      </trkpt>
      <trkpt lat="45.9032" lon="5.61435">
        <ele>1032</ele>
        <time>2021-09-05T12:18:18.816Z</time>
      </trkpt>
      <trkpt lat="45.90323" lon="5.61433">
        <ele>1032</ele>
        <time>2021-09-05T12:18:23.814Z</time>
      </trkpt>
      <trkpt lat="45.90325" lon="5.61431">
        <ele>1032</ele>
        <time>2021-09-05T12:18:28.860Z</time>
      </trkpt>
      <trkpt lat="45.90328" lon="5.61429">
        <ele>1028</ele>
        <time>2021-09-05T12:18:32.864Z</time>
      </trkpt>
      <trkpt lat="45.90331" lon="5.61426">
        <ele>1028</ele>
        <time>2021-09-05T12:18:36.869Z</time>
      </trkpt>
      <trkpt lat="45.90334" lon="5.61423">
        <ele>1028</ele>
        <time>2021-09-05T12:18:41.814Z</time>
      </trkpt>
      <trkpt lat="45.90336" lon="5.61419">
        <ele>1028</ele>
        <time>2021-09-05T12:18:45.874Z</time>
      </trkpt>
      <trkpt lat="45.90339" lon="5.61419">
        <ele>1028</ele>
        <time>2021-09-05T12:18:50.862Z</time>
      </trkpt>
      <trkpt lat="45.9034" lon="5.61418">
        <ele>1028</ele>
        <time>2021-09-05T12:18:55.849Z</time>
      </trkpt>
      <trkpt lat="45.90342" lon="5.61415">
        <ele>1028</ele>
        <time>2021-09-05T12:19:00.838Z</time>
      </trkpt>
      <trkpt lat="45.90346" lon="5.61411">
        <ele>1028</ele>
        <time>2021-09-05T12:19:04.846Z</time>
      </trkpt>
      <trkpt lat="45.90351" lon="5.61407">
        <ele>1026</ele>
        <time>2021-09-05T12:19:09.817Z</time>
      </trkpt>
      <trkpt lat="45.90356" lon="5.61403">
        <ele>1026</ele>
        <time>2021-09-05T12:19:13.854Z</time>
      </trkpt>
      <trkpt lat="45.9036" lon="5.61398">
        <ele>1022</ele>
        <time>2021-09-05T12:19:18.819Z</time>
      </trkpt>
      <trkpt lat="45.90365" lon="5.61393">
        <ele>1022</ele>
        <time>2021-09-05T12:19:23.806Z</time>
      </trkpt>
      <trkpt lat="45.90369" lon="5.6139">
        <ele>1022</ele>
        <time>2021-09-05T12:19:27.814Z</time>
      </trkpt>
      <trkpt lat="45.90372" lon="5.61386">
        <ele>1022</ele>
        <time>2021-09-05T12:19:32.811Z</time>
      </trkpt>
      <trkpt lat="45.90374" lon="5.61385">
        <ele>1022</ele>
        <time>2021-09-05T12:19:36.867Z</time>
      </trkpt>
      <trkpt lat="45.90378" lon="5.61381">
        <ele>1022</ele>
        <time>2021-09-05T12:19:41.817Z</time>
      </trkpt>
      <trkpt lat="45.9038" lon="5.61381">
        <ele>1022</ele>
        <time>2021-09-05T12:19:45.819Z</time>
      </trkpt>
      <trkpt lat="45.9038" lon="5.61382">
        <ele>1022</ele>
        <time>2021-09-05T12:19:50.790Z</time>
      </trkpt>
      <trkpt lat="45.90382" lon="5.61381">
        <ele>1022</ele>
        <time>2021-09-05T12:19:59.821Z</time>
      </trkpt>
      <trkpt lat="45.90383" lon="5.61379">
        <ele>1022</ele>
        <time>2021-09-05T12:20:04.845Z</time>
      </trkpt>
      <trkpt lat="45.90384" lon="5.61376">
        <ele>1022</ele>
        <time>2021-09-05T12:20:09.804Z</time>
      </trkpt>
      <trkpt lat="45.90387" lon="5.61372">
        <ele>1017</ele>
        <time>2021-09-05T12:20:13.811Z</time>
      </trkpt>
      <trkpt lat="45.90389" lon="5.61368">
        <ele>1017</ele>
        <time>2021-09-05T12:20:17.816Z</time>
      </trkpt>
      <trkpt lat="45.90393" lon="5.61363">
        <ele>1017</ele>
        <time>2021-09-05T12:20:22.812Z</time>
      </trkpt>
      <trkpt lat="45.90396" lon="5.6136">
        <ele>1017</ele>
        <time>2021-09-05T12:20:26.818Z</time>
      </trkpt>
      <trkpt lat="45.904" lon="5.61357">
        <ele>1017</ele>
        <time>2021-09-05T12:20:30.824Z</time>
      </trkpt>
      <trkpt lat="45.90403" lon="5.61353">
        <ele>1017</ele>
        <time>2021-09-05T12:20:35.815Z</time>
      </trkpt>
      <trkpt lat="45.90407" lon="5.61349">
        <ele>1015</ele>
        <time>2021-09-05T12:20:39.821Z</time>
      </trkpt>
      <trkpt lat="45.90413" lon="5.61345">
        <ele>1011</ele>
        <time>2021-09-05T12:20:44.843Z</time>
      </trkpt>
      <trkpt lat="45.90418" lon="5.61342">
        <ele>1011</ele>
        <time>2021-09-05T12:20:49.807Z</time>
      </trkpt>
      <trkpt lat="45.90421" lon="5.61339">
        <ele>1011</ele>
        <time>2021-09-05T12:20:53.820Z</time>
      </trkpt>
      <trkpt lat="45.90427" lon="5.61336">
        <ele>1011</ele>
        <time>2021-09-05T12:20:57.858Z</time>
      </trkpt>
      <trkpt lat="45.90432" lon="5.61331">
        <ele>1011</ele>
        <time>2021-09-05T12:21:02.848Z</time>
      </trkpt>
      <trkpt lat="45.90435" lon="5.61327">
        <ele>1011</ele>
        <time>2021-09-05T12:21:07.841Z</time>
      </trkpt>
      <trkpt lat="45.90439" lon="5.61324">
        <ele>1011</ele>
        <time>2021-09-05T12:21:12.815Z</time>
      </trkpt>
      <trkpt lat="45.90444" lon="5.61321">
        <ele>1011</ele>
        <time>2021-09-05T12:21:17.809Z</time>
      </trkpt>
      <trkpt lat="45.90447" lon="5.61317">
        <ele>1007</ele>
        <time>2021-09-05T12:21:21.848Z</time>
      </trkpt>
      <trkpt lat="45.90452" lon="5.61315">
        <ele>1007</ele>
        <time>2021-09-05T12:21:26.812Z</time>
      </trkpt>
      <trkpt lat="45.90456" lon="5.61309">
        <ele>1007</ele>
        <time>2021-09-05T12:21:31.813Z</time>
      </trkpt>
      <trkpt lat="45.90463" lon="5.613">
        <ele>1003</ele>
        <time>2021-09-05T12:22:12.815Z</time>
      </trkpt>
      <trkpt lat="45.90463" lon="5.613">
        <ele>1003</ele>
        <time>2021-09-05T12:22:16.815Z</time>
      </trkpt>
      <trkpt lat="45.90463" lon="5.613">
        <ele>1003</ele>
        <time>2021-09-05T12:22:20.822Z</time>
      </trkpt>
      <trkpt lat="45.90463" lon="5.61299">
        <ele>1003</ele>
        <time>2021-09-05T12:22:25.817Z</time>
      </trkpt>
      <trkpt lat="45.90466" lon="5.61295">
        <ele>1003</ele>
        <time>2021-09-05T12:22:30.820Z</time>
      </trkpt>
      <trkpt lat="45.90471" lon="5.6129">
        <ele>999</ele>
        <time>2021-09-05T12:22:35.817Z</time>
      </trkpt>
      <trkpt lat="45.90474" lon="5.61285">
        <ele>999</ele>
        <time>2021-09-05T12:22:40.871Z</time>
      </trkpt>
      <trkpt lat="45.90478" lon="5.61282">
        <ele>999</ele>
        <time>2021-09-05T12:22:45.812Z</time>
      </trkpt>
      <trkpt lat="45.90481" lon="5.61278">
        <ele>999</ele>
        <time>2021-09-05T12:22:50.805Z</time>
      </trkpt>
      <trkpt lat="45.90483" lon="5.61275">
        <ele>999</ele>
        <time>2021-09-05T12:22:54.860Z</time>
      </trkpt>
      <trkpt lat="45.90484" lon="5.6127">
        <ele>999</ele>
        <time>2021-09-05T12:22:59.830Z</time>
      </trkpt>
      <trkpt lat="45.90487" lon="5.61266">
        <ele>996</ele>
        <time>2021-09-05T12:23:04.849Z</time>
      </trkpt>
      <trkpt lat="45.90492" lon="5.61262">
        <ele>991</ele>
        <time>2021-09-05T12:23:09.844Z</time>
      </trkpt>
      <trkpt lat="45.90498" lon="5.61259">
        <ele>991</ele>
        <time>2021-09-05T12:23:14.809Z</time>
      </trkpt>
      <trkpt lat="45.90501" lon="5.61257">
        <ele>991</ele>
        <time>2021-09-05T12:23:19.843Z</time>
      </trkpt>
      <trkpt lat="45.90503" lon="5.61255">
        <ele>991</ele>
        <time>2021-09-05T12:23:24.807Z</time>
      </trkpt>
      <trkpt lat="45.90507" lon="5.61251">
        <ele>991</ele>
        <time>2021-09-05T12:23:29.813Z</time>
      </trkpt>
      <trkpt lat="45.90509" lon="5.61245">
        <ele>991</ele>
        <time>2021-09-05T12:24:18.822Z</time>
      </trkpt>
      <trkpt lat="45.90509" lon="5.61244">
        <ele>991</ele>
        <time>2021-09-05T12:24:22.858Z</time>
      </trkpt>
      <trkpt lat="45.90513" lon="5.61239">
        <ele>991</ele>
        <time>2021-09-05T12:24:27.851Z</time>
      </trkpt>
      <trkpt lat="45.90517" lon="5.61234">
        <ele>979</ele>
        <time>2021-09-05T12:24:32.843Z</time>
      </trkpt>
      <trkpt lat="45.9052" lon="5.6123">
        <ele>979</ele>
        <time>2021-09-05T12:24:36.852Z</time>
      </trkpt>
      <trkpt lat="45.90524" lon="5.61225">
        <ele>979</ele>
        <time>2021-09-05T12:24:41.820Z</time>
      </trkpt>
      <trkpt lat="45.90526" lon="5.6122">
        <ele>979</ele>
        <time>2021-09-05T12:24:45.843Z</time>
      </trkpt>
      <trkpt lat="45.9053" lon="5.61216">
        <ele>979</ele>
        <time>2021-09-05T12:24:50.789Z</time>
      </trkpt>
      <trkpt lat="45.90532" lon="5.61213">
        <ele>979</ele>
        <time>2021-09-05T12:24:54.844Z</time>
      </trkpt>
      <trkpt lat="45.90534" lon="5.61211">
        <ele>979</ele>
        <time>2021-09-05T12:24:59.817Z</time>
      </trkpt>
      <trkpt lat="45.90534" lon="5.61207">
        <ele>975</ele>
        <time>2021-09-05T12:25:03.821Z</time>
      </trkpt>
      <trkpt lat="45.90539" lon="5.61201">
        <ele>975</ele>
        <time>2021-09-05T12:25:08.773Z</time>
      </trkpt>
      <trkpt lat="45.90542" lon="5.61197">
        <ele>973</ele>
        <time>2021-09-05T12:25:12.786Z</time>
      </trkpt>
      <trkpt lat="45.90544" lon="5.61191">
        <ele>973</ele>
        <time>2021-09-05T12:25:17.779Z</time>
      </trkpt>
      <trkpt lat="45.90544" lon="5.61188">
        <ele>973</ele>
        <time>2021-09-05T12:25:21.782Z</time>
      </trkpt>
      <trkpt lat="45.90544" lon="5.61182">
        <ele>973</ele>
        <time>2021-09-05T12:25:26.778Z</time>
      </trkpt>
      <trkpt lat="45.90545" lon="5.61178">
        <ele>970</ele>
        <time>2021-09-05T12:25:30.785Z</time>
      </trkpt>
      <trkpt lat="45.90546" lon="5.61173">
        <ele>970</ele>
        <time>2021-09-05T12:25:34.790Z</time>
      </trkpt>
      <trkpt lat="45.90547" lon="5.61164">
        <ele>970</ele>
        <time>2021-09-05T12:25:39.778Z</time>
      </trkpt>
      <trkpt lat="45.90547" lon="5.61157">
        <ele>970</ele>
        <time>2021-09-05T12:25:43.797Z</time>
      </trkpt>
      <trkpt lat="45.90547" lon="5.6115">
        <ele>968</ele>
        <time>2021-09-05T12:25:48.788Z</time>
      </trkpt>
      <trkpt lat="45.90545" lon="5.61139">
        <ele>968</ele>
        <time>2021-09-05T12:26:31.784Z</time>
      </trkpt>
      <trkpt lat="45.90545" lon="5.61139">
        <ele>968</ele>
        <time>2021-09-05T12:26:35.795Z</time>
      </trkpt>
      <trkpt lat="45.90545" lon="5.61139">
        <ele>968</ele>
        <time>2021-09-05T12:26:40.785Z</time>
      </trkpt>
      <trkpt lat="45.90545" lon="5.61138">
        <ele>968</ele>
        <time>2021-09-05T12:26:45.785Z</time>
      </trkpt>
      <trkpt lat="45.90544" lon="5.61133">
        <ele>968</ele>
        <time>2021-09-05T12:26:49.789Z</time>
      </trkpt>
      <trkpt lat="45.90544" lon="5.61125">
        <ele>968</ele>
        <time>2021-09-05T12:26:54.785Z</time>
      </trkpt>
      <trkpt lat="45.90545" lon="5.61118">
        <ele>967</ele>
        <time>2021-09-05T12:26:59.785Z</time>
      </trkpt>
      <trkpt lat="45.90543" lon="5.61112">
        <ele>967</ele>
        <time>2021-09-05T12:27:04.783Z</time>
      </trkpt>
      <trkpt lat="45.90541" lon="5.61105">
        <ele>970</ele>
        <time>2021-09-05T12:27:09.790Z</time>
      </trkpt>
      <trkpt lat="45.90539" lon="5.61096">
        <ele>968</ele>
        <time>2021-09-05T12:27:14.789Z</time>
      </trkpt>
      <trkpt lat="45.90539" lon="5.61094">
        <ele>968</ele>
        <time>2021-09-05T12:27:19.787Z</time>
      </trkpt>
      <trkpt lat="45.90538" lon="5.61088">
        <ele>968</ele>
        <time>2021-09-05T12:27:23.835Z</time>
      </trkpt>
      <trkpt lat="45.90539" lon="5.61081">
        <ele>968</ele>
        <time>2021-09-05T12:27:27.853Z</time>
      </trkpt>
      <trkpt lat="45.90539" lon="5.61075">
        <ele>968</ele>
        <time>2021-09-05T12:27:32.813Z</time>
      </trkpt>
      <trkpt lat="45.90539" lon="5.61073">
        <ele>968</ele>
        <time>2021-09-05T12:27:36.818Z</time>
      </trkpt>
      <trkpt lat="45.90538" lon="5.61069">
        <ele>965</ele>
        <time>2021-09-05T12:27:40.828Z</time>
      </trkpt>
      <trkpt lat="45.90536" lon="5.61063">
        <ele>965</ele>
        <time>2021-09-05T12:27:45.826Z</time>
      </trkpt>
      <trkpt lat="45.90536" lon="5.6106">
        <ele>965</ele>
        <time>2021-09-05T12:27:50.815Z</time>
      </trkpt>
      <trkpt lat="45.90536" lon="5.61053">
        <ele>965</ele>
        <time>2021-09-05T12:27:55.845Z</time>
      </trkpt>
      <trkpt lat="45.90533" lon="5.6105">
        <ele>965</ele>
        <time>2021-09-05T12:28:00.852Z</time>
      </trkpt>
      <trkpt lat="45.90532" lon="5.61048">
        <ele>965</ele>
        <time>2021-09-05T12:28:05.805Z</time>
      </trkpt>
      <trkpt lat="45.9053" lon="5.61046">
        <ele>965</ele>
        <time>2021-09-05T12:28:10.810Z</time>
      </trkpt>
      <trkpt lat="45.9053" lon="5.61048">
        <ele>965</ele>
        <time>2021-09-05T12:28:24.842Z</time>
      </trkpt>
      <trkpt lat="45.90527" lon="5.6105">
        <ele>965</ele>
        <time>2021-09-05T12:28:29.819Z</time>
      </trkpt>
      <trkpt lat="45.90523" lon="5.6105">
        <ele>965</ele>
        <time>2021-09-05T12:28:34.812Z</time>
      </trkpt>
      <trkpt lat="45.90521" lon="5.61048">
        <ele>965</ele>
        <time>2021-09-05T12:28:39.804Z</time>
      </trkpt>
      <trkpt lat="45.90518" lon="5.61047">
        <ele>965</ele>
        <time>2021-09-05T12:28:43.843Z</time>
      </trkpt>
      <trkpt lat="45.90516" lon="5.61044">
        <ele>965</ele>
        <time>2021-09-05T12:28:48.863Z</time>
      </trkpt>
      <trkpt lat="45.90518" lon="5.61039">
        <ele>961</ele>
        <time>2021-09-05T12:28:53.813Z</time>
      </trkpt>
      <trkpt lat="45.90518" lon="5.61035">
        <ele>961</ele>
        <time>2021-09-05T12:28:57.817Z</time>
      </trkpt>
      <trkpt lat="45.90517" lon="5.61032">
        <ele>961</ele>
        <time>2021-09-05T12:29:02.790Z</time>
      </trkpt>
      <trkpt lat="45.90517" lon="5.61031">
        <ele>961</ele>
        <time>2021-09-05T12:29:06.850Z</time>
      </trkpt>
      <trkpt lat="45.90518" lon="5.61027">
        <ele>961</ele>
        <time>2021-09-05T12:29:56.821Z</time>
      </trkpt>
      <trkpt lat="45.90518" lon="5.61026">
        <ele>961</ele>
        <time>2021-09-05T12:30:00.821Z</time>
      </trkpt>
      <trkpt lat="45.90517" lon="5.61025">
        <ele>961</ele>
        <time>2021-09-05T12:30:05.811Z</time>
      </trkpt>
      <trkpt lat="45.90514" lon="5.61022">
        <ele>961</ele>
        <time>2021-09-05T12:30:09.833Z</time>
      </trkpt>
      <trkpt lat="45.9051" lon="5.61018">
        <ele>961</ele>
        <time>2021-09-05T12:30:14.813Z</time>
      </trkpt>
      <trkpt lat="45.90507" lon="5.61013">
        <ele>957</ele>
        <time>2021-09-05T12:30:18.825Z</time>
      </trkpt>
      <trkpt lat="45.90505" lon="5.61007">
        <ele>957</ele>
        <time>2021-09-05T12:30:23.819Z</time>
      </trkpt>
      <trkpt lat="45.90501" lon="5.61002">
        <ele>957</ele>
        <time>2021-09-05T12:30:27.826Z</time>
      </trkpt>
      <trkpt lat="45.90498" lon="5.60997">
        <ele>957</ele>
        <time>2021-09-05T12:30:31.837Z</time>
      </trkpt>
      <trkpt lat="45.90496" lon="5.60991">
        <ele>957</ele>
        <time>2021-09-05T12:30:36.811Z</time>
      </trkpt>
      <trkpt lat="45.90495" lon="5.60985">
        <ele>953</ele>
        <time>2021-09-05T12:30:41.816Z</time>
      </trkpt>
      <trkpt lat="45.90492" lon="5.60981">
        <ele>953</ele>
        <time>2021-09-05T12:30:46.819Z</time>
      </trkpt>
      <trkpt lat="45.90492" lon="5.60977">
        <ele>953</ele>
        <time>2021-09-05T12:30:51.789Z</time>
      </trkpt>
      <trkpt lat="45.90492" lon="5.6097">
        <ele>953</ele>
        <time>2021-09-05T12:31:32.815Z</time>
      </trkpt>
      <trkpt lat="45.90492" lon="5.6097">
        <ele>953</ele>
        <time>2021-09-05T12:31:36.846Z</time>
      </trkpt>
      <trkpt lat="45.90493" lon="5.60964">
        <ele>953</ele>
        <time>2021-09-05T12:31:40.864Z</time>
      </trkpt>
      <trkpt lat="45.90495" lon="5.60959">
        <ele>953</ele>
        <time>2021-09-05T12:31:45.812Z</time>
      </trkpt>
      <trkpt lat="45.90498" lon="5.60954">
        <ele>946</ele>
        <time>2021-09-05T12:31:50.841Z</time>
      </trkpt>
      <trkpt lat="45.90502" lon="5.60949">
        <ele>946</ele>
        <time>2021-09-05T12:31:55.788Z</time>
      </trkpt>
      <trkpt lat="45.90505" lon="5.60945">
        <ele>946</ele>
        <time>2021-09-05T12:31:59.850Z</time>
      </trkpt>
      <trkpt lat="45.9051" lon="5.60945">
        <ele>946</ele>
        <time>2021-09-05T12:32:04.819Z</time>
      </trkpt>
      <trkpt lat="45.90515" lon="5.60948">
        <ele>945</ele>
        <time>2021-09-05T12:32:09.815Z</time>
      </trkpt>
      <trkpt lat="45.90518" lon="5.60949">
        <ele>945</ele>
        <time>2021-09-05T12:32:13.814Z</time>
      </trkpt>
      <trkpt lat="45.90523" lon="5.60951">
        <ele>945</ele>
        <time>2021-09-05T12:32:18.828Z</time>
      </trkpt>
      <trkpt lat="45.90529" lon="5.6095">
        <ele>945</ele>
        <time>2021-09-05T12:32:23.810Z</time>
      </trkpt>
      <trkpt lat="45.90534" lon="5.60951">
        <ele>945</ele>
        <time>2021-09-05T12:32:27.812Z</time>
      </trkpt>
      <trkpt lat="45.90541" lon="5.60955">
        <ele>945</ele>
        <time>2021-09-05T12:33:46.862Z</time>
      </trkpt>
      <trkpt lat="45.90542" lon="5.60955">
        <ele>943</ele>
        <time>2021-09-05T12:33:51.824Z</time>
      </trkpt>
      <trkpt lat="45.90549" lon="5.60955">
        <ele>943</ele>
        <time>2021-09-05T12:33:56.784Z</time>
      </trkpt>
      <trkpt lat="45.90554" lon="5.60958">
        <ele>943</ele>
        <time>2021-09-05T12:34:00.846Z</time>
      </trkpt>
      <trkpt lat="45.90561" lon="5.6096">
        <ele>948</ele>
        <time>2021-09-05T12:34:05.812Z</time>
      </trkpt>
      <trkpt lat="45.90565" lon="5.60965">
        <ele>948</ele>
        <time>2021-09-05T12:34:09.823Z</time>
      </trkpt>
      <trkpt lat="45.90571" lon="5.6097">
        <ele>947</ele>
        <time>2021-09-05T12:34:14.816Z</time>
      </trkpt>
      <trkpt lat="45.90579" lon="5.60978">
        <ele>947</ele>
        <time>2021-09-05T12:34:19.815Z</time>
      </trkpt>
      <trkpt lat="45.90582" lon="5.60984">
        <ele>947</ele>
        <time>2021-09-05T12:34:23.829Z</time>
      </trkpt>
      <trkpt lat="45.90586" lon="5.60989">
        <ele>950</ele>
        <time>2021-09-05T12:34:28.819Z</time>
      </trkpt>
      <trkpt lat="45.9059" lon="5.60995">
        <ele>950</ele>
        <time>2021-09-05T12:34:33.813Z</time>
      </trkpt>
      <trkpt lat="45.90594" lon="5.60998">
        <ele>950</ele>
        <time>2021-09-05T12:34:37.840Z</time>
      </trkpt>
      <trkpt lat="45.90598" lon="5.61">
        <ele>950</ele>
        <time>2021-09-05T12:34:41.854Z</time>
      </trkpt>
      <trkpt lat="45.90603" lon="5.61002">
        <ele>950</ele>
        <time>2021-09-05T12:34:46.817Z</time>
      </trkpt>
      <trkpt lat="45.9061" lon="5.61001">
        <ele>950</ele>
        <time>2021-09-05T12:34:51.806Z</time>
      </trkpt>
      <trkpt lat="45.90616" lon="5.61001">
        <ele>950</ele>
        <time>2021-09-05T12:34:56.791Z</time>
      </trkpt>
      <trkpt lat="45.9062" lon="5.61005">
        <ele>950</ele>
        <time>2021-09-05T12:35:00.822Z</time>
      </trkpt>
      <trkpt lat="45.90624" lon="5.61009">
        <ele>950</ele>
        <time>2021-09-05T12:35:05.811Z</time>
      </trkpt>
      <trkpt lat="45.90629" lon="5.61014">
        <ele>950</ele>
        <time>2021-09-05T12:35:10.827Z</time>
      </trkpt>
      <trkpt lat="45.90634" lon="5.61021">
        <ele>950</ele>
        <time>2021-09-05T12:35:15.797Z</time>
      </trkpt>
      <trkpt lat="45.90638" lon="5.61025">
        <ele>950</ele>
        <time>2021-09-05T12:35:19.809Z</time>
      </trkpt>
      <trkpt lat="45.90643" lon="5.61031">
        <ele>950</ele>
        <time>2021-09-05T12:35:24.806Z</time>
      </trkpt>
      <trkpt lat="45.90647" lon="5.61038">
        <ele>950</ele>
        <time>2021-09-05T12:35:29.808Z</time>
      </trkpt>
      <trkpt lat="45.90648" lon="5.61045">
        <ele>952</ele>
        <time>2021-09-05T12:35:34.816Z</time>
      </trkpt>
      <trkpt lat="45.9065" lon="5.61051">
        <ele>952</ele>
        <time>2021-09-05T12:35:38.852Z</time>
      </trkpt>
      <trkpt lat="45.90654" lon="5.61059">
        <ele>946</ele>
        <time>2021-09-05T12:35:43.818Z</time>
      </trkpt>
      <trkpt lat="45.90657" lon="5.61064">
        <ele>946</ele>
        <time>2021-09-05T12:35:47.839Z</time>
      </trkpt>
      <trkpt lat="45.90663" lon="5.6107">
        <ele>948</ele>
        <time>2021-09-05T12:35:52.814Z</time>
      </trkpt>
      <trkpt lat="45.9067" lon="5.61076">
        <ele>948</ele>
        <time>2021-09-05T12:35:57.775Z</time>
      </trkpt>
      <trkpt lat="45.90674" lon="5.61079">
        <ele>948</ele>
        <time>2021-09-05T12:36:01.817Z</time>
      </trkpt>
      <trkpt lat="45.90679" lon="5.6108">
        <ele>948</ele>
        <time>2021-09-05T12:36:06.851Z</time>
      </trkpt>
      <trkpt lat="45.90685" lon="5.61083">
        <ele>944</ele>
        <time>2021-09-05T12:36:10.862Z</time>
      </trkpt>
      <trkpt lat="45.90693" lon="5.61085">
        <ele>944</ele>
        <time>2021-09-05T12:36:15.856Z</time>
      </trkpt>
      <trkpt lat="45.90702" lon="5.61086">
        <ele>944</ele>
        <time>2021-09-05T12:36:20.822Z</time>
      </trkpt>
      <trkpt lat="45.90706" lon="5.61087">
        <ele>944</ele>
        <time>2021-09-05T12:36:25.818Z</time>
      </trkpt>
      <trkpt lat="45.90712" lon="5.61085">
        <ele>939</ele>
        <time>2021-09-05T12:36:29.828Z</time>
      </trkpt>
      <trkpt lat="45.9072" lon="5.61084">
        <ele>939</ele>
        <time>2021-09-05T12:36:34.805Z</time>
      </trkpt>
      <trkpt lat="45.90727" lon="5.61083">
        <ele>939</ele>
        <time>2021-09-05T12:36:38.853Z</time>
      </trkpt>
      <trkpt lat="45.90734" lon="5.61084">
        <ele>939</ele>
        <time>2021-09-05T12:36:43.843Z</time>
      </trkpt>
      <trkpt lat="45.90741" lon="5.61086">
        <ele>937</ele>
        <time>2021-09-05T12:36:48.811Z</time>
      </trkpt>
      <trkpt lat="45.90745" lon="5.61086">
        <ele>937</ele>
        <time>2021-09-05T12:36:52.824Z</time>
      </trkpt>
      <trkpt lat="45.90751" lon="5.61086">
        <ele>937</ele>
        <time>2021-09-05T12:36:57.778Z</time>
      </trkpt>
      <trkpt lat="45.90756" lon="5.61086">
        <ele>937</ele>
        <time>2021-09-05T12:37:01.817Z</time>
      </trkpt>
      <trkpt lat="45.90761" lon="5.61089">
        <ele>937</ele>
        <time>2021-09-05T12:37:06.815Z</time>
      </trkpt>
      <trkpt lat="45.90768" lon="5.61091">
        <ele>935</ele>
        <time>2021-09-05T12:37:11.814Z</time>
      </trkpt>
      <trkpt lat="45.90774" lon="5.61094">
        <ele>935</ele>
        <time>2021-09-05T12:37:15.821Z</time>
      </trkpt>
      <trkpt lat="45.90781" lon="5.61098">
        <ele>939</ele>
        <time>2021-09-05T12:37:20.814Z</time>
      </trkpt>
      <trkpt lat="45.90787" lon="5.61101">
        <ele>939</ele>
        <time>2021-09-05T12:37:25.813Z</time>
      </trkpt>
      <trkpt lat="45.90792" lon="5.61104">
        <ele>938</ele>
        <time>2021-09-05T12:37:30.814Z</time>
      </trkpt>
      <trkpt lat="45.90796" lon="5.61106">
        <ele>938</ele>
        <time>2021-09-05T12:37:34.841Z</time>
      </trkpt>
      <trkpt lat="45.90803" lon="5.61109">
        <ele>938</ele>
        <time>2021-09-05T12:37:39.808Z</time>
      </trkpt>
      <trkpt lat="45.90807" lon="5.61113">
        <ele>938</ele>
        <time>2021-09-05T12:37:43.844Z</time>
      </trkpt>
      <trkpt lat="45.90813" lon="5.61118">
        <ele>938</ele>
        <time>2021-09-05T12:37:48.817Z</time>
      </trkpt>
      <trkpt lat="45.90821" lon="5.61123">
        <ele>935</ele>
        <time>2021-09-05T12:37:53.807Z</time>
      </trkpt>
      <trkpt lat="45.90828" lon="5.61127">
        <ele>937</ele>
        <time>2021-09-05T12:37:58.789Z</time>
      </trkpt>
      <trkpt lat="45.90832" lon="5.61132">
        <ele>937</ele>
        <time>2021-09-05T12:38:02.811Z</time>
      </trkpt>
      <trkpt lat="45.90836" lon="5.61137">
        <ele>937</ele>
        <time>2021-09-05T12:38:06.821Z</time>
      </trkpt>
      <trkpt lat="45.90841" lon="5.61143">
        <ele>937</ele>
        <time>2021-09-05T12:38:11.807Z</time>
      </trkpt>
      <trkpt lat="45.90848" lon="5.61146">
        <ele>935</ele>
        <time>2021-09-05T12:38:16.782Z</time>
      </trkpt>
      <trkpt lat="45.90855" lon="5.61146">
        <ele>935</ele>
        <time>2021-09-05T12:38:21.823Z</time>
      </trkpt>
      <trkpt lat="45.90861" lon="5.61146">
        <ele>935</ele>
        <time>2021-09-05T12:38:26.815Z</time>
      </trkpt>
      <trkpt lat="45.90866" lon="5.61149">
        <ele>935</ele>
        <time>2021-09-05T12:38:31.812Z</time>
      </trkpt>
      <trkpt lat="45.9087" lon="5.61154">
        <ele>938</ele>
        <time>2021-09-05T12:38:35.815Z</time>
      </trkpt>
      <trkpt lat="45.90875" lon="5.61157">
        <ele>938</ele>
        <time>2021-09-05T12:38:39.833Z</time>
      </trkpt>
      <trkpt lat="45.90879" lon="5.61162">
        <ele>938</ele>
        <time>2021-09-05T12:38:44.813Z</time>
      </trkpt>
      <trkpt lat="45.90883" lon="5.61165">
        <ele>938</ele>
        <time>2021-09-05T12:38:48.813Z</time>
      </trkpt>
      <trkpt lat="45.90887" lon="5.61169">
        <ele>938</ele>
        <time>2021-09-05T12:38:53.819Z</time>
      </trkpt>
      <trkpt lat="45.90892" lon="5.61172">
        <ele>938</ele>
        <time>2021-09-05T12:38:57.785Z</time>
      </trkpt>
      <trkpt lat="45.90897" lon="5.61176">
        <ele>938</ele>
        <time>2021-09-05T12:39:02.815Z</time>
      </trkpt>
      <trkpt lat="45.90901" lon="5.61182">
        <ele>939</ele>
        <time>2021-09-05T12:39:07.806Z</time>
      </trkpt>
      <trkpt lat="45.90905" lon="5.61186">
        <ele>936</ele>
        <time>2021-09-05T12:39:11.808Z</time>
      </trkpt>
      <trkpt lat="45.90908" lon="5.61192">
        <ele>936</ele>
        <time>2021-09-05T12:39:16.820Z</time>
      </trkpt>
      <trkpt lat="45.90913" lon="5.61201">
        <ele>936</ele>
        <time>2021-09-05T12:39:21.809Z</time>
      </trkpt>
      <trkpt lat="45.90917" lon="5.61209">
        <ele>937</ele>
        <time>2021-09-05T12:39:25.813Z</time>
      </trkpt>
      <trkpt lat="45.90925" lon="5.61224">
        <ele>937</ele>
        <time>2021-09-05T12:39:30.804Z</time>
      </trkpt>
      <trkpt lat="45.90928" lon="5.61232">
        <ele>937</ele>
        <time>2021-09-05T12:39:34.836Z</time>
      </trkpt>
      <trkpt lat="45.9093" lon="5.61242">
        <ele>938</ele>
        <time>2021-09-05T12:39:39.820Z</time>
      </trkpt>
      <trkpt lat="45.90933" lon="5.61248">
        <ele>934</ele>
        <time>2021-09-05T12:39:43.843Z</time>
      </trkpt>
      <trkpt lat="45.90938" lon="5.61254">
        <ele>934</ele>
        <time>2021-09-05T12:39:48.802Z</time>
      </trkpt>
      <trkpt lat="45.90943" lon="5.61259">
        <ele>934</ele>
        <time>2021-09-05T12:39:52.809Z</time>
      </trkpt>
      <trkpt lat="45.90949" lon="5.61261">
        <ele>934</ele>
        <time>2021-09-05T12:39:56.816Z</time>
      </trkpt>
      <trkpt lat="45.90955" lon="5.61265">
        <ele>934</ele>
        <time>2021-09-05T12:40:01.806Z</time>
      </trkpt>
      <trkpt lat="45.90962" lon="5.61269">
        <ele>934</ele>
        <time>2021-09-05T12:40:06.819Z</time>
      </trkpt>
      <trkpt lat="45.90966" lon="5.61272">
        <ele>934</ele>
        <time>2021-09-05T12:40:10.822Z</time>
      </trkpt>
      <trkpt lat="45.90971" lon="5.61276">
        <ele>934</ele>
        <time>2021-09-05T12:40:14.838Z</time>
      </trkpt>
      <trkpt lat="45.90976" lon="5.61279">
        <ele>934</ele>
        <time>2021-09-05T12:40:18.847Z</time>
      </trkpt>
      <trkpt lat="45.90981" lon="5.61282">
        <ele>934</ele>
        <time>2021-09-05T12:40:23.812Z</time>
      </trkpt>
      <trkpt lat="45.90988" lon="5.61285">
        <ele>934</ele>
        <time>2021-09-05T12:40:28.806Z</time>
      </trkpt>
      <trkpt lat="45.90993" lon="5.61288">
        <ele>934</ele>
        <time>2021-09-05T12:40:32.839Z</time>
      </trkpt>
      <trkpt lat="45.91" lon="5.61291">
        <ele>934</ele>
        <time>2021-09-05T12:40:37.806Z</time>
      </trkpt>
      <trkpt lat="45.91006" lon="5.61294">
        <ele>935</ele>
        <time>2021-09-05T12:40:42.811Z</time>
      </trkpt>
      <trkpt lat="45.91012" lon="5.61299">
        <ele>935</ele>
        <time>2021-09-05T12:40:47.842Z</time>
      </trkpt>
      <trkpt lat="45.91019" lon="5.61301">
        <ele>933</ele>
        <time>2021-09-05T12:40:52.806Z</time>
      </trkpt>
      <trkpt lat="45.91024" lon="5.61302">
        <ele>933</ele>
        <time>2021-09-05T12:40:56.849Z</time>
      </trkpt>
      <trkpt lat="45.91028" lon="5.61301">
        <ele>933</ele>
        <time>2021-09-05T12:41:00.865Z</time>
      </trkpt>
      <trkpt lat="45.91032" lon="5.61298">
        <ele>933</ele>
        <time>2021-09-05T12:41:05.812Z</time>
      </trkpt>
      <trkpt lat="45.91037" lon="5.61291">
        <ele>933</ele>
        <time>2021-09-05T12:41:10.843Z</time>
      </trkpt>
      <trkpt lat="45.91039" lon="5.61283">
        <ele>933</ele>
        <time>2021-09-05T12:41:15.818Z</time>
      </trkpt>
      <trkpt lat="45.9104" lon="5.61277">
        <ele>933</ele>
        <time>2021-09-05T12:41:19.825Z</time>
      </trkpt>
      <trkpt lat="45.91044" lon="5.61269">
        <ele>931</ele>
        <time>2021-09-05T12:41:24.819Z</time>
      </trkpt>
      <trkpt lat="45.91048" lon="5.61261">
        <ele>929</ele>
        <time>2021-09-05T12:41:29.811Z</time>
      </trkpt>
      <trkpt lat="45.91052" lon="5.61254">
        <ele>929</ele>
        <time>2021-09-05T12:41:34.805Z</time>
      </trkpt>
      <trkpt lat="45.91055" lon="5.61249">
        <ele>929</ele>
        <time>2021-09-05T12:41:38.817Z</time>
      </trkpt>
      <trkpt lat="45.91057" lon="5.61241">
        <ele>929</ele>
        <time>2021-09-05T12:41:43.821Z</time>
      </trkpt>
      <trkpt lat="45.91059" lon="5.61235">
        <ele>925</ele>
        <time>2021-09-05T12:41:48.839Z</time>
      </trkpt>
      <trkpt lat="45.91062" lon="5.61224">
        <ele>925</ele>
        <time>2021-09-05T12:41:58.826Z</time>
      </trkpt>
      <trkpt lat="45.91061" lon="5.61224">
        <ele>925</ele>
        <time>2021-09-05T12:42:02.850Z</time>
      </trkpt>
      <trkpt lat="45.91061" lon="5.61223">
        <ele>925</ele>
        <time>2021-09-05T12:42:07.821Z</time>
      </trkpt>
      <trkpt lat="45.91064" lon="5.61218">
        <ele>925</ele>
        <time>2021-09-05T12:42:12.806Z</time>
      </trkpt>
      <trkpt lat="45.91069" lon="5.61213">
        <ele>925</ele>
        <time>2021-09-05T12:42:16.860Z</time>
      </trkpt>
      <trkpt lat="45.91072" lon="5.61205">
        <ele>920</ele>
        <time>2021-09-05T12:42:21.814Z</time>
      </trkpt>
      <trkpt lat="45.91076" lon="5.61198">
        <ele>920</ele>
        <time>2021-09-05T12:42:26.801Z</time>
      </trkpt>
      <trkpt lat="45.91081" lon="5.61191">
        <ele>920</ele>
        <time>2021-09-05T12:42:31.850Z</time>
      </trkpt>
      <trkpt lat="45.91085" lon="5.61185">
        <ele>920</ele>
        <time>2021-09-05T12:42:36.844Z</time>
      </trkpt>
      <trkpt lat="45.91089" lon="5.61178">
        <ele>919</ele>
        <time>2021-09-05T12:42:41.806Z</time>
      </trkpt>
      <trkpt lat="45.91093" lon="5.61173">
        <ele>919</ele>
        <time>2021-09-05T12:42:45.813Z</time>
      </trkpt>
      <trkpt lat="45.91098" lon="5.61167">
        <ele>918</ele>
        <time>2021-09-05T12:42:50.812Z</time>
      </trkpt>
      <trkpt lat="45.91102" lon="5.61164">
        <ele>918</ele>
        <time>2021-09-05T12:42:54.816Z</time>
      </trkpt>
      <trkpt lat="45.91106" lon="5.61158">
        <ele>918</ele>
        <time>2021-09-05T12:42:58.817Z</time>
      </trkpt>
      <trkpt lat="45.9111" lon="5.61153">
        <ele>918</ele>
        <time>2021-09-05T12:43:03.775Z</time>
      </trkpt>
      <trkpt lat="45.91115" lon="5.61148">
        <ele>916</ele>
        <time>2021-09-05T12:43:07.811Z</time>
      </trkpt>
      <trkpt lat="45.91118" lon="5.61142">
        <ele>916</ele>
        <time>2021-09-05T12:43:11.842Z</time>
      </trkpt>
      <trkpt lat="45.91122" lon="5.61135">
        <ele>916</ele>
        <time>2021-09-05T12:43:16.820Z</time>
      </trkpt>
      <trkpt lat="45.91127" lon="5.61129">
        <ele>916</ele>
        <time>2021-09-05T12:43:21.817Z</time>
      </trkpt>
      <trkpt lat="45.91133" lon="5.61123">
        <ele>914</ele>
        <time>2021-09-05T12:43:26.810Z</time>
      </trkpt>
      <trkpt lat="45.91137" lon="5.61118">
        <ele>914</ele>
        <time>2021-09-05T12:43:30.815Z</time>
      </trkpt>
      <trkpt lat="45.91143" lon="5.61111">
        <ele>914</ele>
        <time>2021-09-05T12:43:35.846Z</time>
      </trkpt>
      <trkpt lat="45.91148" lon="5.61104">
        <ele>914</ele>
        <time>2021-09-05T12:43:40.811Z</time>
      </trkpt>
      <trkpt lat="45.91153" lon="5.61096">
        <ele>912</ele>
        <time>2021-09-05T12:43:45.817Z</time>
      </trkpt>
      <trkpt lat="45.91157" lon="5.6109">
        <ele>912</ele>
        <time>2021-09-05T12:43:49.820Z</time>
      </trkpt>
      <trkpt lat="45.91161" lon="5.61083">
        <ele>912</ele>
        <time>2021-09-05T12:43:54.819Z</time>
      </trkpt>
      <trkpt lat="45.91166" lon="5.61076">
        <ele>912</ele>
        <time>2021-09-05T12:43:59.794Z</time>
      </trkpt>
      <trkpt lat="45.91171" lon="5.6107">
        <ele>912</ele>
        <time>2021-09-05T12:44:04.813Z</time>
      </trkpt>
      <trkpt lat="45.91176" lon="5.61062">
        <ele>912</ele>
        <time>2021-09-05T12:44:09.823Z</time>
      </trkpt>
      <trkpt lat="45.91182" lon="5.61056">
        <ele>912</ele>
        <time>2021-09-05T12:44:14.809Z</time>
      </trkpt>
      <trkpt lat="45.91187" lon="5.61051">
        <ele>912</ele>
        <time>2021-09-05T12:44:18.815Z</time>
      </trkpt>
      <trkpt lat="45.91193" lon="5.61045">
        <ele>912</ele>
        <time>2021-09-05T12:44:23.844Z</time>
      </trkpt>
      <trkpt lat="45.91199" lon="5.6104">
        <ele>911</ele>
        <time>2021-09-05T12:44:28.839Z</time>
      </trkpt>
      <trkpt lat="45.91206" lon="5.61035">
        <ele>911</ele>
        <time>2021-09-05T12:44:33.818Z</time>
      </trkpt>
      <trkpt lat="45.91212" lon="5.61031">
        <ele>910</ele>
        <time>2021-09-05T12:44:38.813Z</time>
      </trkpt>
      <trkpt lat="45.91217" lon="5.61028">
        <ele>910</ele>
        <time>2021-09-05T12:44:42.841Z</time>
      </trkpt>
      <trkpt lat="45.91224" lon="5.61026">
        <ele>910</ele>
        <time>2021-09-05T12:44:47.836Z</time>
      </trkpt>
      <trkpt lat="45.91231" lon="5.61024">
        <ele>910</ele>
        <time>2021-09-05T12:45:16.808Z</time>
      </trkpt>
      <trkpt lat="45.91231" lon="5.61024">
        <ele>910</ele>
        <time>2021-09-05T12:45:20.815Z</time>
      </trkpt>
      <trkpt lat="45.91233" lon="5.61024">
        <ele>910</ele>
        <time>2021-09-05T12:45:25.823Z</time>
      </trkpt>
      <trkpt lat="45.91239" lon="5.61021">
        <ele>909</ele>
        <time>2021-09-05T12:45:30.804Z</time>
      </trkpt>
      <trkpt lat="45.91245" lon="5.61019">
        <ele>909</ele>
        <time>2021-09-05T12:45:35.816Z</time>
      </trkpt>
      <trkpt lat="45.91252" lon="5.61018">
        <ele>909</ele>
        <time>2021-09-05T12:45:40.812Z</time>
      </trkpt>
      <trkpt lat="45.91259" lon="5.61017">
        <ele>909</ele>
        <time>2021-09-05T12:45:45.819Z</time>
      </trkpt>
      <trkpt lat="45.91264" lon="5.61016">
        <ele>909</ele>
        <time>2021-09-05T12:45:49.840Z</time>
      </trkpt>
      <trkpt lat="45.91271" lon="5.61015">
        <ele>909</ele>
        <time>2021-09-05T12:45:54.816Z</time>
      </trkpt>
      <trkpt lat="45.91276" lon="5.61015">
        <ele>909</ele>
        <time>2021-09-05T12:45:58.823Z</time>
      </trkpt>
      <trkpt lat="45.91282" lon="5.6101">
        <ele>909</ele>
        <time>2021-09-05T12:46:03.788Z</time>
      </trkpt>
      <trkpt lat="45.91286" lon="5.61005">
        <ele>909</ele>
        <time>2021-09-05T12:46:07.817Z</time>
      </trkpt>
      <trkpt lat="45.9129" lon="5.61001">
        <ele>909</ele>
        <time>2021-09-05T12:46:11.856Z</time>
      </trkpt>
      <trkpt lat="45.91295" lon="5.60994">
        <ele>908</ele>
        <time>2021-09-05T12:46:16.820Z</time>
      </trkpt>
      <trkpt lat="45.91297" lon="5.60986">
        <ele>907</ele>
        <time>2021-09-05T12:46:20.836Z</time>
      </trkpt>
      <trkpt lat="45.91299" lon="5.60977">
        <ele>907</ele>
        <time>2021-09-05T12:46:25.814Z</time>
      </trkpt>
      <trkpt lat="45.913" lon="5.60969">
        <ele>907</ele>
        <time>2021-09-05T12:46:29.836Z</time>
      </trkpt>
      <trkpt lat="45.91302" lon="5.6096">
        <ele>907</ele>
        <time>2021-09-05T12:46:34.804Z</time>
      </trkpt>
      <trkpt lat="45.91304" lon="5.60951">
        <ele>905</ele>
        <time>2021-09-05T12:46:39.814Z</time>
      </trkpt>
      <trkpt lat="45.91305" lon="5.60946">
        <ele>905</ele>
        <time>2021-09-05T12:46:43.819Z</time>
      </trkpt>
      <trkpt lat="45.91306" lon="5.60936">
        <ele>905</ele>
        <time>2021-09-05T12:46:48.809Z</time>
      </trkpt>
      <trkpt lat="45.91308" lon="5.60926">
        <ele>904</ele>
        <time>2021-09-05T12:46:53.810Z</time>
      </trkpt>
      <trkpt lat="45.91309" lon="5.60918">
        <ele>904</ele>
        <time>2021-09-05T12:46:57.831Z</time>
      </trkpt>
      <trkpt lat="45.9131" lon="5.60908">
        <ele>904</ele>
        <time>2021-09-05T12:47:02.790Z</time>
      </trkpt>
      <trkpt lat="45.9131" lon="5.60904">
        <ele>904</ele>
        <time>2021-09-05T12:47:06.809Z</time>
      </trkpt>
      <trkpt lat="45.91312" lon="5.60904">
        <ele>904</ele>
        <time>2021-09-05T12:47:11.813Z</time>
      </trkpt>
      <trkpt lat="45.91315" lon="5.609">
        <ele>905</ele>
        <time>2021-09-05T12:47:16.799Z</time>
      </trkpt>
      <trkpt lat="45.91316" lon="5.60893">
        <ele>905</ele>
        <time>2021-09-05T12:47:21.848Z</time>
      </trkpt>
      <trkpt lat="45.91318" lon="5.60884">
        <ele>905</ele>
        <time>2021-09-05T12:47:26.819Z</time>
      </trkpt>
      <trkpt lat="45.91319" lon="5.60878">
        <ele>904</ele>
        <time>2021-09-05T12:47:30.827Z</time>
      </trkpt>
      <trkpt lat="45.91322" lon="5.6087">
        <ele>904</ele>
        <time>2021-09-05T12:47:35.840Z</time>
      </trkpt>
      <trkpt lat="45.91325" lon="5.60862">
        <ele>904</ele>
        <time>2021-09-05T12:47:40.810Z</time>
      </trkpt>
      <trkpt lat="45.91329" lon="5.60856">
        <ele>904</ele>
        <time>2021-09-05T12:47:45.808Z</time>
      </trkpt>
      <trkpt lat="45.91333" lon="5.6085">
        <ele>904</ele>
        <time>2021-09-05T12:47:50.811Z</time>
      </trkpt>
      <trkpt lat="45.91337" lon="5.60846">
        <ele>906</ele>
        <time>2021-09-05T12:47:54.819Z</time>
      </trkpt>
      <trkpt lat="45.91344" lon="5.60843">
        <ele>906</ele>
        <time>2021-09-05T12:47:59.809Z</time>
      </trkpt>
      <trkpt lat="45.9135" lon="5.6084">
        <ele>899</ele>
        <time>2021-09-05T12:48:04.787Z</time>
      </trkpt>
      <trkpt lat="45.91355" lon="5.6084">
        <ele>899</ele>
        <time>2021-09-05T12:48:08.812Z</time>
      </trkpt>
      <trkpt lat="45.91362" lon="5.60839">
        <ele>899</ele>
        <time>2021-09-05T12:48:13.869Z</time>
      </trkpt>
      <trkpt lat="45.91367" lon="5.6084">
        <ele>899</ele>
        <time>2021-09-05T12:48:18.814Z</time>
      </trkpt>
      <trkpt lat="45.91374" lon="5.60842">
        <ele>899</ele>
        <time>2021-09-05T12:48:23.808Z</time>
      </trkpt>
      <trkpt lat="45.91378" lon="5.60844">
        <ele>897</ele>
        <time>2021-09-05T12:48:27.811Z</time>
      </trkpt>
      <trkpt lat="45.91385" lon="5.60846">
        <ele>897</ele>
        <time>2021-09-05T12:48:32.812Z</time>
      </trkpt>
      <trkpt lat="45.91389" lon="5.60848">
        <ele>899</ele>
        <time>2021-09-05T12:48:36.854Z</time>
      </trkpt>
      <trkpt lat="45.91396" lon="5.6085">
        <ele>899</ele>
        <time>2021-09-05T12:48:41.823Z</time>
      </trkpt>
      <trkpt lat="45.91402" lon="5.60851">
        <ele>899</ele>
        <time>2021-09-05T12:48:46.864Z</time>
      </trkpt>
      <trkpt lat="45.91408" lon="5.60851">
        <ele>899</ele>
        <time>2021-09-05T12:48:51.827Z</time>
      </trkpt>
      <trkpt lat="45.91414" lon="5.60852">
        <ele>899</ele>
        <time>2021-09-05T12:48:56.828Z</time>
      </trkpt>
      <trkpt lat="45.91417" lon="5.60851">
        <ele>899</ele>
        <time>2021-09-05T12:49:00.847Z</time>
      </trkpt>
      <trkpt lat="45.91424" lon="5.60849">
        <ele>899</ele>
        <time>2021-09-05T12:49:05.808Z</time>
      </trkpt>
      <trkpt lat="45.91429" lon="5.60847">
        <ele>897</ele>
        <time>2021-09-05T12:49:09.818Z</time>
      </trkpt>
      <trkpt lat="45.91435" lon="5.60845">
        <ele>898</ele>
        <time>2021-09-05T12:49:13.826Z</time>
      </trkpt>
      <trkpt lat="45.91441" lon="5.60841">
        <ele>898</ele>
        <time>2021-09-05T12:49:18.822Z</time>
      </trkpt>
      <trkpt lat="45.91448" lon="5.60836">
        <ele>898</ele>
        <time>2021-09-05T12:49:23.811Z</time>
      </trkpt>
      <trkpt lat="45.91454" lon="5.60831">
        <ele>898</ele>
        <time>2021-09-05T12:49:28.797Z</time>
      </trkpt>
      <trkpt lat="45.91458" lon="5.60827">
        <ele>898</ele>
        <time>2021-09-05T12:49:32.830Z</time>
      </trkpt>
      <trkpt lat="45.91463" lon="5.60822">
        <ele>898</ele>
        <time>2021-09-05T12:49:37.815Z</time>
      </trkpt>
      <trkpt lat="45.91469" lon="5.60817">
        <ele>895</ele>
        <time>2021-09-05T12:49:42.844Z</time>
      </trkpt>
      <trkpt lat="45.91474" lon="5.6081">
        <ele>895</ele>
        <time>2021-09-05T12:49:47.843Z</time>
      </trkpt>
      <trkpt lat="45.91479" lon="5.60804">
        <ele>895</ele>
        <time>2021-09-05T12:49:52.818Z</time>
      </trkpt>
      <trkpt lat="45.91485" lon="5.60797">
        <ele>895</ele>
        <time>2021-09-05T12:49:57.788Z</time>
      </trkpt>
      <trkpt lat="45.91489" lon="5.60791">
        <ele>891</ele>
        <time>2021-09-05T12:50:01.817Z</time>
      </trkpt>
      <trkpt lat="45.91494" lon="5.60784">
        <ele>891</ele>
        <time>2021-09-05T12:50:06.840Z</time>
      </trkpt>
      <trkpt lat="45.91498" lon="5.60777">
        <ele>891</ele>
        <time>2021-09-05T12:50:11.811Z</time>
      </trkpt>
      <trkpt lat="45.91502" lon="5.60769">
        <ele>891</ele>
        <time>2021-09-05T12:50:16.814Z</time>
      </trkpt>
      <trkpt lat="45.91506" lon="5.60761">
        <ele>889</ele>
        <time>2021-09-05T12:50:21.816Z</time>
      </trkpt>
      <trkpt lat="45.91511" lon="5.60755">
        <ele>889</ele>
        <time>2021-09-05T12:50:26.844Z</time>
      </trkpt>
      <trkpt lat="45.91515" lon="5.60747">
        <ele>890</ele>
        <time>2021-09-05T12:50:31.808Z</time>
      </trkpt>
      <trkpt lat="45.9152" lon="5.6074">
        <ele>890</ele>
        <time>2021-09-05T12:50:36.841Z</time>
      </trkpt>
      <trkpt lat="45.91525" lon="5.60733">
        <ele>888</ele>
        <time>2021-09-05T12:50:41.822Z</time>
      </trkpt>
      <trkpt lat="45.91529" lon="5.60725">
        <ele>888</ele>
        <time>2021-09-05T12:50:46.814Z</time>
      </trkpt>
      <trkpt lat="45.91533" lon="5.60717">
        <ele>888</ele>
        <time>2021-09-05T12:50:51.808Z</time>
      </trkpt>
      <trkpt lat="45.91535" lon="5.60712">
        <ele>888</ele>
        <time>2021-09-05T12:50:55.809Z</time>
      </trkpt>
      <trkpt lat="45.91538" lon="5.60704">
        <ele>886</ele>
        <time>2021-09-05T12:51:00.819Z</time>
      </trkpt>
      <trkpt lat="45.91541" lon="5.60696">
        <ele>886</ele>
        <time>2021-09-05T12:51:05.814Z</time>
      </trkpt>
      <trkpt lat="45.91544" lon="5.60686">
        <ele>887</ele>
        <time>2021-09-05T12:51:10.820Z</time>
      </trkpt>
      <trkpt lat="45.91546" lon="5.60679">
        <ele>884</ele>
        <time>2021-09-05T12:51:14.850Z</time>
      </trkpt>
      <trkpt lat="45.91548" lon="5.60673">
        <ele>884</ele>
        <time>2021-09-05T12:51:18.842Z</time>
      </trkpt>
      <trkpt lat="45.91552" lon="5.60663">
        <ele>884</ele>
        <time>2021-09-05T12:51:23.810Z</time>
      </trkpt>
      <trkpt lat="45.91555" lon="5.60657">
        <ele>884</ele>
        <time>2021-09-05T12:51:27.820Z</time>
      </trkpt>
      <trkpt lat="45.91558" lon="5.60651">
        <ele>882</ele>
        <time>2021-09-05T12:51:32.810Z</time>
      </trkpt>
      <trkpt lat="45.9156" lon="5.60645">
        <ele>882</ele>
        <time>2021-09-05T12:51:36.814Z</time>
      </trkpt>
      <trkpt lat="45.91564" lon="5.6064">
        <ele>882</ele>
        <time>2021-09-05T12:51:41.809Z</time>
      </trkpt>
      <trkpt lat="45.91569" lon="5.60637">
        <ele>882</ele>
        <time>2021-09-05T12:51:46.816Z</time>
      </trkpt>
      <trkpt lat="45.91574" lon="5.60633">
        <ele>883</ele>
        <time>2021-09-05T12:51:51.811Z</time>
      </trkpt>
      <trkpt lat="45.91579" lon="5.6063">
        <ele>883</ele>
        <time>2021-09-05T12:51:55.812Z</time>
      </trkpt>
      <trkpt lat="45.91584" lon="5.60626">
        <ele>883</ele>
        <time>2021-09-05T12:52:00.821Z</time>
      </trkpt>
      <trkpt lat="45.9159" lon="5.60624">
        <ele>881</ele>
        <time>2021-09-05T12:52:05.784Z</time>
      </trkpt>
      <trkpt lat="45.91595" lon="5.60619">
        <ele>881</ele>
        <time>2021-09-05T12:52:09.816Z</time>
      </trkpt>
      <trkpt lat="45.91601" lon="5.60611">
        <ele>881</ele>
        <time>2021-09-05T12:52:14.814Z</time>
      </trkpt>
      <trkpt lat="45.91603" lon="5.60603">
        <ele>881</ele>
        <time>2021-09-05T12:52:18.836Z</time>
      </trkpt>
      <trkpt lat="45.91604" lon="5.60593">
        <ele>876</ele>
        <time>2021-09-05T12:52:23.810Z</time>
      </trkpt>
      <trkpt lat="45.91604" lon="5.60584">
        <ele>876</ele>
        <time>2021-09-05T12:52:28.818Z</time>
      </trkpt>
      <trkpt lat="45.91603" lon="5.60574">
        <ele>876</ele>
        <time>2021-09-05T12:52:33.818Z</time>
      </trkpt>
      <trkpt lat="45.91601" lon="5.60566">
        <ele>872</ele>
        <time>2021-09-05T12:52:38.844Z</time>
      </trkpt>
      <trkpt lat="45.91598" lon="5.60558">
        <ele>872</ele>
        <time>2021-09-05T12:52:43.813Z</time>
      </trkpt>
      <trkpt lat="45.91596" lon="5.6055">
        <ele>875</ele>
        <time>2021-09-05T12:52:47.864Z</time>
      </trkpt>
      <trkpt lat="45.91593" lon="5.60541">
        <ele>872</ele>
        <time>2021-09-05T12:52:52.814Z</time>
      </trkpt>
      <trkpt lat="45.9159" lon="5.60534">
        <ele>872</ele>
        <time>2021-09-05T12:52:56.813Z</time>
      </trkpt>
      <trkpt lat="45.91587" lon="5.60526">
        <ele>872</ele>
        <time>2021-09-05T12:53:01.812Z</time>
      </trkpt>
      <trkpt lat="45.91584" lon="5.6052">
        <ele>872</ele>
        <time>2021-09-05T12:53:06.819Z</time>
      </trkpt>
      <trkpt lat="45.91579" lon="5.60514">
        <ele>872</ele>
        <time>2021-09-05T12:53:11.806Z</time>
      </trkpt>
      <trkpt lat="45.91576" lon="5.60509">
        <ele>869</ele>
        <time>2021-09-05T12:53:15.810Z</time>
      </trkpt>
      <trkpt lat="45.91571" lon="5.60503">
        <ele>869</ele>
        <time>2021-09-05T12:53:20.789Z</time>
      </trkpt>
      <trkpt lat="45.91567" lon="5.60498">
        <ele>870</ele>
        <time>2021-09-05T12:53:24.808Z</time>
      </trkpt>
      <trkpt lat="45.91563" lon="5.60491">
        <ele>870</ele>
        <time>2021-09-05T12:53:29.822Z</time>
      </trkpt>
      <trkpt lat="45.91559" lon="5.60484">
        <ele>865</ele>
        <time>2021-09-05T12:53:33.866Z</time>
      </trkpt>
      <trkpt lat="45.91555" lon="5.60476">
        <ele>865</ele>
        <time>2021-09-05T12:53:38.867Z</time>
      </trkpt>
      <trkpt lat="45.9155" lon="5.60469">
        <ele>865</ele>
        <time>2021-09-05T12:53:43.805Z</time>
      </trkpt>
      <trkpt lat="45.91545" lon="5.60463">
        <ele>865</ele>
        <time>2021-09-05T12:53:48.819Z</time>
      </trkpt>
      <trkpt lat="45.91541" lon="5.60457">
        <ele>863</ele>
        <time>2021-09-05T12:53:52.846Z</time>
      </trkpt>
      <trkpt lat="45.91538" lon="5.60451">
        <ele>863</ele>
        <time>2021-09-05T12:53:56.853Z</time>
      </trkpt>
      <trkpt lat="45.91533" lon="5.60444">
        <ele>863</ele>
        <time>2021-09-05T12:54:01.852Z</time>
      </trkpt>
      <trkpt lat="45.91528" lon="5.60437">
        <ele>863</ele>
        <time>2021-09-05T12:54:06.786Z</time>
      </trkpt>
      <trkpt lat="45.91525" lon="5.60432">
        <ele>863</ele>
        <time>2021-09-05T12:54:10.843Z</time>
      </trkpt>
      <trkpt lat="45.91521" lon="5.60425">
        <ele>861</ele>
        <time>2021-09-05T12:54:15.816Z</time>
      </trkpt>
      <trkpt lat="45.91517" lon="5.60417">
        <ele>861</ele>
        <time>2021-09-05T12:54:20.814Z</time>
      </trkpt>
      <trkpt lat="45.91514" lon="5.6041">
        <ele>861</ele>
        <time>2021-09-05T12:54:25.779Z</time>
      </trkpt>
      <trkpt lat="45.91513" lon="5.60403">
        <ele>865</ele>
        <time>2021-09-05T12:54:29.814Z</time>
      </trkpt>
      <trkpt lat="45.91512" lon="5.60396">
        <ele>863</ele>
        <time>2021-09-05T12:54:33.827Z</time>
      </trkpt>
      <trkpt lat="45.91511" lon="5.60388">
        <ele>863</ele>
        <time>2021-09-05T12:54:37.856Z</time>
      </trkpt>
      <trkpt lat="45.9151" lon="5.60379">
        <ele>863</ele>
        <time>2021-09-05T12:54:42.786Z</time>
      </trkpt>
      <trkpt lat="45.91508" lon="5.60371">
        <ele>861</ele>
        <time>2021-09-05T12:54:46.845Z</time>
      </trkpt>
      <trkpt lat="45.91507" lon="5.60363">
        <ele>861</ele>
        <time>2021-09-05T12:54:50.858Z</time>
      </trkpt>
      <trkpt lat="45.91506" lon="5.60353">
        <ele>861</ele>
        <time>2021-09-05T12:54:55.806Z</time>
      </trkpt>
      <trkpt lat="45.91504" lon="5.60345">
        <ele>858</ele>
        <time>2021-09-05T12:54:59.829Z</time>
      </trkpt>
      <trkpt lat="45.91502" lon="5.60337">
        <ele>858</ele>
        <time>2021-09-05T12:55:03.868Z</time>
      </trkpt>
      <trkpt lat="45.91501" lon="5.60327">
        <ele>858</ele>
        <time>2021-09-05T12:55:08.815Z</time>
      </trkpt>
      <trkpt lat="45.915" lon="5.60319">
        <ele>856</ele>
        <time>2021-09-05T12:55:12.820Z</time>
      </trkpt>
      <trkpt lat="45.91498" lon="5.60311">
        <ele>856</ele>
        <time>2021-09-05T12:55:16.848Z</time>
      </trkpt>
      <trkpt lat="45.91496" lon="5.60304">
        <ele>856</ele>
        <time>2021-09-05T12:55:20.843Z</time>
      </trkpt>
      <trkpt lat="45.91494" lon="5.60296">
        <ele>856</ele>
        <time>2021-09-05T12:55:25.816Z</time>
      </trkpt>
      <trkpt lat="45.91493" lon="5.60288">
        <ele>854</ele>
        <time>2021-09-05T12:55:29.842Z</time>
      </trkpt>
      <trkpt lat="45.9149" lon="5.6028">
        <ele>854</ele>
        <time>2021-09-05T12:55:34.816Z</time>
      </trkpt>
      <trkpt lat="45.91488" lon="5.60273">
        <ele>854</ele>
        <time>2021-09-05T12:55:38.845Z</time>
      </trkpt>
      <trkpt lat="45.91486" lon="5.60266">
        <ele>856</ele>
        <time>2021-09-05T12:55:42.848Z</time>
      </trkpt>
      <trkpt lat="45.91482" lon="5.60258">
        <ele>854</ele>
        <time>2021-09-05T12:55:47.848Z</time>
      </trkpt>
      <trkpt lat="45.91478" lon="5.6025">
        <ele>854</ele>
        <time>2021-09-05T12:55:52.820Z</time>
      </trkpt>
      <trkpt lat="45.91475" lon="5.60242">
        <ele>854</ele>
        <time>2021-09-05T12:55:56.845Z</time>
      </trkpt>
      <trkpt lat="45.9147" lon="5.60235">
        <ele>853</ele>
        <time>2021-09-05T12:56:01.817Z</time>
      </trkpt>
      <trkpt lat="45.91466" lon="5.60228">
        <ele>853</ele>
        <time>2021-09-05T12:56:06.788Z</time>
      </trkpt>
      <trkpt lat="45.91463" lon="5.60222">
        <ele>853</ele>
        <time>2021-09-05T12:56:10.848Z</time>
      </trkpt>
      <trkpt lat="45.91458" lon="5.60216">
        <ele>853</ele>
        <time>2021-09-05T12:56:15.816Z</time>
      </trkpt>
      <trkpt lat="45.91455" lon="5.6021">
        <ele>853</ele>
        <time>2021-09-05T12:56:19.840Z</time>
      </trkpt>
      <trkpt lat="45.9145" lon="5.60203">
        <ele>850</ele>
        <time>2021-09-05T12:56:24.820Z</time>
      </trkpt>
      <trkpt lat="45.91446" lon="5.60197">
        <ele>850</ele>
        <time>2021-09-05T12:56:38.816Z</time>
      </trkpt>
      <trkpt lat="45.91447" lon="5.60194">
        <ele>850</ele>
        <time>2021-09-05T12:56:43.828Z</time>
      </trkpt>
      <trkpt lat="45.91453" lon="5.60189">
        <ele>850</ele>
        <time>2021-09-05T12:56:48.820Z</time>
      </trkpt>
      <trkpt lat="45.91458" lon="5.60185">
        <ele>850</ele>
        <time>2021-09-05T12:56:53.803Z</time>
      </trkpt>
      <trkpt lat="45.91462" lon="5.60181">
        <ele>850</ele>
        <time>2021-09-05T12:56:57.816Z</time>
      </trkpt>
      <trkpt lat="45.91466" lon="5.60178">
        <ele>849</ele>
        <time>2021-09-05T12:57:01.847Z</time>
      </trkpt>
      <trkpt lat="45.91472" lon="5.60175">
        <ele>849</ele>
        <time>2021-09-05T12:57:06.786Z</time>
      </trkpt>
      <trkpt lat="45.91477" lon="5.60173">
        <ele>849</ele>
        <time>2021-09-05T12:57:10.813Z</time>
      </trkpt>
      <trkpt lat="45.91482" lon="5.6017">
        <ele>849</ele>
        <time>2021-09-05T12:57:15.813Z</time>
      </trkpt>
      <trkpt lat="45.91486" lon="5.60166">
        <ele>849</ele>
        <time>2021-09-05T12:57:19.846Z</time>
      </trkpt>
      <trkpt lat="45.91489" lon="5.60158">
        <ele>849</ele>
        <time>2021-09-05T12:57:24.813Z</time>
      </trkpt>
      <trkpt lat="45.91491" lon="5.60152">
        <ele>848</ele>
        <time>2021-09-05T12:57:28.826Z</time>
      </trkpt>
      <trkpt lat="45.91492" lon="5.60145">
        <ele>848</ele>
        <time>2021-09-05T12:57:32.859Z</time>
      </trkpt>
      <trkpt lat="45.91494" lon="5.60137">
        <ele>848</ele>
        <time>2021-09-05T12:57:37.838Z</time>
      </trkpt>
      <trkpt lat="45.91496" lon="5.60127">
        <ele>848</ele>
        <time>2021-09-05T12:57:42.808Z</time>
      </trkpt>
      <trkpt lat="45.91497" lon="5.6012">
        <ele>848</ele>
        <time>2021-09-05T12:57:46.847Z</time>
      </trkpt>
      <trkpt lat="45.91497" lon="5.6011">
        <ele>848</ele>
        <time>2021-09-05T12:57:51.850Z</time>
      </trkpt>
      <trkpt lat="45.91499" lon="5.601">
        <ele>848</ele>
        <time>2021-09-05T12:57:56.843Z</time>
      </trkpt>
      <trkpt lat="45.915" lon="5.60091">
        <ele>849</ele>
        <time>2021-09-05T12:58:01.812Z</time>
      </trkpt>
      <trkpt lat="45.91502" lon="5.60082">
        <ele>849</ele>
        <time>2021-09-05T12:58:06.812Z</time>
      </trkpt>
      <trkpt lat="45.91505" lon="5.60073">
        <ele>849</ele>
        <time>2021-09-05T12:58:11.817Z</time>
      </trkpt>
      <trkpt lat="45.91504" lon="5.60064">
        <ele>849</ele>
        <time>2021-09-05T12:58:16.846Z</time>
      </trkpt>
      <trkpt lat="45.91503" lon="5.60056">
        <ele>849</ele>
        <time>2021-09-05T12:58:20.853Z</time>
      </trkpt>
      <trkpt lat="45.91501" lon="5.60048">
        <ele>849</ele>
        <time>2021-09-05T12:58:24.866Z</time>
      </trkpt>
      <trkpt lat="45.915" lon="5.60039">
        <ele>849</ele>
        <time>2021-09-05T12:58:29.800Z</time>
      </trkpt>
      <trkpt lat="45.91499" lon="5.60032">
        <ele>849</ele>
        <time>2021-09-05T12:58:33.863Z</time>
      </trkpt>
      <trkpt lat="45.91498" lon="5.60022">
        <ele>849</ele>
        <time>2021-09-05T12:58:38.811Z</time>
      </trkpt>
      <trkpt lat="45.91496" lon="5.60014">
        <ele>849</ele>
        <time>2021-09-05T12:58:42.850Z</time>
      </trkpt>
      <trkpt lat="45.91495" lon="5.60004">
        <ele>849</ele>
        <time>2021-09-05T12:58:47.807Z</time>
      </trkpt>
      <trkpt lat="45.91494" lon="5.59994">
        <ele>849</ele>
        <time>2021-09-05T12:58:52.809Z</time>
      </trkpt>
      <trkpt lat="45.91493" lon="5.59985">
        <ele>847</ele>
        <time>2021-09-05T12:58:56.815Z</time>
      </trkpt>
      <trkpt lat="45.91492" lon="5.59977">
        <ele>847</ele>
        <time>2021-09-05T12:59:00.843Z</time>
      </trkpt>
      <trkpt lat="45.91488" lon="5.59952">
        <ele>846</ele>
        <time>2021-09-05T12:59:05.807Z</time>
      </trkpt>
      <trkpt lat="45.91484" lon="5.59924">
        <ele>849</ele>
        <time>2021-09-05T12:59:09.818Z</time>
      </trkpt>
      <trkpt lat="45.91478" lon="5.59889">
        <ele>849</ele>
        <time>2021-09-05T12:59:14.817Z</time>
      </trkpt>
      <trkpt lat="45.91473" lon="5.59855">
        <ele>850</ele>
        <time>2021-09-05T12:59:19.820Z</time>
      </trkpt>
      <trkpt lat="45.91468" lon="5.59822">
        <ele>849</ele>
        <time>2021-09-05T12:59:24.818Z</time>
      </trkpt>
      <trkpt lat="45.91466" lon="5.59799">
        <ele>851</ele>
        <time>2021-09-05T12:59:28.837Z</time>
      </trkpt>
      <trkpt lat="45.91464" lon="5.59783">
        <ele>852</ele>
        <time>2021-09-05T12:59:33.819Z</time>
      </trkpt>
      <trkpt lat="45.91466" lon="5.59774">
        <ele>852</ele>
        <time>2021-09-05T12:59:38.813Z</time>
      </trkpt>
      <trkpt lat="45.91468" lon="5.59766">
        <ele>852</ele>
        <time>2021-09-05T12:59:42.821Z</time>
      </trkpt>
      <trkpt lat="45.91479" lon="5.59744">
        <ele>855</ele>
        <time>2021-09-05T12:59:47.810Z</time>
      </trkpt>
      <trkpt lat="45.9149" lon="5.59728">
        <ele>857</ele>
        <time>2021-09-05T12:59:51.824Z</time>
      </trkpt>
      <trkpt lat="45.91507" lon="5.59714">
        <ele>857</ele>
        <time>2021-09-05T12:59:56.816Z</time>
      </trkpt>
      <trkpt lat="45.9153" lon="5.59705">
        <ele>867</ele>
        <time>2021-09-05T13:00:01.804Z</time>
      </trkpt>
      <trkpt lat="45.91547" lon="5.59698">
        <ele>870</ele>
        <time>2021-09-05T13:00:05.813Z</time>
      </trkpt>
      <trkpt lat="45.91565" lon="5.59693">
        <ele>870</ele>
        <time>2021-09-05T13:00:10.790Z</time>
      </trkpt>
      <trkpt lat="45.9157" lon="5.59692">
        <ele>868</ele>
        <time>2021-09-05T13:00:14.819Z</time>
      </trkpt>
      <trkpt lat="45.91577" lon="5.59691">
        <ele>868</ele>
        <time>2021-09-05T13:00:19.794Z</time>
      </trkpt>
      <trkpt lat="45.91583" lon="5.5969">
        <ele>868</ele>
        <time>2021-09-05T13:00:24.808Z</time>
      </trkpt>
      <trkpt lat="45.9159" lon="5.5969">
        <ele>868</ele>
        <time>2021-09-05T13:00:29.864Z</time>
      </trkpt>
      <trkpt lat="45.91595" lon="5.59689">
        <ele>868</ele>
        <time>2021-09-05T13:00:33.876Z</time>
      </trkpt>
      <trkpt lat="45.91601" lon="5.59689">
        <ele>868</ele>
        <time>2021-09-05T13:00:38.808Z</time>
      </trkpt>
      <trkpt lat="45.91606" lon="5.59688">
        <ele>868</ele>
        <time>2021-09-05T13:00:42.814Z</time>
      </trkpt>
      <trkpt lat="45.91624" lon="5.59682">
        <ele>868</ele>
        <time>2021-09-05T13:00:47.810Z</time>
      </trkpt>
      <trkpt lat="45.91644" lon="5.59679">
        <ele>874</ele>
        <time>2021-09-05T13:00:52.791Z</time>
      </trkpt>
      <trkpt lat="45.91661" lon="5.59676">
        <ele>874</ele>
        <time>2021-09-05T13:00:56.817Z</time>
      </trkpt>
      <trkpt lat="45.91681" lon="5.5967">
        <ele>870</ele>
        <time>2021-09-05T13:01:01.846Z</time>
      </trkpt>
      <trkpt lat="45.91691" lon="5.59664">
        <ele>870</ele>
        <time>2021-09-05T13:01:06.818Z</time>
      </trkpt>
      <trkpt lat="45.91695" lon="5.5966">
        <ele>870</ele>
        <time>2021-09-05T13:01:10.842Z</time>
      </trkpt>
      <trkpt lat="45.91701" lon="5.59656">
        <ele>870</ele>
        <time>2021-09-05T13:01:15.801Z</time>
      </trkpt>
      <trkpt lat="45.91708" lon="5.59653">
        <ele>870</ele>
        <time>2021-09-05T13:01:20.810Z</time>
      </trkpt>
      <trkpt lat="45.91715" lon="5.59652">
        <ele>876</ele>
        <time>2021-09-05T13:01:25.839Z</time>
      </trkpt>
      <trkpt lat="45.91724" lon="5.5965">
        <ele>876</ele>
        <time>2021-09-05T13:01:30.817Z</time>
      </trkpt>
      <trkpt lat="45.91742" lon="5.59647">
        <ele>875</ele>
        <time>2021-09-05T13:01:35.805Z</time>
      </trkpt>
      <trkpt lat="45.91759" lon="5.59645">
        <ele>875</ele>
        <time>2021-09-05T13:01:39.822Z</time>
      </trkpt>
      <trkpt lat="45.91771" lon="5.5964">
        <ele>874</ele>
        <time>2021-09-05T13:01:44.813Z</time>
      </trkpt>
      <trkpt lat="45.91772" lon="5.59633">
        <ele>874</ele>
        <time>2021-09-05T13:01:48.858Z</time>
      </trkpt>
      <trkpt lat="45.91773" lon="5.59622">
        <ele>877</ele>
        <time>2021-09-05T13:01:53.813Z</time>
      </trkpt>
      <trkpt lat="45.91776" lon="5.59613">
        <ele>877</ele>
        <time>2021-09-05T13:01:58.808Z</time>
      </trkpt>
      <trkpt lat="45.91781" lon="5.59606">
        <ele>877</ele>
        <time>2021-09-05T13:02:03.814Z</time>
      </trkpt>
      <trkpt lat="45.91785" lon="5.59597">
        <ele>877</ele>
        <time>2021-09-05T13:02:08.818Z</time>
      </trkpt>
      <trkpt lat="45.91791" lon="5.59588">
        <ele>880</ele>
        <time>2021-09-05T13:02:12.825Z</time>
      </trkpt>
      <trkpt lat="45.91802" lon="5.59566">
        <ele>882</ele>
        <time>2021-09-05T13:02:17.817Z</time>
      </trkpt>
      <trkpt lat="45.91812" lon="5.59546">
        <ele>882</ele>
        <time>2021-09-05T13:02:22.805Z</time>
      </trkpt>
      <trkpt lat="45.91823" lon="5.59536">
        <ele>888</ele>
        <time>2021-09-05T13:02:26.810Z</time>
      </trkpt>
      <trkpt lat="45.91829" lon="5.59529">
        <ele>888</ele>
        <time>2021-09-05T13:02:31.856Z</time>
      </trkpt>
      <trkpt lat="45.91827" lon="5.59536">
        <ele>888</ele>
        <time>2021-09-05T13:02:51.819Z</time>
      </trkpt>
      <trkpt lat="45.91827" lon="5.59536">
        <ele>888</ele>
        <time>2021-09-05T13:02:55.842Z</time>
      </trkpt>
      <trkpt lat="45.91831" lon="5.59539">
        <ele>888</ele>
        <time>2021-09-05T13:03:00.801Z</time>
      </trkpt>
      <trkpt lat="45.91833" lon="5.59538">
        <ele>888</ele>
        <time>2021-09-05T13:03:04.842Z</time>
      </trkpt>
      <trkpt lat="45.91837" lon="5.59537">
        <ele>888</ele>
        <time>2021-09-05T13:03:09.792Z</time>
      </trkpt>
      <trkpt lat="45.91843" lon="5.59535">
        <ele>888</ele>
        <time>2021-09-05T13:03:13.842Z</time>
      </trkpt>
      <trkpt lat="45.9185" lon="5.59535">
        <ele>892</ele>
        <time>2021-09-05T13:03:18.840Z</time>
      </trkpt>
      <trkpt lat="45.91857" lon="5.59531">
        <ele>892</ele>
        <time>2021-09-05T13:03:23.812Z</time>
      </trkpt>
      <trkpt lat="45.91868" lon="5.59525">
        <ele>892</ele>
        <time>2021-09-05T13:03:28.813Z</time>
      </trkpt>
      <trkpt lat="45.91874" lon="5.59521">
        <ele>892</ele>
        <time>2021-09-05T13:03:32.837Z</time>
      </trkpt>
      <trkpt lat="45.91882" lon="5.59523">
        <ele>895</ele>
        <time>2021-09-05T13:03:37.838Z</time>
      </trkpt>
      <trkpt lat="45.91889" lon="5.59526">
        <ele>895</ele>
        <time>2021-09-05T13:03:42.802Z</time>
      </trkpt>
      <trkpt lat="45.91893" lon="5.59527">
        <ele>895</ele>
        <time>2021-09-05T13:03:46.833Z</time>
      </trkpt>
      <trkpt lat="45.91902" lon="5.59524">
        <ele>895</ele>
        <time>2021-09-05T13:03:51.819Z</time>
      </trkpt>
      <trkpt lat="45.9191" lon="5.5952">
        <ele>895</ele>
        <time>2021-09-05T13:03:56.810Z</time>
      </trkpt>
      <trkpt lat="45.91917" lon="5.59518">
        <ele>895</ele>
        <time>2021-09-05T13:04:01.850Z</time>
      </trkpt>
      <trkpt lat="45.91922" lon="5.59517">
        <ele>895</ele>
        <time>2021-09-05T13:04:06.819Z</time>
      </trkpt>
      <trkpt lat="45.91929" lon="5.59517">
        <ele>895</ele>
        <time>2021-09-05T13:04:11.777Z</time>
      </trkpt>
      <trkpt lat="45.91933" lon="5.59517">
        <ele>896</ele>
        <time>2021-09-05T13:04:15.823Z</time>
      </trkpt>
      <trkpt lat="45.91939" lon="5.59519">
        <ele>896</ele>
        <time>2021-09-05T13:04:20.810Z</time>
      </trkpt>
      <trkpt lat="45.91945" lon="5.59522">
        <ele>896</ele>
        <time>2021-09-05T13:04:25.825Z</time>
      </trkpt>
      <trkpt lat="45.91951" lon="5.59528">
        <ele>896</ele>
        <time>2021-09-05T13:04:30.817Z</time>
      </trkpt>
      <trkpt lat="45.91957" lon="5.59527">
        <ele>896</ele>
        <time>2021-09-05T13:04:35.847Z</time>
      </trkpt>
      <trkpt lat="45.91963" lon="5.59529">
        <ele>899</ele>
        <time>2021-09-05T13:04:40.808Z</time>
      </trkpt>
      <trkpt lat="45.91969" lon="5.5953">
        <ele>899</ele>
        <time>2021-09-05T13:04:45.813Z</time>
      </trkpt>
      <trkpt lat="45.91973" lon="5.5953">
        <ele>899</ele>
        <time>2021-09-05T13:04:49.821Z</time>
      </trkpt>
      <trkpt lat="45.91988" lon="5.59529">
        <ele>899</ele>
        <time>2021-09-05T13:04:54.810Z</time>
      </trkpt>
      <trkpt lat="45.92001" lon="5.59524">
        <ele>899</ele>
        <time>2021-09-05T13:04:58.808Z</time>
      </trkpt>
      <trkpt lat="45.92007" lon="5.59523">
        <ele>899</ele>
        <time>2021-09-05T13:05:03.807Z</time>
      </trkpt>
      <trkpt lat="45.92015" lon="5.59525">
        <ele>898</ele>
        <time>2021-09-05T13:05:08.813Z</time>
      </trkpt>
      <trkpt lat="45.92023" lon="5.59526">
        <ele>898</ele>
        <time>2021-09-05T13:05:13.839Z</time>
      </trkpt>
      <trkpt lat="45.92032" lon="5.59525">
        <ele>898</ele>
        <time>2021-09-05T13:05:18.814Z</time>
      </trkpt>
      <trkpt lat="45.92051" lon="5.59526">
        <ele>895</ele>
        <time>2021-09-05T13:05:23.799Z</time>
      </trkpt>
      <trkpt lat="45.92069" lon="5.59526">
        <ele>895</ele>
        <time>2021-09-05T13:05:27.858Z</time>
      </trkpt>
      <trkpt lat="45.9209" lon="5.59519">
        <ele>895</ele>
        <time>2021-09-05T13:05:32.842Z</time>
      </trkpt>
      <trkpt lat="45.92105" lon="5.59514">
        <ele>897</ele>
        <time>2021-09-05T13:05:37.812Z</time>
      </trkpt>
      <trkpt lat="45.92113" lon="5.59516">
        <ele>897</ele>
        <time>2021-09-05T13:05:42.834Z</time>
      </trkpt>
      <trkpt lat="45.9212" lon="5.59517">
        <ele>897</ele>
        <time>2021-09-05T13:05:47.807Z</time>
      </trkpt>
      <trkpt lat="45.92126" lon="5.59517">
        <ele>896</ele>
        <time>2021-09-05T13:05:51.823Z</time>
      </trkpt>
      <trkpt lat="45.92132" lon="5.59515">
        <ele>896</ele>
        <time>2021-09-05T13:05:56.813Z</time>
      </trkpt>
      <trkpt lat="45.9214" lon="5.59514">
        <ele>901</ele>
        <time>2021-09-05T13:06:01.811Z</time>
      </trkpt>
      <trkpt lat="45.92149" lon="5.59515">
        <ele>896</ele>
        <time>2021-09-05T13:06:06.803Z</time>
      </trkpt>
      <trkpt lat="45.92157" lon="5.5951">
        <ele>899</ele>
        <time>2021-09-05T13:06:10.825Z</time>
      </trkpt>
      <trkpt lat="45.92164" lon="5.59505">
        <ele>899</ele>
        <time>2021-09-05T13:06:15.814Z</time>
      </trkpt>
      <trkpt lat="45.9217" lon="5.59501">
        <ele>899</ele>
        <time>2021-09-05T13:06:20.810Z</time>
      </trkpt>
      <trkpt lat="45.92179" lon="5.59502">
        <ele>899</ele>
        <time>2021-09-05T13:06:24.815Z</time>
      </trkpt>
      <trkpt lat="45.9219" lon="5.59498">
        <ele>896</ele>
        <time>2021-09-05T13:06:29.813Z</time>
      </trkpt>
      <trkpt lat="45.92211" lon="5.5949">
        <ele>898</ele>
        <time>2021-09-05T13:06:34.808Z</time>
      </trkpt>
      <trkpt lat="45.92222" lon="5.59486">
        <ele>898</ele>
        <time>2021-09-05T13:06:38.813Z</time>
      </trkpt>
      <trkpt lat="45.92227" lon="5.59486">
        <ele>904</ele>
        <time>2021-09-05T13:06:42.882Z</time>
      </trkpt>
      <trkpt lat="45.92236" lon="5.59489">
        <ele>898</ele>
        <time>2021-09-05T13:06:47.819Z</time>
      </trkpt>
      <trkpt lat="45.92243" lon="5.59494">
        <ele>899</ele>
        <time>2021-09-05T13:06:52.826Z</time>
      </trkpt>
      <trkpt lat="45.92252" lon="5.595">
        <ele>899</ele>
        <time>2021-09-05T13:06:57.800Z</time>
      </trkpt>
      <trkpt lat="45.92259" lon="5.59502">
        <ele>899</ele>
        <time>2021-09-05T13:07:01.847Z</time>
      </trkpt>
      <trkpt lat="45.92271" lon="5.59503">
        <ele>896</ele>
        <time>2021-09-05T13:07:06.818Z</time>
      </trkpt>
      <trkpt lat="45.92276" lon="5.59503">
        <ele>896</ele>
        <time>2021-09-05T13:07:10.867Z</time>
      </trkpt>
      <trkpt lat="45.92283" lon="5.59504">
        <ele>896</ele>
        <time>2021-09-05T13:07:15.805Z</time>
      </trkpt>
      <trkpt lat="45.92286" lon="5.59505">
        <ele>896</ele>
        <time>2021-09-05T13:07:19.817Z</time>
      </trkpt>
      <trkpt lat="45.92291" lon="5.59505">
        <ele>896</ele>
        <time>2021-09-05T13:07:24.799Z</time>
      </trkpt>
      <trkpt lat="45.92295" lon="5.59496">
        <ele>893</ele>
        <time>2021-09-05T13:07:29.821Z</time>
      </trkpt>
      <trkpt lat="45.92297" lon="5.59485">
        <ele>897</ele>
        <time>2021-09-05T13:07:34.808Z</time>
      </trkpt>
      <trkpt lat="45.92299" lon="5.59478">
        <ele>897</ele>
        <time>2021-09-05T13:07:38.819Z</time>
      </trkpt>
      <trkpt lat="45.92301" lon="5.59469">
        <ele>897</ele>
        <time>2021-09-05T13:07:43.813Z</time>
      </trkpt>
      <trkpt lat="45.923" lon="5.59461">
        <ele>897</ele>
        <time>2021-09-05T13:07:47.820Z</time>
      </trkpt>
      <trkpt lat="45.92299" lon="5.59454">
        <ele>902</ele>
        <time>2021-09-05T13:07:51.850Z</time>
      </trkpt>
      <trkpt lat="45.92301" lon="5.59447">
        <ele>902</ele>
        <time>2021-09-05T13:07:56.842Z</time>
      </trkpt>
      <trkpt lat="45.92302" lon="5.59438">
        <ele>902</ele>
        <time>2021-09-05T13:08:01.818Z</time>
      </trkpt>
      <trkpt lat="45.92303" lon="5.59429">
        <ele>907</ele>
        <time>2021-09-05T13:08:06.821Z</time>
      </trkpt>
      <trkpt lat="45.92306" lon="5.59419">
        <ele>907</ele>
        <time>2021-09-05T13:08:11.846Z</time>
      </trkpt>
      <trkpt lat="45.92308" lon="5.5941">
        <ele>907</ele>
        <time>2021-09-05T13:08:16.801Z</time>
      </trkpt>
      <trkpt lat="45.9231" lon="5.59401">
        <ele>914</ele>
        <time>2021-09-05T13:08:21.787Z</time>
      </trkpt>
      <trkpt lat="45.92314" lon="5.59394">
        <ele>914</ele>
        <time>2021-09-05T13:08:25.839Z</time>
      </trkpt>
      <trkpt lat="45.92318" lon="5.59385">
        <ele>914</ele>
        <time>2021-09-05T13:08:30.811Z</time>
      </trkpt>
      <trkpt lat="45.9232" lon="5.59377">
        <ele>910</ele>
        <time>2021-09-05T13:08:34.839Z</time>
      </trkpt>
      <trkpt lat="45.92325" lon="5.59369">
        <ele>916</ele>
        <time>2021-09-05T13:08:39.808Z</time>
      </trkpt>
      <trkpt lat="45.92337" lon="5.59359">
        <ele>916</ele>
        <time>2021-09-05T13:08:43.842Z</time>
      </trkpt>
      <trkpt lat="45.92349" lon="5.59348">
        <ele>914</ele>
        <time>2021-09-05T13:08:48.772Z</time>
      </trkpt>
      <trkpt lat="45.92354" lon="5.59344">
        <ele>920</ele>
        <time>2021-09-05T13:08:52.775Z</time>
      </trkpt>
      <trkpt lat="45.92359" lon="5.59341">
        <ele>920</ele>
        <time>2021-09-05T13:08:56.783Z</time>
      </trkpt>
      <trkpt lat="45.92366" lon="5.5934">
        <ele>920</ele>
        <time>2021-09-05T13:09:01.782Z</time>
      </trkpt>
      <trkpt lat="45.92371" lon="5.59337">
        <ele>920</ele>
        <time>2021-09-05T13:09:05.787Z</time>
      </trkpt>
      <trkpt lat="45.92377" lon="5.59333">
        <ele>921</ele>
        <time>2021-09-05T13:09:10.784Z</time>
      </trkpt>
      <trkpt lat="45.92381" lon="5.59328">
        <ele>921</ele>
        <time>2021-09-05T13:09:14.793Z</time>
      </trkpt>
      <trkpt lat="45.92387" lon="5.59324">
        <ele>921</ele>
        <time>2021-09-05T13:09:19.781Z</time>
      </trkpt>
      <trkpt lat="45.92391" lon="5.5932">
        <ele>921</ele>
        <time>2021-09-05T13:09:23.796Z</time>
      </trkpt>
      <trkpt lat="45.92399" lon="5.59316">
        <ele>930</ele>
        <time>2021-09-05T13:09:28.786Z</time>
      </trkpt>
      <trkpt lat="45.92404" lon="5.59312">
        <ele>929</ele>
        <time>2021-09-05T13:09:33.779Z</time>
      </trkpt>
      <trkpt lat="45.9241" lon="5.59308">
        <ele>929</ele>
        <time>2021-09-05T13:09:38.780Z</time>
      </trkpt>
      <trkpt lat="45.92416" lon="5.59303">
        <ele>929</ele>
        <time>2021-09-05T13:09:43.779Z</time>
      </trkpt>
      <trkpt lat="45.92424" lon="5.59301">
        <ele>929</ele>
        <time>2021-09-05T13:09:48.786Z</time>
      </trkpt>
      <trkpt lat="45.9243" lon="5.59299">
        <ele>929</ele>
        <time>2021-09-05T13:09:53.784Z</time>
      </trkpt>
      <trkpt lat="45.92437" lon="5.59294">
        <ele>928</ele>
        <time>2021-09-05T13:09:58.789Z</time>
      </trkpt>
      <trkpt lat="45.92442" lon="5.5929">
        <ele>935</ele>
        <time>2021-09-05T13:10:03.779Z</time>
      </trkpt>
      <trkpt lat="45.92447" lon="5.59285">
        <ele>935</ele>
        <time>2021-09-05T13:10:08.780Z</time>
      </trkpt>
      <trkpt lat="45.92451" lon="5.59282">
        <ele>935</ele>
        <time>2021-09-05T13:10:13.782Z</time>
      </trkpt>
      <trkpt lat="45.92455" lon="5.59277">
        <ele>935</ele>
        <time>2021-09-05T13:10:18.780Z</time>
      </trkpt>
      <trkpt lat="45.92457" lon="5.59272">
        <ele>935</ele>
        <time>2021-09-05T13:10:22.785Z</time>
      </trkpt>
      <trkpt lat="45.92461" lon="5.59265">
        <ele>936</ele>
        <time>2021-09-05T13:10:27.783Z</time>
      </trkpt>
      <trkpt lat="45.92464" lon="5.5926">
        <ele>939</ele>
        <time>2021-09-05T13:10:31.789Z</time>
      </trkpt>
      <trkpt lat="45.92469" lon="5.59255">
        <ele>939</ele>
        <time>2021-09-05T13:10:36.782Z</time>
      </trkpt>
      <trkpt lat="45.92475" lon="5.59252">
        <ele>939</ele>
        <time>2021-09-05T13:10:41.783Z</time>
      </trkpt>
      <trkpt lat="45.9248" lon="5.5925">
        <ele>939</ele>
        <time>2021-09-05T13:10:46.787Z</time>
      </trkpt>
      <trkpt lat="45.92487" lon="5.59247">
        <ele>941</ele>
        <time>2021-09-05T13:10:51.785Z</time>
      </trkpt>
      <trkpt lat="45.92494" lon="5.59246">
        <ele>941</ele>
        <time>2021-09-05T13:10:56.784Z</time>
      </trkpt>
      <trkpt lat="45.92499" lon="5.59244">
        <ele>941</ele>
        <time>2021-09-05T13:11:00.787Z</time>
      </trkpt>
      <trkpt lat="45.92505" lon="5.59242">
        <ele>941</ele>
        <time>2021-09-05T13:11:05.778Z</time>
      </trkpt>
      <trkpt lat="45.92509" lon="5.59242">
        <ele>941</ele>
        <time>2021-09-05T13:11:09.785Z</time>
      </trkpt>
      <trkpt lat="45.92516" lon="5.59243">
        <ele>942</ele>
        <time>2021-09-05T13:11:14.779Z</time>
      </trkpt>
      <trkpt lat="45.92523" lon="5.59239">
        <ele>942</ele>
        <time>2021-09-05T13:11:19.783Z</time>
      </trkpt>
      <trkpt lat="45.92534" lon="5.59234">
        <ele>946</ele>
        <time>2021-09-05T13:11:24.780Z</time>
      </trkpt>
      <trkpt lat="45.92547" lon="5.59227">
        <ele>946</ele>
        <time>2021-09-05T13:11:29.779Z</time>
      </trkpt>
      <trkpt lat="45.92553" lon="5.59223">
        <ele>946</ele>
        <time>2021-09-05T13:11:34.782Z</time>
      </trkpt>
      <trkpt lat="45.92559" lon="5.59219">
        <ele>946</ele>
        <time>2021-09-05T13:11:39.780Z</time>
      </trkpt>
      <trkpt lat="45.92565" lon="5.59217">
        <ele>946</ele>
        <time>2021-09-05T13:11:43.786Z</time>
      </trkpt>
      <trkpt lat="45.92574" lon="5.59213">
        <ele>948</ele>
        <time>2021-09-05T13:11:48.780Z</time>
      </trkpt>
      <trkpt lat="45.92581" lon="5.59211">
        <ele>948</ele>
        <time>2021-09-05T13:11:53.793Z</time>
      </trkpt>
      <trkpt lat="45.92585" lon="5.5921">
        <ele>948</ele>
        <time>2021-09-05T13:11:58.791Z</time>
      </trkpt>
      <trkpt lat="45.92592" lon="5.59209">
        <ele>948</ele>
        <time>2021-09-05T13:12:03.776Z</time>
      </trkpt>
      <trkpt lat="45.92599" lon="5.59206">
        <ele>959</ele>
        <time>2021-09-05T13:12:08.785Z</time>
      </trkpt>
      <trkpt lat="45.92603" lon="5.59203">
        <ele>959</ele>
        <time>2021-09-05T13:12:13.789Z</time>
      </trkpt>
      <trkpt lat="45.92609" lon="5.59202">
        <ele>959</ele>
        <time>2021-09-05T13:12:18.782Z</time>
      </trkpt>
      <trkpt lat="45.92615" lon="5.59201">
        <ele>959</ele>
        <time>2021-09-05T13:12:23.790Z</time>
      </trkpt>
      <trkpt lat="45.92622" lon="5.592">
        <ele>959</ele>
        <time>2021-09-05T13:12:28.789Z</time>
      </trkpt>
      <trkpt lat="45.92628" lon="5.59197">
        <ele>957</ele>
        <time>2021-09-05T13:12:33.782Z</time>
      </trkpt>
      <trkpt lat="45.92626" lon="5.59183">
        <ele>957</ele>
        <time>2021-09-05T13:12:38.792Z</time>
      </trkpt>
      <trkpt lat="45.92623" lon="5.59177">
        <ele>964</ele>
        <time>2021-09-05T13:12:43.775Z</time>
      </trkpt>
      <trkpt lat="45.9262" lon="5.59166">
        <ele>964</ele>
        <time>2021-09-05T13:12:48.787Z</time>
      </trkpt>
      <trkpt lat="45.9262" lon="5.59155">
        <ele>964</ele>
        <time>2021-09-05T13:12:53.788Z</time>
      </trkpt>
      <trkpt lat="45.92621" lon="5.59148">
        <ele>964</ele>
        <time>2021-09-05T13:12:57.865Z</time>
      </trkpt>
      <trkpt lat="45.92624" lon="5.5914">
        <ele>964</ele>
        <time>2021-09-05T13:13:02.809Z</time>
      </trkpt>
      <trkpt lat="45.92628" lon="5.59134">
        <ele>964</ele>
        <time>2021-09-05T13:13:06.813Z</time>
      </trkpt>
      <trkpt lat="45.92631" lon="5.59129">
        <ele>964</ele>
        <time>2021-09-05T13:13:10.835Z</time>
      </trkpt>
      <trkpt lat="45.92635" lon="5.59123">
        <ele>965</ele>
        <time>2021-09-05T13:13:15.790Z</time>
      </trkpt>
      <trkpt lat="45.92638" lon="5.59117">
        <ele>965</ele>
        <time>2021-09-05T13:13:19.837Z</time>
      </trkpt>
      <trkpt lat="45.92638" lon="5.59107">
        <ele>965</ele>
        <time>2021-09-05T13:13:24.790Z</time>
      </trkpt>
      <trkpt lat="45.9264" lon="5.591">
        <ele>965</ele>
        <time>2021-09-05T13:13:29.812Z</time>
      </trkpt>
      <trkpt lat="45.92646" lon="5.59096">
        <ele>965</ele>
        <time>2021-09-05T13:13:34.819Z</time>
      </trkpt>
      <trkpt lat="45.9265" lon="5.5909">
        <ele>965</ele>
        <time>2021-09-05T13:13:38.855Z</time>
      </trkpt>
      <trkpt lat="45.92653" lon="5.59083">
        <ele>965</ele>
        <time>2021-09-05T13:13:43.809Z</time>
      </trkpt>
      <trkpt lat="45.92656" lon="5.59079">
        <ele>965</ele>
        <time>2021-09-05T13:13:47.813Z</time>
      </trkpt>
      <trkpt lat="45.92661" lon="5.59074">
        <ele>965</ele>
        <time>2021-09-05T13:13:52.840Z</time>
      </trkpt>
      <trkpt lat="45.92667" lon="5.59066">
        <ele>965</ele>
        <time>2021-09-05T13:13:57.805Z</time>
      </trkpt>
      <trkpt lat="45.92674" lon="5.59057">
        <ele>965</ele>
        <time>2021-09-05T13:14:01.845Z</time>
      </trkpt>
      <trkpt lat="45.92684" lon="5.59045">
        <ele>964</ele>
        <time>2021-09-05T13:14:06.774Z</time>
      </trkpt>
      <trkpt lat="45.92686" lon="5.59038">
        <ele>966</ele>
        <time>2021-09-05T13:14:11.778Z</time>
      </trkpt>
      <trkpt lat="45.92689" lon="5.59032">
        <ele>966</ele>
        <time>2021-09-05T13:14:16.773Z</time>
      </trkpt>
      <trkpt lat="45.92689" lon="5.59025">
        <ele>966</ele>
        <time>2021-09-05T13:14:20.783Z</time>
      </trkpt>
      <trkpt lat="45.92692" lon="5.59017">
        <ele>966</ele>
        <time>2021-09-05T13:14:25.785Z</time>
      </trkpt>
      <trkpt lat="45.92695" lon="5.59011">
        <ele>968</ele>
        <time>2021-09-05T13:14:30.776Z</time>
      </trkpt>
      <trkpt lat="45.92697" lon="5.59003">
        <ele>968</ele>
        <time>2021-09-05T13:14:34.779Z</time>
      </trkpt>
      <trkpt lat="45.92701" lon="5.58998">
        <ele>968</ele>
        <time>2021-09-05T13:14:38.788Z</time>
      </trkpt>
      <trkpt lat="45.92705" lon="5.58991">
        <ele>968</ele>
        <time>2021-09-05T13:14:43.775Z</time>
      </trkpt>
      <trkpt lat="45.92711" lon="5.58986">
        <ele>970</ele>
        <time>2021-09-05T13:14:48.790Z</time>
      </trkpt>
      <trkpt lat="45.92717" lon="5.58982">
        <ele>972</ele>
        <time>2021-09-05T13:14:53.784Z</time>
      </trkpt>
      <trkpt lat="45.92722" lon="5.58978">
        <ele>972</ele>
        <time>2021-09-05T13:14:58.782Z</time>
      </trkpt>
      <trkpt lat="45.9273" lon="5.58973">
        <ele>972</ele>
        <time>2021-09-05T13:15:03.778Z</time>
      </trkpt>
      <trkpt lat="45.92738" lon="5.58972">
        <ele>972</ele>
        <time>2021-09-05T13:15:08.788Z</time>
      </trkpt>
      <trkpt lat="45.92745" lon="5.5897">
        <ele>972</ele>
        <time>2021-09-05T13:15:13.774Z</time>
      </trkpt>
      <trkpt lat="45.92751" lon="5.58971">
        <ele>972</ele>
        <time>2021-09-05T13:15:18.788Z</time>
      </trkpt>
      <trkpt lat="45.92758" lon="5.58972">
        <ele>972</ele>
        <time>2021-09-05T13:15:23.780Z</time>
      </trkpt>
      <trkpt lat="45.92767" lon="5.58971">
        <ele>972</ele>
        <time>2021-09-05T13:15:28.784Z</time>
      </trkpt>
      <trkpt lat="45.92775" lon="5.5897">
        <ele>972</ele>
        <time>2021-09-05T13:15:33.778Z</time>
      </trkpt>
      <trkpt lat="45.9278" lon="5.5897">
        <ele>972</ele>
        <time>2021-09-05T13:15:37.788Z</time>
      </trkpt>
      <trkpt lat="45.92784" lon="5.58969">
        <ele>972</ele>
        <time>2021-09-05T13:15:42.778Z</time>
      </trkpt>
      <trkpt lat="45.92789" lon="5.58969">
        <ele>972</ele>
        <time>2021-09-05T13:15:46.781Z</time>
      </trkpt>
      <trkpt lat="45.92795" lon="5.5897">
        <ele>972</ele>
        <time>2021-09-05T13:15:51.778Z</time>
      </trkpt>
      <trkpt lat="45.92798" lon="5.58972">
        <ele>972</ele>
        <time>2021-09-05T13:15:56.774Z</time>
      </trkpt>
      <trkpt lat="45.92801" lon="5.58974">
        <ele>972</ele>
        <time>2021-09-05T13:16:00.786Z</time>
      </trkpt>
      <trkpt lat="45.92808" lon="5.58977">
        <ele>972</ele>
        <time>2021-09-05T13:16:05.784Z</time>
      </trkpt>
      <trkpt lat="45.92814" lon="5.58979">
        <ele>972</ele>
        <time>2021-09-05T13:16:09.791Z</time>
      </trkpt>
      <trkpt lat="45.9282" lon="5.5898">
        <ele>971</ele>
        <time>2021-09-05T13:16:14.789Z</time>
      </trkpt>
      <trkpt lat="45.92827" lon="5.58977">
        <ele>971</ele>
        <time>2021-09-05T13:16:19.778Z</time>
      </trkpt>
      <trkpt lat="45.92831" lon="5.58972">
        <ele>971</ele>
        <time>2021-09-05T13:16:23.791Z</time>
      </trkpt>
      <trkpt lat="45.92839" lon="5.58967">
        <ele>971</ele>
        <time>2021-09-05T13:16:28.788Z</time>
      </trkpt>
      <trkpt lat="45.92845" lon="5.58965">
        <ele>971</ele>
        <time>2021-09-05T13:16:33.789Z</time>
      </trkpt>
      <trkpt lat="45.92853" lon="5.58964">
        <ele>971</ele>
        <time>2021-09-05T13:16:38.787Z</time>
      </trkpt>
      <trkpt lat="45.9286" lon="5.58963">
        <ele>971</ele>
        <time>2021-09-05T13:16:43.778Z</time>
      </trkpt>
      <trkpt lat="45.92866" lon="5.58966">
        <ele>971</ele>
        <time>2021-09-05T13:16:48.785Z</time>
      </trkpt>
      <trkpt lat="45.92871" lon="5.58968">
        <ele>971</ele>
        <time>2021-09-05T13:16:53.781Z</time>
      </trkpt>
      <trkpt lat="45.92876" lon="5.58972">
        <ele>971</ele>
        <time>2021-09-05T13:16:58.778Z</time>
      </trkpt>
      <trkpt lat="45.92879" lon="5.58975">
        <ele>971</ele>
        <time>2021-09-05T13:17:02.784Z</time>
      </trkpt>
      <trkpt lat="45.92885" lon="5.58977">
        <ele>971</ele>
        <time>2021-09-05T13:17:06.779Z</time>
      </trkpt>
      <trkpt lat="45.92891" lon="5.58982">
        <ele>971</ele>
        <time>2021-09-05T13:17:11.777Z</time>
      </trkpt>
      <trkpt lat="45.92896" lon="5.58987">
        <ele>972</ele>
        <time>2021-09-05T13:17:16.782Z</time>
      </trkpt>
      <trkpt lat="45.92903" lon="5.5899">
        <ele>972</ele>
        <time>2021-09-05T13:17:21.777Z</time>
      </trkpt>
      <trkpt lat="45.92909" lon="5.58991">
        <ele>971</ele>
        <time>2021-09-05T13:17:25.778Z</time>
      </trkpt>
      <trkpt lat="45.92915" lon="5.58993">
        <ele>971</ele>
        <time>2021-09-05T13:17:29.788Z</time>
      </trkpt>
      <trkpt lat="45.92921" lon="5.58992">
        <ele>971</ele>
        <time>2021-09-05T13:17:34.778Z</time>
      </trkpt>
      <trkpt lat="45.92927" lon="5.58993">
        <ele>971</ele>
        <time>2021-09-05T13:17:39.784Z</time>
      </trkpt>
      <trkpt lat="45.92932" lon="5.58994">
        <ele>970</ele>
        <time>2021-09-05T13:17:44.784Z</time>
      </trkpt>
      <trkpt lat="45.92939" lon="5.58996">
        <ele>970</ele>
        <time>2021-09-05T13:17:49.784Z</time>
      </trkpt>
      <trkpt lat="45.92946" lon="5.58996">
        <ele>970</ele>
        <time>2021-09-05T13:17:54.781Z</time>
      </trkpt>
      <trkpt lat="45.92951" lon="5.58997">
        <ele>970</ele>
        <time>2021-09-05T13:17:58.783Z</time>
      </trkpt>
      <trkpt lat="45.92957" lon="5.58998">
        <ele>970</ele>
        <time>2021-09-05T13:18:03.787Z</time>
      </trkpt>
      <trkpt lat="45.92964" lon="5.58999">
        <ele>968</ele>
        <time>2021-09-05T13:18:08.778Z</time>
      </trkpt>
      <trkpt lat="45.92969" lon="5.58998">
        <ele>968</ele>
        <time>2021-09-05T13:18:12.783Z</time>
      </trkpt>
      <trkpt lat="45.92975" lon="5.58997">
        <ele>968</ele>
        <time>2021-09-05T13:18:17.774Z</time>
      </trkpt>
      <trkpt lat="45.92979" lon="5.58997">
        <ele>968</ele>
        <time>2021-09-05T13:18:21.781Z</time>
      </trkpt>
      <trkpt lat="45.92985" lon="5.58997">
        <ele>968</ele>
        <time>2021-09-05T13:18:26.785Z</time>
      </trkpt>
      <trkpt lat="45.9299" lon="5.58994">
        <ele>964</ele>
        <time>2021-09-05T13:18:31.777Z</time>
      </trkpt>
      <trkpt lat="45.92996" lon="5.58993">
        <ele>964</ele>
        <time>2021-09-05T13:18:36.781Z</time>
      </trkpt>
      <trkpt lat="45.93" lon="5.58992">
        <ele>964</ele>
        <time>2021-09-05T13:18:40.785Z</time>
      </trkpt>
      <trkpt lat="45.93006" lon="5.58991">
        <ele>964</ele>
        <time>2021-09-05T13:18:45.784Z</time>
      </trkpt>
      <trkpt lat="45.93013" lon="5.58993">
        <ele>964</ele>
        <time>2021-09-05T13:18:50.791Z</time>
      </trkpt>
      <trkpt lat="45.93019" lon="5.58993">
        <ele>956</ele>
        <time>2021-09-05T13:18:55.786Z</time>
      </trkpt>
      <trkpt lat="45.93026" lon="5.58992">
        <ele>956</ele>
        <time>2021-09-05T13:19:00.783Z</time>
      </trkpt>
      <trkpt lat="45.93033" lon="5.58992">
        <ele>956</ele>
        <time>2021-09-05T13:19:04.793Z</time>
      </trkpt>
      <trkpt lat="45.93041" lon="5.58992">
        <ele>956</ele>
        <time>2021-09-05T13:19:09.785Z</time>
      </trkpt>
      <trkpt lat="45.93049" lon="5.58992">
        <ele>952</ele>
        <time>2021-09-05T13:19:14.779Z</time>
      </trkpt>
      <trkpt lat="45.93055" lon="5.58993">
        <ele>952</ele>
        <time>2021-09-05T13:19:18.784Z</time>
      </trkpt>
      <trkpt lat="45.93061" lon="5.58993">
        <ele>952</ele>
        <time>2021-09-05T13:19:22.811Z</time>
      </trkpt>
      <trkpt lat="45.93068" lon="5.5899">
        <ele>952</ele>
        <time>2021-09-05T13:19:27.802Z</time>
      </trkpt>
      <trkpt lat="45.93074" lon="5.58985">
        <ele>956</ele>
        <time>2021-09-05T13:19:32.813Z</time>
      </trkpt>
      <trkpt lat="45.93077" lon="5.5898">
        <ele>956</ele>
        <time>2021-09-05T13:19:36.799Z</time>
      </trkpt>
      <trkpt lat="45.9308" lon="5.58975">
        <ele>956</ele>
        <time>2021-09-05T13:19:41.779Z</time>
      </trkpt>
      <trkpt lat="45.93083" lon="5.58971">
        <ele>956</ele>
        <time>2021-09-05T13:19:45.788Z</time>
      </trkpt>
      <trkpt lat="45.93088" lon="5.58965">
        <ele>956</ele>
        <time>2021-09-05T13:19:50.775Z</time>
      </trkpt>
      <trkpt lat="45.93092" lon="5.5896">
        <ele>956</ele>
        <time>2021-09-05T13:19:54.829Z</time>
      </trkpt>
      <trkpt lat="45.93098" lon="5.58954">
        <ele>962</ele>
        <time>2021-09-05T13:19:59.816Z</time>
      </trkpt>
      <trkpt lat="45.93101" lon="5.58949">
        <ele>962</ele>
        <time>2021-09-05T13:20:03.823Z</time>
      </trkpt>
      <trkpt lat="45.93105" lon="5.58943">
        <ele>962</ele>
        <time>2021-09-05T13:20:08.786Z</time>
      </trkpt>
      <trkpt lat="45.93109" lon="5.58938">
        <ele>962</ele>
        <time>2021-09-05T13:20:13.774Z</time>
      </trkpt>
      <trkpt lat="45.93111" lon="5.5893">
        <ele>965</ele>
        <time>2021-09-05T13:20:18.778Z</time>
      </trkpt>
      <trkpt lat="45.93106" lon="5.58917">
        <ele>965</ele>
        <time>2021-09-05T13:20:23.789Z</time>
      </trkpt>
      <trkpt lat="45.931" lon="5.58907">
        <ele>965</ele>
        <time>2021-09-05T13:20:28.784Z</time>
      </trkpt>
      <trkpt lat="45.93097" lon="5.58897">
        <ele>966</ele>
        <time>2021-09-05T13:20:33.788Z</time>
      </trkpt>
      <trkpt lat="45.93094" lon="5.58888">
        <ele>966</ele>
        <time>2021-09-05T13:20:38.789Z</time>
      </trkpt>
      <trkpt lat="45.93093" lon="5.58882">
        <ele>966</ele>
        <time>2021-09-05T13:20:43.786Z</time>
      </trkpt>
      <trkpt lat="45.93091" lon="5.58876">
        <ele>966</ele>
        <time>2021-09-05T13:20:48.792Z</time>
      </trkpt>
      <trkpt lat="45.9309" lon="5.58867">
        <ele>968</ele>
        <time>2021-09-05T13:20:53.787Z</time>
      </trkpt>
      <trkpt lat="45.93088" lon="5.5886">
        <ele>968</ele>
        <time>2021-09-05T13:20:57.785Z</time>
      </trkpt>
      <trkpt lat="45.93087" lon="5.5885">
        <ele>968</ele>
        <time>2021-09-05T13:21:02.774Z</time>
      </trkpt>
      <trkpt lat="45.93086" lon="5.58843">
        <ele>970</ele>
        <time>2021-09-05T13:21:06.795Z</time>
      </trkpt>
      <trkpt lat="45.93084" lon="5.58835">
        <ele>970</ele>
        <time>2021-09-05T13:21:11.777Z</time>
      </trkpt>
      <trkpt lat="45.93083" lon="5.58829">
        <ele>970</ele>
        <time>2021-09-05T13:21:15.796Z</time>
      </trkpt>
      <trkpt lat="45.93083" lon="5.5882">
        <ele>970</ele>
        <time>2021-09-05T13:21:20.784Z</time>
      </trkpt>
      <trkpt lat="45.93083" lon="5.58812">
        <ele>971</ele>
        <time>2021-09-05T13:21:25.784Z</time>
      </trkpt>
      <trkpt lat="45.93082" lon="5.58804">
        <ele>971</ele>
        <time>2021-09-05T13:21:30.782Z</time>
      </trkpt>
      <trkpt lat="45.9308" lon="5.58795">
        <ele>971</ele>
        <time>2021-09-05T13:21:34.790Z</time>
      </trkpt>
      <trkpt lat="45.93078" lon="5.58788">
        <ele>973</ele>
        <time>2021-09-05T13:21:39.786Z</time>
      </trkpt>
      <trkpt lat="45.93076" lon="5.5878">
        <ele>973</ele>
        <time>2021-09-05T13:21:44.789Z</time>
      </trkpt>
      <trkpt lat="45.93075" lon="5.58768">
        <ele>973</ele>
        <time>2021-09-05T13:21:49.787Z</time>
      </trkpt>
      <trkpt lat="45.93075" lon="5.58753">
        <ele>977</ele>
        <time>2021-09-05T13:21:54.790Z</time>
      </trkpt>
      <trkpt lat="45.93081" lon="5.58748">
        <ele>977</ele>
        <time>2021-09-05T13:21:59.784Z</time>
      </trkpt>
      <trkpt lat="45.93088" lon="5.58744">
        <ele>977</ele>
        <time>2021-09-05T13:22:04.772Z</time>
      </trkpt>
      <trkpt lat="45.93093" lon="5.58739">
        <ele>977</ele>
        <time>2021-09-05T13:22:08.786Z</time>
      </trkpt>
      <trkpt lat="45.93097" lon="5.58731">
        <ele>980</ele>
        <time>2021-09-05T13:22:13.787Z</time>
      </trkpt>
      <trkpt lat="45.931" lon="5.58725">
        <ele>977</ele>
        <time>2021-09-05T13:22:17.787Z</time>
      </trkpt>
      <trkpt lat="45.93106" lon="5.58716">
        <ele>977</ele>
        <time>2021-09-05T13:22:22.779Z</time>
      </trkpt>
      <trkpt lat="45.9311" lon="5.58707">
        <ele>978</ele>
        <time>2021-09-05T13:22:27.784Z</time>
      </trkpt>
      <trkpt lat="45.93114" lon="5.587">
        <ele>978</ele>
        <time>2021-09-05T13:22:32.776Z</time>
      </trkpt>
      <trkpt lat="45.93118" lon="5.58696">
        <ele>978</ele>
        <time>2021-09-05T13:22:36.794Z</time>
      </trkpt>
      <trkpt lat="45.93122" lon="5.5869">
        <ele>978</ele>
        <time>2021-09-05T13:22:41.787Z</time>
      </trkpt>
      <trkpt lat="45.93124" lon="5.58682">
        <ele>978</ele>
        <time>2021-09-05T13:22:46.784Z</time>
      </trkpt>
      <trkpt lat="45.93128" lon="5.58675">
        <ele>977</ele>
        <time>2021-09-05T13:22:51.793Z</time>
      </trkpt>
      <trkpt lat="45.9313" lon="5.58666">
        <ele>977</ele>
        <time>2021-09-05T13:22:56.787Z</time>
      </trkpt>
      <trkpt lat="45.93135" lon="5.58658">
        <ele>977</ele>
        <time>2021-09-05T13:23:01.785Z</time>
      </trkpt>
      <trkpt lat="45.93139" lon="5.5865">
        <ele>979</ele>
        <time>2021-09-05T13:23:06.779Z</time>
      </trkpt>
      <trkpt lat="45.93144" lon="5.58645">
        <ele>979</ele>
        <time>2021-09-05T13:23:10.787Z</time>
      </trkpt>
      <trkpt lat="45.93147" lon="5.58638">
        <ele>979</ele>
        <time>2021-09-05T13:23:15.787Z</time>
      </trkpt>
      <trkpt lat="45.93149" lon="5.58629">
        <ele>979</ele>
        <time>2021-09-05T13:23:20.784Z</time>
      </trkpt>
      <trkpt lat="45.93152" lon="5.58619">
        <ele>979</ele>
        <time>2021-09-05T13:23:25.789Z</time>
      </trkpt>
      <trkpt lat="45.93155" lon="5.58609">
        <ele>977</ele>
        <time>2021-09-05T13:23:30.787Z</time>
      </trkpt>
      <trkpt lat="45.93157" lon="5.58595">
        <ele>977</ele>
        <time>2021-09-05T13:23:35.785Z</time>
      </trkpt>
      <trkpt lat="45.93155" lon="5.58584">
        <ele>977</ele>
        <time>2021-09-05T13:23:40.789Z</time>
      </trkpt>
      <trkpt lat="45.93154" lon="5.58573">
        <ele>977</ele>
        <time>2021-09-05T13:23:45.786Z</time>
      </trkpt>
      <trkpt lat="45.93154" lon="5.58565">
        <ele>978</ele>
        <time>2021-09-05T13:23:50.788Z</time>
      </trkpt>
      <trkpt lat="45.93157" lon="5.58557">
        <ele>978</ele>
        <time>2021-09-05T13:23:55.789Z</time>
      </trkpt>
      <trkpt lat="45.93158" lon="5.5855">
        <ele>978</ele>
        <time>2021-09-05T13:24:00.788Z</time>
      </trkpt>
      <trkpt lat="45.93158" lon="5.58544">
        <ele>978</ele>
        <time>2021-09-05T13:24:05.782Z</time>
      </trkpt>
      <trkpt lat="45.93161" lon="5.58537">
        <ele>979</ele>
        <time>2021-09-05T13:24:10.787Z</time>
      </trkpt>
      <trkpt lat="45.93163" lon="5.5853">
        <ele>979</ele>
        <time>2021-09-05T13:24:15.790Z</time>
      </trkpt>
      <trkpt lat="45.93164" lon="5.5852">
        <ele>979</ele>
        <time>2021-09-05T13:24:20.785Z</time>
      </trkpt>
      <trkpt lat="45.93165" lon="5.58513">
        <ele>979</ele>
        <time>2021-09-05T13:24:25.784Z</time>
      </trkpt>
      <trkpt lat="45.93166" lon="5.58505">
        <ele>979</ele>
        <time>2021-09-05T13:24:30.780Z</time>
      </trkpt>
      <trkpt lat="45.9317" lon="5.58499">
        <ele>979</ele>
        <time>2021-09-05T13:24:35.778Z</time>
      </trkpt>
      <trkpt lat="45.93173" lon="5.58492">
        <ele>979</ele>
        <time>2021-09-05T13:24:39.785Z</time>
      </trkpt>
      <trkpt lat="45.93176" lon="5.58485">
        <ele>978</ele>
        <time>2021-09-05T13:24:44.787Z</time>
      </trkpt>
      <trkpt lat="45.93178" lon="5.58478">
        <ele>978</ele>
        <time>2021-09-05T13:24:49.792Z</time>
      </trkpt>
      <trkpt lat="45.93179" lon="5.58471">
        <ele>978</ele>
        <time>2021-09-05T13:24:54.785Z</time>
      </trkpt>
      <trkpt lat="45.9318" lon="5.58465">
        <ele>978</ele>
        <time>2021-09-05T13:24:58.791Z</time>
      </trkpt>
      <trkpt lat="45.9318" lon="5.58456">
        <ele>977</ele>
        <time>2021-09-05T13:25:03.788Z</time>
      </trkpt>
      <trkpt lat="45.93181" lon="5.58448">
        <ele>973</ele>
        <time>2021-09-05T13:25:08.787Z</time>
      </trkpt>
      <trkpt lat="45.9318" lon="5.58439">
        <ele>977</ele>
        <time>2021-09-05T13:25:13.787Z</time>
      </trkpt>
      <trkpt lat="45.93181" lon="5.58432">
        <ele>973</ele>
        <time>2021-09-05T13:25:18.789Z</time>
      </trkpt>
      <trkpt lat="45.9318" lon="5.58429">
        <ele>975</ele>
        <time>2021-09-05T13:25:23.788Z</time>
      </trkpt>
      <trkpt lat="45.9318" lon="5.58424">
        <ele>975</ele>
        <time>2021-09-05T13:25:27.799Z</time>
      </trkpt>
      <trkpt lat="45.93179" lon="5.58416">
        <ele>975</ele>
        <time>2021-09-05T13:25:32.773Z</time>
      </trkpt>
      <trkpt lat="45.93182" lon="5.58409">
        <ele>971</ele>
        <time>2021-09-05T13:25:36.790Z</time>
      </trkpt>
      <trkpt lat="45.93185" lon="5.58403">
        <ele>971</ele>
        <time>2021-09-05T13:25:41.789Z</time>
      </trkpt>
      <trkpt lat="45.93185" lon="5.58396">
        <ele>967</ele>
        <time>2021-09-05T13:25:46.789Z</time>
      </trkpt>
      <trkpt lat="45.93189" lon="5.58391">
        <ele>967</ele>
        <time>2021-09-05T13:25:51.786Z</time>
      </trkpt>
      <trkpt lat="45.93191" lon="5.58384">
        <ele>967</ele>
        <time>2021-09-05T13:25:56.788Z</time>
      </trkpt>
      <trkpt lat="45.93192" lon="5.5837">
        <ele>964</ele>
        <time>2021-09-05T13:26:01.790Z</time>
      </trkpt>
      <trkpt lat="45.9319" lon="5.58357">
        <ele>964</ele>
        <time>2021-09-05T13:26:06.786Z</time>
      </trkpt>
      <trkpt lat="45.93195" lon="5.58349">
        <ele>964</ele>
        <time>2021-09-05T13:26:11.786Z</time>
      </trkpt>
      <trkpt lat="45.93205" lon="5.58334">
        <ele>960</ele>
        <time>2021-09-05T13:26:16.792Z</time>
      </trkpt>
      <trkpt lat="45.93208" lon="5.58322">
        <ele>960</ele>
        <time>2021-09-05T13:26:21.786Z</time>
      </trkpt>
      <trkpt lat="45.93209" lon="5.5831">
        <ele>957</ele>
        <time>2021-09-05T13:26:26.787Z</time>
      </trkpt>
      <trkpt lat="45.93213" lon="5.583">
        <ele>957</ele>
        <time>2021-09-05T13:26:31.784Z</time>
      </trkpt>
      <trkpt lat="45.93216" lon="5.5829">
        <ele>955</ele>
        <time>2021-09-05T13:26:36.791Z</time>
      </trkpt>
      <trkpt lat="45.93219" lon="5.58281">
        <ele>955</ele>
        <time>2021-09-05T13:26:41.786Z</time>
      </trkpt>
      <trkpt lat="45.93221" lon="5.5827">
        <ele>955</ele>
        <time>2021-09-05T13:26:46.784Z</time>
      </trkpt>
      <trkpt lat="45.93222" lon="5.58262">
        <ele>954</ele>
        <time>2021-09-05T13:26:50.789Z</time>
      </trkpt>
      <trkpt lat="45.93223" lon="5.5825">
        <ele>954</ele>
        <time>2021-09-05T13:26:55.787Z</time>
      </trkpt>
      <trkpt lat="45.93224" lon="5.5824">
        <ele>954</ele>
        <time>2021-09-05T13:27:00.787Z</time>
      </trkpt>
      <trkpt lat="45.93225" lon="5.58232">
        <ele>954</ele>
        <time>2021-09-05T13:27:05.778Z</time>
      </trkpt>
      <trkpt lat="45.93224" lon="5.58224">
        <ele>954</ele>
        <time>2021-09-05T13:27:09.786Z</time>
      </trkpt>
      <trkpt lat="45.93223" lon="5.58217">
        <ele>954</ele>
        <time>2021-09-05T13:27:13.804Z</time>
      </trkpt>
      <trkpt lat="45.93225" lon="5.58203">
        <ele>955</ele>
        <time>2021-09-05T13:27:18.800Z</time>
      </trkpt>
      <trkpt lat="45.93225" lon="5.58187">
        <ele>955</ele>
        <time>2021-09-05T13:27:22.812Z</time>
      </trkpt>
      <trkpt lat="45.93226" lon="5.58174">
        <ele>955</ele>
        <time>2021-09-05T13:27:27.809Z</time>
      </trkpt>
      <trkpt lat="45.93228" lon="5.58166">
        <ele>955</ele>
        <time>2021-09-05T13:27:32.810Z</time>
      </trkpt>
      <trkpt lat="45.93226" lon="5.5816">
        <ele>955</ele>
        <time>2021-09-05T13:27:36.810Z</time>
      </trkpt>
      <trkpt lat="45.93225" lon="5.58152">
        <ele>953</ele>
        <time>2021-09-05T13:27:40.836Z</time>
      </trkpt>
      <trkpt lat="45.93225" lon="5.58144">
        <ele>953</ele>
        <time>2021-09-05T13:27:45.809Z</time>
      </trkpt>
      <trkpt lat="45.93225" lon="5.58136">
        <ele>953</ele>
        <time>2021-09-05T13:27:50.835Z</time>
      </trkpt>
      <trkpt lat="45.93225" lon="5.58127">
        <ele>953</ele>
        <time>2021-09-05T13:27:55.815Z</time>
      </trkpt>
      <trkpt lat="45.93225" lon="5.58121">
        <ele>952</ele>
        <time>2021-09-05T13:28:00.809Z</time>
      </trkpt>
      <trkpt lat="45.93225" lon="5.58111">
        <ele>952</ele>
        <time>2021-09-05T13:28:05.815Z</time>
      </trkpt>
      <trkpt lat="45.93225" lon="5.58102">
        <ele>952</ele>
        <time>2021-09-05T13:28:10.808Z</time>
      </trkpt>
      <trkpt lat="45.93225" lon="5.58081">
        <ele>950</ele>
        <time>2021-09-05T13:28:15.835Z</time>
      </trkpt>
      <trkpt lat="45.93225" lon="5.58064">
        <ele>947</ele>
        <time>2021-09-05T13:28:20.816Z</time>
      </trkpt>
      <trkpt lat="45.93217" lon="5.58062">
        <ele>947</ele>
        <time>2021-09-05T13:28:25.796Z</time>
      </trkpt>
      <trkpt lat="45.9321" lon="5.58063">
        <ele>947</ele>
        <time>2021-09-05T13:28:29.833Z</time>
      </trkpt>
      <trkpt lat="45.93202" lon="5.58065">
        <ele>945</ele>
        <time>2021-09-05T13:28:34.827Z</time>
      </trkpt>
      <trkpt lat="45.93195" lon="5.58069">
        <ele>945</ele>
        <time>2021-09-05T13:28:39.814Z</time>
      </trkpt>
      <trkpt lat="45.9319" lon="5.58073">
        <ele>947</ele>
        <time>2021-09-05T13:28:44.812Z</time>
      </trkpt>
      <trkpt lat="45.93184" lon="5.58076">
        <ele>947</ele>
        <time>2021-09-05T13:28:49.846Z</time>
      </trkpt>
      <trkpt lat="45.93176" lon="5.58079">
        <ele>946</ele>
        <time>2021-09-05T13:28:54.813Z</time>
      </trkpt>
      <trkpt lat="45.93166" lon="5.58082">
        <ele>946</ele>
        <time>2021-09-05T13:28:59.816Z</time>
      </trkpt>
      <trkpt lat="45.9316" lon="5.58081">
        <ele>946</ele>
        <time>2021-09-05T13:29:04.822Z</time>
      </trkpt>
      <trkpt lat="45.93152" lon="5.58081">
        <ele>948</ele>
        <time>2021-09-05T13:29:09.790Z</time>
      </trkpt>
      <trkpt lat="45.93141" lon="5.58086">
        <ele>948</ele>
        <time>2021-09-05T13:29:14.818Z</time>
      </trkpt>
      <trkpt lat="45.93133" lon="5.58094">
        <ele>948</ele>
        <time>2021-09-05T13:29:19.785Z</time>
      </trkpt>
      <trkpt lat="45.93127" lon="5.58102">
        <ele>949</ele>
        <time>2021-09-05T13:29:24.767Z</time>
      </trkpt>
      <trkpt lat="45.93124" lon="5.58109">
        <ele>951</ele>
        <time>2021-09-05T13:29:28.793Z</time>
      </trkpt>
      <trkpt lat="45.9312" lon="5.58116">
        <ele>951</ele>
        <time>2021-09-05T13:29:33.784Z</time>
      </trkpt>
      <trkpt lat="45.93116" lon="5.58124">
        <ele>951</ele>
        <time>2021-09-05T13:29:38.784Z</time>
      </trkpt>
      <trkpt lat="45.93113" lon="5.5813">
        <ele>952</ele>
        <time>2021-09-05T13:29:42.776Z</time>
      </trkpt>
      <trkpt lat="45.93108" lon="5.58139">
        <ele>952</ele>
        <time>2021-09-05T13:29:47.779Z</time>
      </trkpt>
      <trkpt lat="45.93102" lon="5.58151">
        <ele>952</ele>
        <time>2021-09-05T13:29:52.782Z</time>
      </trkpt>
      <trkpt lat="45.93098" lon="5.58158">
        <ele>953</ele>
        <time>2021-09-05T13:29:57.778Z</time>
      </trkpt>
      <trkpt lat="45.93095" lon="5.58165">
        <ele>956</ele>
        <time>2021-09-05T13:30:01.783Z</time>
      </trkpt>
      <trkpt lat="45.93091" lon="5.58171">
        <ele>956</ele>
        <time>2021-09-05T13:30:06.785Z</time>
      </trkpt>
      <trkpt lat="45.93083" lon="5.58174">
        <ele>956</ele>
        <time>2021-09-05T13:30:11.784Z</time>
      </trkpt>
      <trkpt lat="45.93076" lon="5.58175">
        <ele>956</ele>
        <time>2021-09-05T13:30:16.784Z</time>
      </trkpt>
      <trkpt lat="45.93069" lon="5.58169">
        <ele>961</ele>
        <time>2021-09-05T13:30:21.787Z</time>
      </trkpt>
      <trkpt lat="45.93066" lon="5.58159">
        <ele>961</ele>
        <time>2021-09-05T13:30:26.791Z</time>
      </trkpt>
      <trkpt lat="45.93067" lon="5.58153">
        <ele>959</ele>
        <time>2021-09-05T13:30:30.784Z</time>
      </trkpt>
      <trkpt lat="45.93066" lon="5.58145">
        <ele>959</ele>
        <time>2021-09-05T13:30:35.805Z</time>
      </trkpt>
      <trkpt lat="45.93066" lon="5.58138">
        <ele>959</ele>
        <time>2021-09-05T13:30:39.811Z</time>
      </trkpt>
      <trkpt lat="45.93064" lon="5.5813">
        <ele>959</ele>
        <time>2021-09-05T13:30:43.845Z</time>
      </trkpt>
      <trkpt lat="45.93063" lon="5.58119">
        <ele>958</ele>
        <time>2021-09-05T13:30:48.805Z</time>
      </trkpt>
      <trkpt lat="45.93059" lon="5.58109">
        <ele>958</ele>
        <time>2021-09-05T13:30:53.837Z</time>
      </trkpt>
      <trkpt lat="45.93054" lon="5.581">
        <ele>958</ele>
        <time>2021-09-05T13:30:58.803Z</time>
      </trkpt>
      <trkpt lat="45.9305" lon="5.58093">
        <ele>955</ele>
        <time>2021-09-05T13:31:02.822Z</time>
      </trkpt>
      <trkpt lat="45.93046" lon="5.58082">
        <ele>955</ele>
        <time>2021-09-05T13:31:06.827Z</time>
      </trkpt>
      <trkpt lat="45.93041" lon="5.58076">
        <ele>958</ele>
        <time>2021-09-05T13:31:11.809Z</time>
      </trkpt>
      <trkpt lat="45.93036" lon="5.58072">
        <ele>958</ele>
        <time>2021-09-05T13:31:15.812Z</time>
      </trkpt>
      <trkpt lat="45.93028" lon="5.58069">
        <ele>955</ele>
        <time>2021-09-05T13:31:20.806Z</time>
      </trkpt>
      <trkpt lat="45.93023" lon="5.58066">
        <ele>955</ele>
        <time>2021-09-05T13:31:24.837Z</time>
      </trkpt>
      <trkpt lat="45.93016" lon="5.58063">
        <ele>955</ele>
        <time>2021-09-05T13:31:29.813Z</time>
      </trkpt>
      <trkpt lat="45.93009" lon="5.5806">
        <ele>956</ele>
        <time>2021-09-05T13:31:34.804Z</time>
      </trkpt>
      <trkpt lat="45.93004" lon="5.58061">
        <ele>956</ele>
        <time>2021-09-05T13:31:38.843Z</time>
      </trkpt>
      <trkpt lat="45.92998" lon="5.58064">
        <ele>956</ele>
        <time>2021-09-05T13:31:43.837Z</time>
      </trkpt>
      <trkpt lat="45.92991" lon="5.58075">
        <ele>959</ele>
        <time>2021-09-05T13:31:47.842Z</time>
      </trkpt>
      <trkpt lat="45.92986" lon="5.58087">
        <ele>958</ele>
        <time>2021-09-05T13:31:52.808Z</time>
      </trkpt>
      <trkpt lat="45.92983" lon="5.58094">
        <ele>958</ele>
        <time>2021-09-05T13:31:56.819Z</time>
      </trkpt>
      <trkpt lat="45.92978" lon="5.58101">
        <ele>960</ele>
        <time>2021-09-05T13:32:01.810Z</time>
      </trkpt>
      <trkpt lat="45.92973" lon="5.58106">
        <ele>960</ele>
        <time>2021-09-05T13:32:05.840Z</time>
      </trkpt>
      <trkpt lat="45.92966" lon="5.58109">
        <ele>960</ele>
        <time>2021-09-05T13:32:10.819Z</time>
      </trkpt>
      <trkpt lat="45.9296" lon="5.58108">
        <ele>960</ele>
        <time>2021-09-05T13:32:15.804Z</time>
      </trkpt>
      <trkpt lat="45.92955" lon="5.58107">
        <ele>959</ele>
        <time>2021-09-05T13:32:19.809Z</time>
      </trkpt>
      <trkpt lat="45.92951" lon="5.58104">
        <ele>959</ele>
        <time>2021-09-05T13:32:23.835Z</time>
      </trkpt>
      <trkpt lat="45.92946" lon="5.581">
        <ele>959</ele>
        <time>2021-09-05T13:32:28.859Z</time>
      </trkpt>
      <trkpt lat="45.9294" lon="5.58096">
        <ele>958</ele>
        <time>2021-09-05T13:32:33.770Z</time>
      </trkpt>
      <trkpt lat="45.92934" lon="5.5809">
        <ele>958</ele>
        <time>2021-09-05T13:32:37.811Z</time>
      </trkpt>
      <trkpt lat="45.92926" lon="5.58082">
        <ele>958</ele>
        <time>2021-09-05T13:32:41.846Z</time>
      </trkpt>
      <trkpt lat="45.92917" lon="5.58074">
        <ele>958</ele>
        <time>2021-09-05T13:32:46.814Z</time>
      </trkpt>
      <trkpt lat="45.9291" lon="5.58068">
        <ele>957</ele>
        <time>2021-09-05T13:32:51.808Z</time>
      </trkpt>
      <trkpt lat="45.92904" lon="5.58062">
        <ele>957</ele>
        <time>2021-09-05T13:32:56.810Z</time>
      </trkpt>
      <trkpt lat="45.92899" lon="5.58058">
        <ele>956</ele>
        <time>2021-09-05T13:33:00.867Z</time>
      </trkpt>
      <trkpt lat="45.92893" lon="5.58052">
        <ele>956</ele>
        <time>2021-09-05T13:33:05.803Z</time>
      </trkpt>
      <trkpt lat="45.92889" lon="5.58048">
        <ele>956</ele>
        <time>2021-09-05T13:33:09.824Z</time>
      </trkpt>
      <trkpt lat="45.92883" lon="5.58043">
        <ele>956</ele>
        <time>2021-09-05T13:33:14.811Z</time>
      </trkpt>
      <trkpt lat="45.92877" lon="5.58039">
        <ele>955</ele>
        <time>2021-09-05T13:33:19.809Z</time>
      </trkpt>
      <trkpt lat="45.92872" lon="5.58035">
        <ele>954</ele>
        <time>2021-09-05T13:33:23.815Z</time>
      </trkpt>
      <trkpt lat="45.92865" lon="5.58031">
        <ele>954</ele>
        <time>2021-09-05T13:33:28.816Z</time>
      </trkpt>
      <trkpt lat="45.92859" lon="5.58028">
        <ele>954</ele>
        <time>2021-09-05T13:33:33.784Z</time>
      </trkpt>
      <trkpt lat="45.92855" lon="5.58024">
        <ele>954</ele>
        <time>2021-09-05T13:33:37.805Z</time>
      </trkpt>
      <trkpt lat="45.92849" lon="5.58021">
        <ele>954</ele>
        <time>2021-09-05T13:33:42.807Z</time>
      </trkpt>
      <trkpt lat="45.92842" lon="5.58018">
        <ele>952</ele>
        <time>2021-09-05T13:33:47.798Z</time>
      </trkpt>
      <trkpt lat="45.92836" lon="5.58017">
        <ele>952</ele>
        <time>2021-09-05T13:33:52.811Z</time>
      </trkpt>
      <trkpt lat="45.92832" lon="5.5802">
        <ele>952</ele>
        <time>2021-09-05T13:33:56.816Z</time>
      </trkpt>
      <trkpt lat="45.92828" lon="5.58025">
        <ele>952</ele>
        <time>2021-09-05T13:34:01.816Z</time>
      </trkpt>
      <trkpt lat="45.92823" lon="5.58029">
        <ele>952</ele>
        <time>2021-09-05T13:34:05.818Z</time>
      </trkpt>
      <trkpt lat="45.92817" lon="5.58035">
        <ele>948</ele>
        <time>2021-09-05T13:34:10.806Z</time>
      </trkpt>
      <trkpt lat="45.92812" lon="5.58044">
        <ele>949</ele>
        <time>2021-09-05T13:34:15.800Z</time>
      </trkpt>
      <trkpt lat="45.92806" lon="5.58052">
        <ele>949</ele>
        <time>2021-09-05T13:34:19.817Z</time>
      </trkpt>
      <trkpt lat="45.92801" lon="5.58061">
        <ele>949</ele>
        <time>2021-09-05T13:34:24.850Z</time>
      </trkpt>
      <trkpt lat="45.92795" lon="5.58068">
        <ele>949</ele>
        <time>2021-09-05T13:34:29.827Z</time>
      </trkpt>
      <trkpt lat="45.92789" lon="5.58077">
        <ele>947</ele>
        <time>2021-09-05T13:34:34.775Z</time>
      </trkpt>
      <trkpt lat="45.92784" lon="5.58083">
        <ele>947</ele>
        <time>2021-09-05T13:34:38.834Z</time>
      </trkpt>
      <trkpt lat="45.92779" lon="5.5809">
        <ele>947</ele>
        <time>2021-09-05T13:34:43.804Z</time>
      </trkpt>
      <trkpt lat="45.92774" lon="5.58095">
        <ele>947</ele>
        <time>2021-09-05T13:34:47.818Z</time>
      </trkpt>
      <trkpt lat="45.92769" lon="5.58102">
        <ele>949</ele>
        <time>2021-09-05T13:34:52.812Z</time>
      </trkpt>
      <trkpt lat="45.92765" lon="5.58108">
        <ele>949</ele>
        <time>2021-09-05T13:34:56.825Z</time>
      </trkpt>
      <trkpt lat="45.92761" lon="5.58112">
        <ele>946</ele>
        <time>2021-09-05T13:35:01.816Z</time>
      </trkpt>
      <trkpt lat="45.92755" lon="5.58117">
        <ele>946</ele>
        <time>2021-09-05T13:35:06.809Z</time>
      </trkpt>
      <trkpt lat="45.9275" lon="5.5812">
        <ele>946</ele>
        <time>2021-09-05T13:35:10.826Z</time>
      </trkpt>
      <trkpt lat="45.92744" lon="5.58123">
        <ele>946</ele>
        <time>2021-09-05T13:35:15.802Z</time>
      </trkpt>
      <trkpt lat="45.92739" lon="5.58123">
        <ele>946</ele>
        <time>2021-09-05T13:35:19.811Z</time>
      </trkpt>
      <trkpt lat="45.92732" lon="5.58122">
        <ele>942</ele>
        <time>2021-09-05T13:35:24.803Z</time>
      </trkpt>
      <trkpt lat="45.92727" lon="5.58119">
        <ele>942</ele>
        <time>2021-09-05T13:35:28.815Z</time>
      </trkpt>
      <trkpt lat="45.92722" lon="5.58117">
        <ele>942</ele>
        <time>2021-09-05T13:35:33.787Z</time>
      </trkpt>
      <trkpt lat="45.92718" lon="5.58116">
        <ele>942</ele>
        <time>2021-09-05T13:35:37.817Z</time>
      </trkpt>
      <trkpt lat="45.92708" lon="5.58113">
        <ele>941</ele>
        <time>2021-09-05T13:35:42.848Z</time>
      </trkpt>
      <trkpt lat="45.92694" lon="5.58112">
        <ele>941</ele>
        <time>2021-09-05T13:35:47.802Z</time>
      </trkpt>
      <trkpt lat="45.92685" lon="5.58113">
        <ele>941</ele>
        <time>2021-09-05T13:35:52.802Z</time>
      </trkpt>
      <trkpt lat="45.92678" lon="5.58113">
        <ele>941</ele>
        <time>2021-09-05T13:35:57.824Z</time>
      </trkpt>
      <trkpt lat="45.92672" lon="5.58111">
        <ele>941</ele>
        <time>2021-09-05T13:36:01.843Z</time>
      </trkpt>
      <trkpt lat="45.92664" lon="5.5811">
        <ele>941</ele>
        <time>2021-09-05T13:36:06.820Z</time>
      </trkpt>
      <trkpt lat="45.92653" lon="5.58118">
        <ele>941</ele>
        <time>2021-09-05T13:36:11.811Z</time>
      </trkpt>
      <trkpt lat="45.92651" lon="5.58127">
        <ele>946</ele>
        <time>2021-09-05T13:36:15.823Z</time>
      </trkpt>
      <trkpt lat="45.92648" lon="5.58148">
        <ele>946</ele>
        <time>2021-09-05T13:36:20.817Z</time>
      </trkpt>
      <trkpt lat="45.92649" lon="5.5816">
        <ele>949</ele>
        <time>2021-09-05T13:36:25.804Z</time>
      </trkpt>
      <trkpt lat="45.92651" lon="5.58168">
        <ele>949</ele>
        <time>2021-09-05T13:36:29.815Z</time>
      </trkpt>
      <trkpt lat="45.92653" lon="5.58177">
        <ele>949</ele>
        <time>2021-09-05T13:36:34.779Z</time>
      </trkpt>
      <trkpt lat="45.92653" lon="5.58185">
        <ele>951</ele>
        <time>2021-09-05T13:36:38.867Z</time>
      </trkpt>
      <trkpt lat="45.92651" lon="5.58193">
        <ele>951</ele>
        <time>2021-09-05T13:36:43.838Z</time>
      </trkpt>
      <trkpt lat="45.92647" lon="5.58201">
        <ele>951</ele>
        <time>2021-09-05T13:36:48.816Z</time>
      </trkpt>
      <trkpt lat="45.92645" lon="5.58208">
        <ele>951</ele>
        <time>2021-09-05T13:36:52.845Z</time>
      </trkpt>
      <trkpt lat="45.9264" lon="5.58217">
        <ele>952</ele>
        <time>2021-09-05T13:36:57.816Z</time>
      </trkpt>
      <trkpt lat="45.92636" lon="5.58223">
        <ele>952</ele>
        <time>2021-09-05T13:37:01.839Z</time>
      </trkpt>
      <trkpt lat="45.9263" lon="5.58227">
        <ele>952</ele>
        <time>2021-09-05T13:37:06.809Z</time>
      </trkpt>
      <trkpt lat="45.92626" lon="5.58232">
        <ele>952</ele>
        <time>2021-09-05T13:37:10.846Z</time>
      </trkpt>
      <trkpt lat="45.92621" lon="5.5824">
        <ele>956</ele>
        <time>2021-09-05T13:37:15.812Z</time>
      </trkpt>
      <trkpt lat="45.92619" lon="5.58249">
        <ele>956</ele>
        <time>2021-09-05T13:37:20.816Z</time>
      </trkpt>
      <trkpt lat="45.92616" lon="5.5826">
        <ele>956</ele>
        <time>2021-09-05T13:37:25.809Z</time>
      </trkpt>
      <trkpt lat="45.92615" lon="5.58267">
        <ele>956</ele>
        <time>2021-09-05T13:37:29.839Z</time>
      </trkpt>
      <trkpt lat="45.92613" lon="5.58278">
        <ele>956</ele>
        <time>2021-09-05T13:37:34.785Z</time>
      </trkpt>
      <trkpt lat="45.92609" lon="5.58293">
        <ele>956</ele>
        <time>2021-09-05T13:37:38.812Z</time>
      </trkpt>
      <trkpt lat="45.92602" lon="5.58306">
        <ele>956</ele>
        <time>2021-09-05T13:37:43.821Z</time>
      </trkpt>
      <trkpt lat="45.92596" lon="5.58305">
        <ele>962</ele>
        <time>2021-09-05T13:37:47.840Z</time>
      </trkpt>
      <trkpt lat="45.92593" lon="5.58296">
        <ele>962</ele>
        <time>2021-09-05T13:37:52.808Z</time>
      </trkpt>
      <trkpt lat="45.92594" lon="5.58286">
        <ele>962</ele>
        <time>2021-09-05T13:37:57.811Z</time>
      </trkpt>
      <trkpt lat="45.92597" lon="5.58277">
        <ele>962</ele>
        <time>2021-09-05T13:38:02.804Z</time>
      </trkpt>
      <trkpt lat="45.92599" lon="5.58269">
        <ele>956</ele>
        <time>2021-09-05T13:38:06.808Z</time>
      </trkpt>
      <trkpt lat="45.926" lon="5.58259">
        <ele>956</ele>
        <time>2021-09-05T13:38:11.804Z</time>
      </trkpt>
      <trkpt lat="45.926" lon="5.5825">
        <ele>956</ele>
        <time>2021-09-05T13:38:16.865Z</time>
      </trkpt>
      <trkpt lat="45.92601" lon="5.58236">
        <ele>957</ele>
        <time>2021-09-05T13:38:21.802Z</time>
      </trkpt>
      <trkpt lat="45.92602" lon="5.58222">
        <ele>957</ele>
        <time>2021-09-05T13:38:26.806Z</time>
      </trkpt>
      <trkpt lat="45.926" lon="5.58213">
        <ele>957</ele>
        <time>2021-09-05T13:38:31.812Z</time>
      </trkpt>
      <trkpt lat="45.92597" lon="5.58207">
        <ele>956</ele>
        <time>2021-09-05T13:38:36.787Z</time>
      </trkpt>
      <trkpt lat="45.92592" lon="5.58201">
        <ele>960</ele>
        <time>2021-09-05T13:38:41.820Z</time>
      </trkpt>
      <trkpt lat="45.92579" lon="5.58206">
        <ele>960</ele>
        <time>2021-09-05T13:38:46.801Z</time>
      </trkpt>
      <trkpt lat="45.9257" lon="5.58209">
        <ele>961</ele>
        <time>2021-09-05T13:38:51.813Z</time>
      </trkpt>
      <trkpt lat="45.92563" lon="5.58211">
        <ele>965</ele>
        <time>2021-09-05T13:38:56.818Z</time>
      </trkpt>
      <trkpt lat="45.92557" lon="5.58213">
        <ele>965</ele>
        <time>2021-09-05T13:39:00.848Z</time>
      </trkpt>
      <trkpt lat="45.92548" lon="5.58217">
        <ele>965</ele>
        <time>2021-09-05T13:39:05.812Z</time>
      </trkpt>
      <trkpt lat="45.92543" lon="5.58218">
        <ele>965</ele>
        <time>2021-09-05T13:39:09.848Z</time>
      </trkpt>
      <trkpt lat="45.92536" lon="5.58217">
        <ele>967</ele>
        <time>2021-09-05T13:39:14.804Z</time>
      </trkpt>
      <trkpt lat="45.9253" lon="5.58215">
        <ele>967</ele>
        <time>2021-09-05T13:39:19.782Z</time>
      </trkpt>
      <trkpt lat="45.92525" lon="5.58214">
        <ele>967</ele>
        <time>2021-09-05T13:39:23.846Z</time>
      </trkpt>
      <trkpt lat="45.92513" lon="5.58216">
        <ele>968</ele>
        <time>2021-09-05T13:39:28.820Z</time>
      </trkpt>
      <trkpt lat="45.92506" lon="5.58219">
        <ele>968</ele>
        <time>2021-09-05T13:39:33.810Z</time>
      </trkpt>
      <trkpt lat="45.92498" lon="5.58223">
        <ele>968</ele>
        <time>2021-09-05T13:39:38.818Z</time>
      </trkpt>
      <trkpt lat="45.92491" lon="5.5823">
        <ele>968</ele>
        <time>2021-09-05T13:39:42.836Z</time>
      </trkpt>
      <trkpt lat="45.92486" lon="5.58238">
        <ele>972</ele>
        <time>2021-09-05T13:39:47.832Z</time>
      </trkpt>
      <trkpt lat="45.92483" lon="5.58247">
        <ele>970</ele>
        <time>2021-09-05T13:39:52.805Z</time>
      </trkpt>
      <trkpt lat="45.92479" lon="5.58252">
        <ele>970</ele>
        <time>2021-09-05T13:39:56.835Z</time>
      </trkpt>
      <trkpt lat="45.92474" lon="5.58256">
        <ele>970</ele>
        <time>2021-09-05T13:40:00.844Z</time>
      </trkpt>
      <trkpt lat="45.92468" lon="5.58265">
        <ele>973</ele>
        <time>2021-09-05T13:40:05.812Z</time>
      </trkpt>
      <trkpt lat="45.92464" lon="5.58271">
        <ele>973</ele>
        <time>2021-09-05T13:40:09.853Z</time>
      </trkpt>
      <trkpt lat="45.92461" lon="5.58279">
        <ele>973</ele>
        <time>2021-09-05T13:40:14.813Z</time>
      </trkpt>
      <trkpt lat="45.92459" lon="5.58287">
        <ele>973</ele>
        <time>2021-09-05T13:40:19.807Z</time>
      </trkpt>
      <trkpt lat="45.92457" lon="5.58294">
        <ele>977</ele>
        <time>2021-09-05T13:40:23.808Z</time>
      </trkpt>
      <trkpt lat="45.92454" lon="5.58304">
        <ele>977</ele>
        <time>2021-09-05T13:40:28.821Z</time>
      </trkpt>
      <trkpt lat="45.92449" lon="5.58319">
        <ele>977</ele>
        <time>2021-09-05T13:40:33.816Z</time>
      </trkpt>
      <trkpt lat="45.92445" lon="5.58324">
        <ele>980</ele>
        <time>2021-09-05T13:40:38.779Z</time>
      </trkpt>
      <trkpt lat="45.92441" lon="5.58326">
        <ele>980</ele>
        <time>2021-09-05T13:40:42.837Z</time>
      </trkpt>
      <trkpt lat="45.92433" lon="5.58329">
        <ele>980</ele>
        <time>2021-09-05T13:40:47.778Z</time>
      </trkpt>
      <trkpt lat="45.92427" lon="5.58332">
        <ele>982</ele>
        <time>2021-09-05T13:40:51.812Z</time>
      </trkpt>
      <trkpt lat="45.92421" lon="5.58336">
        <ele>982</ele>
        <time>2021-09-05T13:40:55.847Z</time>
      </trkpt>
      <trkpt lat="45.92413" lon="5.58338">
        <ele>982</ele>
        <time>2021-09-05T13:41:00.821Z</time>
      </trkpt>
      <trkpt lat="45.92407" lon="5.58343">
        <ele>982</ele>
        <time>2021-09-05T13:41:04.845Z</time>
      </trkpt>
      <trkpt lat="45.92402" lon="5.58349">
        <ele>982</ele>
        <time>2021-09-05T13:41:09.817Z</time>
      </trkpt>
      <trkpt lat="45.92397" lon="5.58357">
        <ele>982</ele>
        <time>2021-09-05T13:41:13.843Z</time>
      </trkpt>
      <trkpt lat="45.92394" lon="5.58366">
        <ele>982</ele>
        <time>2021-09-05T13:41:18.814Z</time>
      </trkpt>
      <trkpt lat="45.92392" lon="5.58374">
        <ele>982</ele>
        <time>2021-09-05T13:41:22.821Z</time>
      </trkpt>
      <trkpt lat="45.92387" lon="5.58381">
        <ele>983</ele>
        <time>2021-09-05T13:41:27.812Z</time>
      </trkpt>
      <trkpt lat="45.92381" lon="5.58387">
        <ele>983</ele>
        <time>2021-09-05T13:41:32.807Z</time>
      </trkpt>
      <trkpt lat="45.92374" lon="5.5839">
        <ele>984</ele>
        <time>2021-09-05T13:41:37.785Z</time>
      </trkpt>
      <trkpt lat="45.92368" lon="5.58393">
        <ele>984</ele>
        <time>2021-09-05T13:41:41.807Z</time>
      </trkpt>
      <trkpt lat="45.92362" lon="5.58398">
        <ele>984</ele>
        <time>2021-09-05T13:41:46.802Z</time>
      </trkpt>
      <trkpt lat="45.92356" lon="5.58403">
        <ele>984</ele>
        <time>2021-09-05T13:41:51.818Z</time>
      </trkpt>
      <trkpt lat="45.92351" lon="5.58408">
        <ele>984</ele>
        <time>2021-09-05T13:41:55.841Z</time>
      </trkpt>
      <trkpt lat="45.92342" lon="5.58414">
        <ele>986</ele>
        <time>2021-09-05T13:42:00.836Z</time>
      </trkpt>
      <trkpt lat="45.92337" lon="5.58431">
        <ele>987</ele>
        <time>2021-09-05T13:42:05.811Z</time>
      </trkpt>
      <trkpt lat="45.92332" lon="5.58441">
        <ele>987</ele>
        <time>2021-09-05T13:42:10.844Z</time>
      </trkpt>
      <trkpt lat="45.92325" lon="5.58442">
        <ele>987</ele>
        <time>2021-09-05T13:42:15.815Z</time>
      </trkpt>
      <trkpt lat="45.92321" lon="5.58442">
        <ele>987</ele>
        <time>2021-09-05T13:42:20.803Z</time>
      </trkpt>
      <trkpt lat="45.92316" lon="5.58439">
        <ele>987</ele>
        <time>2021-09-05T13:42:25.809Z</time>
      </trkpt>
      <trkpt lat="45.92313" lon="5.58437">
        <ele>987</ele>
        <time>2021-09-05T13:42:29.811Z</time>
      </trkpt>
      <trkpt lat="45.92307" lon="5.58434">
        <ele>987</ele>
        <time>2021-09-05T13:42:34.842Z</time>
      </trkpt>
      <trkpt lat="45.923" lon="5.58437">
        <ele>987</ele>
        <time>2021-09-05T13:42:39.777Z</time>
      </trkpt>
      <trkpt lat="45.92293" lon="5.58445">
        <ele>987</ele>
        <time>2021-09-05T13:42:43.815Z</time>
      </trkpt>
      <trkpt lat="45.92286" lon="5.5845">
        <ele>986</ele>
        <time>2021-09-05T13:42:48.840Z</time>
      </trkpt>
      <trkpt lat="45.92278" lon="5.58455">
        <ele>986</ele>
        <time>2021-09-05T13:42:53.812Z</time>
      </trkpt>
      <trkpt lat="45.92267" lon="5.58463">
        <ele>989</ele>
        <time>2021-09-05T13:42:58.813Z</time>
      </trkpt>
      <trkpt lat="45.92261" lon="5.58463">
        <ele>988</ele>
        <time>2021-09-05T13:43:03.800Z</time>
      </trkpt>
      <trkpt lat="45.92254" lon="5.58462">
        <ele>988</ele>
        <time>2021-09-05T13:43:07.805Z</time>
      </trkpt>
      <trkpt lat="45.92249" lon="5.58466">
        <ele>988</ele>
        <time>2021-09-05T13:43:12.806Z</time>
      </trkpt>
      <trkpt lat="45.92243" lon="5.58466">
        <ele>988</ele>
        <time>2021-09-05T13:43:17.799Z</time>
      </trkpt>
      <trkpt lat="45.92237" lon="5.58466">
        <ele>988</ele>
        <time>2021-09-05T13:43:21.809Z</time>
      </trkpt>
      <trkpt lat="45.92229" lon="5.58468">
        <ele>987</ele>
        <time>2021-09-05T13:43:26.809Z</time>
      </trkpt>
      <trkpt lat="45.92222" lon="5.58475">
        <ele>987</ele>
        <time>2021-09-05T13:43:31.805Z</time>
      </trkpt>
      <trkpt lat="45.92212" lon="5.58488">
        <ele>989</ele>
        <time>2021-09-05T13:43:36.806Z</time>
      </trkpt>
      <trkpt lat="45.92209" lon="5.58494">
        <ele>989</ele>
        <time>2021-09-05T13:43:40.823Z</time>
      </trkpt>
      <trkpt lat="45.92203" lon="5.58499">
        <ele>986</ele>
        <time>2021-09-05T13:43:45.810Z</time>
      </trkpt>
      <trkpt lat="45.92198" lon="5.58502">
        <ele>986</ele>
        <time>2021-09-05T13:43:50.813Z</time>
      </trkpt>
      <trkpt lat="45.92195" lon="5.58502">
        <ele>986</ele>
        <time>2021-09-05T13:43:55.815Z</time>
      </trkpt>
      <trkpt lat="45.9219" lon="5.58506">
        <ele>986</ele>
        <time>2021-09-05T13:44:00.794Z</time>
      </trkpt>
      <trkpt lat="45.92189" lon="5.58516">
        <ele>988</ele>
        <time>2021-09-05T13:44:05.819Z</time>
      </trkpt>
      <trkpt lat="45.92187" lon="5.58523">
        <ele>988</ele>
        <time>2021-09-05T13:44:09.845Z</time>
      </trkpt>
      <trkpt lat="45.92183" lon="5.58537">
        <ele>988</ele>
        <time>2021-09-05T13:44:14.815Z</time>
      </trkpt>
      <trkpt lat="45.92183" lon="5.58548">
        <ele>991</ele>
        <time>2021-09-05T13:44:19.810Z</time>
      </trkpt>
      <trkpt lat="45.92181" lon="5.58563">
        <ele>991</ele>
        <time>2021-09-05T13:44:23.835Z</time>
      </trkpt>
      <trkpt lat="45.92179" lon="5.58576">
        <ele>991</ele>
        <time>2021-09-05T13:44:28.805Z</time>
      </trkpt>
      <trkpt lat="45.92179" lon="5.58587">
        <ele>991</ele>
        <time>2021-09-05T13:44:33.806Z</time>
      </trkpt>
      <trkpt lat="45.92178" lon="5.58598">
        <ele>993</ele>
        <time>2021-09-05T13:44:38.776Z</time>
      </trkpt>
      <trkpt lat="45.92178" lon="5.58607">
        <ele>993</ele>
        <time>2021-09-05T13:44:42.812Z</time>
      </trkpt>
      <trkpt lat="45.92178" lon="5.58619">
        <ele>993</ele>
        <time>2021-09-05T13:44:47.837Z</time>
      </trkpt>
      <trkpt lat="45.92178" lon="5.5863">
        <ele>994</ele>
        <time>2021-09-05T13:44:52.819Z</time>
      </trkpt>
      <trkpt lat="45.92176" lon="5.58639">
        <ele>994</ele>
        <time>2021-09-05T13:44:57.834Z</time>
      </trkpt>
      <trkpt lat="45.92175" lon="5.58648">
        <ele>994</ele>
        <time>2021-09-05T13:45:02.811Z</time>
      </trkpt>
      <trkpt lat="45.92171" lon="5.58661">
        <ele>996</ele>
        <time>2021-09-05T13:45:07.806Z</time>
      </trkpt>
      <trkpt lat="45.9217" lon="5.5867">
        <ele>996</ele>
        <time>2021-09-05T13:45:12.796Z</time>
      </trkpt>
      <trkpt lat="45.9217" lon="5.5868">
        <ele>996</ele>
        <time>2021-09-05T13:45:17.814Z</time>
      </trkpt>
      <trkpt lat="45.92168" lon="5.58688">
        <ele>996</ele>
        <time>2021-09-05T13:45:22.810Z</time>
      </trkpt>
      <trkpt lat="45.92165" lon="5.58696">
        <ele>996</ele>
        <time>2021-09-05T13:45:27.815Z</time>
      </trkpt>
      <trkpt lat="45.92163" lon="5.58703">
        <ele>996</ele>
        <time>2021-09-05T13:45:31.853Z</time>
      </trkpt>
      <trkpt lat="45.92161" lon="5.5871">
        <ele>997</ele>
        <time>2021-09-05T13:45:36.838Z</time>
      </trkpt>
      <trkpt lat="45.92156" lon="5.58717">
        <ele>997</ele>
        <time>2021-09-05T13:45:41.816Z</time>
      </trkpt>
      <trkpt lat="45.92138" lon="5.5873">
        <ele>992</ele>
        <time>2021-09-05T13:45:59.828Z</time>
      </trkpt>
      <trkpt lat="45.92137" lon="5.58724">
        <ele>992</ele>
        <time>2021-09-05T13:46:04.810Z</time>
      </trkpt>
      <trkpt lat="45.92135" lon="5.58719">
        <ele>992</ele>
        <time>2021-09-05T13:46:08.841Z</time>
      </trkpt>
      <trkpt lat="45.92132" lon="5.58714">
        <ele>992</ele>
        <time>2021-09-05T13:46:12.844Z</time>
      </trkpt>
      <trkpt lat="45.92129" lon="5.58701">
        <ele>992</ele>
        <time>2021-09-05T13:46:17.787Z</time>
      </trkpt>
      <trkpt lat="45.92124" lon="5.58689">
        <ele>987</ele>
        <time>2021-09-05T13:46:21.791Z</time>
      </trkpt>
      <trkpt lat="45.92119" lon="5.58684">
        <ele>987</ele>
        <time>2021-09-05T13:46:25.813Z</time>
      </trkpt>
      <trkpt lat="45.92113" lon="5.58678">
        <ele>988</ele>
        <time>2021-09-05T13:46:30.840Z</time>
      </trkpt>
      <trkpt lat="45.92108" lon="5.58673">
        <ele>988</ele>
        <time>2021-09-05T13:46:35.816Z</time>
      </trkpt>
      <trkpt lat="45.92104" lon="5.58668">
        <ele>988</ele>
        <time>2021-09-05T13:46:40.787Z</time>
      </trkpt>
      <trkpt lat="45.921" lon="5.58663">
        <ele>988</ele>
        <time>2021-09-05T13:46:44.842Z</time>
      </trkpt>
      <trkpt lat="45.92095" lon="5.58656">
        <ele>983</ele>
        <time>2021-09-05T13:46:49.795Z</time>
      </trkpt>
      <trkpt lat="45.9209" lon="5.58651">
        <ele>983</ele>
        <time>2021-09-05T13:46:53.806Z</time>
      </trkpt>
      <trkpt lat="45.92086" lon="5.58641">
        <ele>983</ele>
        <time>2021-09-05T13:46:58.799Z</time>
      </trkpt>
      <trkpt lat="45.92085" lon="5.58633">
        <ele>983</ele>
        <time>2021-09-05T13:47:02.827Z</time>
      </trkpt>
      <trkpt lat="45.92082" lon="5.58621">
        <ele>982</ele>
        <time>2021-09-05T13:47:07.808Z</time>
      </trkpt>
      <trkpt lat="45.92082" lon="5.58613">
        <ele>982</ele>
        <time>2021-09-05T13:47:11.805Z</time>
      </trkpt>
      <trkpt lat="45.92083" lon="5.58605">
        <ele>982</ele>
        <time>2021-09-05T13:47:15.823Z</time>
      </trkpt>
      <trkpt lat="45.92083" lon="5.58597">
        <ele>982</ele>
        <time>2021-09-05T13:47:20.835Z</time>
      </trkpt>
      <trkpt lat="45.92086" lon="5.58588">
        <ele>981</ele>
        <time>2021-09-05T13:47:25.820Z</time>
      </trkpt>
      <trkpt lat="45.92085" lon="5.58579">
        <ele>981</ele>
        <time>2021-09-05T13:47:30.862Z</time>
      </trkpt>
      <trkpt lat="45.92084" lon="5.58571">
        <ele>981</ele>
        <time>2021-09-05T13:47:35.848Z</time>
      </trkpt>
      <trkpt lat="45.92082" lon="5.58558">
        <ele>978</ele>
        <time>2021-09-05T13:47:40.785Z</time>
      </trkpt>
      <trkpt lat="45.92082" lon="5.58549">
        <ele>978</ele>
        <time>2021-09-05T13:47:44.809Z</time>
      </trkpt>
      <trkpt lat="45.92082" lon="5.5854">
        <ele>974</ele>
        <time>2021-09-05T13:47:49.838Z</time>
      </trkpt>
      <trkpt lat="45.92081" lon="5.58531">
        <ele>974</ele>
        <time>2021-09-05T13:47:54.805Z</time>
      </trkpt>
      <trkpt lat="45.92082" lon="5.58519">
        <ele>974</ele>
        <time>2021-09-05T13:47:59.803Z</time>
      </trkpt>
      <trkpt lat="45.92083" lon="5.58509">
        <ele>971</ele>
        <time>2021-09-05T13:48:03.819Z</time>
      </trkpt>
      <trkpt lat="45.92082" lon="5.58497">
        <ele>971</ele>
        <time>2021-09-05T13:48:08.811Z</time>
      </trkpt>
      <trkpt lat="45.92078" lon="5.58489">
        <ele>971</ele>
        <time>2021-09-05T13:48:13.807Z</time>
      </trkpt>
      <trkpt lat="45.92073" lon="5.58484">
        <ele>970</ele>
        <time>2021-09-05T13:48:18.811Z</time>
      </trkpt>
      <trkpt lat="45.92067" lon="5.58479">
        <ele>971</ele>
        <time>2021-09-05T13:48:23.803Z</time>
      </trkpt>
      <trkpt lat="45.92059" lon="5.58475">
        <ele>971</ele>
        <time>2021-09-05T13:48:27.811Z</time>
      </trkpt>
      <trkpt lat="45.92053" lon="5.58471">
        <ele>971</ele>
        <time>2021-09-05T13:48:32.812Z</time>
      </trkpt>
      <trkpt lat="45.92046" lon="5.58469">
        <ele>971</ele>
        <time>2021-09-05T13:48:37.809Z</time>
      </trkpt>
      <trkpt lat="45.92038" lon="5.58467">
        <ele>970</ele>
        <time>2021-09-05T13:48:42.777Z</time>
      </trkpt>
      <trkpt lat="45.92032" lon="5.58464">
        <ele>970</ele>
        <time>2021-09-05T13:48:46.788Z</time>
      </trkpt>
      <trkpt lat="45.92025" lon="5.5846">
        <ele>970</ele>
        <time>2021-09-05T13:48:51.816Z</time>
      </trkpt>
      <trkpt lat="45.92018" lon="5.58456">
        <ele>968</ele>
        <time>2021-09-05T13:48:56.808Z</time>
      </trkpt>
      <trkpt lat="45.92013" lon="5.58453">
        <ele>966</ele>
        <time>2021-09-05T13:49:00.815Z</time>
      </trkpt>
      <trkpt lat="45.92007" lon="5.58448">
        <ele>966</ele>
        <time>2021-09-05T13:49:05.810Z</time>
      </trkpt>
      <trkpt lat="45.92003" lon="5.58443">
        <ele>966</ele>
        <time>2021-09-05T13:49:09.815Z</time>
      </trkpt>
      <trkpt lat="45.91997" lon="5.58438">
        <ele>966</ele>
        <time>2021-09-05T13:49:14.802Z</time>
      </trkpt>
      <trkpt lat="45.91996" lon="5.58432">
        <ele>966</ele>
        <time>2021-09-05T13:49:18.836Z</time>
      </trkpt>
      <trkpt lat="45.91995" lon="5.58425">
        <ele>965</ele>
        <time>2021-09-05T13:49:23.811Z</time>
      </trkpt>
      <trkpt lat="45.91995" lon="5.58417">
        <ele>965</ele>
        <time>2021-09-05T13:49:28.814Z</time>
      </trkpt>
      <trkpt lat="45.91995" lon="5.58406">
        <ele>965</ele>
        <time>2021-09-05T13:49:33.805Z</time>
      </trkpt>
      <trkpt lat="45.91996" lon="5.58396">
        <ele>965</ele>
        <time>2021-09-05T13:49:38.813Z</time>
      </trkpt>
      <trkpt lat="45.91995" lon="5.58382">
        <ele>965</ele>
        <time>2021-09-05T13:49:43.862Z</time>
      </trkpt>
      <trkpt lat="45.91992" lon="5.58371">
        <ele>965</ele>
        <time>2021-09-05T13:49:48.847Z</time>
      </trkpt>
      <trkpt lat="45.91986" lon="5.58363">
        <ele>965</ele>
        <time>2021-09-05T13:49:53.836Z</time>
      </trkpt>
      <trkpt lat="45.9198" lon="5.58356">
        <ele>962</ele>
        <time>2021-09-05T13:49:58.785Z</time>
      </trkpt>
      <trkpt lat="45.91975" lon="5.58353">
        <ele>962</ele>
        <time>2021-09-05T13:50:02.841Z</time>
      </trkpt>
      <trkpt lat="45.91971" lon="5.58347">
        <ele>962</ele>
        <time>2021-09-05T13:50:06.843Z</time>
      </trkpt>
      <trkpt lat="45.91966" lon="5.58338">
        <ele>960</ele>
        <time>2021-09-05T13:50:11.810Z</time>
      </trkpt>
      <trkpt lat="45.91961" lon="5.58332">
        <ele>960</ele>
        <time>2021-09-05T13:50:15.834Z</time>
      </trkpt>
      <trkpt lat="45.91954" lon="5.58327">
        <ele>959</ele>
        <time>2021-09-05T13:50:20.842Z</time>
      </trkpt>
      <trkpt lat="45.91949" lon="5.58323">
        <ele>959</ele>
        <time>2021-09-05T13:50:24.840Z</time>
      </trkpt>
      <trkpt lat="45.91943" lon="5.58317">
        <ele>956</ele>
        <time>2021-09-05T13:50:29.833Z</time>
      </trkpt>
      <trkpt lat="45.91937" lon="5.58311">
        <ele>956</ele>
        <time>2021-09-05T13:50:34.811Z</time>
      </trkpt>
      <trkpt lat="45.91933" lon="5.58307">
        <ele>956</ele>
        <time>2021-09-05T13:50:38.816Z</time>
      </trkpt>
      <trkpt lat="45.91927" lon="5.58301">
        <ele>954</ele>
        <time>2021-09-05T13:50:43.778Z</time>
      </trkpt>
      <trkpt lat="45.91924" lon="5.58296">
        <ele>954</ele>
        <time>2021-09-05T13:50:47.806Z</time>
      </trkpt>
      <trkpt lat="45.91922" lon="5.5829">
        <ele>952</ele>
        <time>2021-09-05T13:50:51.837Z</time>
      </trkpt>
      <trkpt lat="45.91921" lon="5.58281">
        <ele>952</ele>
        <time>2021-09-05T13:50:56.838Z</time>
      </trkpt>
      <trkpt lat="45.9192" lon="5.58271">
        <ele>952</ele>
        <time>2021-09-05T13:51:01.813Z</time>
      </trkpt>
      <trkpt lat="45.9192" lon="5.58261">
        <ele>948</ele>
        <time>2021-09-05T13:51:06.832Z</time>
      </trkpt>
      <trkpt lat="45.91921" lon="5.58252">
        <ele>948</ele>
        <time>2021-09-05T13:51:11.814Z</time>
      </trkpt>
      <trkpt lat="45.91921" lon="5.58245">
        <ele>948</ele>
        <time>2021-09-05T13:51:16.809Z</time>
      </trkpt>
      <trkpt lat="45.91921" lon="5.5824">
        <ele>948</ele>
        <time>2021-09-05T13:51:21.823Z</time>
      </trkpt>
      <trkpt lat="45.91921" lon="5.58234">
        <ele>945</ele>
        <time>2021-09-05T13:51:26.810Z</time>
      </trkpt>
      <trkpt lat="45.91918" lon="5.58228">
        <ele>945</ele>
        <time>2021-09-05T13:51:31.807Z</time>
      </trkpt>
      <trkpt lat="45.91914" lon="5.58224">
        <ele>945</ele>
        <time>2021-09-05T13:51:35.817Z</time>
      </trkpt>
      <trkpt lat="45.91908" lon="5.58219">
        <ele>945</ele>
        <time>2021-09-05T13:51:40.818Z</time>
      </trkpt>
      <trkpt lat="45.91905" lon="5.58219">
        <ele>945</ele>
        <time>2021-09-05T13:51:44.841Z</time>
      </trkpt>
      <trkpt lat="45.91901" lon="5.58216">
        <ele>942</ele>
        <time>2021-09-05T13:51:48.851Z</time>
      </trkpt>
      <trkpt lat="45.91894" lon="5.58217">
        <ele>942</ele>
        <time>2021-09-05T13:51:53.781Z</time>
      </trkpt>
      <trkpt lat="45.91887" lon="5.5822">
        <ele>942</ele>
        <time>2021-09-05T13:51:58.866Z</time>
      </trkpt>
      <trkpt lat="45.91882" lon="5.58226">
        <ele>942</ele>
        <time>2021-09-05T13:52:03.849Z</time>
      </trkpt>
      <trkpt lat="45.91877" lon="5.58228">
        <ele>942</ele>
        <time>2021-09-05T13:52:08.819Z</time>
      </trkpt>
      <trkpt lat="45.91874" lon="5.58229">
        <ele>935</ele>
        <time>2021-09-05T13:52:12.828Z</time>
      </trkpt>
      <trkpt lat="45.9187" lon="5.58227">
        <ele>935</ele>
        <time>2021-09-05T13:52:17.826Z</time>
      </trkpt>
      <trkpt lat="45.91867" lon="5.58226">
        <ele>935</ele>
        <time>2021-09-05T13:52:21.831Z</time>
      </trkpt>
      <trkpt lat="45.91863" lon="5.58231">
        <ele>935</ele>
        <time>2021-09-05T13:52:26.779Z</time>
      </trkpt>
      <trkpt lat="45.91862" lon="5.58237">
        <ele>937</ele>
        <time>2021-09-05T13:52:30.854Z</time>
      </trkpt>
      <trkpt lat="45.91859" lon="5.58244">
        <ele>937</ele>
        <time>2021-09-05T13:52:35.840Z</time>
      </trkpt>
      <trkpt lat="45.91854" lon="5.5825">
        <ele>937</ele>
        <time>2021-09-05T13:52:40.803Z</time>
      </trkpt>
      <trkpt lat="45.91848" lon="5.58255">
        <ele>937</ele>
        <time>2021-09-05T13:52:45.785Z</time>
      </trkpt>
      <trkpt lat="45.91845" lon="5.5826">
        <ele>931</ele>
        <time>2021-09-05T13:52:49.810Z</time>
      </trkpt>
      <trkpt lat="45.9184" lon="5.58265">
        <ele>936</ele>
        <time>2021-09-05T13:52:54.810Z</time>
      </trkpt>
      <trkpt lat="45.91835" lon="5.58265">
        <ele>936</ele>
        <time>2021-09-05T13:52:59.807Z</time>
      </trkpt>
      <trkpt lat="45.9183" lon="5.58266">
        <ele>936</ele>
        <time>2021-09-05T13:53:04.810Z</time>
      </trkpt>
      <trkpt lat="45.91823" lon="5.58264">
        <ele>931</ele>
        <time>2021-09-05T13:53:09.826Z</time>
      </trkpt>
      <trkpt lat="45.91816" lon="5.5826">
        <ele>927</ele>
        <time>2021-09-05T13:53:14.800Z</time>
      </trkpt>
      <trkpt lat="45.91812" lon="5.58258">
        <ele>927</ele>
        <time>2021-09-05T13:53:18.812Z</time>
      </trkpt>
      <trkpt lat="45.91806" lon="5.58257">
        <ele>927</ele>
        <time>2021-09-05T13:53:22.859Z</time>
      </trkpt>
      <trkpt lat="45.91799" lon="5.5826">
        <ele>927</ele>
        <time>2021-09-05T13:53:27.808Z</time>
      </trkpt>
      <trkpt lat="45.91793" lon="5.5826">
        <ele>927</ele>
        <time>2021-09-05T13:53:32.810Z</time>
      </trkpt>
      <trkpt lat="45.91787" lon="5.5826">
        <ele>924</ele>
        <time>2021-09-05T13:53:36.809Z</time>
      </trkpt>
      <trkpt lat="45.9178" lon="5.58256">
        <ele>924</ele>
        <time>2021-09-05T13:53:41.806Z</time>
      </trkpt>
      <trkpt lat="45.91775" lon="5.58255">
        <ele>924</ele>
        <time>2021-09-05T13:53:46.795Z</time>
      </trkpt>
      <trkpt lat="45.91768" lon="5.58253">
        <ele>924</ele>
        <time>2021-09-05T13:53:51.806Z</time>
      </trkpt>
      <trkpt lat="45.91762" lon="5.58251">
        <ele>923</ele>
        <time>2021-09-05T13:53:55.818Z</time>
      </trkpt>
      <trkpt lat="45.91755" lon="5.58251">
        <ele>923</ele>
        <time>2021-09-05T13:54:00.812Z</time>
      </trkpt>
      <trkpt lat="45.91748" lon="5.58251">
        <ele>923</ele>
        <time>2021-09-05T13:54:05.806Z</time>
      </trkpt>
      <trkpt lat="45.91741" lon="5.58252">
        <ele>923</ele>
        <time>2021-09-05T13:54:10.820Z</time>
      </trkpt>
      <trkpt lat="45.91733" lon="5.58251">
        <ele>921</ele>
        <time>2021-09-05T13:54:15.802Z</time>
      </trkpt>
      <trkpt lat="45.91725" lon="5.5825">
        <ele>921</ele>
        <time>2021-09-05T13:54:20.819Z</time>
      </trkpt>
      <trkpt lat="45.91719" lon="5.5825">
        <ele>921</ele>
        <time>2021-09-05T13:54:25.823Z</time>
      </trkpt>
      <trkpt lat="45.91711" lon="5.58249">
        <ele>921</ele>
        <time>2021-09-05T13:54:30.805Z</time>
      </trkpt>
      <trkpt lat="45.91705" lon="5.58248">
        <ele>917</ele>
        <time>2021-09-05T13:54:35.796Z</time>
      </trkpt>
      <trkpt lat="45.91701" lon="5.58249">
        <ele>917</ele>
        <time>2021-09-05T13:54:40.809Z</time>
      </trkpt>
      <trkpt lat="45.91699" lon="5.5825">
        <ele>917</ele>
        <time>2021-09-05T13:54:45.778Z</time>
      </trkpt>
      <trkpt lat="45.91699" lon="5.58251">
        <ele>917</ele>
        <time>2021-09-05T13:54:49.799Z</time>
      </trkpt>
      <trkpt lat="45.91698" lon="5.58252">
        <ele>917</ele>
        <time>2021-09-05T13:54:54.811Z</time>
      </trkpt>
      <trkpt lat="45.91696" lon="5.58254">
        <ele>917</ele>
        <time>2021-09-05T13:54:59.802Z</time>
      </trkpt>
      <trkpt lat="45.91695" lon="5.58257">
        <ele>917</ele>
        <time>2021-09-05T13:55:04.805Z</time>
      </trkpt>
      <trkpt lat="45.91692" lon="5.58261">
        <ele>917</ele>
        <time>2021-09-05T13:55:08.837Z</time>
      </trkpt>
      <trkpt lat="45.91687" lon="5.58265">
        <ele>920</ele>
        <time>2021-09-05T13:55:13.811Z</time>
      </trkpt>
      <trkpt lat="45.91681" lon="5.58268">
        <ele>920</ele>
        <time>2021-09-05T13:55:18.768Z</time>
      </trkpt>
      <trkpt lat="45.91676" lon="5.58269">
        <ele>916</ele>
        <time>2021-09-05T13:55:22.777Z</time>
      </trkpt>
      <trkpt lat="45.91672" lon="5.58273">
        <ele>916</ele>
        <time>2021-09-05T13:55:26.770Z</time>
      </trkpt>
      <trkpt lat="45.91668" lon="5.58279">
        <ele>916</ele>
        <time>2021-09-05T13:55:31.775Z</time>
      </trkpt>
      <trkpt lat="45.91664" lon="5.58283">
        <ele>916</ele>
        <time>2021-09-05T13:55:36.770Z</time>
      </trkpt>
      <trkpt lat="45.9166" lon="5.58286">
        <ele>916</ele>
        <time>2021-09-05T13:55:40.782Z</time>
      </trkpt>
      <trkpt lat="45.91658" lon="5.58289">
        <ele>916</ele>
        <time>2021-09-05T13:55:45.783Z</time>
      </trkpt>
      <trkpt lat="45.91654" lon="5.58295">
        <ele>919</ele>
        <time>2021-09-05T13:55:50.771Z</time>
      </trkpt>
      <trkpt lat="45.91648" lon="5.58298">
        <ele>918</ele>
        <time>2021-09-05T13:55:55.772Z</time>
      </trkpt>
      <trkpt lat="45.91644" lon="5.58302">
        <ele>918</ele>
        <time>2021-09-05T13:56:00.776Z</time>
      </trkpt>
      <trkpt lat="45.9164" lon="5.58304">
        <ele>918</ele>
        <time>2021-09-05T13:56:04.780Z</time>
      </trkpt>
      <trkpt lat="45.91635" lon="5.58307">
        <ele>918</ele>
        <time>2021-09-05T13:56:09.772Z</time>
      </trkpt>
      <trkpt lat="45.9163" lon="5.58309">
        <ele>918</ele>
        <time>2021-09-05T13:56:14.780Z</time>
      </trkpt>
      <trkpt lat="45.91629" lon="5.58303">
        <ele>918</ele>
        <time>2021-09-05T13:56:19.782Z</time>
      </trkpt>
      <trkpt lat="45.91631" lon="5.58295">
        <ele>918</ele>
        <time>2021-09-05T13:56:24.778Z</time>
      </trkpt>
      <trkpt lat="45.91633" lon="5.58291">
        <ele>914</ele>
        <time>2021-09-05T13:56:29.778Z</time>
      </trkpt>
      <trkpt lat="45.91635" lon="5.58283">
        <ele>914</ele>
        <time>2021-09-05T13:56:34.778Z</time>
      </trkpt>
      <trkpt lat="45.91637" lon="5.58275">
        <ele>914</ele>
        <time>2021-09-05T13:56:39.779Z</time>
      </trkpt>
      <trkpt lat="45.91637" lon="5.58266">
        <ele>914</ele>
        <time>2021-09-05T13:56:44.784Z</time>
      </trkpt>
      <trkpt lat="45.91637" lon="5.58256">
        <ele>911</ele>
        <time>2021-09-05T13:56:49.783Z</time>
      </trkpt>
      <trkpt lat="45.91638" lon="5.58247">
        <ele>911</ele>
        <time>2021-09-05T13:56:54.771Z</time>
      </trkpt>
      <trkpt lat="45.9164" lon="5.58238">
        <ele>911</ele>
        <time>2021-09-05T13:56:59.782Z</time>
      </trkpt>
      <trkpt lat="45.9164" lon="5.5823">
        <ele>908</ele>
        <time>2021-09-05T13:57:03.785Z</time>
      </trkpt>
      <trkpt lat="45.91644" lon="5.58222">
        <ele>908</ele>
        <time>2021-09-05T13:57:08.784Z</time>
      </trkpt>
      <trkpt lat="45.91646" lon="5.58215">
        <ele>908</ele>
        <time>2021-09-05T13:57:13.778Z</time>
      </trkpt>
      <trkpt lat="45.91647" lon="5.5821">
        <ele>908</ele>
        <time>2021-09-05T13:57:17.783Z</time>
      </trkpt>
      <trkpt lat="45.91649" lon="5.58203">
        <ele>904</ele>
        <time>2021-09-05T13:57:22.772Z</time>
      </trkpt>
      <trkpt lat="45.91651" lon="5.58198">
        <ele>904</ele>
        <time>2021-09-05T13:57:26.783Z</time>
      </trkpt>
      <trkpt lat="45.91653" lon="5.5819">
        <ele>907</ele>
        <time>2021-09-05T13:57:31.782Z</time>
      </trkpt>
      <trkpt lat="45.91656" lon="5.58183">
        <ele>907</ele>
        <time>2021-09-05T13:57:36.780Z</time>
      </trkpt>
      <trkpt lat="45.91659" lon="5.58179">
        <ele>903</ele>
        <time>2021-09-05T13:57:40.809Z</time>
      </trkpt>
      <trkpt lat="45.91661" lon="5.58172">
        <ele>903</ele>
        <time>2021-09-05T13:57:44.835Z</time>
      </trkpt>
      <trkpt lat="45.91664" lon="5.58162">
        <ele>903</ele>
        <time>2021-09-05T13:57:49.809Z</time>
      </trkpt>
      <trkpt lat="45.91668" lon="5.58154">
        <ele>903</ele>
        <time>2021-09-05T13:57:53.838Z</time>
      </trkpt>
      <trkpt lat="45.91672" lon="5.58137">
        <ele>900</ele>
        <time>2021-09-05T13:57:57.859Z</time>
      </trkpt>
      <trkpt lat="45.9168" lon="5.58114">
        <ele>899</ele>
        <time>2021-09-05T13:58:02.845Z</time>
      </trkpt>
      <trkpt lat="45.91684" lon="5.58099">
        <ele>905</ele>
        <time>2021-09-05T13:58:07.803Z</time>
      </trkpt>
      <trkpt lat="45.91685" lon="5.58089">
        <ele>905</ele>
        <time>2021-09-05T13:58:12.840Z</time>
      </trkpt>
      <trkpt lat="45.91684" lon="5.58083">
        <ele>905</ele>
        <time>2021-09-05T13:58:17.833Z</time>
      </trkpt>
      <trkpt lat="45.91682" lon="5.58075">
        <ele>905</ele>
        <time>2021-09-05T13:58:22.809Z</time>
      </trkpt>
      <trkpt lat="45.91681" lon="5.58066">
        <ele>906</ele>
        <time>2021-09-05T13:58:26.835Z</time>
      </trkpt>
      <trkpt lat="45.91681" lon="5.5806">
        <ele>906</ele>
        <time>2021-09-05T13:58:30.851Z</time>
      </trkpt>
      <trkpt lat="45.91683" lon="5.58056">
        <ele>906</ele>
        <time>2021-09-05T13:58:35.794Z</time>
      </trkpt>
      <trkpt lat="45.91684" lon="5.58054">
        <ele>906</ele>
        <time>2021-09-05T13:58:39.793Z</time>
      </trkpt>
      <trkpt lat="45.91684" lon="5.5805">
        <ele>906</ele>
        <time>2021-09-05T13:58:43.800Z</time>
      </trkpt>
      <trkpt lat="45.91684" lon="5.58046">
        <ele>906</ele>
        <time>2021-09-05T13:58:48.779Z</time>
      </trkpt>
      <trkpt lat="45.91685" lon="5.58038">
        <ele>907</ele>
        <time>2021-09-05T13:58:52.805Z</time>
      </trkpt>
      <trkpt lat="45.91689" lon="5.58025">
        <ele>907</ele>
        <time>2021-09-05T13:58:57.768Z</time>
      </trkpt>
      <trkpt lat="45.91691" lon="5.58017">
        <ele>907</ele>
        <time>2021-09-05T13:59:01.807Z</time>
      </trkpt>
      <trkpt lat="45.91696" lon="5.58008">
        <ele>909</ele>
        <time>2021-09-05T13:59:06.807Z</time>
      </trkpt>
      <trkpt lat="45.91702" lon="5.58">
        <ele>909</ele>
        <time>2021-09-05T13:59:11.836Z</time>
      </trkpt>
      <trkpt lat="45.91706" lon="5.57992">
        <ele>909</ele>
        <time>2021-09-05T13:59:16.832Z</time>
      </trkpt>
      <trkpt lat="45.91709" lon="5.57985">
        <ele>909</ele>
        <time>2021-09-05T13:59:21.799Z</time>
      </trkpt>
      <trkpt lat="45.91711" lon="5.57977">
        <ele>909</ele>
        <time>2021-09-05T13:59:26.850Z</time>
      </trkpt>
      <trkpt lat="45.91717" lon="5.57971">
        <ele>909</ele>
        <time>2021-09-05T13:59:31.806Z</time>
      </trkpt>
      <trkpt lat="45.9172" lon="5.57965">
        <ele>909</ele>
        <time>2021-09-05T13:59:35.854Z</time>
      </trkpt>
      <trkpt lat="45.91721" lon="5.57957">
        <ele>906</ele>
        <time>2021-09-05T13:59:40.839Z</time>
      </trkpt>
      <trkpt lat="45.91724" lon="5.57951">
        <ele>906</ele>
        <time>2021-09-05T13:59:44.865Z</time>
      </trkpt>
      <trkpt lat="45.91727" lon="5.57944">
        <ele>906</ele>
        <time>2021-09-05T13:59:49.804Z</time>
      </trkpt>
      <trkpt lat="45.9173" lon="5.57938">
        <ele>906</ele>
        <time>2021-09-05T13:59:53.833Z</time>
      </trkpt>
      <trkpt lat="45.91733" lon="5.57932">
        <ele>906</ele>
        <time>2021-09-05T13:59:58.782Z</time>
      </trkpt>
      <trkpt lat="45.91734" lon="5.57925">
        <ele>906</ele>
        <time>2021-09-05T14:00:02.807Z</time>
      </trkpt>
      <trkpt lat="45.91736" lon="5.57918">
        <ele>906</ele>
        <time>2021-09-05T14:00:07.807Z</time>
      </trkpt>
      <trkpt lat="45.91739" lon="5.57911">
        <ele>907</ele>
        <time>2021-09-05T14:00:12.814Z</time>
      </trkpt>
      <trkpt lat="45.91742" lon="5.57903">
        <ele>907</ele>
        <time>2021-09-05T14:00:17.803Z</time>
      </trkpt>
      <trkpt lat="45.91748" lon="5.57893">
        <ele>908</ele>
        <time>2021-09-05T14:00:22.794Z</time>
      </trkpt>
      <trkpt lat="45.91748" lon="5.57883">
        <ele>908</ele>
        <time>2021-09-05T14:00:27.839Z</time>
      </trkpt>
      <trkpt lat="45.91747" lon="5.57872">
        <ele>909</ele>
        <time>2021-09-05T14:00:32.806Z</time>
      </trkpt>
      <trkpt lat="45.91751" lon="5.5786">
        <ele>909</ele>
        <time>2021-09-05T14:00:37.828Z</time>
      </trkpt>
      <trkpt lat="45.91756" lon="5.57849">
        <ele>909</ele>
        <time>2021-09-05T14:00:42.850Z</time>
      </trkpt>
      <trkpt lat="45.91763" lon="5.57843">
        <ele>909</ele>
        <time>2021-09-05T14:00:47.783Z</time>
      </trkpt>
      <trkpt lat="45.91763" lon="5.57834">
        <ele>909</ele>
        <time>2021-09-05T14:00:51.845Z</time>
      </trkpt>
      <trkpt lat="45.91766" lon="5.57822">
        <ele>911</ele>
        <time>2021-09-05T14:00:56.839Z</time>
      </trkpt>
      <trkpt lat="45.91767" lon="5.57813">
        <ele>910</ele>
        <time>2021-09-05T14:01:00.847Z</time>
      </trkpt>
      <trkpt lat="45.91768" lon="5.57806">
        <ele>910</ele>
        <time>2021-09-05T14:01:05.841Z</time>
      </trkpt>
      <trkpt lat="45.9177" lon="5.57798">
        <ele>910</ele>
        <time>2021-09-05T14:01:10.800Z</time>
      </trkpt>
      <trkpt lat="45.9177" lon="5.57791">
        <ele>908</ele>
        <time>2021-09-05T14:01:14.819Z</time>
      </trkpt>
      <trkpt lat="45.91773" lon="5.57782">
        <ele>908</ele>
        <time>2021-09-05T14:01:19.804Z</time>
      </trkpt>
      <trkpt lat="45.91774" lon="5.57774">
        <ele>908</ele>
        <time>2021-09-05T14:01:23.838Z</time>
      </trkpt>
      <trkpt lat="45.91775" lon="5.57763">
        <ele>906</ele>
        <time>2021-09-05T14:01:28.832Z</time>
      </trkpt>
      <trkpt lat="45.91778" lon="5.57753">
        <ele>906</ele>
        <time>2021-09-05T14:01:33.845Z</time>
      </trkpt>
      <trkpt lat="45.91779" lon="5.57745">
        <ele>906</ele>
        <time>2021-09-05T14:01:38.814Z</time>
      </trkpt>
      <trkpt lat="45.91781" lon="5.57737">
        <ele>906</ele>
        <time>2021-09-05T14:01:42.835Z</time>
      </trkpt>
      <trkpt lat="45.91782" lon="5.57727">
        <ele>903</ele>
        <time>2021-09-05T14:01:47.787Z</time>
      </trkpt>
      <trkpt lat="45.91784" lon="5.5772">
        <ele>903</ele>
        <time>2021-09-05T14:01:51.804Z</time>
      </trkpt>
      <trkpt lat="45.91785" lon="5.5771">
        <ele>903</ele>
        <time>2021-09-05T14:01:56.822Z</time>
      </trkpt>
      <trkpt lat="45.91784" lon="5.57702">
        <ele>900</ele>
        <time>2021-09-05T14:02:00.840Z</time>
      </trkpt>
      <trkpt lat="45.91783" lon="5.57692">
        <ele>900</ele>
        <time>2021-09-05T14:02:05.839Z</time>
      </trkpt>
      <trkpt lat="45.91782" lon="5.57683">
        <ele>900</ele>
        <time>2021-09-05T14:02:10.797Z</time>
      </trkpt>
      <trkpt lat="45.91781" lon="5.57675">
        <ele>897</ele>
        <time>2021-09-05T14:02:14.813Z</time>
      </trkpt>
      <trkpt lat="45.9178" lon="5.57667">
        <ele>897</ele>
        <time>2021-09-05T14:02:18.837Z</time>
      </trkpt>
      <trkpt lat="45.91776" lon="5.5766">
        <ele>897</ele>
        <time>2021-09-05T14:02:23.810Z</time>
      </trkpt>
      <trkpt lat="45.91774" lon="5.57654">
        <ele>897</ele>
        <time>2021-09-05T14:02:28.807Z</time>
      </trkpt>
      <trkpt lat="45.91773" lon="5.57646">
        <ele>894</ele>
        <time>2021-09-05T14:02:33.788Z</time>
      </trkpt>
      <trkpt lat="45.91769" lon="5.57643">
        <ele>894</ele>
        <time>2021-09-05T14:02:37.807Z</time>
      </trkpt>
      <trkpt lat="45.91763" lon="5.57645">
        <ele>890</ele>
        <time>2021-09-05T14:02:42.802Z</time>
      </trkpt>
      <trkpt lat="45.9176" lon="5.57646">
        <ele>890</ele>
        <time>2021-09-05T14:02:46.802Z</time>
      </trkpt>
      <trkpt lat="45.91757" lon="5.57638">
        <ele>890</ele>
        <time>2021-09-05T14:02:51.812Z</time>
      </trkpt>
      <trkpt lat="45.91754" lon="5.57628">
        <ele>890</ele>
        <time>2021-09-05T14:02:56.841Z</time>
      </trkpt>
      <trkpt lat="45.91751" lon="5.57622">
        <ele>888</ele>
        <time>2021-09-05T14:03:00.863Z</time>
      </trkpt>
      <trkpt lat="45.91748" lon="5.57614">
        <ele>888</ele>
        <time>2021-09-05T14:03:05.813Z</time>
      </trkpt>
      <trkpt lat="45.91742" lon="5.57612">
        <ele>888</ele>
        <time>2021-09-05T14:03:10.839Z</time>
      </trkpt>
      <trkpt lat="45.91736" lon="5.57612">
        <ele>882</ele>
        <time>2021-09-05T14:03:15.810Z</time>
      </trkpt>
      <trkpt lat="45.91732" lon="5.57608">
        <ele>882</ele>
        <time>2021-09-05T14:03:19.841Z</time>
      </trkpt>
      <trkpt lat="45.91729" lon="5.57599">
        <ele>882</ele>
        <time>2021-09-05T14:03:24.806Z</time>
      </trkpt>
      <trkpt lat="45.91724" lon="5.57592">
        <ele>881</ele>
        <time>2021-09-05T14:03:29.805Z</time>
      </trkpt>
      <trkpt lat="45.91718" lon="5.57585">
        <ele>881</ele>
        <time>2021-09-05T14:03:34.826Z</time>
      </trkpt>
      <trkpt lat="45.91714" lon="5.5758">
        <ele>881</ele>
        <time>2021-09-05T14:03:39.777Z</time>
      </trkpt>
      <trkpt lat="45.91711" lon="5.57574">
        <ele>881</ele>
        <time>2021-09-05T14:03:43.807Z</time>
      </trkpt>
      <trkpt lat="45.91706" lon="5.57569">
        <ele>878</ele>
        <time>2021-09-05T14:03:48.783Z</time>
      </trkpt>
      <trkpt lat="45.91702" lon="5.57567">
        <ele>878</ele>
        <time>2021-09-05T14:03:52.834Z</time>
      </trkpt>
      <trkpt lat="45.91699" lon="5.5756">
        <ele>878</ele>
        <time>2021-09-05T14:03:57.805Z</time>
      </trkpt>
      <trkpt lat="45.91697" lon="5.57555">
        <ele>878</ele>
        <time>2021-09-05T14:04:01.822Z</time>
      </trkpt>
      <trkpt lat="45.91696" lon="5.57547">
        <ele>878</ele>
        <time>2021-09-05T14:04:06.834Z</time>
      </trkpt>
      <trkpt lat="45.9169" lon="5.57542">
        <ele>878</ele>
        <time>2021-09-05T14:04:11.811Z</time>
      </trkpt>
      <trkpt lat="45.91683" lon="5.57542">
        <ele>878</ele>
        <time>2021-09-05T14:04:15.822Z</time>
      </trkpt>
      <trkpt lat="45.91679" lon="5.5754">
        <ele>876</ele>
        <time>2021-09-05T14:04:19.849Z</time>
      </trkpt>
      <trkpt lat="45.91673" lon="5.57547">
        <ele>877</ele>
        <time>2021-09-05T14:04:24.842Z</time>
      </trkpt>
      <trkpt lat="45.91667" lon="5.57547">
        <ele>877</ele>
        <time>2021-09-05T14:04:29.835Z</time>
      </trkpt>
      <trkpt lat="45.91661" lon="5.57547">
        <ele>877</ele>
        <time>2021-09-05T14:04:34.802Z</time>
      </trkpt>
      <trkpt lat="45.91655" lon="5.57547">
        <ele>877</ele>
        <time>2021-09-05T14:04:39.801Z</time>
      </trkpt>
      <trkpt lat="45.91651" lon="5.57553">
        <ele>875</ele>
        <time>2021-09-05T14:04:43.828Z</time>
      </trkpt>
      <trkpt lat="45.91644" lon="5.57559">
        <ele>875</ele>
        <time>2021-09-05T14:04:48.799Z</time>
      </trkpt>
      <trkpt lat="45.91639" lon="5.57561">
        <ele>875</ele>
        <time>2021-09-05T14:04:52.808Z</time>
      </trkpt>
      <trkpt lat="45.91635" lon="5.57566">
        <ele>875</ele>
        <time>2021-09-05T14:04:57.802Z</time>
      </trkpt>
      <trkpt lat="45.9163" lon="5.57567">
        <ele>875</ele>
        <time>2021-09-05T14:05:01.813Z</time>
      </trkpt>
      <trkpt lat="45.91624" lon="5.57567">
        <ele>873</ele>
        <time>2021-09-05T14:05:05.829Z</time>
      </trkpt>
      <trkpt lat="45.91619" lon="5.57568">
        <ele>873</ele>
        <time>2021-09-05T14:05:10.808Z</time>
      </trkpt>
      <trkpt lat="45.91616" lon="5.57565">
        <ele>873</ele>
        <time>2021-09-05T14:05:14.813Z</time>
      </trkpt>
      <trkpt lat="45.91609" lon="5.5756">
        <ele>873</ele>
        <time>2021-09-05T14:05:19.812Z</time>
      </trkpt>
      <trkpt lat="45.91603" lon="5.57562">
        <ele>873</ele>
        <time>2021-09-05T14:05:24.864Z</time>
      </trkpt>
      <trkpt lat="45.91598" lon="5.57561">
        <ele>873</ele>
        <time>2021-09-05T14:05:29.804Z</time>
      </trkpt>
      <trkpt lat="45.91597" lon="5.57552">
        <ele>870</ele>
        <time>2021-09-05T14:05:34.811Z</time>
      </trkpt>
      <trkpt lat="45.91593" lon="5.57545">
        <ele>870</ele>
        <time>2021-09-05T14:05:39.813Z</time>
      </trkpt>
      <trkpt lat="45.91591" lon="5.57539">
        <ele>868</ele>
        <time>2021-09-05T14:05:43.840Z</time>
      </trkpt>
      <trkpt lat="45.91592" lon="5.57531">
        <ele>868</ele>
        <time>2021-09-05T14:05:48.814Z</time>
      </trkpt>
      <trkpt lat="45.91592" lon="5.57523">
        <ele>868</ele>
        <time>2021-09-05T14:05:53.811Z</time>
      </trkpt>
      <trkpt lat="45.91591" lon="5.57513">
        <ele>865</ele>
        <time>2021-09-05T14:05:58.808Z</time>
      </trkpt>
      <trkpt lat="45.91592" lon="5.57504">
        <ele>865</ele>
        <time>2021-09-05T14:06:03.815Z</time>
      </trkpt>
      <trkpt lat="45.91593" lon="5.57494">
        <ele>865</ele>
        <time>2021-09-05T14:06:08.807Z</time>
      </trkpt>
      <trkpt lat="45.91592" lon="5.57485">
        <ele>863</ele>
        <time>2021-09-05T14:06:13.809Z</time>
      </trkpt>
      <trkpt lat="45.91588" lon="5.57475">
        <ele>863</ele>
        <time>2021-09-05T14:06:18.836Z</time>
      </trkpt>
      <trkpt lat="45.91581" lon="5.57471">
        <ele>863</ele>
        <time>2021-09-05T14:06:23.812Z</time>
      </trkpt>
      <trkpt lat="45.91577" lon="5.57471">
        <ele>863</ele>
        <time>2021-09-05T14:06:28.812Z</time>
      </trkpt>
      <trkpt lat="45.91576" lon="5.5747">
        <ele>863</ele>
        <time>2021-09-05T14:06:32.841Z</time>
      </trkpt>
      <trkpt lat="45.91568" lon="5.57469">
        <ele>859</ele>
        <time>2021-09-05T14:06:37.786Z</time>
      </trkpt>
      <trkpt lat="45.91562" lon="5.57468">
        <ele>859</ele>
        <time>2021-09-05T14:06:41.811Z</time>
      </trkpt>
      <trkpt lat="45.91554" lon="5.57468">
        <ele>859</ele>
        <time>2021-09-05T14:06:46.804Z</time>
      </trkpt>
      <trkpt lat="45.91548" lon="5.57469">
        <ele>859</ele>
        <time>2021-09-05T14:06:51.780Z</time>
      </trkpt>
      <trkpt lat="45.91542" lon="5.57471">
        <ele>859</ele>
        <time>2021-09-05T14:06:55.806Z</time>
      </trkpt>
      <trkpt lat="45.91536" lon="5.57476">
        <ele>856</ele>
        <time>2021-09-05T14:07:00.838Z</time>
      </trkpt>
      <trkpt lat="45.91528" lon="5.57476">
        <ele>856</ele>
        <time>2021-09-05T14:07:05.832Z</time>
      </trkpt>
      <trkpt lat="45.91522" lon="5.57478">
        <ele>856</ele>
        <time>2021-09-05T14:07:10.795Z</time>
      </trkpt>
      <trkpt lat="45.91518" lon="5.57482">
        <ele>856</ele>
        <time>2021-09-05T14:07:14.809Z</time>
      </trkpt>
      <trkpt lat="45.91512" lon="5.57488">
        <ele>855</ele>
        <time>2021-09-05T14:07:19.807Z</time>
      </trkpt>
      <trkpt lat="45.91507" lon="5.57491">
        <ele>855</ele>
        <time>2021-09-05T14:07:23.834Z</time>
      </trkpt>
      <trkpt lat="45.915" lon="5.57492">
        <ele>855</ele>
        <time>2021-09-05T14:07:28.795Z</time>
      </trkpt>
      <trkpt lat="45.91495" lon="5.5749">
        <ele>855</ele>
        <time>2021-09-05T14:07:32.812Z</time>
      </trkpt>
      <trkpt lat="45.91489" lon="5.57485">
        <ele>853</ele>
        <time>2021-09-05T14:07:37.830Z</time>
      </trkpt>
      <trkpt lat="45.91485" lon="5.57477">
        <ele>849</ele>
        <time>2021-09-05T14:07:42.838Z</time>
      </trkpt>
      <trkpt lat="45.91481" lon="5.57472">
        <ele>849</ele>
        <time>2021-09-05T14:07:47.813Z</time>
      </trkpt>
      <trkpt lat="45.91479" lon="5.57465">
        <ele>849</ele>
        <time>2021-09-05T14:07:52.816Z</time>
      </trkpt>
      <trkpt lat="45.91478" lon="5.57456">
        <ele>847</ele>
        <time>2021-09-05T14:07:57.841Z</time>
      </trkpt>
      <trkpt lat="45.91475" lon="5.57449">
        <ele>847</ele>
        <time>2021-09-05T14:08:02.810Z</time>
      </trkpt>
      <trkpt lat="45.9147" lon="5.57443">
        <ele>847</ele>
        <time>2021-09-05T14:08:07.807Z</time>
      </trkpt>
      <trkpt lat="45.91465" lon="5.57437">
        <ele>847</ele>
        <time>2021-09-05T14:08:12.880Z</time>
      </trkpt>
      <trkpt lat="45.91455" lon="5.5744">
        <ele>843</ele>
        <time>2021-09-05T14:08:17.801Z</time>
      </trkpt>
      <trkpt lat="45.91448" lon="5.57452">
        <ele>843</ele>
        <time>2021-09-05T14:08:21.793Z</time>
      </trkpt>
      <trkpt lat="45.91442" lon="5.57459">
        <ele>845</ele>
        <time>2021-09-05T14:08:25.810Z</time>
      </trkpt>
      <trkpt lat="45.91434" lon="5.57463">
        <ele>845</ele>
        <time>2021-09-05T14:08:30.825Z</time>
      </trkpt>
      <trkpt lat="45.91424" lon="5.57464">
        <ele>845</ele>
        <time>2021-09-05T14:08:35.804Z</time>
      </trkpt>
      <trkpt lat="45.91415" lon="5.57465">
        <ele>845</ele>
        <time>2021-09-05T14:08:40.815Z</time>
      </trkpt>
      <trkpt lat="45.91407" lon="5.57467">
        <ele>845</ele>
        <time>2021-09-05T14:08:45.811Z</time>
      </trkpt>
      <trkpt lat="45.91401" lon="5.5747">
        <ele>847</ele>
        <time>2021-09-05T14:08:49.817Z</time>
      </trkpt>
      <trkpt lat="45.91396" lon="5.57471">
        <ele>847</ele>
        <time>2021-09-05T14:08:54.781Z</time>
      </trkpt>
      <trkpt lat="45.9139" lon="5.5747">
        <ele>847</ele>
        <time>2021-09-05T14:08:58.841Z</time>
      </trkpt>
      <trkpt lat="45.91385" lon="5.57469">
        <ele>847</ele>
        <time>2021-09-05T14:09:03.808Z</time>
      </trkpt>
      <trkpt lat="45.91379" lon="5.57467">
        <ele>847</ele>
        <time>2021-09-05T14:09:08.805Z</time>
      </trkpt>
      <trkpt lat="45.91374" lon="5.57468">
        <ele>847</ele>
        <time>2021-09-05T14:09:13.839Z</time>
      </trkpt>
      <trkpt lat="45.91368" lon="5.57469">
        <ele>847</ele>
        <time>2021-09-05T14:09:18.806Z</time>
      </trkpt>
      <trkpt lat="45.91364" lon="5.5747">
        <ele>847</ele>
        <time>2021-09-05T14:09:22.828Z</time>
      </trkpt>
      <trkpt lat="45.91357" lon="5.57467">
        <ele>847</ele>
        <time>2021-09-05T14:09:27.818Z</time>
      </trkpt>
      <trkpt lat="45.91349" lon="5.57466">
        <ele>847</ele>
        <time>2021-09-05T14:09:32.810Z</time>
      </trkpt>
      <trkpt lat="45.91343" lon="5.57466">
        <ele>844</ele>
        <time>2021-09-05T14:09:37.815Z</time>
      </trkpt>
      <trkpt lat="45.91336" lon="5.57466">
        <ele>844</ele>
        <time>2021-09-05T14:09:42.814Z</time>
      </trkpt>
      <trkpt lat="45.91331" lon="5.57469">
        <ele>844</ele>
        <time>2021-09-05T14:09:46.811Z</time>
      </trkpt>
      <trkpt lat="45.91324" lon="5.57473">
        <ele>844</ele>
        <time>2021-09-05T14:09:51.790Z</time>
      </trkpt>
      <trkpt lat="45.91316" lon="5.57479">
        <ele>840</ele>
        <time>2021-09-05T14:09:55.812Z</time>
      </trkpt>
      <trkpt lat="45.91303" lon="5.5749">
        <ele>843</ele>
        <time>2021-09-05T14:10:00.805Z</time>
      </trkpt>
      <trkpt lat="45.91294" lon="5.57499">
        <ele>843</ele>
        <time>2021-09-05T14:10:04.814Z</time>
      </trkpt>
      <trkpt lat="45.9129" lon="5.57506">
        <ele>838</ele>
        <time>2021-09-05T14:10:09.798Z</time>
      </trkpt>
      <trkpt lat="45.91286" lon="5.57511">
        <ele>838</ele>
        <time>2021-09-05T14:10:13.800Z</time>
      </trkpt>
      <trkpt lat="45.9128" lon="5.57518">
        <ele>840</ele>
        <time>2021-09-05T14:10:18.852Z</time>
      </trkpt>
      <trkpt lat="45.91273" lon="5.57526">
        <ele>840</ele>
        <time>2021-09-05T14:10:23.809Z</time>
      </trkpt>
      <trkpt lat="45.91263" lon="5.57532">
        <ele>836</ele>
        <time>2021-09-05T14:10:28.838Z</time>
      </trkpt>
      <trkpt lat="45.91258" lon="5.57537">
        <ele>836</ele>
        <time>2021-09-05T14:10:32.844Z</time>
      </trkpt>
      <trkpt lat="45.91252" lon="5.57541">
        <ele>836</ele>
        <time>2021-09-05T14:10:37.833Z</time>
      </trkpt>
      <trkpt lat="45.91247" lon="5.57546">
        <ele>839</ele>
        <time>2021-09-05T14:10:42.812Z</time>
      </trkpt>
      <trkpt lat="45.91242" lon="5.57552">
        <ele>839</ele>
        <time>2021-09-05T14:10:46.842Z</time>
      </trkpt>
      <trkpt lat="45.91233" lon="5.5756">
        <ele>837</ele>
        <time>2021-09-05T14:10:51.807Z</time>
      </trkpt>
      <trkpt lat="45.91227" lon="5.57568">
        <ele>837</ele>
        <time>2021-09-05T14:10:56.855Z</time>
      </trkpt>
      <trkpt lat="45.91221" lon="5.57574">
        <ele>841</ele>
        <time>2021-09-05T14:11:01.844Z</time>
      </trkpt>
      <trkpt lat="45.91216" lon="5.57579">
        <ele>841</ele>
        <time>2021-09-05T14:11:05.860Z</time>
      </trkpt>
      <trkpt lat="45.91208" lon="5.57585">
        <ele>840</ele>
        <time>2021-09-05T14:11:10.805Z</time>
      </trkpt>
      <trkpt lat="45.91202" lon="5.57591">
        <ele>840</ele>
        <time>2021-09-05T14:11:15.843Z</time>
      </trkpt>
      <trkpt lat="45.91197" lon="5.57596">
        <ele>840</ele>
        <time>2021-09-05T14:11:19.803Z</time>
      </trkpt>
      <trkpt lat="45.91192" lon="5.57598">
        <ele>845</ele>
        <time>2021-09-05T14:11:24.812Z</time>
      </trkpt>
      <trkpt lat="45.91188" lon="5.57598">
        <ele>845</ele>
        <time>2021-09-05T14:11:28.835Z</time>
      </trkpt>
      <trkpt lat="45.9118" lon="5.57596">
        <ele>838</ele>
        <time>2021-09-05T14:11:33.814Z</time>
      </trkpt>
      <trkpt lat="45.91174" lon="5.57595">
        <ele>838</ele>
        <time>2021-09-05T14:11:37.829Z</time>
      </trkpt>
      <trkpt lat="45.91166" lon="5.57595">
        <ele>838</ele>
        <time>2021-09-05T14:11:42.860Z</time>
      </trkpt>
      <trkpt lat="45.91155" lon="5.57601">
        <ele>843</ele>
        <time>2021-09-05T14:11:47.807Z</time>
      </trkpt>
      <trkpt lat="45.91147" lon="5.57607">
        <ele>842</ele>
        <time>2021-09-05T14:11:52.786Z</time>
      </trkpt>
      <trkpt lat="45.91143" lon="5.57612">
        <ele>842</ele>
        <time>2021-09-05T14:11:57.788Z</time>
      </trkpt>
      <trkpt lat="45.91138" lon="5.57618">
        <ele>842</ele>
        <time>2021-09-05T14:12:01.841Z</time>
      </trkpt>
      <trkpt lat="45.91133" lon="5.57623">
        <ele>842</ele>
        <time>2021-09-05T14:12:06.805Z</time>
      </trkpt>
      <trkpt lat="45.91127" lon="5.57629">
        <ele>845</ele>
        <time>2021-09-05T14:12:11.807Z</time>
      </trkpt>
      <trkpt lat="45.91119" lon="5.57636">
        <ele>843</ele>
        <time>2021-09-05T14:12:16.833Z</time>
      </trkpt>
      <trkpt lat="45.91109" lon="5.57645">
        <ele>843</ele>
        <time>2021-09-05T14:12:21.805Z</time>
      </trkpt>
      <trkpt lat="45.91103" lon="5.5765">
        <ele>843</ele>
        <time>2021-09-05T14:12:25.807Z</time>
      </trkpt>
      <trkpt lat="45.91098" lon="5.57652">
        <ele>843</ele>
        <time>2021-09-05T14:12:29.832Z</time>
      </trkpt>
      <trkpt lat="45.91091" lon="5.57655">
        <ele>845</ele>
        <time>2021-09-05T14:12:34.805Z</time>
      </trkpt>
      <trkpt lat="45.91084" lon="5.57659">
        <ele>845</ele>
        <time>2021-09-05T14:12:39.841Z</time>
      </trkpt>
      <trkpt lat="45.91077" lon="5.5766">
        <ele>845</ele>
        <time>2021-09-05T14:12:44.802Z</time>
      </trkpt>
      <trkpt lat="45.91071" lon="5.57661">
        <ele>845</ele>
        <time>2021-09-05T14:12:49.811Z</time>
      </trkpt>
      <trkpt lat="45.91064" lon="5.57662">
        <ele>843</ele>
        <time>2021-09-05T14:12:54.780Z</time>
      </trkpt>
      <trkpt lat="45.91058" lon="5.57663">
        <ele>843</ele>
        <time>2021-09-05T14:12:58.812Z</time>
      </trkpt>
      <trkpt lat="45.91051" lon="5.57664">
        <ele>843</ele>
        <time>2021-09-05T14:13:03.801Z</time>
      </trkpt>
      <trkpt lat="45.91045" lon="5.57667">
        <ele>843</ele>
        <time>2021-09-05T14:13:07.811Z</time>
      </trkpt>
      <trkpt lat="45.9104" lon="5.57669">
        <ele>837</ele>
        <time>2021-09-05T14:13:11.821Z</time>
      </trkpt>
      <trkpt lat="45.91034" lon="5.57672">
        <ele>837</ele>
        <time>2021-09-05T14:13:16.810Z</time>
      </trkpt>
      <trkpt lat="45.9103" lon="5.57677">
        <ele>837</ele>
        <time>2021-09-05T14:13:20.837Z</time>
      </trkpt>
      <trkpt lat="45.91026" lon="5.57682">
        <ele>838</ele>
        <time>2021-09-05T14:13:25.799Z</time>
      </trkpt>
      <trkpt lat="45.9102" lon="5.57685">
        <ele>838</ele>
        <time>2021-09-05T14:13:30.812Z</time>
      </trkpt>
      <trkpt lat="45.91016" lon="5.57688">
        <ele>838</ele>
        <time>2021-09-05T14:13:34.844Z</time>
      </trkpt>
      <trkpt lat="45.91013" lon="5.57692">
        <ele>833</ele>
        <time>2021-09-05T14:13:38.866Z</time>
      </trkpt>
      <trkpt lat="45.91005" lon="5.57695">
        <ele>833</ele>
        <time>2021-09-05T14:13:43.798Z</time>
      </trkpt>
      <trkpt lat="45.90999" lon="5.57697">
        <ele>833</ele>
        <time>2021-09-05T14:13:47.816Z</time>
      </trkpt>
      <trkpt lat="45.90983" lon="5.57698">
        <ele>828</ele>
        <time>2021-09-05T14:13:52.816Z</time>
      </trkpt>
      <trkpt lat="45.90971" lon="5.57695">
        <ele>828</ele>
        <time>2021-09-05T14:13:57.793Z</time>
      </trkpt>
      <trkpt lat="45.90963" lon="5.57693">
        <ele>828</ele>
        <time>2021-09-05T14:14:02.799Z</time>
      </trkpt>
      <trkpt lat="45.90957" lon="5.57691">
        <ele>827</ele>
        <time>2021-09-05T14:14:06.811Z</time>
      </trkpt>
      <trkpt lat="45.9095" lon="5.5769">
        <ele>827</ele>
        <time>2021-09-05T14:14:11.812Z</time>
      </trkpt>
      <trkpt lat="45.90944" lon="5.5769">
        <ele>827</ele>
        <time>2021-09-05T14:14:16.795Z</time>
      </trkpt>
      <trkpt lat="45.90938" lon="5.5769">
        <ele>827</ele>
        <time>2021-09-05T14:14:20.817Z</time>
      </trkpt>
      <trkpt lat="45.90932" lon="5.57692">
        <ele>827</ele>
        <time>2021-09-05T14:14:25.800Z</time>
      </trkpt>
      <trkpt lat="45.90927" lon="5.57695">
        <ele>825</ele>
        <time>2021-09-05T14:14:29.860Z</time>
      </trkpt>
      <trkpt lat="45.9092" lon="5.57699">
        <ele>825</ele>
        <time>2021-09-05T14:14:34.797Z</time>
      </trkpt>
      <trkpt lat="45.90914" lon="5.57701">
        <ele>825</ele>
        <time>2021-09-05T14:14:38.796Z</time>
      </trkpt>
      <trkpt lat="45.90909" lon="5.57703">
        <ele>825</ele>
        <time>2021-09-05T14:14:42.810Z</time>
      </trkpt>
      <trkpt lat="45.90897" lon="5.57707">
        <ele>819</ele>
        <time>2021-09-05T14:14:47.794Z</time>
      </trkpt>
      <trkpt lat="45.90887" lon="5.57713">
        <ele>823</ele>
        <time>2021-09-05T14:14:52.804Z</time>
      </trkpt>
      <trkpt lat="45.90881" lon="5.57717">
        <ele>823</ele>
        <time>2021-09-05T14:14:56.807Z</time>
      </trkpt>
      <trkpt lat="45.90874" lon="5.57723">
        <ele>818</ele>
        <time>2021-09-05T14:15:01.775Z</time>
      </trkpt>
      <trkpt lat="45.90869" lon="5.57729">
        <ele>818</ele>
        <time>2021-09-05T14:15:05.806Z</time>
      </trkpt>
      <trkpt lat="45.90864" lon="5.57735">
        <ele>818</ele>
        <time>2021-09-05T14:15:09.832Z</time>
      </trkpt>
      <trkpt lat="45.90858" lon="5.57742">
        <ele>823</ele>
        <time>2021-09-05T14:15:14.800Z</time>
      </trkpt>
      <trkpt lat="45.90854" lon="5.57747">
        <ele>823</ele>
        <time>2021-09-05T14:15:18.814Z</time>
      </trkpt>
      <trkpt lat="45.90849" lon="5.57751">
        <ele>823</ele>
        <time>2021-09-05T14:15:22.820Z</time>
      </trkpt>
      <trkpt lat="45.90843" lon="5.57756">
        <ele>820</ele>
        <time>2021-09-05T14:15:27.797Z</time>
      </trkpt>
      <trkpt lat="45.90837" lon="5.57761">
        <ele>820</ele>
        <time>2021-09-05T14:15:32.776Z</time>
      </trkpt>
      <trkpt lat="45.90832" lon="5.57766">
        <ele>825</ele>
        <time>2021-09-05T14:15:36.818Z</time>
      </trkpt>
      <trkpt lat="45.90827" lon="5.57772">
        <ele>825</ele>
        <time>2021-09-05T14:15:40.825Z</time>
      </trkpt>
      <trkpt lat="45.90821" lon="5.57778">
        <ele>825</ele>
        <time>2021-09-05T14:15:45.833Z</time>
      </trkpt>
      <trkpt lat="45.90815" lon="5.57783">
        <ele>821</ele>
        <time>2021-09-05T14:15:50.799Z</time>
      </trkpt>
      <trkpt lat="45.90811" lon="5.57788">
        <ele>821</ele>
        <time>2021-09-05T14:15:54.805Z</time>
      </trkpt>
      <trkpt lat="45.90805" lon="5.57793">
        <ele>826</ele>
        <time>2021-09-05T14:15:59.773Z</time>
      </trkpt>
      <trkpt lat="45.90799" lon="5.57798">
        <ele>826</ele>
        <time>2021-09-05T14:16:04.781Z</time>
      </trkpt>
      <trkpt lat="45.90792" lon="5.57803">
        <ele>822</ele>
        <time>2021-09-05T14:16:08.801Z</time>
      </trkpt>
      <trkpt lat="45.90784" lon="5.57808">
        <ele>822</ele>
        <time>2021-09-05T14:16:13.811Z</time>
      </trkpt>
      <trkpt lat="45.90778" lon="5.57811">
        <ele>822</ele>
        <time>2021-09-05T14:16:18.830Z</time>
      </trkpt>
      <trkpt lat="45.9077" lon="5.57816">
        <ele>822</ele>
        <time>2021-09-05T14:16:23.804Z</time>
      </trkpt>
      <trkpt lat="45.90763" lon="5.5782">
        <ele>823</ele>
        <time>2021-09-05T14:16:28.807Z</time>
      </trkpt>
      <trkpt lat="45.90756" lon="5.57824">
        <ele>823</ele>
        <time>2021-09-05T14:16:33.817Z</time>
      </trkpt>
      <trkpt lat="45.90749" lon="5.57829">
        <ele>823</ele>
        <time>2021-09-05T14:16:38.810Z</time>
      </trkpt>
      <trkpt lat="45.90742" lon="5.57832">
        <ele>823</ele>
        <time>2021-09-05T14:16:42.839Z</time>
      </trkpt>
      <trkpt lat="45.90733" lon="5.57836">
        <ele>822</ele>
        <time>2021-09-05T14:16:47.799Z</time>
      </trkpt>
      <trkpt lat="45.90726" lon="5.57841">
        <ele>822</ele>
        <time>2021-09-05T14:16:52.801Z</time>
      </trkpt>
      <trkpt lat="45.90718" lon="5.57844">
        <ele>822</ele>
        <time>2021-09-05T14:16:57.805Z</time>
      </trkpt>
      <trkpt lat="45.90711" lon="5.57848">
        <ele>827</ele>
        <time>2021-09-05T14:17:02.776Z</time>
      </trkpt>
      <trkpt lat="45.90705" lon="5.57852">
        <ele>824</ele>
        <time>2021-09-05T14:17:06.806Z</time>
      </trkpt>
      <trkpt lat="45.90699" lon="5.57857">
        <ele>824</ele>
        <time>2021-09-05T14:17:10.822Z</time>
      </trkpt>
      <trkpt lat="45.9069" lon="5.57863">
        <ele>824</ele>
        <time>2021-09-05T14:17:15.800Z</time>
      </trkpt>
      <trkpt lat="45.90683" lon="5.57867">
        <ele>824</ele>
        <time>2021-09-05T14:17:20.815Z</time>
      </trkpt>
      <trkpt lat="45.90677" lon="5.57869">
        <ele>822</ele>
        <time>2021-09-05T14:17:24.829Z</time>
      </trkpt>
      <trkpt lat="45.9067" lon="5.57875">
        <ele>822</ele>
        <time>2021-09-05T14:17:29.798Z</time>
      </trkpt>
      <trkpt lat="45.90663" lon="5.57879">
        <ele>825</ele>
        <time>2021-09-05T14:17:34.818Z</time>
      </trkpt>
      <trkpt lat="45.90656" lon="5.57884">
        <ele>825</ele>
        <time>2021-09-05T14:17:39.812Z</time>
      </trkpt>
      <trkpt lat="45.9065" lon="5.57889">
        <ele>823</ele>
        <time>2021-09-05T14:17:44.809Z</time>
      </trkpt>
      <trkpt lat="45.90644" lon="5.57892">
        <ele>823</ele>
        <time>2021-09-05T14:17:48.810Z</time>
      </trkpt>
      <trkpt lat="45.90638" lon="5.57898">
        <ele>823</ele>
        <time>2021-09-05T14:17:53.830Z</time>
      </trkpt>
      <trkpt lat="45.90631" lon="5.57904">
        <ele>825</ele>
        <time>2021-09-05T14:17:58.809Z</time>
      </trkpt>
      <trkpt lat="45.90626" lon="5.57908">
        <ele>825</ele>
        <time>2021-09-05T14:18:02.834Z</time>
      </trkpt>
      <trkpt lat="45.90621" lon="5.57912">
        <ele>824</ele>
        <time>2021-09-05T14:18:06.836Z</time>
      </trkpt>
      <trkpt lat="45.90615" lon="5.57919">
        <ele>824</ele>
        <time>2021-09-05T14:18:11.785Z</time>
      </trkpt>
      <trkpt lat="45.90609" lon="5.57923">
        <ele>824</ele>
        <time>2021-09-05T14:18:15.813Z</time>
      </trkpt>
      <trkpt lat="45.90603" lon="5.57928">
        <ele>824</ele>
        <time>2021-09-05T14:18:20.799Z</time>
      </trkpt>
      <trkpt lat="45.90598" lon="5.57932">
        <ele>826</ele>
        <time>2021-09-05T14:18:24.820Z</time>
      </trkpt>
      <trkpt lat="45.90591" lon="5.57937">
        <ele>825</ele>
        <time>2021-09-05T14:18:29.839Z</time>
      </trkpt>
      <trkpt lat="45.90585" lon="5.57942">
        <ele>825</ele>
        <time>2021-09-05T14:18:34.784Z</time>
      </trkpt>
      <trkpt lat="45.90579" lon="5.57946">
        <ele>825</ele>
        <time>2021-09-05T14:18:38.834Z</time>
      </trkpt>
      <trkpt lat="45.90575" lon="5.57949">
        <ele>825</ele>
        <time>2021-09-05T14:18:42.858Z</time>
      </trkpt>
      <trkpt lat="45.90569" lon="5.57952">
        <ele>823</ele>
        <time>2021-09-05T14:18:47.835Z</time>
      </trkpt>
      <trkpt lat="45.90563" lon="5.57957">
        <ele>823</ele>
        <time>2021-09-05T14:18:52.806Z</time>
      </trkpt>
      <trkpt lat="45.90556" lon="5.57962">
        <ele>826</ele>
        <time>2021-09-05T14:18:56.834Z</time>
      </trkpt>
      <trkpt lat="45.90549" lon="5.57968">
        <ele>826</ele>
        <time>2021-09-05T14:19:01.777Z</time>
      </trkpt>
      <trkpt lat="45.90542" lon="5.57974">
        <ele>826</ele>
        <time>2021-09-05T14:19:05.836Z</time>
      </trkpt>
      <trkpt lat="45.90536" lon="5.5798">
        <ele>823</ele>
        <time>2021-09-05T14:19:10.782Z</time>
      </trkpt>
      <trkpt lat="45.90531" lon="5.57985">
        <ele>823</ele>
        <time>2021-09-05T14:19:15.766Z</time>
      </trkpt>
      <trkpt lat="45.90526" lon="5.57989">
        <ele>824</ele>
        <time>2021-09-05T14:19:19.783Z</time>
      </trkpt>
      <trkpt lat="45.90521" lon="5.57996">
        <ele>824</ele>
        <time>2021-09-05T14:19:24.780Z</time>
      </trkpt>
      <trkpt lat="45.90516" lon="5.58002">
        <ele>824</ele>
        <time>2021-09-05T14:19:29.780Z</time>
      </trkpt>
      <trkpt lat="45.90512" lon="5.58009">
        <ele>822</ele>
        <time>2021-09-05T14:19:34.784Z</time>
      </trkpt>
      <trkpt lat="45.90508" lon="5.58015">
        <ele>823</ele>
        <time>2021-09-05T14:19:39.778Z</time>
      </trkpt>
      <trkpt lat="45.90503" lon="5.58021">
        <ele>823</ele>
        <time>2021-09-05T14:19:44.780Z</time>
      </trkpt>
      <trkpt lat="45.905" lon="5.58025">
        <ele>823</ele>
        <time>2021-09-05T14:19:48.788Z</time>
      </trkpt>
      <trkpt lat="45.90496" lon="5.58026">
        <ele>823</ele>
        <time>2021-09-05T14:19:53.790Z</time>
      </trkpt>
      <trkpt lat="45.90489" lon="5.58029">
        <ele>823</ele>
        <time>2021-09-05T14:19:58.776Z</time>
      </trkpt>
      <trkpt lat="45.90484" lon="5.58033">
        <ele>822</ele>
        <time>2021-09-05T14:20:02.783Z</time>
      </trkpt>
      <trkpt lat="45.90478" lon="5.58037">
        <ele>822</ele>
        <time>2021-09-05T14:20:07.771Z</time>
      </trkpt>
      <trkpt lat="45.90473" lon="5.5804">
        <ele>822</ele>
        <time>2021-09-05T14:20:11.779Z</time>
      </trkpt>
      <trkpt lat="45.90467" lon="5.58042">
        <ele>822</ele>
        <time>2021-09-05T14:20:16.780Z</time>
      </trkpt>
      <trkpt lat="45.90461" lon="5.58043">
        <ele>822</ele>
        <time>2021-09-05T14:20:21.784Z</time>
      </trkpt>
      <trkpt lat="45.90455" lon="5.58044">
        <ele>819</ele>
        <time>2021-09-05T14:20:26.780Z</time>
      </trkpt>
      <trkpt lat="45.9045" lon="5.58044">
        <ele>819</ele>
        <time>2021-09-05T14:20:30.789Z</time>
      </trkpt>
      <trkpt lat="45.90444" lon="5.58042">
        <ele>819</ele>
        <time>2021-09-05T14:20:35.778Z</time>
      </trkpt>
      <trkpt lat="45.90438" lon="5.58038">
        <ele>818</ele>
        <time>2021-09-05T14:20:40.780Z</time>
      </trkpt>
      <trkpt lat="45.90432" lon="5.58035">
        <ele>818</ele>
        <time>2021-09-05T14:20:45.780Z</time>
      </trkpt>
      <trkpt lat="45.90427" lon="5.58031">
        <ele>815</ele>
        <time>2021-09-05T14:20:50.777Z</time>
      </trkpt>
      <trkpt lat="45.90422" lon="5.58032">
        <ele>815</ele>
        <time>2021-09-05T14:20:55.779Z</time>
      </trkpt>
      <trkpt lat="45.90416" lon="5.58035">
        <ele>815</ele>
        <time>2021-09-05T14:21:00.779Z</time>
      </trkpt>
      <trkpt lat="45.90405" lon="5.58039">
        <ele>815</ele>
        <time>2021-09-05T14:21:23.781Z</time>
      </trkpt>
      <trkpt lat="45.90404" lon="5.58038">
        <ele>815</ele>
        <time>2021-09-05T14:21:28.783Z</time>
      </trkpt>
      <trkpt lat="45.90399" lon="5.58036">
        <ele>814</ele>
        <time>2021-09-05T14:21:33.779Z</time>
      </trkpt>
      <trkpt lat="45.90395" lon="5.58036">
        <ele>814</ele>
        <time>2021-09-05T14:21:38.773Z</time>
      </trkpt>
      <trkpt lat="45.90391" lon="5.58037">
        <ele>814</ele>
        <time>2021-09-05T14:21:42.779Z</time>
      </trkpt>
      <trkpt lat="45.90385" lon="5.58039">
        <ele>814</ele>
        <time>2021-09-05T14:21:47.768Z</time>
      </trkpt>
      <trkpt lat="45.90381" lon="5.58039">
        <ele>814</ele>
        <time>2021-09-05T14:21:51.781Z</time>
      </trkpt>
      <trkpt lat="45.90375" lon="5.58039">
        <ele>814</ele>
        <time>2021-09-05T14:21:56.782Z</time>
      </trkpt>
      <trkpt lat="45.90369" lon="5.58038">
        <ele>812</ele>
        <time>2021-09-05T14:22:01.781Z</time>
      </trkpt>
      <trkpt lat="45.90363" lon="5.58037">
        <ele>812</ele>
        <time>2021-09-05T14:22:06.778Z</time>
      </trkpt>
      <trkpt lat="45.90358" lon="5.58036">
        <ele>812</ele>
        <time>2021-09-05T14:22:11.782Z</time>
      </trkpt>
      <trkpt lat="45.90352" lon="5.58032">
        <ele>812</ele>
        <time>2021-09-05T14:22:16.781Z</time>
      </trkpt>
      <trkpt lat="45.90346" lon="5.58032">
        <ele>808</ele>
        <time>2021-09-05T14:22:21.782Z</time>
      </trkpt>
      <trkpt lat="45.9034" lon="5.58031">
        <ele>808</ele>
        <time>2021-09-05T14:22:26.778Z</time>
      </trkpt>
      <trkpt lat="45.90334" lon="5.58032">
        <ele>808</ele>
        <time>2021-09-05T14:22:31.779Z</time>
      </trkpt>
      <trkpt lat="45.90328" lon="5.58034">
        <ele>808</ele>
        <time>2021-09-05T14:22:36.782Z</time>
      </trkpt>
      <trkpt lat="45.90321" lon="5.58036">
        <ele>808</ele>
        <time>2021-09-05T14:22:41.780Z</time>
      </trkpt>
      <trkpt lat="45.90315" lon="5.58038">
        <ele>806</ele>
        <time>2021-09-05T14:22:46.779Z</time>
      </trkpt>
      <trkpt lat="45.9031" lon="5.5804">
        <ele>806</ele>
        <time>2021-09-05T14:22:51.784Z</time>
      </trkpt>
      <trkpt lat="45.90303" lon="5.58041">
        <ele>806</ele>
        <time>2021-09-05T14:22:56.781Z</time>
      </trkpt>
      <trkpt lat="45.90297" lon="5.58043">
        <ele>808</ele>
        <time>2021-09-05T14:23:01.784Z</time>
      </trkpt>
      <trkpt lat="45.90282" lon="5.58056">
        <ele>805</ele>
        <time>2021-09-05T14:23:21.780Z</time>
      </trkpt>
      <trkpt lat="45.9028" lon="5.58054">
        <ele>805</ele>
        <time>2021-09-05T14:23:26.778Z</time>
      </trkpt>
      <trkpt lat="45.90276" lon="5.58053">
        <ele>805</ele>
        <time>2021-09-05T14:23:31.784Z</time>
      </trkpt>
      <trkpt lat="45.9027" lon="5.58058">
        <ele>805</ele>
        <time>2021-09-05T14:23:36.778Z</time>
      </trkpt>
      <trkpt lat="45.90268" lon="5.58066">
        <ele>805</ele>
        <time>2021-09-05T14:23:40.781Z</time>
      </trkpt>
      <trkpt lat="45.90267" lon="5.58077">
        <ele>805</ele>
        <time>2021-09-05T14:23:45.779Z</time>
      </trkpt>
      <trkpt lat="45.90266" lon="5.58087">
        <ele>805</ele>
        <time>2021-09-05T14:23:50.780Z</time>
      </trkpt>
      <trkpt lat="45.90266" lon="5.58097">
        <ele>803</ele>
        <time>2021-09-05T14:23:55.779Z</time>
      </trkpt>
      <trkpt lat="45.90266" lon="5.58108">
        <ele>803</ele>
        <time>2021-09-05T14:24:00.781Z</time>
      </trkpt>
      <trkpt lat="45.90265" lon="5.58118">
        <ele>803</ele>
        <time>2021-09-05T14:24:05.783Z</time>
      </trkpt>
      <trkpt lat="45.90265" lon="5.58129">
        <ele>802</ele>
        <time>2021-09-05T14:24:10.776Z</time>
      </trkpt>
      <trkpt lat="45.90265" lon="5.58136">
        <ele>802</ele>
        <time>2021-09-05T14:24:14.780Z</time>
      </trkpt>
      <trkpt lat="45.90265" lon="5.58147">
        <ele>802</ele>
        <time>2021-09-05T14:24:19.780Z</time>
      </trkpt>
      <trkpt lat="45.90264" lon="5.58157">
        <ele>801</ele>
        <time>2021-09-05T14:24:24.780Z</time>
      </trkpt>
      <trkpt lat="45.90263" lon="5.58166">
        <ele>799</ele>
        <time>2021-09-05T14:24:29.781Z</time>
      </trkpt>
      <trkpt lat="45.90263" lon="5.58174">
        <ele>799</ele>
        <time>2021-09-05T14:24:33.791Z</time>
      </trkpt>
      <trkpt lat="45.90262" lon="5.58184">
        <ele>799</ele>
        <time>2021-09-05T14:24:38.783Z</time>
      </trkpt>
      <trkpt lat="45.90261" lon="5.58195">
        <ele>799</ele>
        <time>2021-09-05T14:24:43.781Z</time>
      </trkpt>
      <trkpt lat="45.90261" lon="5.58205">
        <ele>799</ele>
        <time>2021-09-05T14:24:48.782Z</time>
      </trkpt>
      <trkpt lat="45.9026" lon="5.58215">
        <ele>799</ele>
        <time>2021-09-05T14:24:53.784Z</time>
      </trkpt>
      <trkpt lat="45.90259" lon="5.58226">
        <ele>799</ele>
        <time>2021-09-05T14:24:58.780Z</time>
      </trkpt>
      <trkpt lat="45.90259" lon="5.58234">
        <ele>799</ele>
        <time>2021-09-05T14:25:02.780Z</time>
      </trkpt>
      <trkpt lat="45.90258" lon="5.58245">
        <ele>798</ele>
        <time>2021-09-05T14:25:07.775Z</time>
      </trkpt>
      <trkpt lat="45.90258" lon="5.58256">
        <ele>798</ele>
        <time>2021-09-05T14:25:12.787Z</time>
      </trkpt>
      <trkpt lat="45.90258" lon="5.58266">
        <ele>797</ele>
        <time>2021-09-05T14:25:17.779Z</time>
      </trkpt>
      <trkpt lat="45.90257" lon="5.58277">
        <ele>797</ele>
        <time>2021-09-05T14:25:22.780Z</time>
      </trkpt>
      <trkpt lat="45.90257" lon="5.58287">
        <ele>797</ele>
        <time>2021-09-05T14:25:27.770Z</time>
      </trkpt>
      <trkpt lat="45.90255" lon="5.58295">
        <ele>797</ele>
        <time>2021-09-05T14:25:31.784Z</time>
      </trkpt>
      <trkpt lat="45.90253" lon="5.58305">
        <ele>797</ele>
        <time>2021-09-05T14:25:36.780Z</time>
      </trkpt>
      <trkpt lat="45.90251" lon="5.58314">
        <ele>797</ele>
        <time>2021-09-05T14:25:41.779Z</time>
      </trkpt>
      <trkpt lat="45.90249" lon="5.58324">
        <ele>797</ele>
        <time>2021-09-05T14:25:46.782Z</time>
      </trkpt>
      <trkpt lat="45.90247" lon="5.58334">
        <ele>797</ele>
        <time>2021-09-05T14:25:51.778Z</time>
      </trkpt>
      <trkpt lat="45.90245" lon="5.58344">
        <ele>797</ele>
        <time>2021-09-05T14:25:56.786Z</time>
      </trkpt>
      <trkpt lat="45.90243" lon="5.58354">
        <ele>798</ele>
        <time>2021-09-05T14:26:01.782Z</time>
      </trkpt>
      <trkpt lat="45.90241" lon="5.58364">
        <ele>798</ele>
        <time>2021-09-05T14:26:06.785Z</time>
      </trkpt>
      <trkpt lat="45.9024" lon="5.58374">
        <ele>798</ele>
        <time>2021-09-05T14:26:11.781Z</time>
      </trkpt>
      <trkpt lat="45.9024" lon="5.58385">
        <ele>799</ele>
        <time>2021-09-05T14:26:16.788Z</time>
      </trkpt>
      <trkpt lat="45.9024" lon="5.58395">
        <ele>799</ele>
        <time>2021-09-05T14:26:21.804Z</time>
      </trkpt>
      <trkpt lat="45.90239" lon="5.58404">
        <ele>801</ele>
        <time>2021-09-05T14:26:25.813Z</time>
      </trkpt>
      <trkpt lat="45.90238" lon="5.58412">
        <ele>801</ele>
        <time>2021-09-05T14:26:29.832Z</time>
      </trkpt>
      <trkpt lat="45.90237" lon="5.58422">
        <ele>801</ele>
        <time>2021-09-05T14:26:34.807Z</time>
      </trkpt>
      <trkpt lat="45.90237" lon="5.5843">
        <ele>801</ele>
        <time>2021-09-05T14:26:38.833Z</time>
      </trkpt>
      <trkpt lat="45.90236" lon="5.5844">
        <ele>801</ele>
        <time>2021-09-05T14:26:43.829Z</time>
      </trkpt>
      <trkpt lat="45.90235" lon="5.58451">
        <ele>801</ele>
        <time>2021-09-05T14:26:48.805Z</time>
      </trkpt>
      <trkpt lat="45.90235" lon="5.58459">
        <ele>802</ele>
        <time>2021-09-05T14:26:52.840Z</time>
      </trkpt>
      <trkpt lat="45.90234" lon="5.58469">
        <ele>802</ele>
        <time>2021-09-05T14:26:57.815Z</time>
      </trkpt>
      <trkpt lat="45.90233" lon="5.58478">
        <ele>802</ele>
        <time>2021-09-05T14:27:02.811Z</time>
      </trkpt>
      <trkpt lat="45.90231" lon="5.58487">
        <ele>804</ele>
        <time>2021-09-05T14:27:07.782Z</time>
      </trkpt>
      <trkpt lat="45.90228" lon="5.58494">
        <ele>804</ele>
        <time>2021-09-05T14:27:11.811Z</time>
      </trkpt>
      <trkpt lat="45.90226" lon="5.58503">
        <ele>804</ele>
        <time>2021-09-05T14:27:16.813Z</time>
      </trkpt>
      <trkpt lat="45.90224" lon="5.58513">
        <ele>804</ele>
        <time>2021-09-05T14:27:21.802Z</time>
      </trkpt>
      <trkpt lat="45.90221" lon="5.58522">
        <ele>806</ele>
        <time>2021-09-05T14:27:26.812Z</time>
      </trkpt>
      <trkpt lat="45.9022" lon="5.58531">
        <ele>806</ele>
        <time>2021-09-05T14:27:31.856Z</time>
      </trkpt>
      <trkpt lat="45.90218" lon="5.58541">
        <ele>806</ele>
        <time>2021-09-05T14:27:36.806Z</time>
      </trkpt>
      <trkpt lat="45.90217" lon="5.58548">
        <ele>807</ele>
        <time>2021-09-05T14:27:40.809Z</time>
      </trkpt>
      <trkpt lat="45.90213" lon="5.58556">
        <ele>807</ele>
        <time>2021-09-05T14:27:45.804Z</time>
      </trkpt>
      <trkpt lat="45.90211" lon="5.58563">
        <ele>807</ele>
        <time>2021-09-05T14:27:49.809Z</time>
      </trkpt>
      <trkpt lat="45.90209" lon="5.5857">
        <ele>808</ele>
        <time>2021-09-05T14:27:54.794Z</time>
      </trkpt>
      <trkpt lat="45.90205" lon="5.58577">
        <ele>806</ele>
        <time>2021-09-05T14:27:59.785Z</time>
      </trkpt>
      <trkpt lat="45.90202" lon="5.58583">
        <ele>806</ele>
        <time>2021-09-05T14:28:03.847Z</time>
      </trkpt>
      <trkpt lat="45.90199" lon="5.58589">
        <ele>806</ele>
        <time>2021-09-05T14:28:07.857Z</time>
      </trkpt>
      <trkpt lat="45.90195" lon="5.58595">
        <ele>806</ele>
        <time>2021-09-05T14:28:12.792Z</time>
      </trkpt>
      <trkpt lat="45.90192" lon="5.58604">
        <ele>806</ele>
        <time>2021-09-05T14:28:17.835Z</time>
      </trkpt>
      <trkpt lat="45.9019" lon="5.58611">
        <ele>806</ele>
        <time>2021-09-05T14:28:21.840Z</time>
      </trkpt>
      <trkpt lat="45.90191" lon="5.5862">
        <ele>806</ele>
        <time>2021-09-05T14:28:26.813Z</time>
      </trkpt>
      <trkpt lat="45.90191" lon="5.5863">
        <ele>805</ele>
        <time>2021-09-05T14:28:31.873Z</time>
      </trkpt>
      <trkpt lat="45.90192" lon="5.58639">
        <ele>805</ele>
        <time>2021-09-05T14:28:36.850Z</time>
      </trkpt>
      <trkpt lat="45.90193" lon="5.58648">
        <ele>805</ele>
        <time>2021-09-05T14:28:41.837Z</time>
      </trkpt>
      <trkpt lat="45.90196" lon="5.58656">
        <ele>804</ele>
        <time>2021-09-05T14:28:46.830Z</time>
      </trkpt>
      <trkpt lat="45.90198" lon="5.58665">
        <ele>804</ele>
        <time>2021-09-05T14:28:51.806Z</time>
      </trkpt>
      <trkpt lat="45.90198" lon="5.58675">
        <ele>804</ele>
        <time>2021-09-05T14:28:56.809Z</time>
      </trkpt>
      <trkpt lat="45.90199" lon="5.58686">
        <ele>804</ele>
        <time>2021-09-05T14:29:01.798Z</time>
      </trkpt>
      <trkpt lat="45.902" lon="5.58696">
        <ele>804</ele>
        <time>2021-09-05T14:29:06.781Z</time>
      </trkpt>
      <trkpt lat="45.90202" lon="5.58702">
        <ele>804</ele>
        <time>2021-09-05T14:29:10.835Z</time>
      </trkpt>
      <trkpt lat="45.90202" lon="5.58712">
        <ele>803</ele>
        <time>2021-09-05T14:29:15.812Z</time>
      </trkpt>
      <trkpt lat="45.90202" lon="5.58719">
        <ele>803</ele>
        <time>2021-09-05T14:29:19.837Z</time>
      </trkpt>
      <trkpt lat="45.90201" lon="5.58728">
        <ele>803</ele>
        <time>2021-09-05T14:29:24.806Z</time>
      </trkpt>
      <trkpt lat="45.90199" lon="5.58741">
        <ele>803</ele>
        <time>2021-09-05T14:30:36.849Z</time>
      </trkpt>
      <trkpt lat="45.90199" lon="5.58741">
        <ele>803</ele>
        <time>2021-09-05T14:30:41.841Z</time>
      </trkpt>
      <trkpt lat="45.90198" lon="5.58741">
        <ele>803</ele>
        <time>2021-09-05T14:30:45.846Z</time>
      </trkpt>
      <trkpt lat="45.90194" lon="5.58741">
        <ele>803</ele>
        <time>2021-09-05T14:30:50.866Z</time>
      </trkpt>
      <trkpt lat="45.90188" lon="5.58744">
        <ele>803</ele>
        <time>2021-09-05T14:30:55.797Z</time>
      </trkpt>
      <trkpt lat="45.90183" lon="5.58747">
        <ele>803</ele>
        <time>2021-09-05T14:30:59.813Z</time>
      </trkpt>
      <trkpt lat="45.90178" lon="5.58752">
        <ele>800</ele>
        <time>2021-09-05T14:31:04.795Z</time>
      </trkpt>
      <trkpt lat="45.90172" lon="5.58758">
        <ele>800</ele>
        <time>2021-09-05T14:31:09.778Z</time>
      </trkpt>
      <trkpt lat="45.90168" lon="5.58763">
        <ele>800</ele>
        <time>2021-09-05T14:31:13.804Z</time>
      </trkpt>
      <trkpt lat="45.90163" lon="5.58769">
        <ele>800</ele>
        <time>2021-09-05T14:31:18.833Z</time>
      </trkpt>
      <trkpt lat="45.90157" lon="5.58774">
        <ele>800</ele>
        <time>2021-09-05T14:31:23.835Z</time>
      </trkpt>
      <trkpt lat="45.90151" lon="5.58779">
        <ele>800</ele>
        <time>2021-09-05T14:31:28.803Z</time>
      </trkpt>
      <trkpt lat="45.90146" lon="5.58784">
        <ele>800</ele>
        <time>2021-09-05T14:31:33.805Z</time>
      </trkpt>
      <trkpt lat="45.9014" lon="5.58788">
        <ele>800</ele>
        <time>2021-09-05T14:31:37.851Z</time>
      </trkpt>
      <trkpt lat="45.90135" lon="5.58794">
        <ele>801</ele>
        <time>2021-09-05T14:31:42.817Z</time>
      </trkpt>
      <trkpt lat="45.90129" lon="5.58803">
        <ele>801</ele>
        <time>2021-09-05T14:31:47.812Z</time>
      </trkpt>
      <trkpt lat="45.90124" lon="5.5881">
        <ele>801</ele>
        <time>2021-09-05T14:31:52.799Z</time>
      </trkpt>
      <trkpt lat="45.9012" lon="5.58814">
        <ele>801</ele>
        <time>2021-09-05T14:31:56.811Z</time>
      </trkpt>
      <trkpt lat="45.90114" lon="5.5882">
        <ele>801</ele>
        <time>2021-09-05T14:32:01.807Z</time>
      </trkpt>
      <trkpt lat="45.90108" lon="5.58826">
        <ele>801</ele>
        <time>2021-09-05T14:32:06.809Z</time>
      </trkpt>
      <trkpt lat="45.90104" lon="5.5883">
        <ele>801</ele>
        <time>2021-09-05T14:32:10.817Z</time>
      </trkpt>
      <trkpt lat="45.90098" lon="5.58832">
        <ele>801</ele>
        <time>2021-09-05T14:32:14.829Z</time>
      </trkpt>
      <trkpt lat="45.90094" lon="5.58831">
        <ele>801</ele>
        <time>2021-09-05T14:32:18.835Z</time>
      </trkpt>
      <trkpt lat="45.90088" lon="5.58828">
        <ele>801</ele>
        <time>2021-09-05T14:32:23.790Z</time>
      </trkpt>
      <trkpt lat="45.90083" lon="5.58822">
        <ele>801</ele>
        <time>2021-09-05T14:32:28.834Z</time>
      </trkpt>
      <trkpt lat="45.9008" lon="5.58813">
        <ele>801</ele>
        <time>2021-09-05T14:32:33.831Z</time>
      </trkpt>
      <trkpt lat="45.90078" lon="5.58807">
        <ele>801</ele>
        <time>2021-09-05T14:32:37.836Z</time>
      </trkpt>
      <trkpt lat="45.90075" lon="5.58798">
        <ele>801</ele>
        <time>2021-09-05T14:32:42.826Z</time>
      </trkpt>
      <trkpt lat="45.90071" lon="5.58789">
        <ele>799</ele>
        <time>2021-09-05T14:32:47.816Z</time>
      </trkpt>
      <trkpt lat="45.90067" lon="5.5878">
        <ele>799</ele>
        <time>2021-09-05T14:32:52.796Z</time>
      </trkpt>
      <trkpt lat="45.90065" lon="5.58773">
        <ele>799</ele>
        <time>2021-09-05T14:32:56.812Z</time>
      </trkpt>
      <trkpt lat="45.90062" lon="5.58766">
        <ele>799</ele>
        <time>2021-09-05T14:33:00.819Z</time>
      </trkpt>
      <trkpt lat="45.90059" lon="5.58758">
        <ele>797</ele>
        <time>2021-09-05T14:33:05.831Z</time>
      </trkpt>
      <trkpt lat="45.90055" lon="5.58749">
        <ele>797</ele>
        <time>2021-09-05T14:33:10.765Z</time>
      </trkpt>
      <trkpt lat="45.90053" lon="5.58741">
        <ele>797</ele>
        <time>2021-09-05T14:33:14.789Z</time>
      </trkpt>
      <trkpt lat="45.90051" lon="5.58732">
        <ele>796</ele>
        <time>2021-09-05T14:33:18.837Z</time>
      </trkpt>
      <trkpt lat="45.90047" lon="5.58723">
        <ele>796</ele>
        <time>2021-09-05T14:33:23.799Z</time>
      </trkpt>
      <trkpt lat="45.90044" lon="5.58714">
        <ele>796</ele>
        <time>2021-09-05T14:33:28.800Z</time>
      </trkpt>
      <trkpt lat="45.90041" lon="5.58707">
        <ele>798</ele>
        <time>2021-09-05T14:33:32.809Z</time>
      </trkpt>
      <trkpt lat="45.90036" lon="5.58699">
        <ele>798</ele>
        <time>2021-09-05T14:33:37.810Z</time>
      </trkpt>
      <trkpt lat="45.90032" lon="5.58692">
        <ele>798</ele>
        <time>2021-09-05T14:33:41.833Z</time>
      </trkpt>
      <trkpt lat="45.90026" lon="5.58686">
        <ele>798</ele>
        <time>2021-09-05T14:33:46.800Z</time>
      </trkpt>
      <trkpt lat="45.90021" lon="5.58683">
        <ele>798</ele>
        <time>2021-09-05T14:33:50.830Z</time>
      </trkpt>
      <trkpt lat="45.90014" lon="5.58679">
        <ele>798</ele>
        <time>2021-09-05T14:33:55.800Z</time>
      </trkpt>
      <trkpt lat="45.90007" lon="5.58676">
        <ele>799</ele>
        <time>2021-09-05T14:34:00.800Z</time>
      </trkpt>
      <trkpt lat="45.90001" lon="5.58674">
        <ele>799</ele>
        <time>2021-09-05T14:34:05.802Z</time>
      </trkpt>
      <trkpt lat="45.89994" lon="5.58672">
        <ele>799</ele>
        <time>2021-09-05T14:34:10.832Z</time>
      </trkpt>
      <trkpt lat="45.89987" lon="5.5867">
        <ele>799</ele>
        <time>2021-09-05T14:34:15.829Z</time>
      </trkpt>
      <trkpt lat="45.8998" lon="5.58667">
        <ele>798</ele>
        <time>2021-09-05T14:34:20.806Z</time>
      </trkpt>
      <trkpt lat="45.89973" lon="5.58664">
        <ele>798</ele>
        <time>2021-09-05T14:34:25.806Z</time>
      </trkpt>
      <trkpt lat="45.89966" lon="5.58662">
        <ele>798</ele>
        <time>2021-09-05T14:34:30.839Z</time>
      </trkpt>
      <trkpt lat="45.89958" lon="5.58659">
        <ele>799</ele>
        <time>2021-09-05T14:34:35.804Z</time>
      </trkpt>
      <trkpt lat="45.89952" lon="5.58658">
        <ele>799</ele>
        <time>2021-09-05T14:34:39.828Z</time>
      </trkpt>
      <trkpt lat="45.89945" lon="5.58657">
        <ele>799</ele>
        <time>2021-09-05T14:34:44.800Z</time>
      </trkpt>
      <trkpt lat="45.89939" lon="5.58656">
        <ele>799</ele>
        <time>2021-09-05T14:34:48.831Z</time>
      </trkpt>
      <trkpt lat="45.89932" lon="5.58656">
        <ele>799</ele>
        <time>2021-09-05T14:34:53.812Z</time>
      </trkpt>
      <trkpt lat="45.89926" lon="5.58656">
        <ele>803</ele>
        <time>2021-09-05T14:34:57.836Z</time>
      </trkpt>
      <trkpt lat="45.8992" lon="5.58656">
        <ele>803</ele>
        <time>2021-09-05T14:35:01.852Z</time>
      </trkpt>
      <trkpt lat="45.89913" lon="5.58655">
        <ele>803</ele>
        <time>2021-09-05T14:35:06.808Z</time>
      </trkpt>
      <trkpt lat="45.89906" lon="5.58655">
        <ele>803</ele>
        <time>2021-09-05T14:35:11.781Z</time>
      </trkpt>
      <trkpt lat="45.899" lon="5.58654">
        <ele>805</ele>
        <time>2021-09-05T14:35:15.799Z</time>
      </trkpt>
      <trkpt lat="45.89894" lon="5.58654">
        <ele>805</ele>
        <time>2021-09-05T14:35:19.856Z</time>
      </trkpt>
      <trkpt lat="45.89888" lon="5.58653">
        <ele>805</ele>
        <time>2021-09-05T14:35:24.796Z</time>
      </trkpt>
      <trkpt lat="45.89882" lon="5.58651">
        <ele>801</ele>
        <time>2021-09-05T14:35:28.805Z</time>
      </trkpt>
      <trkpt lat="45.89875" lon="5.58649">
        <ele>801</ele>
        <time>2021-09-05T14:35:33.842Z</time>
      </trkpt>
      <trkpt lat="45.89869" lon="5.58646">
        <ele>802</ele>
        <time>2021-09-05T14:35:38.835Z</time>
      </trkpt>
      <trkpt lat="45.89862" lon="5.58643">
        <ele>802</ele>
        <time>2021-09-05T14:35:43.833Z</time>
      </trkpt>
      <trkpt lat="45.89855" lon="5.5864">
        <ele>802</ele>
        <time>2021-09-05T14:35:48.806Z</time>
      </trkpt>
      <trkpt lat="45.89849" lon="5.58636">
        <ele>802</ele>
        <time>2021-09-05T14:35:53.800Z</time>
      </trkpt>
      <trkpt lat="45.89842" lon="5.58634">
        <ele>805</ele>
        <time>2021-09-05T14:35:58.805Z</time>
      </trkpt>
      <trkpt lat="45.89838" lon="5.58632">
        <ele>805</ele>
        <time>2021-09-05T14:36:02.870Z</time>
      </trkpt>
      <trkpt lat="45.89832" lon="5.58631">
        <ele>805</ele>
        <time>2021-09-05T14:36:07.802Z</time>
      </trkpt>
      <trkpt lat="45.89825" lon="5.58628">
        <ele>805</ele>
        <time>2021-09-05T14:36:12.842Z</time>
      </trkpt>
      <trkpt lat="45.89819" lon="5.58625">
        <ele>804</ele>
        <time>2021-09-05T14:36:17.827Z</time>
      </trkpt>
      <trkpt lat="45.89814" lon="5.58623">
        <ele>804</ele>
        <time>2021-09-05T14:36:21.837Z</time>
      </trkpt>
      <trkpt lat="45.89806" lon="5.58621">
        <ele>804</ele>
        <time>2021-09-05T14:36:26.846Z</time>
      </trkpt>
      <trkpt lat="45.89799" lon="5.58619">
        <ele>804</ele>
        <time>2021-09-05T14:36:31.800Z</time>
      </trkpt>
      <trkpt lat="45.89792" lon="5.58615">
        <ele>804</ele>
        <time>2021-09-05T14:36:35.810Z</time>
      </trkpt>
      <trkpt lat="45.89787" lon="5.58614">
        <ele>805</ele>
        <time>2021-09-05T14:36:39.837Z</time>
      </trkpt>
      <trkpt lat="45.89779" lon="5.58614">
        <ele>805</ele>
        <time>2021-09-05T14:36:44.816Z</time>
      </trkpt>
      <trkpt lat="45.89771" lon="5.58614">
        <ele>805</ele>
        <time>2021-09-05T14:36:49.792Z</time>
      </trkpt>
      <trkpt lat="45.89766" lon="5.58615">
        <ele>805</ele>
        <time>2021-09-05T14:36:53.836Z</time>
      </trkpt>
      <trkpt lat="45.8976" lon="5.58618">
        <ele>805</ele>
        <time>2021-09-05T14:36:58.834Z</time>
      </trkpt>
      <trkpt lat="45.89753" lon="5.5862">
        <ele>805</ele>
        <time>2021-09-05T14:37:03.831Z</time>
      </trkpt>
      <trkpt lat="45.89747" lon="5.58624">
        <ele>805</ele>
        <time>2021-09-05T14:37:08.838Z</time>
      </trkpt>
      <trkpt lat="45.8974" lon="5.58627">
        <ele>807</ele>
        <time>2021-09-05T14:37:13.807Z</time>
      </trkpt>
      <trkpt lat="45.89734" lon="5.58631">
        <ele>806</ele>
        <time>2021-09-05T14:37:18.794Z</time>
      </trkpt>
      <trkpt lat="45.89727" lon="5.58634">
        <ele>806</ele>
        <time>2021-09-05T14:37:23.829Z</time>
      </trkpt>
      <trkpt lat="45.89719" lon="5.58638">
        <ele>806</ele>
        <time>2021-09-05T14:37:28.803Z</time>
      </trkpt>
      <trkpt lat="45.89712" lon="5.58641">
        <ele>806</ele>
        <time>2021-09-05T14:37:33.813Z</time>
      </trkpt>
      <trkpt lat="45.89704" lon="5.58645">
        <ele>804</ele>
        <time>2021-09-05T14:37:38.803Z</time>
      </trkpt>
      <trkpt lat="45.89698" lon="5.58648">
        <ele>804</ele>
        <time>2021-09-05T14:37:43.858Z</time>
      </trkpt>
      <trkpt lat="45.89692" lon="5.58651">
        <ele>804</ele>
        <time>2021-09-05T14:37:48.798Z</time>
      </trkpt>
      <trkpt lat="45.89685" lon="5.58655">
        <ele>805</ele>
        <time>2021-09-05T14:37:53.836Z</time>
      </trkpt>
      <trkpt lat="45.89678" lon="5.58658">
        <ele>803</ele>
        <time>2021-09-05T14:37:58.804Z</time>
      </trkpt>
      <trkpt lat="45.89671" lon="5.58663">
        <ele>803</ele>
        <time>2021-09-05T14:38:03.796Z</time>
      </trkpt>
      <trkpt lat="45.89665" lon="5.58666">
        <ele>803</ele>
        <time>2021-09-05T14:38:07.811Z</time>
      </trkpt>
      <trkpt lat="45.89658" lon="5.5867">
        <ele>803</ele>
        <time>2021-09-05T14:38:12.820Z</time>
      </trkpt>
      <trkpt lat="45.8965" lon="5.58672">
        <ele>803</ele>
        <time>2021-09-05T14:38:17.805Z</time>
      </trkpt>
      <trkpt lat="45.89644" lon="5.58674">
        <ele>803</ele>
        <time>2021-09-05T14:38:21.827Z</time>
      </trkpt>
      <trkpt lat="45.89638" lon="5.58676">
        <ele>803</ele>
        <time>2021-09-05T14:38:25.835Z</time>
      </trkpt>
      <trkpt lat="45.89631" lon="5.5868">
        <ele>803</ele>
        <time>2021-09-05T14:38:30.805Z</time>
      </trkpt>
      <trkpt lat="45.89625" lon="5.58682">
        <ele>805</ele>
        <time>2021-09-05T14:38:34.805Z</time>
      </trkpt>
      <trkpt lat="45.8962" lon="5.58683">
        <ele>806</ele>
        <time>2021-09-05T14:38:38.838Z</time>
      </trkpt>
      <trkpt lat="45.89613" lon="5.58683">
        <ele>806</ele>
        <time>2021-09-05T14:38:43.841Z</time>
      </trkpt>
      <trkpt lat="45.89607" lon="5.58682">
        <ele>806</ele>
        <time>2021-09-05T14:38:47.856Z</time>
      </trkpt>
      <trkpt lat="45.896" lon="5.58681">
        <ele>806</ele>
        <time>2021-09-05T14:38:52.841Z</time>
      </trkpt>
      <trkpt lat="45.89593" lon="5.58678">
        <ele>806</ele>
        <time>2021-09-05T14:38:57.808Z</time>
      </trkpt>
      <trkpt lat="45.89588" lon="5.58675">
        <ele>806</ele>
        <time>2021-09-05T14:39:01.839Z</time>
      </trkpt>
      <trkpt lat="45.89583" lon="5.58671">
        <ele>806</ele>
        <time>2021-09-05T14:39:05.845Z</time>
      </trkpt>
      <trkpt lat="45.89576" lon="5.58667">
        <ele>806</ele>
        <time>2021-09-05T14:39:10.799Z</time>
      </trkpt>
      <trkpt lat="45.89571" lon="5.58663">
        <ele>806</ele>
        <time>2021-09-05T14:39:14.832Z</time>
      </trkpt>
      <trkpt lat="45.89566" lon="5.5866">
        <ele>807</ele>
        <time>2021-09-05T14:39:18.835Z</time>
      </trkpt>
      <trkpt lat="45.8956" lon="5.58654">
        <ele>807</ele>
        <time>2021-09-05T14:39:23.808Z</time>
      </trkpt>
      <trkpt lat="45.89554" lon="5.58649">
        <ele>807</ele>
        <time>2021-09-05T14:39:28.808Z</time>
      </trkpt>
      <trkpt lat="45.89549" lon="5.58642">
        <ele>807</ele>
        <time>2021-09-05T14:39:33.799Z</time>
      </trkpt>
      <trkpt lat="45.89545" lon="5.58634">
        <ele>807</ele>
        <time>2021-09-05T14:39:38.817Z</time>
      </trkpt>
      <trkpt lat="45.8954" lon="5.58625">
        <ele>807</ele>
        <time>2021-09-05T14:39:43.788Z</time>
      </trkpt>
      <trkpt lat="45.89537" lon="5.58617">
        <ele>808</ele>
        <time>2021-09-05T14:39:48.810Z</time>
      </trkpt>
      <trkpt lat="45.89531" lon="5.58613">
        <ele>808</ele>
        <time>2021-09-05T14:39:52.833Z</time>
      </trkpt>
      <trkpt lat="45.89524" lon="5.58617">
        <ele>808</ele>
        <time>2021-09-05T14:39:57.777Z</time>
      </trkpt>
      <trkpt lat="45.89518" lon="5.58621">
        <ele>808</ele>
        <time>2021-09-05T14:40:01.835Z</time>
      </trkpt>
      <trkpt lat="45.89509" lon="5.58626">
        <ele>808</ele>
        <time>2021-09-05T14:40:06.826Z</time>
      </trkpt>
      <trkpt lat="45.89488" lon="5.58637">
        <ele>808</ele>
        <time>2021-09-05T14:40:11.779Z</time>
      </trkpt>
      <trkpt lat="45.89474" lon="5.5866">
        <ele>811</ele>
        <time>2021-09-05T14:40:15.809Z</time>
      </trkpt>
      <trkpt lat="45.89456" lon="5.58688">
        <ele>814</ele>
        <time>2021-09-05T14:40:20.807Z</time>
      </trkpt>
      <trkpt lat="45.89443" lon="5.58703">
        <ele>814</ele>
        <time>2021-09-05T14:40:24.828Z</time>
      </trkpt>
      <trkpt lat="45.89428" lon="5.58723">
        <ele>815</ele>
        <time>2021-09-05T14:40:29.785Z</time>
      </trkpt>
      <trkpt lat="45.89413" lon="5.58741">
        <ele>815</ele>
        <time>2021-09-05T14:40:33.802Z</time>
      </trkpt>
      <trkpt lat="45.89398" lon="5.58758">
        <ele>816</ele>
        <time>2021-09-05T14:40:37.832Z</time>
      </trkpt>
      <trkpt lat="45.89382" lon="5.58778">
        <ele>819</ele>
        <time>2021-09-05T14:40:42.801Z</time>
      </trkpt>
      <trkpt lat="45.89368" lon="5.58797">
        <ele>822</ele>
        <time>2021-09-05T14:40:47.806Z</time>
      </trkpt>
      <trkpt lat="45.89354" lon="5.58817">
        <ele>822</ele>
        <time>2021-09-05T14:40:52.854Z</time>
      </trkpt>
      <trkpt lat="45.89344" lon="5.58831">
        <ele>820</ele>
        <time>2021-09-05T14:40:57.805Z</time>
      </trkpt>
      <trkpt lat="45.89338" lon="5.58843">
        <ele>820</ele>
        <time>2021-09-05T14:41:02.807Z</time>
      </trkpt>
      <trkpt lat="45.89335" lon="5.58854">
        <ele>820</ele>
        <time>2021-09-05T14:41:07.837Z</time>
      </trkpt>
      <trkpt lat="45.89331" lon="5.58862">
        <ele>820</ele>
        <time>2021-09-05T14:41:12.782Z</time>
      </trkpt>
      <trkpt lat="45.89327" lon="5.58868">
        <ele>820</ele>
        <time>2021-09-05T14:41:16.814Z</time>
      </trkpt>
      <trkpt lat="45.89322" lon="5.58873">
        <ele>820</ele>
        <time>2021-09-05T14:41:20.856Z</time>
      </trkpt>
      <trkpt lat="45.89317" lon="5.5888">
        <ele>821</ele>
        <time>2021-09-05T14:41:25.813Z</time>
      </trkpt>
      <trkpt lat="45.89312" lon="5.58888">
        <ele>821</ele>
        <time>2021-09-05T14:41:30.842Z</time>
      </trkpt>
      <trkpt lat="45.89307" lon="5.58894">
        <ele>821</ele>
        <time>2021-09-05T14:41:35.808Z</time>
      </trkpt>
      <trkpt lat="45.893" lon="5.58899">
        <ele>821</ele>
        <time>2021-09-05T14:41:39.813Z</time>
      </trkpt>
      <trkpt lat="45.89294" lon="5.58907">
        <ele>824</ele>
        <time>2021-09-05T14:41:44.805Z</time>
      </trkpt>
      <trkpt lat="45.89287" lon="5.58911">
        <ele>824</ele>
        <time>2021-09-05T14:41:49.831Z</time>
      </trkpt>
      <trkpt lat="45.8928" lon="5.58914">
        <ele>824</ele>
        <time>2021-09-05T14:41:54.808Z</time>
      </trkpt>
      <trkpt lat="45.89273" lon="5.58918">
        <ele>824</ele>
        <time>2021-09-05T14:41:59.826Z</time>
      </trkpt>
      <trkpt lat="45.89266" lon="5.58923">
        <ele>824</ele>
        <time>2021-09-05T14:42:04.808Z</time>
      </trkpt>
      <trkpt lat="45.89252" lon="5.58924">
        <ele>823</ele>
        <time>2021-09-05T14:42:08.809Z</time>
      </trkpt>
      <trkpt lat="45.89228" lon="5.58924">
        <ele>825</ele>
        <time>2021-09-05T14:42:13.777Z</time>
      </trkpt>
      <trkpt lat="45.89209" lon="5.58927">
        <ele>825</ele>
        <time>2021-09-05T14:42:17.807Z</time>
      </trkpt>
      <trkpt lat="45.89187" lon="5.58931">
        <ele>829</ele>
        <time>2021-09-05T14:42:22.806Z</time>
      </trkpt>
      <trkpt lat="45.89173" lon="5.58932">
        <ele>831</ele>
        <time>2021-09-05T14:42:27.826Z</time>
      </trkpt>
      <trkpt lat="45.89165" lon="5.58933">
        <ele>831</ele>
        <time>2021-09-05T14:42:32.812Z</time>
      </trkpt>
      <trkpt lat="45.89159" lon="5.58932">
        <ele>831</ele>
        <time>2021-09-05T14:42:36.836Z</time>
      </trkpt>
      <trkpt lat="45.89152" lon="5.58932">
        <ele>833</ele>
        <time>2021-09-05T14:42:41.801Z</time>
      </trkpt>
      <trkpt lat="45.89144" lon="5.58932">
        <ele>833</ele>
        <time>2021-09-05T14:42:46.834Z</time>
      </trkpt>
      <trkpt lat="45.89135" lon="5.58934">
        <ele>833</ele>
        <time>2021-09-05T14:42:51.782Z</time>
      </trkpt>
      <trkpt lat="45.89128" lon="5.58935">
        <ele>833</ele>
        <time>2021-09-05T14:42:55.799Z</time>
      </trkpt>
      <trkpt lat="45.89122" lon="5.58938">
        <ele>835</ele>
        <time>2021-09-05T14:42:59.808Z</time>
      </trkpt>
      <trkpt lat="45.89114" lon="5.58938">
        <ele>835</ele>
        <time>2021-09-05T14:43:04.800Z</time>
      </trkpt>
      <trkpt lat="45.89109" lon="5.58938">
        <ele>835</ele>
        <time>2021-09-05T14:43:08.804Z</time>
      </trkpt>
      <trkpt lat="45.89102" lon="5.58941">
        <ele>835</ele>
        <time>2021-09-05T14:43:13.781Z</time>
      </trkpt>
      <trkpt lat="45.89096" lon="5.58944">
        <ele>835</ele>
        <time>2021-09-05T14:43:17.807Z</time>
      </trkpt>
      <trkpt lat="45.89088" lon="5.58948">
        <ele>835</ele>
        <time>2021-09-05T14:43:22.809Z</time>
      </trkpt>
      <trkpt lat="45.89083" lon="5.58951">
        <ele>835</ele>
        <time>2021-09-05T14:43:26.830Z</time>
      </trkpt>
      <trkpt lat="45.89077" lon="5.58957">
        <ele>835</ele>
        <time>2021-09-05T14:43:31.806Z</time>
      </trkpt>
      <trkpt lat="45.89071" lon="5.58962">
        <ele>836</ele>
        <time>2021-09-05T14:43:36.828Z</time>
      </trkpt>
      <trkpt lat="45.89065" lon="5.58969">
        <ele>835</ele>
        <time>2021-09-05T14:43:41.803Z</time>
      </trkpt>
      <trkpt lat="45.8906" lon="5.58976">
        <ele>835</ele>
        <time>2021-09-05T14:43:46.804Z</time>
      </trkpt>
      <trkpt lat="45.89054" lon="5.58983">
        <ele>835</ele>
        <time>2021-09-05T14:43:51.789Z</time>
      </trkpt>
      <trkpt lat="45.89048" lon="5.58988">
        <ele>836</ele>
        <time>2021-09-05T14:43:55.802Z</time>
      </trkpt>
      <trkpt lat="45.89042" lon="5.58994">
        <ele>836</ele>
        <time>2021-09-05T14:44:00.792Z</time>
      </trkpt>
      <trkpt lat="45.89036" lon="5.58999">
        <ele>835</ele>
        <time>2021-09-05T14:44:05.807Z</time>
      </trkpt>
      <trkpt lat="45.8903" lon="5.59004">
        <ele>835</ele>
        <time>2021-09-05T14:44:10.802Z</time>
      </trkpt>
      <trkpt lat="45.89024" lon="5.5901">
        <ele>835</ele>
        <time>2021-09-05T14:44:15.809Z</time>
      </trkpt>
      <trkpt lat="45.89018" lon="5.59013">
        <ele>835</ele>
        <time>2021-09-05T14:44:20.765Z</time>
      </trkpt>
      <trkpt lat="45.89012" lon="5.59016">
        <ele>837</ele>
        <time>2021-09-05T14:44:24.804Z</time>
      </trkpt>
      <trkpt lat="45.89005" lon="5.59018">
        <ele>837</ele>
        <time>2021-09-05T14:44:29.798Z</time>
      </trkpt>
      <trkpt lat="45.88999" lon="5.5902">
        <ele>837</ele>
        <time>2021-09-05T14:44:34.834Z</time>
      </trkpt>
      <trkpt lat="45.88992" lon="5.59023">
        <ele>837</ele>
        <time>2021-09-05T14:44:39.794Z</time>
      </trkpt>
      <trkpt lat="45.88986" lon="5.59025">
        <ele>841</ele>
        <time>2021-09-05T14:44:43.805Z</time>
      </trkpt>
      <trkpt lat="45.8898" lon="5.59028">
        <ele>841</ele>
        <time>2021-09-05T14:44:47.813Z</time>
      </trkpt>
      <trkpt lat="45.88973" lon="5.59031">
        <ele>841</ele>
        <time>2021-09-05T14:44:52.771Z</time>
      </trkpt>
      <trkpt lat="45.88968" lon="5.59033">
        <ele>841</ele>
        <time>2021-09-05T14:44:56.845Z</time>
      </trkpt>
      <trkpt lat="45.88961" lon="5.59034">
        <ele>841</ele>
        <time>2021-09-05T14:45:01.828Z</time>
      </trkpt>
      <trkpt lat="45.88955" lon="5.59039">
        <ele>840</ele>
        <time>2021-09-05T14:45:06.799Z</time>
      </trkpt>
      <trkpt lat="45.88948" lon="5.59043">
        <ele>841</ele>
        <time>2021-09-05T14:45:11.799Z</time>
      </trkpt>
      <trkpt lat="45.88942" lon="5.59046">
        <ele>841</ele>
        <time>2021-09-05T14:45:16.779Z</time>
      </trkpt>
      <trkpt lat="45.88936" lon="5.59049">
        <ele>841</ele>
        <time>2021-09-05T14:45:20.795Z</time>
      </trkpt>
      <trkpt lat="45.88931" lon="5.59052">
        <ele>841</ele>
        <time>2021-09-05T14:45:24.817Z</time>
      </trkpt>
      <trkpt lat="45.88925" lon="5.59057">
        <ele>840</ele>
        <time>2021-09-05T14:45:29.797Z</time>
      </trkpt>
      <trkpt lat="45.8892" lon="5.59058">
        <ele>840</ele>
        <time>2021-09-05T14:45:33.796Z</time>
      </trkpt>
      <trkpt lat="45.88916" lon="5.59056">
        <ele>840</ele>
        <time>2021-09-05T14:45:37.808Z</time>
      </trkpt>
      <trkpt lat="45.88915" lon="5.59051">
        <ele>840</ele>
        <time>2021-09-05T14:45:42.809Z</time>
      </trkpt>
      <trkpt lat="45.88918" lon="5.59044">
        <ele>840</ele>
        <time>2021-09-05T14:45:47.800Z</time>
      </trkpt>
      <trkpt lat="45.88919" lon="5.59037">
        <ele>839</ele>
        <time>2021-09-05T14:45:51.807Z</time>
      </trkpt>
      <trkpt lat="45.88921" lon="5.59028">
        <ele>839</ele>
        <time>2021-09-05T14:45:56.821Z</time>
      </trkpt>
      <trkpt lat="45.88924" lon="5.59019">
        <ele>839</ele>
        <time>2021-09-05T14:46:01.807Z</time>
      </trkpt>
      <trkpt lat="45.88925" lon="5.59009">
        <ele>839</ele>
        <time>2021-09-05T14:46:06.827Z</time>
      </trkpt>
      <trkpt lat="45.88928" lon="5.59">
        <ele>839</ele>
        <time>2021-09-05T14:46:11.830Z</time>
      </trkpt>
      <trkpt lat="45.8893" lon="5.5899">
        <ele>839</ele>
        <time>2021-09-05T14:46:16.830Z</time>
      </trkpt>
      <trkpt lat="45.88932" lon="5.58983">
        <ele>840</ele>
        <time>2021-09-05T14:46:20.834Z</time>
      </trkpt>
      <trkpt lat="45.88934" lon="5.58974">
        <ele>840</ele>
        <time>2021-09-05T14:46:25.798Z</time>
      </trkpt>
      <trkpt lat="45.88936" lon="5.58966">
        <ele>840</ele>
        <time>2021-09-05T14:46:29.844Z</time>
      </trkpt>
      <trkpt lat="45.88938" lon="5.58956">
        <ele>841</ele>
        <time>2021-09-05T14:46:34.811Z</time>
      </trkpt>
      <trkpt lat="45.88941" lon="5.58949">
        <ele>841</ele>
        <time>2021-09-05T14:46:38.839Z</time>
      </trkpt>
      <trkpt lat="45.88943" lon="5.58943">
        <ele>841</ele>
        <time>2021-09-05T14:46:42.839Z</time>
      </trkpt>
      <trkpt lat="45.88948" lon="5.58938">
        <ele>841</ele>
        <time>2021-09-05T14:46:47.807Z</time>
      </trkpt>
      <trkpt lat="45.88953" lon="5.58932">
        <ele>841</ele>
        <time>2021-09-05T14:46:52.831Z</time>
      </trkpt>
      <trkpt lat="45.88958" lon="5.58925">
        <ele>842</ele>
        <time>2021-09-05T14:46:57.810Z</time>
      </trkpt>
      <trkpt lat="45.88962" lon="5.58921">
        <ele>843</ele>
        <time>2021-09-05T14:47:01.833Z</time>
      </trkpt>
      <trkpt lat="45.88968" lon="5.58916">
        <ele>843</ele>
        <time>2021-09-05T14:47:06.808Z</time>
      </trkpt>
      <trkpt lat="45.88971" lon="5.5891">
        <ele>843</ele>
        <time>2021-09-05T14:47:10.839Z</time>
      </trkpt>
      <trkpt lat="45.88973" lon="5.58902">
        <ele>844</ele>
        <time>2021-09-05T14:47:14.841Z</time>
      </trkpt>
      <trkpt lat="45.88973" lon="5.58892">
        <ele>844</ele>
        <time>2021-09-05T14:47:19.813Z</time>
      </trkpt>
      <trkpt lat="45.88973" lon="5.58883">
        <ele>844</ele>
        <time>2021-09-05T14:47:24.798Z</time>
      </trkpt>
      <trkpt lat="45.88969" lon="5.58875">
        <ele>845</ele>
        <time>2021-09-05T14:47:56.844Z</time>
      </trkpt>
      <trkpt lat="45.88968" lon="5.58881">
        <ele>844</ele>
        <time>2021-09-05T14:48:00.839Z</time>
      </trkpt>
      <trkpt lat="45.88965" lon="5.58886">
        <ele>844</ele>
        <time>2021-09-05T14:48:05.833Z</time>
      </trkpt>
      <trkpt lat="45.88961" lon="5.58889">
        <ele>844</ele>
        <time>2021-09-05T14:48:09.836Z</time>
      </trkpt>
      <trkpt lat="45.88954" lon="5.58891">
        <ele>842</ele>
        <time>2021-09-05T14:48:14.805Z</time>
      </trkpt>
      <trkpt lat="45.88949" lon="5.58894">
        <ele>842</ele>
        <time>2021-09-05T14:48:18.829Z</time>
      </trkpt>
      <trkpt lat="45.88946" lon="5.58903">
        <ele>842</ele>
        <time>2021-09-05T14:48:23.782Z</time>
      </trkpt>
      <trkpt lat="45.88944" lon="5.58911">
        <ele>842</ele>
        <time>2021-09-05T14:48:27.832Z</time>
      </trkpt>
      <trkpt lat="45.88941" lon="5.58918">
        <ele>842</ele>
        <time>2021-09-05T14:48:31.868Z</time>
      </trkpt>
      <trkpt lat="45.88938" lon="5.58926">
        <ele>842</ele>
        <time>2021-09-05T14:48:36.795Z</time>
      </trkpt>
      <trkpt lat="45.88933" lon="5.58929">
        <ele>842</ele>
        <time>2021-09-05T14:48:40.796Z</time>
      </trkpt>
      <trkpt lat="45.88927" lon="5.58933">
        <ele>840</ele>
        <time>2021-09-05T14:48:45.797Z</time>
      </trkpt>
      <trkpt lat="45.8892" lon="5.58936">
        <ele>840</ele>
        <time>2021-09-05T14:48:50.837Z</time>
      </trkpt>
      <trkpt lat="45.88914" lon="5.58936">
        <ele>840</ele>
        <time>2021-09-05T14:48:55.786Z</time>
      </trkpt>
      <trkpt lat="45.88908" lon="5.58936">
        <ele>840</ele>
        <time>2021-09-05T14:48:59.837Z</time>
      </trkpt>
      <trkpt lat="45.88901" lon="5.58934">
        <ele>839</ele>
        <time>2021-09-05T14:49:04.809Z</time>
      </trkpt>
      <trkpt lat="45.88896" lon="5.58931">
        <ele>839</ele>
        <time>2021-09-05T14:49:08.828Z</time>
      </trkpt>
      <trkpt lat="45.8889" lon="5.58929">
        <ele>838</ele>
        <time>2021-09-05T14:49:12.845Z</time>
      </trkpt>
      <trkpt lat="45.88884" lon="5.58926">
        <ele>838</ele>
        <time>2021-09-05T14:49:17.765Z</time>
      </trkpt>
      <trkpt lat="45.88878" lon="5.58923">
        <ele>838</ele>
        <time>2021-09-05T14:49:21.799Z</time>
      </trkpt>
      <trkpt lat="45.88872" lon="5.58921">
        <ele>836</ele>
        <time>2021-09-05T14:49:26.855Z</time>
      </trkpt>
      <trkpt lat="45.88865" lon="5.58917">
        <ele>836</ele>
        <time>2021-09-05T14:49:31.803Z</time>
      </trkpt>
      <trkpt lat="45.88858" lon="5.58913">
        <ele>836</ele>
        <time>2021-09-05T14:49:36.838Z</time>
      </trkpt>
      <trkpt lat="45.88853" lon="5.5891">
        <ele>836</ele>
        <time>2021-09-05T14:49:40.823Z</time>
      </trkpt>
      <trkpt lat="45.88846" lon="5.58907">
        <ele>835</ele>
        <time>2021-09-05T14:49:45.832Z</time>
      </trkpt>
      <trkpt lat="45.88838" lon="5.58906">
        <ele>835</ele>
        <time>2021-09-05T14:49:59.831Z</time>
      </trkpt>
      <trkpt lat="45.88838" lon="5.58906">
        <ele>835</ele>
        <time>2021-09-05T14:50:04.801Z</time>
      </trkpt>
      <trkpt lat="45.88837" lon="5.58906">
        <ele>835</ele>
        <time>2021-09-05T14:50:09.835Z</time>
      </trkpt>
      <trkpt lat="45.88831" lon="5.58906">
        <ele>835</ele>
        <time>2021-09-05T14:50:14.801Z</time>
      </trkpt>
      <trkpt lat="45.88825" lon="5.58906">
        <ele>835</ele>
        <time>2021-09-05T14:50:19.777Z</time>
      </trkpt>
      <trkpt lat="45.8882" lon="5.58907">
        <ele>835</ele>
        <time>2021-09-05T14:50:23.801Z</time>
      </trkpt>
      <trkpt lat="45.88814" lon="5.58906">
        <ele>834</ele>
        <time>2021-09-05T14:50:28.840Z</time>
      </trkpt>
      <trkpt lat="45.88812" lon="5.58907">
        <ele>834</ele>
        <time>2021-09-05T14:50:33.809Z</time>
      </trkpt>
      <trkpt lat="45.88807" lon="5.5891">
        <ele>834</ele>
        <time>2021-09-05T14:50:37.841Z</time>
      </trkpt>
      <trkpt lat="45.88801" lon="5.5891">
        <ele>834</ele>
        <time>2021-09-05T14:50:42.817Z</time>
      </trkpt>
      <trkpt lat="45.88794" lon="5.58909">
        <ele>834</ele>
        <time>2021-09-05T14:50:47.808Z</time>
      </trkpt>
      <trkpt lat="45.8879" lon="5.58909">
        <ele>835</ele>
        <time>2021-09-05T14:50:51.810Z</time>
      </trkpt>
      <trkpt lat="45.88785" lon="5.58912">
        <ele>835</ele>
        <time>2021-09-05T14:50:55.841Z</time>
      </trkpt>
      <trkpt lat="45.88779" lon="5.58912">
        <ele>835</ele>
        <time>2021-09-05T14:51:00.849Z</time>
      </trkpt>
      <trkpt lat="45.88772" lon="5.58912">
        <ele>835</ele>
        <time>2021-09-05T14:51:05.803Z</time>
      </trkpt>
      <trkpt lat="45.88766" lon="5.58912">
        <ele>835</ele>
        <time>2021-09-05T14:51:10.796Z</time>
      </trkpt>
      <trkpt lat="45.8876" lon="5.58911">
        <ele>834</ele>
        <time>2021-09-05T14:51:15.839Z</time>
      </trkpt>
      <trkpt lat="45.88753" lon="5.5891">
        <ele>834</ele>
        <time>2021-09-05T14:51:20.777Z</time>
      </trkpt>
      <trkpt lat="45.88748" lon="5.58907">
        <ele>834</ele>
        <time>2021-09-05T14:51:24.794Z</time>
      </trkpt>
      <trkpt lat="45.88743" lon="5.58902">
        <ele>836</ele>
        <time>2021-09-05T14:51:29.828Z</time>
      </trkpt>
      <trkpt lat="45.88739" lon="5.58896">
        <ele>836</ele>
        <time>2021-09-05T14:51:33.850Z</time>
      </trkpt>
      <trkpt lat="45.88736" lon="5.58888">
        <ele>833</ele>
        <time>2021-09-05T14:51:38.828Z</time>
      </trkpt>
      <trkpt lat="45.88733" lon="5.58882">
        <ele>833</ele>
        <time>2021-09-05T14:51:42.836Z</time>
      </trkpt>
      <trkpt lat="45.88731" lon="5.58875">
        <ele>833</ele>
        <time>2021-09-05T14:51:46.849Z</time>
      </trkpt>
      <trkpt lat="45.88728" lon="5.58866">
        <ele>833</ele>
        <time>2021-09-05T14:51:51.832Z</time>
      </trkpt>
      <trkpt lat="45.88726" lon="5.58858">
        <ele>833</ele>
        <time>2021-09-05T14:51:55.834Z</time>
      </trkpt>
      <trkpt lat="45.88724" lon="5.5885">
        <ele>833</ele>
        <time>2021-09-05T14:52:00.798Z</time>
      </trkpt>
      <trkpt lat="45.88722" lon="5.58841">
        <ele>832</ele>
        <time>2021-09-05T14:52:05.802Z</time>
      </trkpt>
      <trkpt lat="45.8872" lon="5.58834">
        <ele>832</ele>
        <time>2021-09-05T14:52:09.806Z</time>
      </trkpt>
      <trkpt lat="45.88717" lon="5.58825">
        <ele>832</ele>
        <time>2021-09-05T14:52:14.796Z</time>
      </trkpt>
      <trkpt lat="45.88714" lon="5.58818">
        <ele>831</ele>
        <time>2021-09-05T14:52:19.788Z</time>
      </trkpt>
      <trkpt lat="45.8871" lon="5.58811">
        <ele>831</ele>
        <time>2021-09-05T14:52:24.807Z</time>
      </trkpt>
      <trkpt lat="45.88709" lon="5.58805">
        <ele>831</ele>
        <time>2021-09-05T14:52:28.834Z</time>
      </trkpt>
    </trkseg>
  </trk>
</gpx>